<?xml version='1.0' encoding='UTF-8'?><gpx version="1.1" creator="JPX - https://github.com/jenetics/jpx" xmlns="http://www.topografix.com/GPX/1/1"><trk><trkseg><trkpt lat="42.206908508528414" lon="14.029242609437787"><ele>605.75</ele><time>2026-04-17T14:07:39Z</time></trkpt><trkpt lat="42.206941356312534" lon="14.02910240404131"><ele>604.5</ele><time>2026-04-17T14:07:40Z</time></trkpt><trkpt lat="42.206935239480416" lon="14.028924518590937"><ele>603.25</ele><time>2026-04-17T14:07:41Z</time></trkpt><trkpt lat="42.20690762336473" lon="14.028705465229342"><ele>602.0</ele><time>2026-04-17T14:07:42Z</time></trkpt><trkpt lat="42.20689960315697" lon="14.028466512984803"><ele>600.3333333333333</ele><time>2026-04-17T14:07:43Z</time></trkpt><trkpt lat="42.206876734609764" lon="14.028207609466628"><ele>598.6666666666666</ele><time>2026-04-17T14:07:44Z</time></trkpt><trkpt lat="42.20683982279802" lon="14.027979536732538"><ele>597.0</ele><time>2026-04-17T14:07:45Z</time></trkpt><trkpt lat="42.20683532829161" lon="14.02775255071975"><ele>597.0</ele><time>2026-04-17T14:07:46Z</time></trkpt><trkpt lat="42.20681517443002" lon="14.027535054814528"><ele>597.0</ele><time>2026-04-17T14:07:47Z</time></trkpt><trkpt lat="42.20679563000441" lon="14.027324135488495"><ele>597.0</ele><time>2026-04-17T14:07:48Z</time></trkpt><trkpt lat="42.20677869521371" lon="14.02712606690771"><ele>596.25</ele><time>2026-04-17T14:07:49Z</time></trkpt><trkpt lat="42.20676558399113" lon="14.026935830393661"><ele>595.5</ele><time>2026-04-17T14:07:50Z</time></trkpt><trkpt lat="42.206760602741035" lon="14.026747594808997"><ele>594.75</ele><time>2026-04-17T14:07:51Z</time></trkpt><trkpt lat="42.206769507891714" lon="14.026547659435469"><ele>594.0</ele><time>2026-04-17T14:07:52Z</time></trkpt><trkpt lat="42.206805702582" lon="14.026350692482184"><ele>594.0</ele><time>2026-04-17T14:07:53Z</time></trkpt><trkpt lat="42.20687138311685" lon="14.026146843566702"><ele>594.0</ele><time>2026-04-17T14:07:54Z</time></trkpt><trkpt lat="42.20695896033523" lon="14.025913265454548"><ele>594.0</ele><time>2026-04-17T14:07:55Z</time></trkpt><trkpt lat="42.207047875456986" lon="14.025680295568204"><ele>594.0</ele><time>2026-04-17T14:07:56Z</time></trkpt><trkpt lat="42.207119109818116" lon="14.025501807390881"><ele>594.0</ele><time>2026-04-17T14:07:57Z</time></trkpt><trkpt lat="42.20718275827951" lon="14.025377879330533"><ele>594.0</ele><time>2026-04-17T14:07:58Z</time></trkpt><trkpt lat="42.20726551938645" lon="14.02526188130756"><ele>594.0</ele><time>2026-04-17T14:07:59Z</time></trkpt><trkpt lat="42.2073681712047" lon="14.025172702720342"><ele>588.3333333333334</ele><time>2026-04-17T14:08:00Z</time></trkpt><trkpt lat="42.20749455042142" lon="14.025111094078392"><ele>582.6666666666667</ele><time>2026-04-17T14:08:01Z</time></trkpt><trkpt lat="42.2076407563396" lon="14.025068838152414"><ele>577.0</ele><time>2026-04-17T14:08:02Z</time></trkpt><trkpt lat="42.207824882136805" lon="14.02505911768641"><ele>577.0</ele><time>2026-04-17T14:08:03Z</time></trkpt><trkpt lat="42.20802860037234" lon="14.025036758408511"><ele>577.0</ele><time>2026-04-17T14:08:04Z</time></trkpt><trkpt lat="42.20824293633823" lon="14.025033171406813"><ele>577.0</ele><time>2026-04-17T14:08:05Z</time></trkpt><trkpt lat="42.208458835201384" lon="14.025027263088857"><ele>574.3333333333334</ele><time>2026-04-17T14:08:06Z</time></trkpt><trkpt lat="42.20865874337103" lon="14.025018144918343"><ele>571.6666666666666</ele><time>2026-04-17T14:08:07Z</time></trkpt><trkpt lat="42.20882515726774" lon="14.0250081030368"><ele>569.0</ele><time>2026-04-17T14:08:08Z</time></trkpt><trkpt lat="42.20896927304235" lon="14.024992822979977"><ele>566.0</ele><time>2026-04-17T14:08:09Z</time></trkpt><trkpt lat="42.209118012623904" lon="14.024980754801378"><ele>563.0</ele><time>2026-04-17T14:08:10Z</time></trkpt><trkpt lat="42.2092718085835" lon="14.024936763659259"><ele>560.0</ele><time>2026-04-17T14:08:11Z</time></trkpt><trkpt lat="42.209437874383525" lon="14.024839484366463"><ele>558.5</ele><time>2026-04-17T14:08:12Z</time></trkpt><trkpt lat="42.20958810313404" lon="14.024740569639766"><ele>557.0</ele><time>2026-04-17T14:08:13Z</time></trkpt><trkpt lat="42.209717473054035" lon="14.024688971945325"><ele>555.5</ele><time>2026-04-17T14:08:14Z</time></trkpt><trkpt lat="42.20982870614165" lon="14.024641281331595"><ele>554.0</ele><time>2026-04-17T14:08:15Z</time></trkpt><trkpt lat="42.20993745322267" lon="14.024613214871534"><ele>548.0</ele><time>2026-04-17T14:08:16Z</time></trkpt><trkpt lat="42.2100423576242" lon="14.02458481731461"><ele>542.0</ele><time>2026-04-17T14:08:17Z</time></trkpt><trkpt lat="42.210148948065736" lon="14.02461936932739"><ele>536.0</ele><time>2026-04-17T14:08:18Z</time></trkpt><trkpt lat="42.210274956032954" lon="14.024665430266925"><ele>530.0</ele><time>2026-04-17T14:08:19Z</time></trkpt><trkpt lat="42.21038459699931" lon="14.024722727192742"><ele>530.0</ele><time>2026-04-17T14:08:20Z</time></trkpt><trkpt lat="42.21049700313953" lon="14.02480407892931"><ele>530.0</ele><time>2026-04-17T14:08:21Z</time></trkpt><trkpt lat="42.210599934311546" lon="14.024890157959"><ele>530.0</ele><time>2026-04-17T14:08:22Z</time></trkpt><trkpt lat="42.21070365951704" lon="14.024947123201187"><ele>530.0</ele><time>2026-04-17T14:08:23Z</time></trkpt><trkpt lat="42.21079200673644" lon="14.025010542907522"><ele>532.4</ele><time>2026-04-17T14:08:24Z</time></trkpt><trkpt lat="42.21087877584531" lon="14.0250693905953"><ele>534.8</ele><time>2026-04-17T14:08:25Z</time></trkpt><trkpt lat="42.21096289252563" lon="14.025120669896054"><ele>537.2</ele><time>2026-04-17T14:08:26Z</time></trkpt><trkpt lat="42.21104547405773" lon="14.025176893805119"><ele>539.6</ele><time>2026-04-17T14:08:27Z</time></trkpt><trkpt lat="42.21111517045718" lon="14.025231240705807"><ele>542.0</ele><time>2026-04-17T14:08:28Z</time></trkpt><trkpt lat="42.21119016124115" lon="14.025306706153318"><ele>542.0</ele><time>2026-04-17T14:08:30Z</time></trkpt><trkpt lat="42.21122730849344" lon="14.025428798203363"><ele>542.0</ele><time>2026-04-17T14:08:33Z</time></trkpt><trkpt lat="42.211298813613524" lon="14.025484544466577"><ele>542.0</ele><time>2026-04-17T14:08:35Z</time></trkpt><trkpt lat="42.21143000492107" lon="14.025452863944952"><ele>542.0</ele><time>2026-04-17T14:08:37Z</time></trkpt><trkpt lat="42.211492373287264" lon="14.025413158263076"><ele>542.0</ele><time>2026-04-17T14:08:38Z</time></trkpt><trkpt lat="42.211558207449514" lon="14.025376896613373"><ele>542.4</ele><time>2026-04-17T14:08:39Z</time></trkpt><trkpt lat="42.21162912550387" lon="14.025343837374812"><ele>542.8000000000001</ele><time>2026-04-17T14:08:40Z</time></trkpt><trkpt lat="42.21171729519516" lon="14.025306710596425"><ele>543.2</ele><time>2026-04-17T14:08:41Z</time></trkpt><trkpt lat="42.21179689486188" lon="14.025257726370171"><ele>543.6</ele><time>2026-04-17T14:08:42Z</time></trkpt><trkpt lat="42.21189015971988" lon="14.025213038768474"><ele>544.0</ele><time>2026-04-17T14:08:43Z</time></trkpt><trkpt lat="42.211978874092644" lon="14.025162656268792"><ele>544.0</ele><time>2026-04-17T14:08:44Z</time></trkpt><trkpt lat="42.2120714857938" lon="14.02511023280275"><ele>544.0</ele><time>2026-04-17T14:08:45Z</time></trkpt><trkpt lat="42.21216148740452" lon="14.025056416358792"><ele>544.0</ele><time>2026-04-17T14:08:46Z</time></trkpt><trkpt lat="42.212260353300124" lon="14.025027274711354"><ele>544.0</ele><time>2026-04-17T14:08:47Z</time></trkpt><trkpt lat="42.21234458617014" lon="14.024956638132965"><ele>544.0</ele><time>2026-04-17T14:08:48Z</time></trkpt><trkpt lat="42.21244038279619" lon="14.024908344007203"><ele>542.4</ele><time>2026-04-17T14:08:49Z</time></trkpt><trkpt lat="42.2125375131444" lon="14.024856032680507"><ele>540.8</ele><time>2026-04-17T14:08:50Z</time></trkpt><trkpt lat="42.212635461445714" lon="14.024801558723695"><ele>539.2</ele><time>2026-04-17T14:08:51Z</time></trkpt><trkpt lat="42.212735932782884" lon="14.02474344821015"><ele>537.6</ele><time>2026-04-17T14:08:52Z</time></trkpt><trkpt lat="42.21283831556807" lon="14.024689511752644"><ele>536.0</ele><time>2026-04-17T14:08:53Z</time></trkpt><trkpt lat="42.21294099045305" lon="14.024635734074005"><ele>536.0</ele><time>2026-04-17T14:08:54Z</time></trkpt><trkpt lat="42.21304903387207" lon="14.024579521495053"><ele>536.0</ele><time>2026-04-17T14:08:55Z</time></trkpt><trkpt lat="42.21315626872357" lon="14.024523035428736"><ele>536.0</ele><time>2026-04-17T14:08:56Z</time></trkpt><trkpt lat="42.21326663536259" lon="14.024483381374532"><ele>536.0</ele><time>2026-04-17T14:08:57Z</time></trkpt><trkpt lat="42.213376061223904" lon="14.024424474997875"><ele>535.2</ele><time>2026-04-17T14:08:58Z</time></trkpt><trkpt lat="42.21347903840631" lon="14.024347767425432"><ele>534.4000000000001</ele><time>2026-04-17T14:08:59Z</time></trkpt><trkpt lat="42.21358233763412" lon="14.02429389319528"><ele>533.6</ele><time>2026-04-17T14:09:00Z</time></trkpt><trkpt lat="42.21367327609943" lon="14.024245470088937"><ele>532.8000000000001</ele><time>2026-04-17T14:09:01Z</time></trkpt><trkpt lat="42.213748930948796" lon="14.024205060486015"><ele>532.0</ele><time>2026-04-17T14:09:02Z</time></trkpt><trkpt lat="42.213840127189734" lon="14.024163457383453"><ele>529.0</ele><time>2026-04-17T14:09:04Z</time></trkpt><trkpt lat="42.213854253669886" lon="14.023985334119514"><ele>526.0</ele><time>2026-04-17T14:09:06Z</time></trkpt><trkpt lat="42.21380987800715" lon="14.023903016173598"><ele>523.0</ele><time>2026-04-17T14:09:07Z</time></trkpt><trkpt lat="42.21378816495258" lon="14.023810267172426"><ele>520.0</ele><time>2026-04-17T14:09:08Z</time></trkpt><trkpt lat="42.21371901656632" lon="14.023740231800417"><ele>517.0</ele><time>2026-04-17T14:09:09Z</time></trkpt><trkpt lat="42.213655144214755" lon="14.023675235596142"><ele>514.0</ele><time>2026-04-17T14:09:10Z</time></trkpt><trkpt lat="42.21356910628833" lon="14.023632609276667"><ele>514.0</ele><time>2026-04-17T14:09:12Z</time></trkpt><trkpt lat="42.213500119357164" lon="14.023593869862333"><ele>514.0</ele><time>2026-04-17T14:09:15Z</time></trkpt><trkpt lat="42.21338696269259" lon="14.023530715503986"><ele>514.0</ele><time>2026-04-17T14:10:38Z</time></trkpt><trkpt lat="42.21330662375681" lon="14.023485789070909"><ele>514.0</ele><time>2026-04-17T14:10:40Z</time></trkpt><trkpt lat="42.21321400953781" lon="14.023418140869527"><ele>514.0</ele><time>2026-04-17T14:10:58Z</time></trkpt><trkpt lat="42.21309927440518" lon="14.023318262360474"><ele>509.0</ele><time>2026-04-17T14:11:00Z</time></trkpt><trkpt lat="42.213028574062264" lon="14.023257048399788"><ele>504.0</ele><time>2026-04-17T14:11:01Z</time></trkpt><trkpt lat="42.21295949654907" lon="14.023192861174481"><ele>499.0</ele><time>2026-04-17T14:11:02Z</time></trkpt><trkpt lat="42.21288532160018" lon="14.023120105737899"><ele>494.0</ele><time>2026-04-17T14:11:03Z</time></trkpt><trkpt lat="42.21280555774336" lon="14.023057378116064"><ele>489.0</ele><time>2026-04-17T14:11:04Z</time></trkpt><trkpt lat="42.21267747481793" lon="14.023022383288133"><ele>489.0</ele><time>2026-04-17T14:11:06Z</time></trkpt><trkpt lat="42.212575816931334" lon="14.02303016175968"><ele>489.0</ele><time>2026-04-17T14:11:07Z</time></trkpt><trkpt lat="42.21247488056642" lon="14.02306570775576"><ele>489.0</ele><time>2026-04-17T14:11:08Z</time></trkpt><trkpt lat="42.212398199804525" lon="14.02316945812542"><ele>489.0</ele><time>2026-04-17T14:11:09Z</time></trkpt><trkpt lat="42.212316788606124" lon="14.023234842786255"><ele>489.0</ele><time>2026-04-17T14:11:10Z</time></trkpt><trkpt lat="42.21224124735455" lon="14.02332504744228"><ele>489.79999999999995</ele><time>2026-04-17T14:11:11Z</time></trkpt><trkpt lat="42.21216145543921" lon="14.023408959147282"><ele>490.59999999999997</ele><time>2026-04-17T14:11:12Z</time></trkpt><trkpt lat="42.212087914313265" lon="14.02348927580587"><ele>491.4</ele><time>2026-04-17T14:11:13Z</time></trkpt><trkpt lat="42.2120105748072" lon="14.02355701273924"><ele>492.2</ele><time>2026-04-17T14:11:14Z</time></trkpt><trkpt lat="42.2119245438903" lon="14.023609814618432"><ele>493.0</ele><time>2026-04-17T14:11:15Z</time></trkpt><trkpt lat="42.21184411951636" lon="14.023662782884163"><ele>493.00000000000006</ele><time>2026-04-17T14:11:16Z</time></trkpt><trkpt lat="42.21177295285374" lon="14.023712749090606"><ele>493.0</ele><time>2026-04-17T14:11:17Z</time></trkpt><trkpt lat="42.21169554651494" lon="14.023761167863135"><ele>493.0</ele><time>2026-04-17T14:11:18Z</time></trkpt><trkpt lat="42.211617513452595" lon="14.023815776068963"><ele>493.0</ele><time>2026-04-17T14:11:19Z</time></trkpt><trkpt lat="42.21153171240004" lon="14.023856684327109"><ele>493.00000000000006</ele><time>2026-04-17T14:11:20Z</time></trkpt><trkpt lat="42.21143154276276" lon="14.02387606893477"><ele>493.0</ele><time>2026-04-17T14:11:21Z</time></trkpt><trkpt lat="42.21133116967338" lon="14.023904929923878"><ele>493.83333333333337</ele><time>2026-04-17T14:11:22Z</time></trkpt><trkpt lat="42.21124464501178" lon="14.023928313451345"><ele>494.6666666666667</ele><time>2026-04-17T14:11:23Z</time></trkpt><trkpt lat="42.21116731247161" lon="14.023922590927842"><ele>495.5</ele><time>2026-04-17T14:11:24Z</time></trkpt><trkpt lat="42.21109940588992" lon="14.023929662193853"><ele>496.33333333333337</ele><time>2026-04-17T14:11:25Z</time></trkpt><trkpt lat="42.21099845940714" lon="14.023912272671526"><ele>497.1666666666667</ele><time>2026-04-17T14:11:27Z</time></trkpt><trkpt lat="42.21097138282003" lon="14.023808738573434"><ele>498.0</ele><time>2026-04-17T14:11:28Z</time></trkpt><trkpt lat="42.21090908035274" lon="14.023717203460064"><ele>498.0</ele><time>2026-04-17T14:11:29Z</time></trkpt><trkpt lat="42.21086164438369" lon="14.023594570311264"><ele>498.0</ele><time>2026-04-17T14:11:30Z</time></trkpt><trkpt lat="42.21081748580725" lon="14.0234771155575"><ele>498.0</ele><time>2026-04-17T14:11:31Z</time></trkpt><trkpt lat="42.21077167655424" lon="14.023375561237236"><ele>498.0</ele><time>2026-04-17T14:11:32Z</time></trkpt><trkpt lat="42.21073845459623" lon="14.023281506978488"><ele>498.0</ele><time>2026-04-17T14:11:33Z</time></trkpt><trkpt lat="42.21072469219033" lon="14.023190315746698"><ele>498.0</ele><time>2026-04-17T14:11:34Z</time></trkpt><trkpt lat="42.21079849176935" lon="14.02310591880495"><ele>501.2</ele><time>2026-04-17T14:11:35Z</time></trkpt><trkpt lat="42.21082736835202" lon="14.022997821874812"><ele>504.4</ele><time>2026-04-17T14:11:36Z</time></trkpt><trkpt lat="42.21086132072631" lon="14.022873064613291"><ele>507.59999999999997</ele><time>2026-04-17T14:11:37Z</time></trkpt><trkpt lat="42.21089781494094" lon="14.02274032594149"><ele>510.79999999999995</ele><time>2026-04-17T14:11:38Z</time></trkpt><trkpt lat="42.21093231577625" lon="14.022624122186413"><ele>514.0</ele><time>2026-04-17T14:11:39Z</time></trkpt><trkpt lat="42.210970856752574" lon="14.02252720069754"><ele>518.8</ele><time>2026-04-17T14:11:40Z</time></trkpt><trkpt lat="42.21102120710628" lon="14.022448442022194"><ele>523.5999999999999</ele><time>2026-04-17T14:11:41Z</time></trkpt><trkpt lat="42.211093237662105" lon="14.022435717139976"><ele>528.4</ele><time>2026-04-17T14:11:42Z</time></trkpt><trkpt lat="42.211189279342086" lon="14.02240717536021"><ele>533.1999999999999</ele><time>2026-04-17T14:11:43Z</time></trkpt><trkpt lat="42.21128861733499" lon="14.022347920074976"><ele>538.0</ele><time>2026-04-17T14:11:44Z</time></trkpt><trkpt lat="42.21137233353026" lon="14.022285107235342"><ele>538.0</ele><time>2026-04-17T14:11:45Z</time></trkpt><trkpt lat="42.21144516533246" lon="14.022218064747149"><ele>538.0</ele><time>2026-04-17T14:11:46Z</time></trkpt><trkpt lat="42.21152450858515" lon="14.022138015670977"><ele>538.0</ele><time>2026-04-17T14:11:47Z</time></trkpt><trkpt lat="42.211604492550464" lon="14.02205776771389"><ele>538.0</ele><time>2026-04-17T14:11:48Z</time></trkpt><trkpt lat="42.21168557301172" lon="14.02197556071217"><ele>538.0</ele><time>2026-04-17T14:11:49Z</time></trkpt><trkpt lat="42.211765513425775" lon="14.021894334302328"><ele>535.8</ele><time>2026-04-17T14:11:50Z</time></trkpt><trkpt lat="42.211835593004295" lon="14.021826465568392"><ele>533.5999999999999</ele><time>2026-04-17T14:11:51Z</time></trkpt><trkpt lat="42.21192256675071" lon="14.021758943982826"><ele>531.4000000000001</ele><time>2026-04-17T14:11:52Z</time></trkpt><trkpt lat="42.2120145952051" lon="14.02172655900578"><ele>529.2</ele><time>2026-04-17T14:11:53Z</time></trkpt><trkpt lat="42.21211457266802" lon="14.02173045924902"><ele>527.0</ele><time>2026-04-17T14:11:54Z</time></trkpt><trkpt lat="42.2122103991744" lon="14.021737244746433"><ele>527.0</ele><time>2026-04-17T14:11:55Z</time></trkpt><trkpt lat="42.21231207900213" lon="14.021728346561112"><ele>527.0</ele><time>2026-04-17T14:11:56Z</time></trkpt><trkpt lat="42.2124138160591" lon="14.021750502571425"><ele>527.0</ele><time>2026-04-17T14:11:57Z</time></trkpt><trkpt lat="42.21251414684881" lon="14.021744086967187"><ele>527.0</ele><time>2026-04-17T14:11:58Z</time></trkpt><trkpt lat="42.21260122431921" lon="14.021687015706991"><ele>527.0</ele><time>2026-04-17T14:11:59Z</time></trkpt><trkpt lat="42.21267564981784" lon="14.02164407588291"><ele>526.0</ele><time>2026-04-17T14:12:00Z</time></trkpt><trkpt lat="42.21274984451283" lon="14.021624466260954"><ele>525.0</ele><time>2026-04-17T14:12:01Z</time></trkpt><trkpt lat="42.21281681513816" lon="14.021675295703602"><ele>524.0</ele><time>2026-04-17T14:12:02Z</time></trkpt><trkpt lat="42.21287779616528" lon="14.021744110091014"><ele>523.0</ele><time>2026-04-17T14:12:03Z</time></trkpt><trkpt lat="42.21294916964677" lon="14.021798157421758"><ele>522.0</ele><time>2026-04-17T14:12:04Z</time></trkpt><trkpt lat="42.213008288015324" lon="14.02186807324877"><ele>521.0</ele><time>2026-04-17T14:12:05Z</time></trkpt><trkpt lat="42.21308445410667" lon="14.021908194263501"><ele>522.0</ele><time>2026-04-17T14:12:06Z</time></trkpt><trkpt lat="42.21317373305144" lon="14.021932015340658"><ele>523.0</ele><time>2026-04-17T14:12:07Z</time></trkpt><trkpt lat="42.21326811113746" lon="14.021913263578195"><ele>524.0</ele><time>2026-04-17T14:12:08Z</time></trkpt><trkpt lat="42.21336798771319" lon="14.021863708324412"><ele>525.0</ele><time>2026-04-17T14:12:09Z</time></trkpt><trkpt lat="42.213481075480146" lon="14.021845427223669"><ele>526.0</ele><time>2026-04-17T14:12:10Z</time></trkpt><trkpt lat="42.213603782115285" lon="14.02184310255603"><ele>526.0</ele><time>2026-04-17T14:12:11Z</time></trkpt><trkpt lat="42.21372097206662" lon="14.02183272976241"><ele>526.0</ele><time>2026-04-17T14:12:12Z</time></trkpt><trkpt lat="42.213830371461405" lon="14.021837929135476"><ele>526.0</ele><time>2026-04-17T14:12:13Z</time></trkpt><trkpt lat="42.213949536806105" lon="14.02180702130009"><ele>526.0</ele><time>2026-04-17T14:12:14Z</time></trkpt><trkpt lat="42.21408005042188" lon="14.02174943175564"><ele>524.5</ele><time>2026-04-17T14:12:15Z</time></trkpt><trkpt lat="42.21421164122825" lon="14.021683698684814"><ele>523.0</ele><time>2026-04-17T14:12:16Z</time></trkpt><trkpt lat="42.214344705200546" lon="14.021623360832727"><ele>521.5</ele><time>2026-04-17T14:12:17Z</time></trkpt><trkpt lat="42.214486157875726" lon="14.021560782208034"><ele>520.0</ele><time>2026-04-17T14:12:18Z</time></trkpt><trkpt lat="42.214636786535806" lon="14.021496727581127"><ele>524.75</ele><time>2026-04-17T14:12:19Z</time></trkpt><trkpt lat="42.214773594758974" lon="14.021441757406661"><ele>529.5</ele><time>2026-04-17T14:12:20Z</time></trkpt><trkpt lat="42.214898661572015" lon="14.021402684507464"><ele>534.25</ele><time>2026-04-17T14:12:21Z</time></trkpt><trkpt lat="42.215020813000464" lon="14.021368931229224"><ele>539.0</ele><time>2026-04-17T14:12:22Z</time></trkpt><trkpt lat="42.21514435530931" lon="14.021341345833152"><ele>539.0</ele><time>2026-04-17T14:12:23Z</time></trkpt><trkpt lat="42.215275648776746" lon="14.021319246470975"><ele>539.0</ele><time>2026-04-17T14:12:24Z</time></trkpt><trkpt lat="42.21541185484995" lon="14.021293939342682"><ele>539.0</ele><time>2026-04-17T14:12:25Z</time></trkpt><trkpt lat="42.215550021911454" lon="14.021257874842043"><ele>539.0</ele><time>2026-04-17T14:12:26Z</time></trkpt><trkpt lat="42.21569161921376" lon="14.02120149438222"><ele>537.5</ele><time>2026-04-17T14:12:27Z</time></trkpt><trkpt lat="42.215834663392435" lon="14.021137144162322"><ele>536.0</ele><time>2026-04-17T14:12:28Z</time></trkpt><trkpt lat="42.215973361246135" lon="14.02106537798084"><ele>534.5</ele><time>2026-04-17T14:12:29Z</time></trkpt><trkpt lat="42.21609612786874" lon="14.020993407392588"><ele>533.0</ele><time>2026-04-17T14:12:30Z</time></trkpt><trkpt lat="42.21621242922947" lon="14.020927929852036"><ele>533.0</ele><time>2026-04-17T14:12:31Z</time></trkpt><trkpt lat="42.21631630505927" lon="14.020854398723529"><ele>533.0</ele><time>2026-04-17T14:12:32Z</time></trkpt><trkpt lat="42.216398307983795" lon="14.020774063253704"><ele>533.0</ele><time>2026-04-17T14:12:33Z</time></trkpt><trkpt lat="42.21644903650243" lon="14.020688833687164"><ele>533.0</ele><time>2026-04-17T14:12:34Z</time></trkpt><trkpt lat="42.21649608403141" lon="14.020617134224196"><ele>533.0</ele><time>2026-04-17T14:12:35Z</time></trkpt><trkpt lat="42.2164930304908" lon="14.020501095945546"><ele>533.75</ele><time>2026-04-17T14:12:36Z</time></trkpt><trkpt lat="42.21638557318041" lon="14.020331099180618"><ele>534.5</ele><time>2026-04-17T14:12:38Z</time></trkpt><trkpt lat="42.216308181252614" lon="14.020251199864212"><ele>535.25</ele><time>2026-04-17T14:12:39Z</time></trkpt><trkpt lat="42.216217542641985" lon="14.020164601440424"><ele>536.0</ele><time>2026-04-17T14:12:40Z</time></trkpt><trkpt lat="42.21611948273527" lon="14.020064562815895"><ele>536.0</ele><time>2026-04-17T14:12:41Z</time></trkpt><trkpt lat="42.21602374665152" lon="14.019969348919702"><ele>536.0</ele><time>2026-04-17T14:12:42Z</time></trkpt><trkpt lat="42.21593589896898" lon="14.019878947720386"><ele>536.0</ele><time>2026-04-17T14:12:43Z</time></trkpt><trkpt lat="42.21584489548349" lon="14.019786647970735"><ele>536.0</ele><time>2026-04-17T14:12:44Z</time></trkpt><trkpt lat="42.215753516379536" lon="14.019689887882455"><ele>536.0</ele><time>2026-04-17T14:12:45Z</time></trkpt><trkpt lat="42.21566272636381" lon="14.019596770543009"><ele>536.0</ele><time>2026-04-17T14:12:46Z</time></trkpt><trkpt lat="42.215585530574984" lon="14.019503099572002"><ele>536.0</ele><time>2026-04-17T14:12:47Z</time></trkpt><trkpt lat="42.21551634214243" lon="14.01938292268179"><ele>536.0</ele><time>2026-04-17T14:12:48Z</time></trkpt><trkpt lat="42.21546796342167" lon="14.019237588706893"><ele>536.0</ele><time>2026-04-17T14:12:49Z</time></trkpt><trkpt lat="42.215438068413775" lon="14.019083454353881"><ele>539.75</ele><time>2026-04-17T14:12:50Z</time></trkpt><trkpt lat="42.21543397728932" lon="14.01891795719344"><ele>543.5</ele><time>2026-04-17T14:12:51Z</time></trkpt><trkpt lat="42.21545229621033" lon="14.018741610311565"><ele>547.25</ele><time>2026-04-17T14:12:52Z</time></trkpt><trkpt lat="42.21548929446743" lon="14.018561824895084"><ele>551.0</ele><time>2026-04-17T14:12:53Z</time></trkpt><trkpt lat="42.21552430473264" lon="14.018400642928208"><ele>550.25</ele><time>2026-04-17T14:12:54Z</time></trkpt><trkpt lat="42.21553668925657" lon="14.018230960266953"><ele>549.5</ele><time>2026-04-17T14:12:55Z</time></trkpt><trkpt lat="42.21553117606642" lon="14.01805524932685"><ele>548.75</ele><time>2026-04-17T14:12:56Z</time></trkpt><trkpt lat="42.215502335208946" lon="14.017891416600344"><ele>548.0</ele><time>2026-04-17T14:12:57Z</time></trkpt><trkpt lat="42.215457143151674" lon="14.017734839264362"><ele>548.0</ele><time>2026-04-17T14:12:58Z</time></trkpt><trkpt lat="42.21538892376615" lon="14.017604122604233"><ele>548.0</ele><time>2026-04-17T14:12:59Z</time></trkpt><trkpt lat="42.21529474513103" lon="14.017486106003268"><ele>548.0</ele><time>2026-04-17T14:13:00Z</time></trkpt><trkpt lat="42.215171049145944" lon="14.017375812927375"><ele>548.0</ele><time>2026-04-17T14:13:01Z</time></trkpt><trkpt lat="42.215050653940914" lon="14.017282732155783"><ele>549.5</ele><time>2026-04-17T14:13:02Z</time></trkpt><trkpt lat="42.21493767963098" lon="14.017211214825354"><ele>551.0</ele><time>2026-04-17T14:13:03Z</time></trkpt><trkpt lat="42.21483494979261" lon="14.017123108127384"><ele>552.5</ele><time>2026-04-17T14:13:04Z</time></trkpt><trkpt lat="42.21474106141036" lon="14.017000922825115"><ele>554.0</ele><time>2026-04-17T14:13:05Z</time></trkpt><trkpt lat="42.214664762882585" lon="14.016849180790457"><ele>554.0</ele><time>2026-04-17T14:13:06Z</time></trkpt><trkpt lat="42.21460988475334" lon="14.016665218237089"><ele>554.0</ele><time>2026-04-17T14:13:07Z</time></trkpt><trkpt lat="42.21460252612259" lon="14.01646591348176"><ele>554.0</ele><time>2026-04-17T14:13:08Z</time></trkpt><trkpt lat="42.21460239248839" lon="14.016270521085374"><ele>554.0</ele><time>2026-04-17T14:13:09Z</time></trkpt><trkpt lat="42.21460244105418" lon="14.016089873661477"><ele>554.25</ele><time>2026-04-17T14:13:10Z</time></trkpt><trkpt lat="42.21461231493776" lon="14.0159174540292"><ele>554.5</ele><time>2026-04-17T14:13:11Z</time></trkpt><trkpt lat="42.21459451722591" lon="14.015731638042315"><ele>554.75</ele><time>2026-04-17T14:13:12Z</time></trkpt><trkpt lat="42.21454879048541" lon="14.015536000473475"><ele>555.0</ele><time>2026-04-17T14:13:13Z</time></trkpt><trkpt lat="42.2144729146469" lon="14.015345822948914"><ele>555.0</ele><time>2026-04-17T14:13:14.001Z</time></trkpt><trkpt lat="42.21439043439611" lon="14.01514723416522"><ele>555.0</ele><time>2026-04-17T14:13:15.001Z</time></trkpt><trkpt lat="42.214301871259835" lon="14.014951660939692"><ele>555.0</ele><time>2026-04-17T14:13:16.001Z</time></trkpt><trkpt lat="42.21421256453381" lon="14.01474600883028"><ele>554.6666666666666</ele><time>2026-04-17T14:13:17.001Z</time></trkpt><trkpt lat="42.21413320825942" lon="14.014555191442781"><ele>554.3333333333333</ele><time>2026-04-17T14:13:18.001Z</time></trkpt><trkpt lat="42.214054165525255" lon="14.014359885456091"><ele>554.0</ele><time>2026-04-17T14:13:19.001Z</time></trkpt><trkpt lat="42.2139784338697" lon="14.014177434189094"><ele>554.5</ele><time>2026-04-17T14:13:20.001Z</time></trkpt><trkpt lat="42.2139064690327" lon="14.01400379190214"><ele>555.0</ele><time>2026-04-17T14:13:21.001Z</time></trkpt><trkpt lat="42.21383951885586" lon="14.01383567663967"><ele>555.5</ele><time>2026-04-17T14:13:22.001Z</time></trkpt><trkpt lat="42.21377849957165" lon="14.013678373272043"><ele>556.0</ele><time>2026-04-17T14:13:23.001Z</time></trkpt><trkpt lat="42.21371879827729" lon="14.013544719813948"><ele>556.0</ele><time>2026-04-17T14:13:24.001Z</time></trkpt><trkpt lat="42.213650226065546" lon="14.01343486060297"><ele>556.0</ele><time>2026-04-17T14:13:25.001Z</time></trkpt><trkpt lat="42.21356905046045" lon="14.013347747308847"><ele>556.0</ele><time>2026-04-17T14:13:26Z</time></trkpt><trkpt lat="42.21348663788176" lon="14.013277745376566"><ele>556.0</ele><time>2026-04-17T14:13:27Z</time></trkpt><trkpt lat="42.213393052121205" lon="14.013237657501918"><ele>556.0</ele><time>2026-04-17T14:13:28Z</time></trkpt><trkpt lat="42.21328466349246" lon="14.013232929912839"><ele>555.5</ele><time>2026-04-17T14:13:29Z</time></trkpt><trkpt lat="42.21316039354074" lon="14.013238706755395"><ele>555.0</ele><time>2026-04-17T14:13:30Z</time></trkpt><trkpt lat="42.21302955528829" lon="14.013293141042727"><ele>554.5</ele><time>2026-04-17T14:13:31Z</time></trkpt><trkpt lat="42.21290547571519" lon="14.01337351939266"><ele>554.0</ele><time>2026-04-17T14:13:32Z</time></trkpt><trkpt lat="42.212800000551674" lon="14.013456104550988"><ele>554.0</ele><time>2026-04-17T14:13:33Z</time></trkpt><trkpt lat="42.21270063507218" lon="14.013523705874515"><ele>554.0</ele><time>2026-04-17T14:13:34Z</time></trkpt><trkpt lat="42.2125965242684" lon="14.013562678648599"><ele>554.0</ele><time>2026-04-17T14:13:35Z</time></trkpt><trkpt lat="42.21248902158528" lon="14.013554127394"><ele>554.0</ele><time>2026-04-17T14:13:36Z</time></trkpt><trkpt lat="42.21238097399116" lon="14.013520678537294"><ele>554.0</ele><time>2026-04-17T14:13:37Z</time></trkpt><trkpt lat="42.21227753052322" lon="14.013458461886525"><ele>555.6</ele><time>2026-04-17T14:13:38Z</time></trkpt><trkpt lat="42.21219841242937" lon="14.013344853018335"><ele>557.2</ele><time>2026-04-17T14:13:39Z</time></trkpt><trkpt lat="42.212116685975914" lon="14.013239185021241"><ele>558.8000000000001</ele><time>2026-04-17T14:13:40Z</time></trkpt><trkpt lat="42.2120753630726" lon="14.013106150259137"><ele>560.4</ele><time>2026-04-17T14:13:41Z</time></trkpt><trkpt lat="42.21205878259227" lon="14.012959585078475"><ele>562.0</ele><time>2026-04-17T14:13:42Z</time></trkpt><trkpt lat="42.212069393756835" lon="14.01280451015516"><ele>562.0</ele><time>2026-04-17T14:13:43Z</time></trkpt><trkpt lat="42.21211743105522" lon="14.01264953376093"><ele>562.0</ele><time>2026-04-17T14:13:44Z</time></trkpt><trkpt lat="42.21217980040912" lon="14.012495532526172"><ele>562.0</ele><time>2026-04-17T14:13:45Z</time></trkpt><trkpt lat="42.212235314921095" lon="14.012331955069236"><ele>562.0</ele><time>2026-04-17T14:13:46Z</time></trkpt><trkpt lat="42.21231305665216" lon="14.01218253245784"><ele>558.3333333333334</ele><time>2026-04-17T14:13:47Z</time></trkpt><trkpt lat="42.21239326112868" lon="14.012009581966876"><ele>554.6666666666666</ele><time>2026-04-17T14:13:48Z</time></trkpt><trkpt lat="42.212463803161675" lon="14.01181706162794"><ele>551.0</ele><time>2026-04-17T14:13:49Z</time></trkpt><trkpt lat="42.21253972972164" lon="14.011607877875445"><ele>551.0</ele><time>2026-04-17T14:13:50Z</time></trkpt><trkpt lat="42.21262367372481" lon="14.011403417646504"><ele>551.0</ele><time>2026-04-17T14:13:51Z</time></trkpt><trkpt lat="42.212718492760864" lon="14.011210960214921"><ele>551.0</ele><time>2026-04-17T14:13:52Z</time></trkpt><trkpt lat="42.21281843026054" lon="14.011033545033992"><ele>551.0</ele><time>2026-04-17T14:13:53Z</time></trkpt><trkpt lat="42.21292138961568" lon="14.010859007481793"><ele>551.0</ele><time>2026-04-17T14:13:54Z</time></trkpt><trkpt lat="42.213015142405936" lon="14.010691520312122"><ele>551.0</ele><time>2026-04-17T14:13:55Z</time></trkpt><trkpt lat="42.213095535910675" lon="14.010543314357111"><ele>548.0</ele><time>2026-04-17T14:13:56Z</time></trkpt><trkpt lat="42.213158030631845" lon="14.010404111455594"><ele>545.0</ele><time>2026-04-17T14:13:57Z</time></trkpt><trkpt lat="42.21319785517429" lon="14.010241324960779"><ele>542.0</ele><time>2026-04-17T14:13:58Z</time></trkpt><trkpt lat="42.21320537870654" lon="14.010064971549415"><ele>539.0</ele><time>2026-04-17T14:13:59Z</time></trkpt><trkpt lat="42.21317047480228" lon="14.00987580277397"><ele>541.6666666666666</ele><time>2026-04-17T14:14:00Z</time></trkpt><trkpt lat="42.21310566230661" lon="14.00966894199761"><ele>544.3333333333334</ele><time>2026-04-17T14:14:01Z</time></trkpt><trkpt lat="42.213040772300324" lon="14.009455451712329"><ele>547.0</ele><time>2026-04-17T14:14:02Z</time></trkpt><trkpt lat="42.21298026749832" lon="14.009229925567961"><ele>547.0</ele><time>2026-04-17T14:14:03Z</time></trkpt><trkpt lat="42.21292127063403" lon="14.008999363686021"><ele>547.0</ele><time>2026-04-17T14:14:04Z</time></trkpt><trkpt lat="42.21285979539138" lon="14.008762901789117"><ele>547.0</ele><time>2026-04-17T14:14:05Z</time></trkpt><trkpt lat="42.21279892615667" lon="14.008526286132588"><ele>547.0</ele><time>2026-04-17T14:14:06Z</time></trkpt><trkpt lat="42.21273883326589" lon="14.008296335335725"><ele>547.0</ele><time>2026-04-17T14:14:07Z</time></trkpt><trkpt lat="42.212681702295654" lon="14.00808063163199"><ele>547.0</ele><time>2026-04-17T14:14:08Z</time></trkpt><trkpt lat="42.212627904279294" lon="14.007869720646815"><ele>547.0</ele><time>2026-04-17T14:14:09Z</time></trkpt><trkpt lat="42.21257206065108" lon="14.007672681089874"><ele>547.0</ele><time>2026-04-17T14:14:09.999Z</time></trkpt><trkpt lat="42.212525795115944" lon="14.007494350609477"><ele>547.0</ele><time>2026-04-17T14:14:10.999Z</time></trkpt><trkpt lat="42.212508057517255" lon="14.007320656513016"><ele>547.0</ele><time>2026-04-17T14:14:11.999Z</time></trkpt><trkpt lat="42.212496060000134" lon="14.00714621778636"><ele>546.75</ele><time>2026-04-17T14:14:12.999Z</time></trkpt><trkpt lat="42.212517017072486" lon="14.006943814036765"><ele>546.5</ele><time>2026-04-17T14:14:13.999Z</time></trkpt><trkpt lat="42.21255691567065" lon="14.006749188617453"><ele>546.25</ele><time>2026-04-17T14:14:14.999Z</time></trkpt><trkpt lat="42.21260638117512" lon="14.006565837300364"><ele>546.0</ele><time>2026-04-17T14:14:15.999Z</time></trkpt><trkpt lat="42.21266805347843" lon="14.006379623974192"><ele>547.6666666666666</ele><time>2026-04-17T14:14:16.999Z</time></trkpt><trkpt lat="42.21273904982009" lon="14.00617790053874"><ele>549.3333333333333</ele><time>2026-04-17T14:14:17.999Z</time></trkpt><trkpt lat="42.21280669563169" lon="14.00595986713099"><ele>551.0</ele><time>2026-04-17T14:14:18.999Z</time></trkpt><trkpt lat="42.2128905717595" lon="14.00574435815785"><ele>552.6666666666666</ele><time>2026-04-17T14:14:19.999Z</time></trkpt><trkpt lat="42.21297137724193" lon="14.00551751500651"><ele>554.3333333333334</ele><time>2026-04-17T14:14:20.999Z</time></trkpt><trkpt lat="42.21307096409343" lon="14.005293289542815"><ele>556.0</ele><time>2026-04-17T14:14:21.999Z</time></trkpt><trkpt lat="42.21314410420217" lon="14.005042152045789"><ele>553.3333333333334</ele><time>2026-04-17T14:14:22.999Z</time></trkpt><trkpt lat="42.21322410346102" lon="14.0048094614491"><ele>550.6666666666666</ele><time>2026-04-17T14:14:23.999Z</time></trkpt><trkpt lat="42.21331920404038" lon="14.004608095354454"><ele>548.0</ele><time>2026-04-17T14:14:24.999Z</time></trkpt><trkpt lat="42.21340371960856" lon="14.004418277719568"><ele>548.0</ele><time>2026-04-17T14:14:25.999Z</time></trkpt><trkpt lat="42.21353051150204" lon="14.004245856929003"><ele>548.0</ele><time>2026-04-17T14:14:26.999Z</time></trkpt><trkpt lat="42.213660341871766" lon="14.004056377664297"><ele>548.0</ele><time>2026-04-17T14:14:27.999Z</time></trkpt><trkpt lat="42.21379613927046" lon="14.00388264968613"><ele>548.3333333333333</ele><time>2026-04-17T14:14:28.999Z</time></trkpt><trkpt lat="42.2139361194363" lon="14.003747617166129"><ele>548.6666666666666</ele><time>2026-04-17T14:14:29.999Z</time></trkpt><trkpt lat="42.21408356541215" lon="14.003613108460822"><ele>549.0</ele><time>2026-04-17T14:14:30.999Z</time></trkpt><trkpt lat="42.214259577862116" lon="14.003510223459386"><ele>549.0</ele><time>2026-04-17T14:14:31.999Z</time></trkpt><trkpt lat="42.21444043923141" lon="14.003402327716104"><ele>549.0</ele><time>2026-04-17T14:14:32.999Z</time></trkpt><trkpt lat="42.21461563320281" lon="14.003328897764057"><ele>549.0</ele><time>2026-04-17T14:14:33.999Z</time></trkpt><trkpt lat="42.2147786895825" lon="14.003259985646539"><ele>550.0</ele><time>2026-04-17T14:14:34.999Z</time></trkpt><trkpt lat="42.21493923236962" lon="14.003187798197445"><ele>551.0</ele><time>2026-04-17T14:14:35.999Z</time></trkpt><trkpt lat="42.215090184589506" lon="14.003113938218002"><ele>552.0</ele><time>2026-04-17T14:14:36.999Z</time></trkpt><trkpt lat="42.21523158711999" lon="14.003029726772773"><ele>552.0</ele><time>2026-04-17T14:14:37.999Z</time></trkpt><trkpt lat="42.21536520076014" lon="14.002897089168377"><ele>552.0</ele><time>2026-04-17T14:14:38.999Z</time></trkpt><trkpt lat="42.21549782752789" lon="14.00272401274539"><ele>552.0</ele><time>2026-04-17T14:14:39.999Z</time></trkpt><trkpt lat="42.215661324176445" lon="14.002594949199137"><ele>552.0</ele><time>2026-04-17T14:14:40.999Z</time></trkpt><trkpt lat="42.215828483041506" lon="14.002447958108291"><ele>552.0</ele><time>2026-04-17T14:14:41.999Z</time></trkpt><trkpt lat="42.21599754658143" lon="14.002330064196574"><ele>552.0</ele><time>2026-04-17T14:14:42.999Z</time></trkpt><trkpt lat="42.21614702083144" lon="14.002208432940641"><ele>552.0</ele><time>2026-04-17T14:14:43.999Z</time></trkpt><trkpt lat="42.216279315538834" lon="14.002078276873528"><ele>552.0</ele><time>2026-04-17T14:14:44.999Z</time></trkpt><trkpt lat="42.21640057659177" lon="14.001926952672827"><ele>552.0</ele><time>2026-04-17T14:14:45.999Z</time></trkpt><trkpt lat="42.21650946505573" lon="14.001751211216556"><ele>548.0</ele><time>2026-04-17T14:14:46.999Z</time></trkpt><trkpt lat="42.2166048049003" lon="14.001576970861459"><ele>544.0</ele><time>2026-04-17T14:14:47.999Z</time></trkpt><trkpt lat="42.2166957220096" lon="14.001404038217258"><ele>540.0</ele><time>2026-04-17T14:14:48.999Z</time></trkpt><trkpt lat="42.21677162978294" lon="14.001201738207591"><ele>540.0</ele><time>2026-04-17T14:14:49.999Z</time></trkpt><trkpt lat="42.21683054783746" lon="14.000968531103352"><ele>540.0</ele><time>2026-04-17T14:14:50.999Z</time></trkpt><trkpt lat="42.21689254942656" lon="14.000742491939873"><ele>540.0</ele><time>2026-04-17T14:14:51.999Z</time></trkpt><trkpt lat="42.216945125967705" lon="14.00053775528399"><ele>539.0</ele><time>2026-04-17T14:14:52.999Z</time></trkpt><trkpt lat="42.21698451556737" lon="14.000332578324818"><ele>538.0</ele><time>2026-04-17T14:14:53.999Z</time></trkpt><trkpt lat="42.21704535578132" lon="14.000135647119704"><ele>537.0</ele><time>2026-04-17T14:14:54.999Z</time></trkpt><trkpt lat="42.21709511508614" lon="13.999939134806628"><ele>537.0</ele><time>2026-04-17T14:14:55.999Z</time></trkpt><trkpt lat="42.21714037550828" lon="13.999736052697637"><ele>537.0</ele><time>2026-04-17T14:14:56.999Z</time></trkpt><trkpt lat="42.21721081724759" lon="13.999550270151708"><ele>537.0</ele><time>2026-04-17T14:14:57.999Z</time></trkpt><trkpt lat="42.2172879524643" lon="13.999370286199223"><ele>534.75</ele><time>2026-04-17T14:14:58.999Z</time></trkpt><trkpt lat="42.217390530156536" lon="13.999217286188413"><ele>532.5</ele><time>2026-04-17T14:14:59.999Z</time></trkpt><trkpt lat="42.21748459171937" lon="13.999076831750227"><ele>530.25</ele><time>2026-04-17T14:15:00.999Z</time></trkpt><trkpt lat="42.2175821358461" lon="13.998941881714225"><ele>528.0</ele><time>2026-04-17T14:15:01.999Z</time></trkpt><trkpt lat="42.21765336077085" lon="13.998802986755184"><ele>528.0</ele><time>2026-04-17T14:15:02.999Z</time></trkpt><trkpt lat="42.21771839043855" lon="13.998674821177582"><ele>528.0</ele><time>2026-04-17T14:15:03.999Z</time></trkpt><trkpt lat="42.217759020720734" lon="13.998552399551603"><ele>528.0</ele><time>2026-04-17T14:15:04.999Z</time></trkpt><trkpt lat="42.21778844730973" lon="13.998460482745536"><ele>528.0</ele><time>2026-04-17T14:15:05.999Z</time></trkpt><trkpt lat="42.21787517438969" lon="13.998394501957128"><ele>528.0</ele><time>2026-04-17T14:15:07.999Z</time></trkpt><trkpt lat="42.21794034397942" lon="13.998417377687892"><ele>528.0</ele><time>2026-04-17T14:22:11Z</time></trkpt><trkpt lat="42.21789376540631" lon="13.99849061444075"><ele>528.0</ele><time>2026-04-17T14:36:44Z</time></trkpt><trkpt lat="42.217837718506125" lon="13.99861745793931"><ele>528.0</ele><time>2026-04-17T14:36:47Z</time></trkpt><trkpt lat="42.217820580059374" lon="13.99873142113394"><ele>528.0</ele><time>2026-04-17T14:36:48Z</time></trkpt><trkpt lat="42.217815774510534" lon="13.99885096622651"><ele>528.0</ele><time>2026-04-17T14:36:49Z</time></trkpt><trkpt lat="42.21781361293127" lon="13.998990160081284"><ele>528.0</ele><time>2026-04-17T14:36:50Z</time></trkpt><trkpt lat="42.21781460062892" lon="13.999138480674295"><ele>528.0</ele><time>2026-04-17T14:36:51Z</time></trkpt><trkpt lat="42.21782206962147" lon="13.999289011840121"><ele>528.0</ele><time>2026-04-17T14:36:52Z</time></trkpt><trkpt lat="42.217837549202194" lon="13.999438376554666"><ele>528.0</ele><time>2026-04-17T14:36:53Z</time></trkpt><trkpt lat="42.21785550775682" lon="13.999590472689036"><ele>528.0</ele><time>2026-04-17T14:36:54Z</time></trkpt><trkpt lat="42.21785889693909" lon="13.999756311532673"><ele>527.0</ele><time>2026-04-17T14:36:55Z</time></trkpt><trkpt lat="42.21787641781401" lon="13.999925617370792"><ele>526.0</ele><time>2026-04-17T14:36:56Z</time></trkpt><trkpt lat="42.21790300195084" lon="14.000089421594055"><ele>525.0</ele><time>2026-04-17T14:36:57Z</time></trkpt><trkpt lat="42.217909300147625" lon="14.000252999037311"><ele>524.0</ele><time>2026-04-17T14:36:58Z</time></trkpt><trkpt lat="42.21790672349756" lon="14.000408814486455"><ele>524.0</ele><time>2026-04-17T14:36:59Z</time></trkpt><trkpt lat="42.21789638262696" lon="14.0005565238425"><ele>524.0</ele><time>2026-04-17T14:37:00Z</time></trkpt><trkpt lat="42.21788579168159" lon="14.000691941481138"><ele>524.0</ele><time>2026-04-17T14:37:01Z</time></trkpt><trkpt lat="42.21787329563289" lon="14.000850257937568"><ele>524.0</ele><time>2026-04-17T14:37:02Z</time></trkpt><trkpt lat="42.21786448251649" lon="14.000989239582008"><ele>524.0</ele><time>2026-04-17T14:37:03Z</time></trkpt><trkpt lat="42.21784944539461" lon="14.001123926463716"><ele>523.8</ele><time>2026-04-17T14:37:04Z</time></trkpt><trkpt lat="42.2178609839432" lon="14.001256392590985"><ele>523.5999999999999</ele><time>2026-04-17T14:37:05Z</time></trkpt><trkpt lat="42.2178823669587" lon="14.001394359457404"><ele>523.4</ele><time>2026-04-17T14:37:06Z</time></trkpt><trkpt lat="42.21792443978691" lon="14.001530430083148"><ele>523.1999999999999</ele><time>2026-04-17T14:37:07Z</time></trkpt><trkpt lat="42.217967545087056" lon="14.001667053377043"><ele>523.0</ele><time>2026-04-17T14:37:08Z</time></trkpt><trkpt lat="42.21800679591449" lon="14.001809739096169"><ele>523.0</ele><time>2026-04-17T14:37:09Z</time></trkpt><trkpt lat="42.218041222151996" lon="14.001953208652628"><ele>523.0</ele><time>2026-04-17T14:37:10Z</time></trkpt><trkpt lat="42.21807764838135" lon="14.002103802967222"><ele>523.0</ele><time>2026-04-17T14:37:11Z</time></trkpt><trkpt lat="42.218117415391056" lon="14.00226679624978"><ele>523.0</ele><time>2026-04-17T14:37:12Z</time></trkpt><trkpt lat="42.218150542883954" lon="14.002430947068436"><ele>517.75</ele><time>2026-04-17T14:37:13Z</time></trkpt><trkpt lat="42.21818035187471" lon="14.002594324677979"><ele>512.5</ele><time>2026-04-17T14:37:14Z</time></trkpt><trkpt lat="42.21820019821448" lon="14.002750768310284"><ele>507.25</ele><time>2026-04-17T14:37:15Z</time></trkpt><trkpt lat="42.21824884172458" lon="14.002931581990419"><ele>502.0</ele><time>2026-04-17T14:37:16Z</time></trkpt><trkpt lat="42.21833505511987" lon="14.003134740264437"><ele>502.33333333333337</ele><time>2026-04-17T14:37:17Z</time></trkpt><trkpt lat="42.218436263453114" lon="14.003332538288973"><ele>502.66666666666663</ele><time>2026-04-17T14:37:18Z</time></trkpt><trkpt lat="42.218519977207634" lon="14.003516975245837"><ele>503.0</ele><time>2026-04-17T14:37:19Z</time></trkpt><trkpt lat="42.21857719235913" lon="14.003688645514737"><ele>503.0</ele><time>2026-04-17T14:37:20Z</time></trkpt><trkpt lat="42.21865516574358" lon="14.003846431412322"><ele>503.0</ele><time>2026-04-17T14:37:21Z</time></trkpt><trkpt lat="42.218773289221836" lon="14.004014217480398"><ele>503.0</ele><time>2026-04-17T14:37:22Z</time></trkpt><trkpt lat="42.21890738884641" lon="14.004179859855869"><ele>499.3333333333333</ele><time>2026-04-17T14:37:23Z</time></trkpt><trkpt lat="42.2190293437296" lon="14.004331337850461"><ele>495.66666666666663</ele><time>2026-04-17T14:37:24Z</time></trkpt><trkpt lat="42.21914387535392" lon="14.00447510544105"><ele>492.0</ele><time>2026-04-17T14:37:25Z</time></trkpt><trkpt lat="42.21926151328262" lon="14.004615363906048"><ele>492.0</ele><time>2026-04-17T14:37:26Z</time></trkpt><trkpt lat="42.21939719985317" lon="14.004743538023504"><ele>492.0</ele><time>2026-04-17T14:37:27Z</time></trkpt><trkpt lat="42.21956548441399" lon="14.004853776283763"><ele>492.0</ele><time>2026-04-17T14:37:28Z</time></trkpt><trkpt lat="42.219723958544535" lon="14.0049388145565"><ele>490.33333333333337</ele><time>2026-04-17T14:37:29Z</time></trkpt><trkpt lat="42.21986556629577" lon="14.00503653578073"><ele>488.6666666666667</ele><time>2026-04-17T14:37:30Z</time></trkpt><trkpt lat="42.21999898052882" lon="14.005155375433471"><ele>487.0</ele><time>2026-04-17T14:37:31Z</time></trkpt><trkpt lat="42.22015005592254" lon="14.0052366409334"><ele>487.0</ele><time>2026-04-17T14:37:32Z</time></trkpt><trkpt lat="42.22031748691392" lon="14.005272842912042"><ele>487.0</ele><time>2026-04-17T14:37:33Z</time></trkpt><trkpt lat="42.22046941867402" lon="14.005300059818914"><ele>487.0</ele><time>2026-04-17T14:37:34Z</time></trkpt><trkpt lat="42.22058472080704" lon="14.005403020960456"><ele>483.0</ele><time>2026-04-17T14:37:35Z</time></trkpt><trkpt lat="42.22072874417455" lon="14.005536992385318"><ele>479.0</ele><time>2026-04-17T14:37:36Z</time></trkpt><trkpt lat="42.22089146129575" lon="14.005663049482743"><ele>475.0</ele><time>2026-04-17T14:37:37Z</time></trkpt><trkpt lat="42.221040364456854" lon="14.005799678892847"><ele>476.6666666666667</ele><time>2026-04-17T14:37:38Z</time></trkpt><trkpt lat="42.22118013851535" lon="14.0059211049982"><ele>478.33333333333337</ele><time>2026-04-17T14:37:39Z</time></trkpt><trkpt lat="42.221304833620366" lon="14.006042225002197"><ele>480.0</ele><time>2026-04-17T14:37:40Z</time></trkpt><trkpt lat="42.22142041136435" lon="14.006145084549475"><ele>478.6666666666667</ele><time>2026-04-17T14:37:41Z</time></trkpt><trkpt lat="42.22150678155958" lon="14.006231341747256"><ele>477.33333333333337</ele><time>2026-04-17T14:37:42Z</time></trkpt><trkpt lat="42.22158705617351" lon="14.006306573410034"><ele>476.0</ele><time>2026-04-17T14:37:43Z</time></trkpt><trkpt lat="42.22164031807973" lon="14.006355900881264"><ele>474.6666666666667</ele><time>2026-04-17T14:37:44Z</time></trkpt><trkpt lat="42.22172614543187" lon="14.006423410092829"><ele>473.33333333333337</ele><time>2026-04-17T14:37:47Z</time></trkpt><trkpt lat="42.22179214470942" lon="14.006479647596347"><ele>472.0</ele><time>2026-04-17T14:37:48Z</time></trkpt><trkpt lat="42.221848357926845" lon="14.006540531208236"><ele>472.00000000000006</ele><time>2026-04-17T14:37:49Z</time></trkpt><trkpt lat="42.22191772876016" lon="14.006622943465851"><ele>472.0</ele><time>2026-04-17T14:37:51Z</time></trkpt><trkpt lat="42.221984531193826" lon="14.006683073724204"><ele>472.0</ele><time>2026-04-17T14:37:54Z</time></trkpt><trkpt lat="42.222059633433666" lon="14.006748529574795"><ele>472.0</ele><time>2026-04-17T14:37:56Z</time></trkpt><trkpt lat="42.22211465211475" lon="14.006795659048008"><ele>472.00000000000006</ele><time>2026-04-17T14:37:57Z</time></trkpt><trkpt lat="42.22218247513536" lon="14.006857512164778"><ele>472.0</ele><time>2026-04-17T14:37:58Z</time></trkpt><trkpt lat="42.22224249928154" lon="14.006910035750302"><ele>472.0</ele><time>2026-04-17T14:37:59Z</time></trkpt><trkpt lat="42.222312059568196" lon="14.006975860654727"><ele>472.00000000000006</ele><time>2026-04-17T14:38:00Z</time></trkpt><trkpt lat="42.22238061657507" lon="14.00703993460404"><ele>472.00000000000006</ele><time>2026-04-17T14:38:01Z</time></trkpt><trkpt lat="42.2224514893533" lon="14.007097816038186"><ele>472.0</ele><time>2026-04-17T14:38:02Z</time></trkpt><trkpt lat="42.222500422820374" lon="14.007181443779228"><ele>472.0</ele><time>2026-04-17T14:38:03Z</time></trkpt><trkpt lat="42.22270417410002" lon="14.007062993364144"><ele>472.0</ele><time>2026-04-17T14:38:05Z</time></trkpt><trkpt lat="42.222779113277454" lon="14.006957142990322"><ele>472.00000000000006</ele><time>2026-04-17T14:38:06Z</time></trkpt><trkpt lat="42.22283695816583" lon="14.006822591203083"><ele>472.00000000000006</ele><time>2026-04-17T14:38:07Z</time></trkpt><trkpt lat="42.22289963333488" lon="14.006717058571907"><ele>472.0</ele><time>2026-04-17T14:38:08Z</time></trkpt><trkpt lat="42.22300228669898" lon="14.006685945978548"><ele>472.0</ele><time>2026-04-17T14:38:09Z</time></trkpt><trkpt lat="42.22311794569248" lon="14.006622023732158"><ele>469.25</ele><time>2026-04-17T14:38:10Z</time></trkpt><trkpt lat="42.223217942867414" lon="14.006556369308152"><ele>466.5</ele><time>2026-04-17T14:38:11Z</time></trkpt><trkpt lat="42.223322734655845" lon="14.006529379706674"><ele>463.75</ele><time>2026-04-17T14:38:12Z</time></trkpt><trkpt lat="42.223441954896096" lon="14.006565994484323"><ele>461.0</ele><time>2026-04-17T14:38:13Z</time></trkpt><trkpt lat="42.223579384896624" lon="14.006557253540215"><ele>461.0</ele><time>2026-04-17T14:38:14Z</time></trkpt><trkpt lat="42.223704914721324" lon="14.006574161630807"><ele>461.0</ele><time>2026-04-17T14:38:15Z</time></trkpt><trkpt lat="42.2238166648393" lon="14.006555030480397"><ele>461.0</ele><time>2026-04-17T14:38:16Z</time></trkpt><trkpt lat="42.22392248876933" lon="14.006532025984885"><ele>461.0</ele><time>2026-04-17T14:38:17Z</time></trkpt><trkpt lat="42.22402485394902" lon="14.006517923861225"><ele>461.0</ele><time>2026-04-17T14:38:18Z</time></trkpt><trkpt lat="42.22411896258024" lon="14.006533219530391"><ele>461.8</ele><time>2026-04-17T14:38:19Z</time></trkpt><trkpt lat="42.22420650028831" lon="14.006526990215589"><ele>462.6</ele><time>2026-04-17T14:38:20Z</time></trkpt><trkpt lat="42.224288323474866" lon="14.006578223554436"><ele>463.4</ele><time>2026-04-17T14:38:21Z</time></trkpt><trkpt lat="42.22435921703176" lon="14.006701661803056"><ele>464.2</ele><time>2026-04-17T14:38:22Z</time></trkpt><trkpt lat="42.22445063587167" lon="14.00684435877153"><ele>465.0</ele><time>2026-04-17T14:38:23Z</time></trkpt><trkpt lat="42.224555197330595" lon="14.006968605722477"><ele>464.75</ele><time>2026-04-17T14:38:24Z</time></trkpt><trkpt lat="42.224623426557436" lon="14.00711263397314"><ele>464.5</ele><time>2026-04-17T14:38:25Z</time></trkpt><trkpt lat="42.22469085147544" lon="14.007260191356302"><ele>464.25</ele><time>2026-04-17T14:38:26Z</time></trkpt><trkpt lat="42.22476094500332" lon="14.00740372479648"><ele>464.0</ele><time>2026-04-17T14:38:27Z</time></trkpt><trkpt lat="42.22481935944848" lon="14.007554500813704"><ele>464.0</ele><time>2026-04-17T14:38:28Z</time></trkpt><trkpt lat="42.224882748674794" lon="14.007698780011049"><ele>464.0</ele><time>2026-04-17T14:38:29Z</time></trkpt><trkpt lat="42.2249474475302" lon="14.007834989142287"><ele>464.0</ele><time>2026-04-17T14:38:30Z</time></trkpt><trkpt lat="42.22502479400058" lon="14.007960517876452"><ele>464.0</ele><time>2026-04-17T14:38:31Z</time></trkpt><trkpt lat="42.225122011794326" lon="14.00808908595718"><ele>464.0</ele><time>2026-04-17T14:38:32Z</time></trkpt><trkpt lat="42.22522939854387" lon="14.008230167758677"><ele>464.0</ele><time>2026-04-17T14:38:33Z</time></trkpt><trkpt lat="42.225339545977015" lon="14.008369900932538"><ele>464.0</ele><time>2026-04-17T14:38:34Z</time></trkpt><trkpt lat="42.22545304295552" lon="14.008512981438734"><ele>466.0</ele><time>2026-04-17T14:38:35Z</time></trkpt><trkpt lat="42.22556105766238" lon="14.0086483554828"><ele>468.0</ele><time>2026-04-17T14:38:36Z</time></trkpt><trkpt lat="42.22566353712338" lon="14.008767894783421"><ele>470.0</ele><time>2026-04-17T14:38:37Z</time></trkpt><trkpt lat="42.22575581310269" lon="14.00887675508701"><ele>472.0</ele><time>2026-04-17T14:38:38Z</time></trkpt><trkpt lat="42.22585047724236" lon="14.008979510530466"><ele>470.40000000000003</ele><time>2026-04-17T14:38:39Z</time></trkpt><trkpt lat="42.22593963886597" lon="14.009072596966842"><ele>468.80000000000007</ele><time>2026-04-17T14:38:40Z</time></trkpt><trkpt lat="42.22602634190772" lon="14.009157353762001"><ele>467.2</ele><time>2026-04-17T14:38:41Z</time></trkpt><trkpt lat="42.22608844841809" lon="14.00927945406703"><ele>465.6</ele><time>2026-04-17T14:38:42Z</time></trkpt><trkpt lat="42.22611286021583" lon="14.009402099573762"><ele>464.0</ele><time>2026-04-17T14:38:43Z</time></trkpt><trkpt lat="42.226145739989015" lon="14.0095150838712"><ele>464.0</ele><time>2026-04-17T14:38:44Z</time></trkpt><trkpt lat="42.22615434414789" lon="14.00964396647708"><ele>464.0</ele><time>2026-04-17T14:38:46Z</time></trkpt><trkpt lat="42.22624440130374" lon="14.00948967473945"><ele>464.0</ele><time>2026-04-17T14:38:50.999Z</time></trkpt><trkpt lat="42.22623281435489" lon="14.009362819966347"><ele>464.0</ele><time>2026-04-17T14:38:51.999Z</time></trkpt><trkpt lat="42.22621312790417" lon="14.009240976500049"><ele>464.0</ele><time>2026-04-17T14:38:52.999Z</time></trkpt><trkpt lat="42.226196503700194" lon="14.009104171550279"><ele>461.25</ele><time>2026-04-17T14:38:53.999Z</time></trkpt><trkpt lat="42.22619268259425" lon="14.00896815401738"><ele>458.5</ele><time>2026-04-17T14:38:54.999Z</time></trkpt><trkpt lat="42.226178473249824" lon="14.008809798318703"><ele>455.75</ele><time>2026-04-17T14:38:55.999Z</time></trkpt><trkpt lat="42.22616151836974" lon="14.008605251147209"><ele>453.0</ele><time>2026-04-17T14:38:56.999Z</time></trkpt><trkpt lat="42.22613006898352" lon="14.00838245277202"><ele>451.33333333333337</ele><time>2026-04-17T14:38:57.999Z</time></trkpt><trkpt lat="42.226113685135545" lon="14.008134744645671"><ele>449.6666666666667</ele><time>2026-04-17T14:38:58.999Z</time></trkpt><trkpt lat="42.22609636352439" lon="14.007882527318563"><ele>448.0</ele><time>2026-04-17T14:38:59.999Z</time></trkpt><trkpt lat="42.22607534749149" lon="14.007662317344444"><ele>448.0</ele><time>2026-04-17T14:39:00.999Z</time></trkpt><trkpt lat="42.226061005856884" lon="14.007449325670516"><ele>448.0</ele><time>2026-04-17T14:39:01.999Z</time></trkpt><trkpt lat="42.22607471440641" lon="14.007275084869685"><ele>448.0</ele><time>2026-04-17T14:39:02.999Z</time></trkpt><trkpt lat="42.22609578328703" lon="14.007099816452268"><ele>448.0</ele><time>2026-04-17T14:39:03.999Z</time></trkpt><trkpt lat="42.226117524120006" lon="14.006924070931953"><ele>448.0</ele><time>2026-04-17T14:39:04.999Z</time></trkpt><trkpt lat="42.22617203121158" lon="14.006785820836155"><ele>448.0</ele><time>2026-04-17T14:39:05.999Z</time></trkpt><trkpt lat="42.22623981009152" lon="14.006674057282776"><ele>448.0</ele><time>2026-04-17T14:39:06.999Z</time></trkpt><trkpt lat="42.22633743357934" lon="14.006596546038681"><ele>448.0</ele><time>2026-04-17T14:39:07.999Z</time></trkpt><trkpt lat="42.22644158644319" lon="14.006530312226328"><ele>444.2</ele><time>2026-04-17T14:39:08.999Z</time></trkpt><trkpt lat="42.22655083386454" lon="14.006514221799756"><ele>440.4</ele><time>2026-04-17T14:39:09.999Z</time></trkpt><trkpt lat="42.2266561337268" lon="14.006525874939042"><ele>436.59999999999997</ele><time>2026-04-17T14:39:10.999Z</time></trkpt><trkpt lat="42.22675534706522" lon="14.006546939757296"><ele>432.79999999999995</ele><time>2026-04-17T14:39:11.999Z</time></trkpt><trkpt lat="42.22686122001938" lon="14.006561267492339"><ele>429.0</ele><time>2026-04-17T14:39:12.999Z</time></trkpt><trkpt lat="42.2269623012594" lon="14.006593140158213"><ele>429.0</ele><time>2026-04-17T14:39:13.999Z</time></trkpt><trkpt lat="42.22705916867212" lon="14.006616371001169"><ele>429.0</ele><time>2026-04-17T14:39:14.999Z</time></trkpt><trkpt lat="42.227148769913754" lon="14.006626953999787"><ele>429.0</ele><time>2026-04-17T14:39:15.999Z</time></trkpt><trkpt lat="42.227238812615944" lon="14.006621338994435"><ele>429.0</ele><time>2026-04-17T14:39:16.999Z</time></trkpt><trkpt lat="42.227322865790136" lon="14.006581388285632"><ele>429.0</ele><time>2026-04-17T14:39:17.999Z</time></trkpt><trkpt lat="42.227408985327955" lon="14.006517857747442"><ele>427.2</ele><time>2026-04-17T14:39:18.999Z</time></trkpt><trkpt lat="42.22748450145006" lon="14.006430753363679"><ele>425.4</ele><time>2026-04-17T14:39:19.999Z</time></trkpt><trkpt lat="42.22754107571504" lon="14.006326871467554"><ele>423.6</ele><time>2026-04-17T14:39:20.999Z</time></trkpt><trkpt lat="42.22757160937262" lon="14.006220933875259"><ele>421.8</ele><time>2026-04-17T14:39:21.999Z</time></trkpt><trkpt lat="42.227573941346485" lon="14.006107156877798"><ele>420.0</ele><time>2026-04-17T14:39:22.999Z</time></trkpt><trkpt lat="42.22754301526658" lon="14.005974971388163"><ele>420.0</ele><time>2026-04-17T14:39:23.999Z</time></trkpt><trkpt lat="42.22747772357153" lon="14.005825237064252"><ele>420.0</ele><time>2026-04-17T14:39:24.999Z</time></trkpt><trkpt lat="42.22743318494461" lon="14.005672108164774"><ele>420.0</ele><time>2026-04-17T14:39:25.999Z</time></trkpt><trkpt lat="42.227413649577294" lon="14.005527872405148"><ele>420.0</ele><time>2026-04-17T14:39:26.999Z</time></trkpt><trkpt lat="42.22741253030446" lon="14.005394279169728"><ele>420.0</ele><time>2026-04-17T14:39:27.999Z</time></trkpt><trkpt lat="42.22744528244567" lon="14.005282949985936"><ele>420.0</ele><time>2026-04-17T14:39:28.999Z</time></trkpt><trkpt lat="42.22749949833989" lon="14.005193939724744"><ele>420.0</ele><time>2026-04-17T14:39:29.999Z</time></trkpt><trkpt lat="42.227577991245624" lon="14.005129410449161"><ele>420.0</ele><time>2026-04-17T14:39:30.999Z</time></trkpt><trkpt lat="42.22768377576553" lon="14.005059381461912"><ele>420.0</ele><time>2026-04-17T14:39:31.999Z</time></trkpt><trkpt lat="42.22781309092246" lon="14.004973402877072"><ele>419.75</ele><time>2026-04-17T14:39:32.999Z</time></trkpt><trkpt lat="42.22795541643407" lon="14.004901981036385"><ele>419.5</ele><time>2026-04-17T14:39:33.999Z</time></trkpt><trkpt lat="42.228090521847285" lon="14.004836556972924"><ele>419.25</ele><time>2026-04-17T14:39:34.999Z</time></trkpt><trkpt lat="42.22823335791956" lon="14.004808172694087"><ele>419.0</ele><time>2026-04-17T14:39:35.999Z</time></trkpt><trkpt lat="42.228367319823185" lon="14.004754838342288"><ele>419.0</ele><time>2026-04-17T14:39:36.999Z</time></trkpt><trkpt lat="42.22849360350076" lon="14.004739511881223"><ele>419.0</ele><time>2026-04-17T14:39:37.999Z</time></trkpt><trkpt lat="42.228614554558554" lon="14.004710510500162"><ele>419.0</ele><time>2026-04-17T14:39:38.999Z</time></trkpt><trkpt lat="42.22873256578082" lon="14.004648825371495"><ele>419.0</ele><time>2026-04-17T14:39:39.999Z</time></trkpt><trkpt lat="42.22884729453381" lon="14.004558544394875"><ele>419.0</ele><time>2026-04-17T14:39:40.999Z</time></trkpt><trkpt lat="42.22895465860245" lon="14.004460353341388"><ele>419.0</ele><time>2026-04-17T14:39:41.999Z</time></trkpt><trkpt lat="42.22907184021175" lon="14.004418795489082"><ele>419.0</ele><time>2026-04-17T14:39:42.999Z</time></trkpt><trkpt lat="42.229192214225044" lon="14.004376881294107"><ele>419.0</ele><time>2026-04-17T14:39:43.999Z</time></trkpt><trkpt lat="42.22933817183502" lon="14.004358535038582"><ele>414.66666666666663</ele><time>2026-04-17T14:39:44.999Z</time></trkpt><trkpt lat="42.22949062554617" lon="14.0043261375941"><ele>410.33333333333337</ele><time>2026-04-17T14:39:45.999Z</time></trkpt><trkpt lat="42.229645899780664" lon="14.004312373482563"><ele>406.0</ele><time>2026-04-17T14:39:46.999Z</time></trkpt><trkpt lat="42.22981682446174" lon="14.004297717956478"><ele>403.33333333333337</ele><time>2026-04-17T14:39:47.999Z</time></trkpt><trkpt lat="42.22997595097244" lon="14.004302472416503"><ele>400.66666666666663</ele><time>2026-04-17T14:39:48.999Z</time></trkpt><trkpt lat="42.23013163539844" lon="14.00428768975303"><ele>398.0</ele><time>2026-04-17T14:39:49.999Z</time></trkpt><trkpt lat="42.230291160532666" lon="14.004250395018238"><ele>398.0</ele><time>2026-04-17T14:39:50.999Z</time></trkpt><trkpt lat="42.230446473759436" lon="14.004258186161275"><ele>398.0</ele><time>2026-04-17T14:39:51.999Z</time></trkpt><trkpt lat="42.230582809414045" lon="14.004245410098683"><ele>398.0</ele><time>2026-04-17T14:39:52.999Z</time></trkpt><trkpt lat="42.23067886916184" lon="14.004233886685304"><ele>398.0</ele><time>2026-04-17T14:39:53.999Z</time></trkpt><trkpt lat="42.23074340167617" lon="14.004203081093733"><ele>397.66666666666663</ele><time>2026-04-17T14:39:54.999Z</time></trkpt><trkpt lat="42.230846419702566" lon="14.004187210290015"><ele>397.3333333333333</ele><time>2026-04-17T14:39:56.999Z</time></trkpt><trkpt lat="42.23093184413423" lon="14.0042236424705"><ele>397.0</ele><time>2026-04-17T14:39:58.999Z</time></trkpt><trkpt lat="42.230996949137136" lon="14.004234160961476"><ele>396.66666666666663</ele><time>2026-04-17T14:40:00.999Z</time></trkpt><trkpt lat="42.23106775758702" lon="14.004259806889037"><ele>396.3333333333333</ele><time>2026-04-17T14:40:02.999Z</time></trkpt><trkpt lat="42.23113707226654" lon="14.004329351208517"><ele>396.0</ele><time>2026-04-17T14:40:04.999Z</time></trkpt><trkpt lat="42.23123446991042" lon="14.004443862425784"><ele>396.0</ele><time>2026-04-17T14:40:06.999Z</time></trkpt><trkpt lat="42.231276953123704" lon="14.004518738982341"><ele>396.0</ele><time>2026-04-17T14:40:07.999Z</time></trkpt><trkpt lat="42.23132423630642" lon="14.004599843270322"><ele>396.0</ele><time>2026-04-17T14:40:08.999Z</time></trkpt><trkpt lat="42.231369987997105" lon="14.004692926704907"><ele>396.0</ele><time>2026-04-17T14:40:09.999Z</time></trkpt><trkpt lat="42.23140866780333" lon="14.004793288674609"><ele>396.0</ele><time>2026-04-17T14:40:10.999Z</time></trkpt><trkpt lat="42.23143999328214" lon="14.00490871960611"><ele>396.0</ele><time>2026-04-17T14:40:11.999Z</time></trkpt><trkpt lat="42.23145382287042" lon="14.005027809990457"><ele>394.25</ele><time>2026-04-17T14:40:12.999Z</time></trkpt><trkpt lat="42.23142800973392" lon="14.005159947934365"><ele>392.5</ele><time>2026-04-17T14:40:13.999Z</time></trkpt><trkpt lat="42.2314254998694" lon="14.005311276410708"><ele>390.75</ele><time>2026-04-17T14:40:14.999Z</time></trkpt><trkpt lat="42.231422195229186" lon="14.005510524527669"><ele>389.0</ele><time>2026-04-17T14:40:15.999Z</time></trkpt><trkpt lat="42.231419003486444" lon="14.005702965761195"><ele>386.75</ele><time>2026-04-17T14:40:16.999Z</time></trkpt><trkpt lat="42.23143294920996" lon="14.005875171562902"><ele>384.5</ele><time>2026-04-17T14:40:17.999Z</time></trkpt><trkpt lat="42.23142588471532" lon="14.006037508114314"><ele>382.25</ele><time>2026-04-17T14:40:18.999Z</time></trkpt><trkpt lat="42.231434411222565" lon="14.006196170107213"><ele>380.0</ele><time>2026-04-17T14:40:19.999Z</time></trkpt><trkpt lat="42.23145588655957" lon="14.006352586261722"><ele>378.75</ele><time>2026-04-17T14:40:20.999Z</time></trkpt><trkpt lat="42.231496752853054" lon="14.006502689499422"><ele>377.5</ele><time>2026-04-17T14:40:21.999Z</time></trkpt><trkpt lat="42.23156426970897" lon="14.006649210412922"><ele>376.25</ele><time>2026-04-17T14:40:22.999Z</time></trkpt><trkpt lat="42.231659509458666" lon="14.006778879970966"><ele>375.0</ele><time>2026-04-17T14:40:23.999Z</time></trkpt><trkpt lat="42.231781026949356" lon="14.006872868772364"><ele>374.5</ele><time>2026-04-17T14:40:24.999Z</time></trkpt><trkpt lat="42.231895802295" lon="14.006962547903196"><ele>374.0</ele><time>2026-04-17T14:40:25.999Z</time></trkpt><trkpt lat="42.23197675382408" lon="14.00710377142543"><ele>373.5</ele><time>2026-04-17T14:40:26.999Z</time></trkpt><trkpt lat="42.232069470806344" lon="14.007222727053271"><ele>373.0</ele><time>2026-04-17T14:40:27.999Z</time></trkpt><trkpt lat="42.23217179688062" lon="14.007327728076994"><ele>373.0</ele><time>2026-04-17T14:40:28.999Z</time></trkpt><trkpt lat="42.232279011335386" lon="14.007414379845539"><ele>373.0</ele><time>2026-04-17T14:40:29.999Z</time></trkpt><trkpt lat="42.232377188809934" lon="14.00749525530839"><ele>373.0</ele><time>2026-04-17T14:40:30.999Z</time></trkpt><trkpt lat="42.23246539581869" lon="14.007571405065512"><ele>373.0</ele><time>2026-04-17T14:40:31.999Z</time></trkpt><trkpt lat="42.23253485123862" lon="14.007635233907097"><ele>373.0</ele><time>2026-04-17T14:40:32.999Z</time></trkpt><trkpt lat="42.2325875457714" lon="14.007684039360612"><ele>373.0</ele><time>2026-04-17T14:40:34.999Z</time></trkpt><trkpt lat="42.232633556408466" lon="14.007754051327748"><ele>373.0</ele><time>2026-04-17T14:40:38Z</time></trkpt><trkpt lat="42.23257350089694" lon="14.007701667743483"><ele>373.0</ele><time>2026-04-17T14:40:41Z</time></trkpt><trkpt lat="42.2325454851805" lon="14.007604874129822"><ele>373.0</ele><time>2026-04-17T14:40:45Z</time></trkpt><trkpt lat="42.23248240972259" lon="14.007582013126118"><ele>373.0</ele><time>2026-04-17T14:40:58Z</time></trkpt><trkpt lat="42.23241501573712" lon="14.007486784610677"><ele>373.0</ele><time>2026-04-17T14:41:00Z</time></trkpt><trkpt lat="42.232283971366385" lon="14.007374096287842"><ele>373.0</ele><time>2026-04-17T14:41:02Z</time></trkpt><trkpt lat="42.23220407796486" lon="14.007303698223778"><ele>373.0</ele><time>2026-04-17T14:41:03Z</time></trkpt><trkpt lat="42.232112862805785" lon="14.007222222631622"><ele>373.0</ele><time>2026-04-17T14:41:04Z</time></trkpt><trkpt lat="42.23202812629484" lon="14.00713370768322"><ele>373.0</ele><time>2026-04-17T14:41:05Z</time></trkpt><trkpt lat="42.23196587723034" lon="14.007041346394564"><ele>373.0</ele><time>2026-04-17T14:41:06Z</time></trkpt><trkpt lat="42.23180987264061" lon="14.006830251886502"><ele>373.0</ele><time>2026-04-17T14:41:07Z</time></trkpt><trkpt lat="42.231687141778295" lon="14.006739061705828"><ele>373.0</ele><time>2026-04-17T14:41:08Z</time></trkpt><trkpt lat="42.23159887458706" lon="14.006629108648811"><ele>373.0</ele><time>2026-04-17T14:41:09Z</time></trkpt><trkpt lat="42.23152832206028" lon="14.006494301715781"><ele>373.0</ele><time>2026-04-17T14:41:10Z</time></trkpt><trkpt lat="42.23147691511517" lon="14.006336493471746"><ele>374.75</ele><time>2026-04-17T14:41:11Z</time></trkpt><trkpt lat="42.23145677007271" lon="14.006154229061384"><ele>376.5</ele><time>2026-04-17T14:41:12Z</time></trkpt><trkpt lat="42.2314508076045" lon="14.005951367632145"><ele>378.25</ele><time>2026-04-17T14:41:13Z</time></trkpt><trkpt lat="42.23145176647347" lon="14.005750363199041"><ele>380.0</ele><time>2026-04-17T14:41:14Z</time></trkpt><trkpt lat="42.23145507623582" lon="14.005536770343568"><ele>382.25</ele><time>2026-04-17T14:41:15Z</time></trkpt><trkpt lat="42.23145043815685" lon="14.00533278185804"><ele>384.5</ele><time>2026-04-17T14:41:16Z</time></trkpt><trkpt lat="42.23144971284415" lon="14.005152025442632"><ele>386.75</ele><time>2026-04-17T14:41:17Z</time></trkpt><trkpt lat="42.231452922918365" lon="14.004998663380137"><ele>389.0</ele><time>2026-04-17T14:41:18Z</time></trkpt><trkpt lat="42.2314458548337" lon="14.004873913150918"><ele>390.75</ele><time>2026-04-17T14:41:19Z</time></trkpt><trkpt lat="42.23141010944194" lon="14.00474106917429"><ele>392.5</ele><time>2026-04-17T14:41:20Z</time></trkpt><trkpt lat="42.231350436627956" lon="14.004606856574641"><ele>394.25</ele><time>2026-04-17T14:41:21Z</time></trkpt><trkpt lat="42.231275415259574" lon="14.004454851901155"><ele>396.0</ele><time>2026-04-17T14:41:22Z</time></trkpt><trkpt lat="42.23118700481387" lon="14.004317171276345"><ele>396.0</ele><time>2026-04-17T14:41:23Z</time></trkpt><trkpt lat="42.23111015825215" lon="14.004215349698354"><ele>396.0</ele><time>2026-04-17T14:41:24Z</time></trkpt><trkpt lat="42.231021569162806" lon="14.004149804072734"><ele>396.0</ele><time>2026-04-17T14:41:25Z</time></trkpt><trkpt lat="42.23092911614689" lon="14.00413378467374"><ele>396.0</ele><time>2026-04-17T14:41:26Z</time></trkpt><trkpt lat="42.23086120016141" lon="14.004155754894976"><ele>396.0</ele><time>2026-04-17T14:41:27Z</time></trkpt><trkpt lat="42.23089820950765" lon="14.004059766002747"><ele>395.6</ele><time>2026-04-17T14:41:30Z</time></trkpt><trkpt lat="42.230948462215714" lon="14.004007599769247"><ele>395.20000000000005</ele><time>2026-04-17T14:41:31Z</time></trkpt><trkpt lat="42.2310086786103" lon="14.00395456626358"><ele>394.79999999999995</ele><time>2026-04-17T14:41:32Z</time></trkpt><trkpt lat="42.231109276765046" lon="14.003916403262068"><ele>394.4</ele><time>2026-04-17T14:41:33Z</time></trkpt><trkpt lat="42.23122264926361" lon="14.00388268958038"><ele>394.0</ele><time>2026-04-17T14:41:34Z</time></trkpt><trkpt lat="42.231312336173204" lon="14.003818821106494"><ele>394.0</ele><time>2026-04-17T14:41:35Z</time></trkpt><trkpt lat="42.231385045573376" lon="14.003739302597072"><ele>394.0</ele><time>2026-04-17T14:41:36Z</time></trkpt><trkpt lat="42.23145464601491" lon="14.003654972381641"><ele>394.0</ele><time>2026-04-17T14:41:37Z</time></trkpt><trkpt lat="42.2315204763124" lon="14.003557255591703"><ele>394.0</ele><time>2026-04-17T14:41:38Z</time></trkpt><trkpt lat="42.231579839408326" lon="14.003448522401268"><ele>394.0</ele><time>2026-04-17T14:41:39Z</time></trkpt><trkpt lat="42.23166538377057" lon="14.003335555197504"><ele>394.0</ele><time>2026-04-17T14:41:40Z</time></trkpt><trkpt lat="42.23172861551324" lon="14.003178881962741"><ele>394.0</ele><time>2026-04-17T14:41:41Z</time></trkpt><trkpt lat="42.23179807679404" lon="14.00303021691151"><ele>394.0</ele><time>2026-04-17T14:41:42Z</time></trkpt><trkpt lat="42.23185894206284" lon="14.002849828128838"><ele>394.0</ele><time>2026-04-17T14:41:43Z</time></trkpt><trkpt lat="42.23191560891663" lon="14.00264330207285"><ele>391.5</ele><time>2026-04-17T14:41:44Z</time></trkpt><trkpt lat="42.231968982738515" lon="14.00245103614149"><ele>389.0</ele><time>2026-04-17T14:41:45Z</time></trkpt><trkpt lat="42.232013756673396" lon="14.00228083599105"><ele>386.5</ele><time>2026-04-17T14:41:46Z</time></trkpt><trkpt lat="42.23204154071177" lon="14.002137131628697"><ele>384.0</ele><time>2026-04-17T14:41:47Z</time></trkpt><trkpt lat="42.23206171232773" lon="14.002018691030285"><ele>384.0</ele><time>2026-04-17T14:41:48Z</time></trkpt><trkpt lat="42.23207879389642" lon="14.001916649109463"><ele>384.0</ele><time>2026-04-17T14:41:49Z</time></trkpt><trkpt lat="42.2321294957818" lon="14.001795498352605"><ele>384.0</ele><time>2026-04-17T14:41:51Z</time></trkpt><trkpt lat="42.23219306766538" lon="14.00180059936963"><ele>384.0</ele><time>2026-04-17T14:41:52Z</time></trkpt><trkpt lat="42.232256621585805" lon="14.001813709190044"><ele>384.0</ele><time>2026-04-17T14:41:53Z</time></trkpt><trkpt lat="42.23230407283269" lon="14.00192519278046"><ele>384.0</ele><time>2026-04-17T14:41:54Z</time></trkpt><trkpt lat="42.23238597943014" lon="14.001995612384288"><ele>380.75</ele><time>2026-04-17T14:41:55Z</time></trkpt><trkpt lat="42.23249013389431" lon="14.002072578500195"><ele>377.5</ele><time>2026-04-17T14:41:56Z</time></trkpt><trkpt lat="42.232629200969285" lon="14.002110796727283"><ele>374.25</ele><time>2026-04-17T14:41:57Z</time></trkpt><trkpt lat="42.23279966897408" lon="14.002144537962547"><ele>371.0</ele><time>2026-04-17T14:41:58Z</time></trkpt><trkpt lat="42.232962032568686" lon="14.002185490831257"><ele>371.0</ele><time>2026-04-17T14:41:59Z</time></trkpt><trkpt lat="42.233117835754015" lon="14.002244837976331"><ele>371.0</ele><time>2026-04-17T14:42:00Z</time></trkpt><trkpt lat="42.23327530569221" lon="14.002286756450944"><ele>371.0</ele><time>2026-04-17T14:42:01Z</time></trkpt><trkpt lat="42.23341448867162" lon="14.002324745453114"><ele>370.25</ele><time>2026-04-17T14:42:02Z</time></trkpt><trkpt lat="42.23353589233044" lon="14.00237157284288"><ele>369.5</ele><time>2026-04-17T14:42:03Z</time></trkpt><trkpt lat="42.23365500582813" lon="14.002451117017552"><ele>368.75</ele><time>2026-04-17T14:42:04Z</time></trkpt><trkpt lat="42.23377468872553" lon="14.002544536724805"><ele>368.0</ele><time>2026-04-17T14:42:05Z</time></trkpt><trkpt lat="42.23388595716737" lon="14.002586912157284"><ele>368.5</ele><time>2026-04-17T14:42:06Z</time></trkpt><trkpt lat="42.23397981003572" lon="14.002619311563075"><ele>369.0</ele><time>2026-04-17T14:42:07Z</time></trkpt><trkpt lat="42.23407710950513" lon="14.00260692167968"><ele>369.5</ele><time>2026-04-17T14:42:08Z</time></trkpt><trkpt lat="42.23416445265109" lon="14.002567190956881"><ele>370.0</ele><time>2026-04-17T14:42:09Z</time></trkpt><trkpt lat="42.23423573843329" lon="14.002525058641101"><ele>370.5</ele><time>2026-04-17T14:42:10Z</time></trkpt><trkpt lat="42.234296324260576" lon="14.002464379171368"><ele>371.0</ele><time>2026-04-17T14:42:11Z</time></trkpt><trkpt lat="42.23436057614641" lon="14.002390218858752"><ele>371.0</ele><time>2026-04-17T14:42:12Z</time></trkpt><trkpt lat="42.234420731337636" lon="14.002301240613228"><ele>371.0</ele><time>2026-04-17T14:42:13Z</time></trkpt><trkpt lat="42.2344862410612" lon="14.002209701022474"><ele>371.0</ele><time>2026-04-17T14:42:14Z</time></trkpt><trkpt lat="42.23453167647377" lon="14.002116723236677"><ele>371.0</ele><time>2026-04-17T14:42:15Z</time></trkpt><trkpt lat="42.234577818623734" lon="14.002020964993871"><ele>371.0</ele><time>2026-04-17T14:42:16Z</time></trkpt><trkpt lat="42.234576034789825" lon="14.001893665461967"><ele>371.0</ele><time>2026-04-17T14:42:17Z</time></trkpt><trkpt lat="42.23462528698636" lon="14.001790639632533"><ele>371.0</ele><time>2026-04-17T14:42:18Z</time></trkpt><trkpt lat="42.23467736923956" lon="14.001704848140315"><ele>371.0</ele><time>2026-04-17T14:42:19Z</time></trkpt><trkpt lat="42.23475908414819" lon="14.001645876912164"><ele>371.0</ele><time>2026-04-17T14:42:20Z</time></trkpt><trkpt lat="42.23485366616521" lon="14.001581694607166"><ele>371.0</ele><time>2026-04-17T14:42:21Z</time></trkpt><trkpt lat="42.234936774990224" lon="14.0015303770868"><ele>371.0</ele><time>2026-04-17T14:42:22Z</time></trkpt><trkpt lat="42.23501631554155" lon="14.001491400236281"><ele>371.6666666666667</ele><time>2026-04-17T14:42:23Z</time></trkpt><trkpt lat="42.2350872120579" lon="14.001444317165571"><ele>372.33333333333337</ele><time>2026-04-17T14:42:24Z</time></trkpt><trkpt lat="42.23516560893453" lon="14.001460094712893"><ele>373.0</ele><time>2026-04-17T14:42:25Z</time></trkpt><trkpt lat="42.23522748867672" lon="14.001553592314046"><ele>373.6666666666667</ele><time>2026-04-17T14:42:26Z</time></trkpt><trkpt lat="42.235278292245155" lon="14.001646949131507"><ele>374.3333333333333</ele><time>2026-04-17T14:42:27Z</time></trkpt><trkpt lat="42.235333754043985" lon="14.00170407228147"><ele>375.0</ele><time>2026-04-17T14:42:28Z</time></trkpt><trkpt lat="42.23541233363927" lon="14.001820524403469"><ele>375.0</ele><time>2026-04-17T14:42:30Z</time></trkpt><trkpt lat="42.2355091005817" lon="14.0019151227497"><ele>375.0</ele><time>2026-04-17T14:42:32Z</time></trkpt><trkpt lat="42.23560534336729" lon="14.001983824182924"><ele>375.0</ele><time>2026-04-17T14:42:34Z</time></trkpt><trkpt lat="42.23571464681355" lon="14.002009605119275"><ele>375.0</ele><time>2026-04-17T14:42:36Z</time></trkpt><trkpt lat="42.235821345924" lon="14.002005558743967"><ele>375.0</ele><time>2026-04-17T14:42:38Z</time></trkpt><trkpt lat="42.23591881980187" lon="14.001957334761535"><ele>375.75</ele><time>2026-04-17T14:42:39Z</time></trkpt><trkpt lat="42.2360161640672" lon="14.00189040368407"><ele>376.5</ele><time>2026-04-17T14:42:40Z</time></trkpt><trkpt lat="42.23616487460583" lon="14.001783857417399"><ele>377.25</ele><time>2026-04-17T14:42:41Z</time></trkpt><trkpt lat="42.23629913463089" lon="14.001688737327152"><ele>378.0</ele><time>2026-04-17T14:42:42Z</time></trkpt><trkpt lat="42.23642353074042" lon="14.001581208701054"><ele>377.0</ele><time>2026-04-17T14:42:43Z</time></trkpt><trkpt lat="42.23655142650563" lon="14.001511926825524"><ele>376.0</ele><time>2026-04-17T14:42:44Z</time></trkpt><trkpt lat="42.23666773538819" lon="14.00142403436942"><ele>375.0</ele><time>2026-04-17T14:42:45Z</time></trkpt><trkpt lat="42.23675383751173" lon="14.0013108595703"><ele>374.0</ele><time>2026-04-17T14:42:46Z</time></trkpt><trkpt lat="42.236842232036956" lon="14.001192096695336"><ele>374.0</ele><time>2026-04-17T14:42:47Z</time></trkpt><trkpt lat="42.23692697282708" lon="14.00101697009524"><ele>374.0</ele><time>2026-04-17T14:42:48Z</time></trkpt><trkpt lat="42.237012369886564" lon="14.0008420874073"><ele>374.0</ele><time>2026-04-17T14:42:49Z</time></trkpt><trkpt lat="42.23709882561904" lon="14.000684085613285"><ele>373.75</ele><time>2026-04-17T14:42:50Z</time></trkpt><trkpt lat="42.2371811846795" lon="14.000532180802"><ele>373.5</ele><time>2026-04-17T14:42:51Z</time></trkpt><trkpt lat="42.23725713902657" lon="14.00038320012664"><ele>373.25</ele><time>2026-04-17T14:42:52Z</time></trkpt><trkpt lat="42.23730869402596" lon="14.00022731097251"><ele>373.0</ele><time>2026-04-17T14:42:53Z</time></trkpt><trkpt lat="42.23732481911887" lon="14.000065864057488"><ele>373.0</ele><time>2026-04-17T14:42:54Z</time></trkpt><trkpt lat="42.23730573486799" lon="13.999902034011548"><ele>373.0</ele><time>2026-04-17T14:42:55Z</time></trkpt><trkpt lat="42.23725656818569" lon="13.999737613870026"><ele>373.0</ele><time>2026-04-17T14:42:56Z</time></trkpt><trkpt lat="42.237194243855186" lon="13.999598990053082"><ele>373.0</ele><time>2026-04-17T14:42:57Z</time></trkpt><trkpt lat="42.23714958203847" lon="13.99949959406404"><ele>373.0</ele><time>2026-04-17T14:42:58Z</time></trkpt><trkpt lat="42.23712798245028" lon="13.999388832180616"><ele>373.0</ele><time>2026-04-17T14:42:59Z</time></trkpt><trkpt lat="42.23717948786261" lon="13.99927271667273"><ele>373.0</ele><time>2026-04-17T14:43:00Z</time></trkpt><trkpt lat="42.23725516707263" lon="13.999160909618046"><ele>373.0</ele><time>2026-04-17T14:43:01Z</time></trkpt><trkpt lat="42.237342551489256" lon="13.999056372629605"><ele>373.0</ele><time>2026-04-17T14:43:02Z</time></trkpt><trkpt lat="42.23744111001684" lon="13.998986398956427"><ele>370.0</ele><time>2026-04-17T14:43:03Z</time></trkpt><trkpt lat="42.23753563908339" lon="13.998955885904776"><ele>367.0</ele><time>2026-04-17T14:43:04Z</time></trkpt><trkpt lat="42.237627422362685" lon="13.998948149059647"><ele>364.0</ele><time>2026-04-17T14:43:05Z</time></trkpt><trkpt lat="42.2377274155011" lon="13.999050258233577"><ele>361.0</ele><time>2026-04-17T14:43:06Z</time></trkpt><trkpt lat="42.23783910911057" lon="13.999137849553081"><ele>358.0</ele><time>2026-04-17T14:43:07Z</time></trkpt><trkpt lat="42.23791461929627" lon="13.999259780891983"><ele>358.0</ele><time>2026-04-17T14:43:08Z</time></trkpt><trkpt lat="42.23796692886592" lon="13.999406220329082"><ele>358.0</ele><time>2026-04-17T14:43:09Z</time></trkpt><trkpt lat="42.23799889672011" lon="13.99957341242911"><ele>358.0</ele><time>2026-04-17T14:43:10Z</time></trkpt><trkpt lat="42.23800732531914" lon="13.999746127952802"><ele>358.0</ele><time>2026-04-17T14:43:11Z</time></trkpt><trkpt lat="42.23798361916135" lon="13.999932109347519"><ele>358.0</ele><time>2026-04-17T14:43:12Z</time></trkpt><trkpt lat="42.23794761309519" lon="14.000146028638131"><ele>358.0</ele><time>2026-04-17T14:43:13Z</time></trkpt><trkpt lat="42.23791237685302" lon="14.000351601681693"><ele>358.0</ele><time>2026-04-17T14:43:14Z</time></trkpt><trkpt lat="42.23786903795574" lon="14.000538676549173"><ele>358.0</ele><time>2026-04-17T14:43:15Z</time></trkpt><trkpt lat="42.23781249861944" lon="14.000699685096647"><ele>358.0</ele><time>2026-04-17T14:43:16Z</time></trkpt><trkpt lat="42.23776625510886" lon="14.00084884755345"><ele>358.0</ele><time>2026-04-17T14:43:17Z</time></trkpt><trkpt lat="42.23773336945154" lon="14.000965117775516"><ele>358.0</ele><time>2026-04-17T14:43:18Z</time></trkpt><trkpt lat="42.237722649054994" lon="14.001054816283373"><ele>358.0</ele><time>2026-04-17T14:43:19Z</time></trkpt><trkpt lat="42.237746332822226" lon="14.001141861479873"><ele>357.0</ele><time>2026-04-17T14:43:20Z</time></trkpt><trkpt lat="42.23780459889108" lon="14.001200782975808"><ele>356.0</ele><time>2026-04-17T14:43:21Z</time></trkpt><trkpt lat="42.23788167234549" lon="14.001209941798995"><ele>355.0</ele><time>2026-04-17T14:43:22Z</time></trkpt><trkpt lat="42.23796590690348" lon="14.001158060939302"><ele>354.0</ele><time>2026-04-17T14:43:23Z</time></trkpt><trkpt lat="42.238042688382414" lon="14.00105759142586"><ele>353.0</ele><time>2026-04-17T14:43:24Z</time></trkpt><trkpt lat="42.238129575245594" lon="14.000915343806687"><ele>348.25</ele><time>2026-04-17T14:43:25Z</time></trkpt><trkpt lat="42.238240135403906" lon="14.000779897183214"><ele>343.5</ele><time>2026-04-17T14:43:26Z</time></trkpt><trkpt lat="42.23836239383376" lon="14.000661310104595"><ele>338.75</ele><time>2026-04-17T14:43:27Z</time></trkpt><trkpt lat="42.23848549928725" lon="14.000546228039584"><ele>334.0</ele><time>2026-04-17T14:43:28Z</time></trkpt><trkpt lat="42.238606078202736" lon="14.000435484841136"><ele>334.0</ele><time>2026-04-17T14:43:29Z</time></trkpt><trkpt lat="42.238723294638426" lon="14.000328335764593"><ele>334.0</ele><time>2026-04-17T14:43:30Z</time></trkpt><trkpt lat="42.23882480046296" lon="14.00022873391495"><ele>334.0</ele><time>2026-04-17T14:43:31Z</time></trkpt><trkpt lat="42.2389027160734" lon="14.00012628299909"><ele>334.0</ele><time>2026-04-17T14:43:32Z</time></trkpt><trkpt lat="42.238959268303255" lon="14.000007214790696"><ele>331.4</ele><time>2026-04-17T14:43:33Z</time></trkpt><trkpt lat="42.23898833074922" lon="13.999857055092038"><ele>328.79999999999995</ele><time>2026-04-17T14:43:34Z</time></trkpt><trkpt lat="42.23898590311424" lon="13.99967948120846"><ele>326.20000000000005</ele><time>2026-04-17T14:43:35Z</time></trkpt><trkpt lat="42.23898179123462" lon="13.999539915684448"><ele>323.6</ele><time>2026-04-17T14:43:36Z</time></trkpt><trkpt lat="42.23901626492301" lon="13.999433138207033"><ele>321.0</ele><time>2026-04-17T14:43:37Z</time></trkpt><trkpt lat="42.23908442226856" lon="13.9993551605475"><ele>321.0</ele><time>2026-04-17T14:43:38Z</time></trkpt><trkpt lat="42.23918492046357" lon="13.999309060774465"><ele>321.0</ele><time>2026-04-17T14:43:39Z</time></trkpt><trkpt lat="42.23930478478234" lon="13.99933202925319"><ele>321.0</ele><time>2026-04-17T14:43:40Z</time></trkpt><trkpt lat="42.23943009133168" lon="13.99929891924654"><ele>321.0</ele><time>2026-04-17T14:43:41Z</time></trkpt><trkpt lat="42.23956758039823" lon="13.999281875572523"><ele>321.0</ele><time>2026-04-17T14:43:42Z</time></trkpt><trkpt lat="42.239696329147286" lon="13.99925612693394"><ele>321.0</ele><time>2026-04-17T14:43:43Z</time></trkpt><trkpt lat="42.23982462321327" lon="13.999268211125395"><ele>321.0</ele><time>2026-04-17T14:43:44Z</time></trkpt><trkpt lat="42.23995451928224" lon="13.999279992191793"><ele>321.0</ele><time>2026-04-17T14:43:45Z</time></trkpt><trkpt lat="42.24009160423466" lon="13.999286740130085"><ele>317.75</ele><time>2026-04-17T14:43:46Z</time></trkpt><trkpt lat="42.24022905877094" lon="13.99931118664971"><ele>314.5</ele><time>2026-04-17T14:43:47Z</time></trkpt><trkpt lat="42.24036557852757" lon="13.999361941880364"><ele>311.25</ele><time>2026-04-17T14:43:48Z</time></trkpt><trkpt lat="42.240501138140544" lon="13.99937619804965"><ele>308.0</ele><time>2026-04-17T14:43:49Z</time></trkpt><trkpt lat="42.24063045429469" lon="13.999367055101747"><ele>304.75</ele><time>2026-04-17T14:43:50Z</time></trkpt><trkpt lat="42.24075594428199" lon="13.999374790644477"><ele>301.5</ele><time>2026-04-17T14:43:51Z</time></trkpt><trkpt lat="42.2408756193045" lon="13.999412221779187"><ele>298.25</ele><time>2026-04-17T14:43:52Z</time></trkpt><trkpt lat="42.24098532518686" lon="13.9994283574369"><ele>295.0</ele><time>2026-04-17T14:43:53Z</time></trkpt><trkpt lat="42.24109307014715" lon="13.999449847193697"><ele>295.0</ele><time>2026-04-17T14:43:54Z</time></trkpt><trkpt lat="42.24118774258665" lon="13.99945286126689"><ele>295.0</ele><time>2026-04-17T14:43:55Z</time></trkpt><trkpt lat="42.241275832034944" lon="13.999481379599134"><ele>295.0</ele><time>2026-04-17T14:43:56Z</time></trkpt><trkpt lat="42.241368588786855" lon="13.999497014011803"><ele>295.0</ele><time>2026-04-17T14:43:57Z</time></trkpt><trkpt lat="42.24146719944961" lon="13.999492497404711"><ele>295.0</ele><time>2026-04-17T14:43:58Z</time></trkpt><trkpt lat="42.24158096999809" lon="13.999473352933064"><ele>292.3333333333333</ele><time>2026-04-17T14:43:59Z</time></trkpt><trkpt lat="42.24171801430351" lon="13.99944654385537"><ele>289.6666666666667</ele><time>2026-04-17T14:44:00Z</time></trkpt><trkpt lat="42.24187799062383" lon="13.99941490452784"><ele>287.0</ele><time>2026-04-17T14:44:01Z</time></trkpt><trkpt lat="42.24203476371795" lon="13.999410747932144"><ele>287.0</ele><time>2026-04-17T14:44:02Z</time></trkpt><trkpt lat="42.24217666290957" lon="13.999372619609355"><ele>287.0</ele><time>2026-04-17T14:44:03Z</time></trkpt><trkpt lat="42.24231487631648" lon="13.999368848436353"><ele>287.0</ele><time>2026-04-17T14:44:04Z</time></trkpt><trkpt lat="42.242444149953855" lon="13.999383779726196"><ele>287.0</ele><time>2026-04-17T14:44:05Z</time></trkpt><trkpt lat="42.242564051790595" lon="13.999418259592865"><ele>284.5</ele><time>2026-04-17T14:44:06Z</time></trkpt><trkpt lat="42.242690289422" lon="13.999452314881392"><ele>282.0</ele><time>2026-04-17T14:44:07Z</time></trkpt><trkpt lat="42.24283310641861" lon="13.999464592537063"><ele>279.5</ele><time>2026-04-17T14:44:08Z</time></trkpt><trkpt lat="42.24298139383114" lon="13.999432877951241"><ele>277.0</ele><time>2026-04-17T14:44:09Z</time></trkpt><trkpt lat="42.243116334723474" lon="13.999390339370544"><ele>274.0</ele><time>2026-04-17T14:44:10Z</time></trkpt><trkpt lat="42.243251238056416" lon="13.999388112147681"><ele>271.0</ele><time>2026-04-17T14:44:11Z</time></trkpt><trkpt lat="42.24338985018191" lon="13.999392867558605"><ele>268.0</ele><time>2026-04-17T14:44:12Z</time></trkpt><trkpt lat="42.24353792093741" lon="13.999422575504063"><ele>265.0</ele><time>2026-04-17T14:44:13Z</time></trkpt><trkpt lat="42.2436761139002" lon="13.999485799986457"><ele>265.0</ele><time>2026-04-17T14:44:14Z</time></trkpt><trkpt lat="42.24381701461209" lon="13.999499425008068"><ele>265.0</ele><time>2026-04-17T14:44:15Z</time></trkpt><trkpt lat="42.24396727177314" lon="13.999470580282056"><ele>265.0</ele><time>2026-04-17T14:44:16Z</time></trkpt><trkpt lat="42.244109125303765" lon="13.999466408286107"><ele>265.0</ele><time>2026-04-17T14:44:17Z</time></trkpt><trkpt lat="42.24424178285878" lon="13.999453313032376"><ele>262.0</ele><time>2026-04-17T14:44:18Z</time></trkpt><trkpt lat="42.24437512210008" lon="13.999493859383046"><ele>259.0</ele><time>2026-04-17T14:44:19Z</time></trkpt><trkpt lat="42.244508619212446" lon="13.999575268017733"><ele>256.0</ele><time>2026-04-17T14:44:20Z</time></trkpt><trkpt lat="42.24464293470882" lon="13.999631261795804"><ele>253.0</ele><time>2026-04-17T14:44:21Z</time></trkpt><trkpt lat="42.2447348597149" lon="13.99966757343311"><ele>253.4</ele><time>2026-04-17T14:44:22Z</time></trkpt><trkpt lat="42.244817926275466" lon="13.999663774104826"><ele>253.8</ele><time>2026-04-17T14:44:23Z</time></trkpt><trkpt lat="42.24489616265137" lon="13.999612048058752"><ele>254.2</ele><time>2026-04-17T14:44:24Z</time></trkpt><trkpt lat="42.24496017306933" lon="13.999491894690363"><ele>254.6</ele><time>2026-04-17T14:44:25Z</time></trkpt><trkpt lat="42.244999818902485" lon="13.999334342703923"><ele>255.0</ele><time>2026-04-17T14:44:26Z</time></trkpt><trkpt lat="42.245006803810234" lon="13.999145811920712"><ele>255.0</ele><time>2026-04-17T14:44:27Z</time></trkpt><trkpt lat="42.24499204046152" lon="13.998940878609334"><ele>255.0</ele><time>2026-04-17T14:44:28Z</time></trkpt><trkpt lat="42.24497166801068" lon="13.998721963694544"><ele>255.0</ele><time>2026-04-17T14:44:29Z</time></trkpt><trkpt lat="42.244965367692345" lon="13.998528326036578"><ele>255.0</ele><time>2026-04-17T14:44:30Z</time></trkpt><trkpt lat="42.24496413573039" lon="13.99836877480141"><ele>255.0</ele><time>2026-04-17T14:44:31Z</time></trkpt><trkpt lat="42.244964825323635" lon="13.998257759795742"><ele>255.0</ele><time>2026-04-17T14:44:32Z</time></trkpt><trkpt lat="42.24497902090061" lon="13.998169575833591"><ele>255.0</ele><time>2026-04-17T14:44:33Z</time></trkpt><trkpt lat="42.24509110400316" lon="13.998097396171058"><ele>255.0</ele><time>2026-04-17T14:44:35Z</time></trkpt><trkpt lat="42.24516785308228" lon="13.998154225130138"><ele>255.0</ele><time>2026-04-17T14:44:36Z</time></trkpt><trkpt lat="42.245217677504456" lon="13.998243683224889"><ele>255.0</ele><time>2026-04-17T14:44:37Z</time></trkpt><trkpt lat="42.24525612571235" lon="13.998335894024976"><ele>255.0</ele><time>2026-04-17T14:44:38Z</time></trkpt><trkpt lat="42.24531375719559" lon="13.998468409729055"><ele>255.0</ele><time>2026-04-17T14:44:39Z</time></trkpt><trkpt lat="42.245350681395905" lon="13.998604870538601"><ele>255.0</ele><time>2026-04-17T14:44:40Z</time></trkpt><trkpt lat="42.245408214911265" lon="13.998731104795832"><ele>255.0</ele><time>2026-04-17T14:44:41Z</time></trkpt><trkpt lat="42.24547680515928" lon="13.998859908627423"><ele>255.0</ele><time>2026-04-17T14:44:42Z</time></trkpt><trkpt lat="42.24556526233745" lon="13.998961689748791"><ele>255.0</ele><time>2026-04-17T14:44:43Z</time></trkpt><trkpt lat="42.24565761593416" lon="13.99903625780954"><ele>255.0</ele><time>2026-04-17T14:44:44Z</time></trkpt><trkpt lat="42.24573848779777" lon="13.999101321637239"><ele>255.0</ele><time>2026-04-17T14:44:45Z</time></trkpt><trkpt lat="42.245786469302566" lon="13.99920220428993"><ele>252.0</ele><time>2026-04-17T14:44:46Z</time></trkpt><trkpt lat="42.245762485663924" lon="13.999335884349113"><ele>249.0</ele><time>2026-04-17T14:44:47Z</time></trkpt><trkpt lat="42.245706428830516" lon="13.99944188736965"><ele>246.0</ele><time>2026-04-17T14:44:48Z</time></trkpt><trkpt lat="42.24563040995681" lon="13.999589001616453"><ele>243.0</ele><time>2026-04-17T14:44:49Z</time></trkpt><trkpt lat="42.24555124838857" lon="13.999767693635869"><ele>243.0</ele><time>2026-04-17T14:44:50Z</time></trkpt><trkpt lat="42.24544811893695" lon="13.999922102993784"><ele>243.0</ele><time>2026-04-17T14:44:51.001Z</time></trkpt><trkpt lat="42.24536848652152" lon="14.000063705902095"><ele>243.0</ele><time>2026-04-17T14:44:52Z</time></trkpt><trkpt lat="42.24529018569852" lon="14.000155843743217"><ele>243.0</ele><time>2026-04-17T14:44:53Z</time></trkpt><trkpt lat="42.24519467736691" lon="14.000221695582722"><ele>243.0</ele><time>2026-04-17T14:44:54Z</time></trkpt><trkpt lat="42.2450670969995" lon="14.000284611569704"><ele>243.0</ele><time>2026-04-17T14:44:55Z</time></trkpt><trkpt lat="42.24496166721017" lon="14.000398144916527"><ele>243.0</ele><time>2026-04-17T14:44:56Z</time></trkpt><trkpt lat="42.24486760431511" lon="14.000543381952154"><ele>243.0</ele><time>2026-04-17T14:44:57Z</time></trkpt><trkpt lat="42.24481194908717" lon="14.000718067320344"><ele>245.5</ele><time>2026-04-17T14:44:58Z</time></trkpt><trkpt lat="42.24474446977676" lon="14.000826110077822"><ele>248.0</ele><time>2026-04-17T14:44:59Z</time></trkpt><trkpt lat="42.24463629563293" lon="14.000906874043011"><ele>250.5</ele><time>2026-04-17T14:45:00Z</time></trkpt><trkpt lat="42.244512463103085" lon="14.000996610524208"><ele>253.0</ele><time>2026-04-17T14:45:01Z</time></trkpt><trkpt lat="42.24437272099468" lon="14.001094543011035"><ele>245.66666666666666</ele><time>2026-04-17T14:45:02Z</time></trkpt><trkpt lat="42.24423463848654" lon="14.001217323397071"><ele>238.33333333333331</ele><time>2026-04-17T14:45:03Z</time></trkpt><trkpt lat="42.24409953984626" lon="14.001315699940024"><ele>231.0</ele><time>2026-04-17T14:45:04Z</time></trkpt><trkpt lat="42.24397968080159" lon="14.00140993288333"><ele>234.25</ele><time>2026-04-17T14:45:05Z</time></trkpt><trkpt lat="42.243860350926276" lon="14.001491838781869"><ele>237.5</ele><time>2026-04-17T14:45:06Z</time></trkpt><trkpt lat="42.24375749330998" lon="14.001566546412663"><ele>240.75</ele><time>2026-04-17T14:45:07Z</time></trkpt><trkpt lat="42.24365378007824" lon="14.00163720287943"><ele>244.0</ele><time>2026-04-17T14:45:08Z</time></trkpt><trkpt lat="42.24354244222162" lon="14.001655074866008"><ele>243.0</ele><time>2026-04-17T14:45:09Z</time></trkpt><trkpt lat="42.24343829829375" lon="14.001689911073694"><ele>241.99999999999997</ele><time>2026-04-17T14:45:10Z</time></trkpt><trkpt lat="42.24334033530804" lon="14.001750522432243"><ele>240.99999999999997</ele><time>2026-04-17T14:45:11Z</time></trkpt><trkpt lat="42.24324839056496" lon="14.001788265596215"><ele>240.0</ele><time>2026-04-17T14:45:12Z</time></trkpt><trkpt lat="42.24316638916874" lon="14.001854442641118"><ele>239.0</ele><time>2026-04-17T14:45:13Z</time></trkpt><trkpt lat="42.24309231647591" lon="14.001941283371933"><ele>239.0</ele><time>2026-04-17T14:45:14Z</time></trkpt><trkpt lat="42.243034602922265" lon="14.002064880384005"><ele>238.99999999999997</ele><time>2026-04-17T14:45:15Z</time></trkpt><trkpt lat="42.24297591386276" lon="14.002210506221214"><ele>238.99999999999997</ele><time>2026-04-17T14:45:16Z</time></trkpt><trkpt lat="42.24291309939064" lon="14.002322359376265"><ele>239.0</ele><time>2026-04-17T14:45:17Z</time></trkpt><trkpt lat="42.24286113623006" lon="14.002427304812972"><ele>239.0</ele><time>2026-04-17T14:45:18Z</time></trkpt><trkpt lat="42.24281896684089" lon="14.002511408407551"><ele>235.66666666666669</ele><time>2026-04-17T14:45:19Z</time></trkpt><trkpt lat="42.24278764711979" lon="14.002596229389995"><ele>232.33333333333334</ele><time>2026-04-17T14:45:20Z</time></trkpt><trkpt lat="42.24278860682799" lon="14.002698535094797"><ele>229.0</ele><time>2026-04-17T14:45:21Z</time></trkpt><trkpt lat="42.24282966563808" lon="14.002780280998609"><ele>225.66666666666669</ele><time>2026-04-17T14:45:22Z</time></trkpt><trkpt lat="42.242901136784425" lon="14.002830113422439"><ele>222.33333333333334</ele><time>2026-04-17T14:45:23Z</time></trkpt><trkpt lat="42.242991805332245" lon="14.002845285562536"><ele>219.0</ele><time>2026-04-17T14:45:24Z</time></trkpt><trkpt lat="42.243086918039964" lon="14.002843250870363"><ele>216.5</ele><time>2026-04-17T14:45:25Z</time></trkpt><trkpt lat="42.2432057530805" lon="14.00282255994427"><ele>214.0</ele><time>2026-04-17T14:45:26Z</time></trkpt><trkpt lat="42.24334737336358" lon="14.002809849579613"><ele>211.5</ele><time>2026-04-17T14:45:27Z</time></trkpt><trkpt lat="42.24347765665875" lon="14.002800910842923"><ele>209.0</ele><time>2026-04-17T14:45:28Z</time></trkpt><trkpt lat="42.243608678786586" lon="14.002815466250121"><ele>209.0</ele><time>2026-04-17T14:45:29Z</time></trkpt><trkpt lat="42.243730988838614" lon="14.002814617968754"><ele>209.0</ele><time>2026-04-17T14:45:30Z</time></trkpt><trkpt lat="42.243834315740756" lon="14.0028224986459"><ele>209.0</ele><time>2026-04-17T14:45:31Z</time></trkpt><trkpt lat="42.24392061612642" lon="14.002848711554073"><ele>209.0</ele><time>2026-04-17T14:45:32Z</time></trkpt><trkpt lat="42.244019488011865" lon="14.002903934039775"><ele>209.0</ele><time>2026-04-17T14:45:33Z</time></trkpt><trkpt lat="42.24411923906869" lon="14.0029922686454"><ele>208.0</ele><time>2026-04-17T14:45:34Z</time></trkpt><trkpt lat="42.244224224216815" lon="14.003094377453001"><ele>207.0</ele><time>2026-04-17T14:45:35Z</time></trkpt><trkpt lat="42.24432225160855" lon="14.003190366787255"><ele>206.0</ele><time>2026-04-17T14:45:36Z</time></trkpt><trkpt lat="42.24439100321221" lon="14.003255475539829"><ele>205.0</ele><time>2026-04-17T14:45:37Z</time></trkpt><trkpt lat="42.244472621495646" lon="14.003308044599482"><ele>204.0</ele><time>2026-04-17T14:45:38Z</time></trkpt><trkpt lat="42.244557539144786" lon="14.003357137151891"><ele>203.0</ele><time>2026-04-17T14:45:39Z</time></trkpt><trkpt lat="42.24465838722531" lon="14.003379166411941"><ele>202.0</ele><time>2026-04-17T14:45:40Z</time></trkpt><trkpt lat="42.24476184851199" lon="14.0033856462768"><ele>201.0</ele><time>2026-04-17T14:45:41Z</time></trkpt><trkpt lat="42.24486101499746" lon="14.003369250581702"><ele>200.0</ele><time>2026-04-17T14:45:42Z</time></trkpt><trkpt lat="42.24496592425423" lon="14.003343664494452"><ele>199.0</ele><time>2026-04-17T14:45:43Z</time></trkpt><trkpt lat="42.245073921866" lon="14.003317519813926"><ele>199.0</ele><time>2026-04-17T14:45:44Z</time></trkpt><trkpt lat="42.245178804289196" lon="14.003288308209362"><ele>199.0</ele><time>2026-04-17T14:45:45Z</time></trkpt><trkpt lat="42.24527505555706" lon="14.00325845979929"><ele>199.0</ele><time>2026-04-17T14:45:46Z</time></trkpt><trkpt lat="42.24536918379815" lon="14.00326678478473"><ele>199.0</ele><time>2026-04-17T14:45:47Z</time></trkpt><trkpt lat="42.24545786363811" lon="14.003284143740514"><ele>199.0</ele><time>2026-04-17T14:45:48Z</time></trkpt><trkpt lat="42.24556176336455" lon="14.003308777837033"><ele>195.75</ele><time>2026-04-17T14:45:49Z</time></trkpt><trkpt lat="42.245675809695335" lon="14.003337950308726"><ele>192.5</ele><time>2026-04-17T14:45:50Z</time></trkpt><trkpt lat="42.24579115494975" lon="14.003367579766543"><ele>189.25</ele><time>2026-04-17T14:45:51Z</time></trkpt><trkpt lat="42.24590256086273" lon="14.003381489612678"><ele>186.0</ele><time>2026-04-17T14:45:52Z</time></trkpt><trkpt lat="42.2460156317478" lon="14.003409749629979"><ele>186.0</ele><time>2026-04-17T14:45:53Z</time></trkpt><trkpt lat="42.246124544413775" lon="14.003430000579632"><ele>186.0</ele><time>2026-04-17T14:45:54Z</time></trkpt><trkpt lat="42.24623285409814" lon="14.00342368252393"><ele>186.0</ele><time>2026-04-17T14:45:55Z</time></trkpt><trkpt lat="42.246335221042344" lon="14.003409600085723"><ele>186.0</ele><time>2026-04-17T14:45:56Z</time></trkpt><trkpt lat="42.24643875735128" lon="14.003398343937134"><ele>186.0</ele><time>2026-04-17T14:45:57Z</time></trkpt><trkpt lat="42.2465400563935" lon="14.003386471889995"><ele>185.0</ele><time>2026-04-17T14:45:58Z</time></trkpt><trkpt lat="42.246643362757666" lon="14.003376467849385"><ele>184.0</ele><time>2026-04-17T14:45:59Z</time></trkpt><trkpt lat="42.24674639223314" lon="14.00336898698815"><ele>183.0</ele><time>2026-04-17T14:46:00Z</time></trkpt><trkpt lat="42.24684883335521" lon="14.003363235842885"><ele>182.0</ele><time>2026-04-17T14:46:01Z</time></trkpt><trkpt lat="42.24695665547355" lon="14.003353351575338"><ele>181.0</ele><time>2026-04-17T14:46:02Z</time></trkpt><trkpt lat="42.247064426450464" lon="14.00334163895585"><ele>181.0</ele><time>2026-04-17T14:46:03Z</time></trkpt><trkpt lat="42.247169794261495" lon="14.003332624001493"><ele>181.0</ele><time>2026-04-17T14:46:04Z</time></trkpt><trkpt lat="42.24727568821301" lon="14.003328162707101"><ele>181.0</ele><time>2026-04-17T14:46:05Z</time></trkpt><trkpt lat="42.24738223342106" lon="14.00332505045988"><ele>181.0</ele><time>2026-04-17T14:46:06Z</time></trkpt><trkpt lat="42.247487742948245" lon="14.003326913125077"><ele>181.0</ele><time>2026-04-17T14:46:07Z</time></trkpt><trkpt lat="42.24759404512204" lon="14.00333903776031"><ele>180.4</ele><time>2026-04-17T14:46:08Z</time></trkpt><trkpt lat="42.24769430477877" lon="14.003371717721217"><ele>179.8</ele><time>2026-04-17T14:46:09Z</time></trkpt><trkpt lat="42.247797154280256" lon="14.003385652563065"><ele>179.20000000000002</ele><time>2026-04-17T14:46:10Z</time></trkpt><trkpt lat="42.247895319260465" lon="14.00339970168704"><ele>178.60000000000002</ele><time>2026-04-17T14:46:11Z</time></trkpt><trkpt lat="42.24800033967692" lon="14.003414731926188"><ele>178.0</ele><time>2026-04-17T14:46:12Z</time></trkpt><trkpt lat="42.248107630363634" lon="14.003430648917442"><ele>176.0</ele><time>2026-04-17T14:46:13Z</time></trkpt><trkpt lat="42.24822609037564" lon="14.003429390185772"><ele>174.0</ele><time>2026-04-17T14:46:14Z</time></trkpt><trkpt lat="42.24833308146316" lon="14.003456335788199"><ele>172.0</ele><time>2026-04-17T14:46:15Z</time></trkpt><trkpt lat="42.24844941985274" lon="14.003463887537627"><ele>170.0</ele><time>2026-04-17T14:46:16Z</time></trkpt><trkpt lat="42.24856642536948" lon="14.003479852754491"><ele>170.0</ele><time>2026-04-17T14:46:17Z</time></trkpt><trkpt lat="42.24868010282772" lon="14.00349835559884"><ele>170.0</ele><time>2026-04-17T14:46:18Z</time></trkpt><trkpt lat="42.24879800906814" lon="14.00351946102133"><ele>170.0</ele><time>2026-04-17T14:46:19Z</time></trkpt><trkpt lat="42.24890806248462" lon="14.00353620760197"><ele>170.0</ele><time>2026-04-17T14:46:20Z</time></trkpt><trkpt lat="42.24899768945847" lon="14.00355063979695"><ele>170.0</ele><time>2026-04-17T14:46:21Z</time></trkpt><trkpt lat="42.249084127557474" lon="14.003563128430677"><ele>169.0</ele><time>2026-04-17T14:46:22Z</time></trkpt><trkpt lat="42.24917483266447" lon="14.003586991692666"><ele>168.0</ele><time>2026-04-17T14:46:23Z</time></trkpt><trkpt lat="42.24927079736514" lon="14.003614688616638"><ele>167.0</ele><time>2026-04-17T14:46:24Z</time></trkpt><trkpt lat="42.249371955799646" lon="14.003643987726894"><ele>166.0</ele><time>2026-04-17T14:46:25Z</time></trkpt><trkpt lat="42.24947812679639" lon="14.00367026175282"><ele>165.0</ele><time>2026-04-17T14:46:26Z</time></trkpt><trkpt lat="42.24958204214141" lon="14.003697348758537"><ele>165.0</ele><time>2026-04-17T14:46:27Z</time></trkpt><trkpt lat="42.249676824423126" lon="14.003719405449925"><ele>165.0</ele><time>2026-04-17T14:46:28Z</time></trkpt><trkpt lat="42.24977552747301" lon="14.003741981438916"><ele>165.0</ele><time>2026-04-17T14:46:29Z</time></trkpt><trkpt lat="42.24988472579774" lon="14.003772919296676"><ele>165.0</ele><time>2026-04-17T14:46:30Z</time></trkpt><trkpt lat="42.24999360193444" lon="14.00380405993448"><ele>165.0</ele><time>2026-04-17T14:46:31Z</time></trkpt><trkpt lat="42.2500813501875" lon="14.003843808119989"><ele>163.16666666666666</ele><time>2026-04-17T14:46:32Z</time></trkpt><trkpt lat="42.25014703821123" lon="14.003866411060239"><ele>161.33333333333334</ele><time>2026-04-17T14:46:33Z</time></trkpt><trkpt lat="42.25021972917148" lon="14.003873020736357"><ele>159.5</ele><time>2026-04-17T14:46:34Z</time></trkpt><trkpt lat="42.25029768576595" lon="14.003854898187264"><ele>157.66666666666669</ele><time>2026-04-17T14:46:35Z</time></trkpt><trkpt lat="42.250379260549" lon="14.003805453060945"><ele>155.83333333333334</ele><time>2026-04-17T14:46:36Z</time></trkpt><trkpt lat="42.2504608082026" lon="14.003760997090492"><ele>154.0</ele><time>2026-04-17T14:46:37Z</time></trkpt><trkpt lat="42.25054134364986" lon="14.0037188022598"><ele>151.6</ele><time>2026-04-17T14:46:38Z</time></trkpt><trkpt lat="42.250637292348586" lon="14.003723637537217"><ele>149.2</ele><time>2026-04-17T14:46:39Z</time></trkpt><trkpt lat="42.25073681660315" lon="14.003728344631865"><ele>146.79999999999998</ele><time>2026-04-17T14:46:40Z</time></trkpt><trkpt lat="42.250841695809484" lon="14.003719984762217"><ele>144.4</ele><time>2026-04-17T14:46:41Z</time></trkpt><trkpt lat="42.250941621826726" lon="14.003729954706065"><ele>142.0</ele><time>2026-04-17T14:46:42Z</time></trkpt><trkpt lat="42.25104291636445" lon="14.003734180577156"><ele>142.0</ele><time>2026-04-17T14:46:43Z</time></trkpt><trkpt lat="42.251139378934106" lon="14.003741352414583"><ele>142.0</ele><time>2026-04-17T14:46:44Z</time></trkpt><trkpt lat="42.251227332342395" lon="14.003758677255618"><ele>142.0</ele><time>2026-04-17T14:46:45Z</time></trkpt><trkpt lat="42.251311300014684" lon="14.003789839234337"><ele>142.0</ele><time>2026-04-17T14:46:46Z</time></trkpt><trkpt lat="42.25139599080898" lon="14.003847858004953"><ele>142.0</ele><time>2026-04-17T14:46:47Z</time></trkpt><trkpt lat="42.251463811760395" lon="14.00395260640606"><ele>139.79999999999998</ele><time>2026-04-17T14:46:48.001Z</time></trkpt><trkpt lat="42.25154177437674" lon="14.004041241074882"><ele>137.6</ele><time>2026-04-17T14:46:49.001Z</time></trkpt><trkpt lat="42.25160882473187" lon="14.00413203173267"><ele>135.39999999999998</ele><time>2026-04-17T14:46:50.001Z</time></trkpt><trkpt lat="42.25166572026729" lon="14.004217630255512"><ele>133.2</ele><time>2026-04-17T14:46:51.001Z</time></trkpt><trkpt lat="42.25172864612395" lon="14.00430363149854"><ele>131.0</ele><time>2026-04-17T14:46:52.001Z</time></trkpt><trkpt lat="42.25176586339249" lon="14.004422292147451"><ele>130.8</ele><time>2026-04-17T14:46:53.001Z</time></trkpt><trkpt lat="42.251794642539814" lon="14.004554814103608"><ele>130.6</ele><time>2026-04-17T14:46:54.001Z</time></trkpt><trkpt lat="42.25181132350384" lon="14.00469470875011"><ele>130.4</ele><time>2026-04-17T14:46:55.001Z</time></trkpt><trkpt lat="42.251828529968236" lon="14.004832674911395"><ele>130.2</ele><time>2026-04-17T14:46:56.001Z</time></trkpt><trkpt lat="42.25185807938707" lon="14.004963157622328"><ele>130.0</ele><time>2026-04-17T14:46:57.001Z</time></trkpt><trkpt lat="42.251900165761334" lon="14.005076838673622"><ele>130.0</ele><time>2026-04-17T14:46:58.001Z</time></trkpt><trkpt lat="42.25192418115482" lon="14.005198276827553"><ele>130.0</ele><time>2026-04-17T14:46:59.001Z</time></trkpt><trkpt lat="42.25195917706451" lon="14.005307463880392"><ele>130.0</ele><time>2026-04-17T14:47:00.001Z</time></trkpt><trkpt lat="42.25199503832336" lon="14.005416020561267"><ele>130.0</ele><time>2026-04-17T14:47:01.001Z</time></trkpt><trkpt lat="42.2520277927081" lon="14.005500914297643"><ele>130.0</ele><time>2026-04-17T14:47:02.001Z</time></trkpt><trkpt lat="42.25210076474811" lon="14.005617362912261"><ele>130.0</ele><time>2026-04-17T14:47:04.001Z</time></trkpt><trkpt lat="42.2521684427143" lon="14.00568134227357"><ele>130.0</ele><time>2026-04-17T14:47:06.001Z</time></trkpt><trkpt lat="42.252237338140176" lon="14.005700224365807"><ele>130.0</ele><time>2026-04-17T14:47:09.001Z</time></trkpt><trkpt lat="42.252358360825106" lon="14.00574385774335"><ele>130.0</ele><time>2026-04-17T14:47:54Z</time></trkpt><trkpt lat="42.25245397762936" lon="14.005750845556088"><ele>130.0</ele><time>2026-04-17T14:47:55Z</time></trkpt><trkpt lat="42.25254930013274" lon="14.005745257612892"><ele>128.8</ele><time>2026-04-17T14:47:56Z</time></trkpt><trkpt lat="42.252638109794596" lon="14.005743338486075"><ele>127.6</ele><time>2026-04-17T14:47:57Z</time></trkpt><trkpt lat="42.25273980038346" lon="14.005749080579498"><ele>126.4</ele><time>2026-04-17T14:47:58Z</time></trkpt><trkpt lat="42.25283695392611" lon="14.005756718540377"><ele>125.2</ele><time>2026-04-17T14:47:59Z</time></trkpt><trkpt lat="42.25291637118817" lon="14.005793531557794"><ele>124.0</ele><time>2026-04-17T14:48:00Z</time></trkpt><trkpt lat="42.25299332363712" lon="14.005813505315894"><ele>124.00000000000001</ele><time>2026-04-17T14:48:01Z</time></trkpt><trkpt lat="42.2530576251708" lon="14.005803543888408"><ele>124.0</ele><time>2026-04-17T14:48:02Z</time></trkpt><trkpt lat="42.253120817972054" lon="14.005817877539238"><ele>124.0</ele><time>2026-04-17T14:48:03Z</time></trkpt><trkpt lat="42.25318469249938" lon="14.005821310880142"><ele>124.0</ele><time>2026-04-17T14:48:04Z</time></trkpt><trkpt lat="42.25329228358213" lon="14.005737209879703"><ele>124.00000000000001</ele><time>2026-04-17T14:48:06Z</time></trkpt><trkpt lat="42.25333348305409" lon="14.005656541398807"><ele>124.0</ele><time>2026-04-17T14:48:07Z</time></trkpt><trkpt lat="42.25337717077207" lon="14.005578705632976"><ele>123.80000000000001</ele><time>2026-04-17T14:48:08Z</time></trkpt><trkpt lat="42.25349108046011" lon="14.005545324419272"><ele>123.60000000000001</ele><time>2026-04-17T14:48:10Z</time></trkpt><trkpt lat="42.253537149341874" lon="14.005619165290824"><ele>123.4</ele><time>2026-04-17T14:48:11Z</time></trkpt><trkpt lat="42.25357074624617" lon="14.00571788676006"><ele>123.2</ele><time>2026-04-17T14:48:12Z</time></trkpt><trkpt lat="42.253613809470274" lon="14.005819638166365"><ele>123.0</ele><time>2026-04-17T14:48:13Z</time></trkpt><trkpt lat="42.253686904424676" lon="14.005920726671121"><ele>123.0</ele><time>2026-04-17T14:48:14Z</time></trkpt><trkpt lat="42.25377223245695" lon="14.006005366270836"><ele>123.00000000000001</ele><time>2026-04-17T14:48:15Z</time></trkpt><trkpt lat="42.25387352387437" lon="14.006056221087936"><ele>123.00000000000001</ele><time>2026-04-17T14:48:16Z</time></trkpt><trkpt lat="42.253972574573375" lon="14.006083935408613"><ele>123.0</ele><time>2026-04-17T14:48:17Z</time></trkpt><trkpt lat="42.25405677770598" lon="14.006100236961482"><ele>123.0</ele><time>2026-04-17T14:48:18Z</time></trkpt><trkpt lat="42.25412724155105" lon="14.006122577352839"><ele>122.0</ele><time>2026-04-17T14:48:20Z</time></trkpt><trkpt lat="42.254189647794334" lon="14.00611116641293"><ele>121.00000000000001</ele><time>2026-04-17T14:48:22Z</time></trkpt><trkpt lat="42.254304676020574" lon="14.005972907526328"><ele>120.00000000000001</ele><time>2026-04-17T14:48:24Z</time></trkpt><trkpt lat="42.254359080853455" lon="14.005874548318015"><ele>119.0</ele><time>2026-04-17T14:48:25Z</time></trkpt><trkpt lat="42.25442353370712" lon="14.005761434461013"><ele>118.0</ele><time>2026-04-17T14:48:26Z</time></trkpt><trkpt lat="42.25449786398543" lon="14.005645552024461"><ele>118.0</ele><time>2026-04-17T14:48:27Z</time></trkpt><trkpt lat="42.25458588426049" lon="14.005533424774422"><ele>118.0</ele><time>2026-04-17T14:48:28Z</time></trkpt><trkpt lat="42.25467029391068" lon="14.005415169978846"><ele>118.0</ele><time>2026-04-17T14:48:29Z</time></trkpt><trkpt lat="42.254754174476155" lon="14.005295058167166"><ele>118.0</ele><time>2026-04-17T14:48:30Z</time></trkpt><trkpt lat="42.254837275634614" lon="14.005174314904963"><ele>118.25</ele><time>2026-04-17T14:48:31Z</time></trkpt><trkpt lat="42.254927824070016" lon="14.005043392500461"><ele>118.5</ele><time>2026-04-17T14:48:32Z</time></trkpt><trkpt lat="42.25501596716826" lon="14.00491707305835"><ele>118.75</ele><time>2026-04-17T14:48:33Z</time></trkpt><trkpt lat="42.255109066769194" lon="14.004794262442225"><ele>119.0</ele><time>2026-04-17T14:48:34Z</time></trkpt><trkpt lat="42.25520299715331" lon="14.004673777519352"><ele>119.0</ele><time>2026-04-17T14:48:35Z</time></trkpt><trkpt lat="42.25530355420865" lon="14.004565535680028"><ele>119.0</ele><time>2026-04-17T14:48:36Z</time></trkpt><trkpt lat="42.25541564426904" lon="14.004473730078997"><ele>119.0</ele><time>2026-04-17T14:48:37Z</time></trkpt><trkpt lat="42.25554333405343" lon="14.00443884797733"><ele>119.0</ele><time>2026-04-17T14:48:38Z</time></trkpt><trkpt lat="42.25567913206204" lon="14.004392758613788"><ele>118.25</ele><time>2026-04-17T14:48:39Z</time></trkpt><trkpt lat="42.25582465755478" lon="14.00439894221538"><ele>117.5</ele><time>2026-04-17T14:48:40Z</time></trkpt><trkpt lat="42.2559711933227" lon="14.004419106618293"><ele>116.75</ele><time>2026-04-17T14:48:41Z</time></trkpt><trkpt lat="42.25612014557521" lon="14.004446126819314"><ele>116.0</ele><time>2026-04-17T14:48:42Z</time></trkpt><trkpt lat="42.25627274165765" lon="14.004465963513706"><ele>116.0</ele><time>2026-04-17T14:48:43Z</time></trkpt><trkpt lat="42.25642897042345" lon="14.004475363547678"><ele>116.0</ele><time>2026-04-17T14:48:44Z</time></trkpt><trkpt lat="42.25658692806934" lon="14.004481847985696"><ele>116.0</ele><time>2026-04-17T14:48:45Z</time></trkpt><trkpt lat="42.25674529082906" lon="14.004481914394496"><ele>115.75</ele><time>2026-04-17T14:48:46Z</time></trkpt><trkpt lat="42.256889833621116" lon="14.00445732760411"><ele>115.5</ele><time>2026-04-17T14:48:47Z</time></trkpt><trkpt lat="42.25702192824147" lon="14.004411915745871"><ele>115.25</ele><time>2026-04-17T14:48:48Z</time></trkpt><trkpt lat="42.25715351448551" lon="14.004354853709305"><ele>115.0</ele><time>2026-04-17T14:48:49Z</time></trkpt><trkpt lat="42.25728853807092" lon="14.004291383826276"><ele>115.0</ele><time>2026-04-17T14:48:50Z</time></trkpt><trkpt lat="42.257424645258176" lon="14.004229886576052"><ele>115.0</ele><time>2026-04-17T14:48:51Z</time></trkpt><trkpt lat="42.25756241586165" lon="14.00416694062432"><ele>115.0</ele><time>2026-04-17T14:48:52Z</time></trkpt><trkpt lat="42.257702355375606" lon="14.00410299981517"><ele>115.0</ele><time>2026-04-17T14:48:53Z</time></trkpt><trkpt lat="42.25783945690222" lon="14.004041905802625"><ele>115.66666666666667</ele><time>2026-04-17T14:48:54.001Z</time></trkpt><trkpt lat="42.25798650247231" lon="14.00397331972892"><ele>116.33333333333334</ele><time>2026-04-17T14:48:55.001Z</time></trkpt><trkpt lat="42.25812580187918" lon="14.003906092776784"><ele>117.0</ele><time>2026-04-17T14:48:56.001Z</time></trkpt><trkpt lat="42.25827101614102" lon="14.003841292677281"><ele>117.0</ele><time>2026-04-17T14:48:57.001Z</time></trkpt><trkpt lat="42.25841283269341" lon="14.003778229700417"><ele>117.0</ele><time>2026-04-17T14:48:58.001Z</time></trkpt><trkpt lat="42.2585547970155" lon="14.003713112949189"><ele>117.0</ele><time>2026-04-17T14:48:59.001Z</time></trkpt><trkpt lat="42.258689743450695" lon="14.003657948136713"><ele>117.0</ele><time>2026-04-17T14:49:00.001Z</time></trkpt><trkpt lat="42.25881462669233" lon="14.003610585398294"><ele>114.66666666666666</ele><time>2026-04-17T14:49:01.001Z</time></trkpt><trkpt lat="42.2589939924205" lon="14.003505219653757"><ele>112.33333333333333</ele><time>2026-04-17T14:49:02.001Z</time></trkpt><trkpt lat="42.2591420657288" lon="14.003440035143134"><ele>110.0</ele><time>2026-04-17T14:49:03.001Z</time></trkpt><trkpt lat="42.259291031692186" lon="14.003384391814675"><ele>110.0</ele><time>2026-04-17T14:49:04.001Z</time></trkpt><trkpt lat="42.25944310322466" lon="14.003333934893682"><ele>110.0</ele><time>2026-04-17T14:49:05.001Z</time></trkpt><trkpt lat="42.25959265283324" lon="14.003284447896558"><ele>110.0</ele><time>2026-04-17T14:49:06.001Z</time></trkpt><trkpt lat="42.259747761623935" lon="14.003235714444736"><ele>112.33333333333333</ele><time>2026-04-17T14:49:07.001Z</time></trkpt><trkpt lat="42.259904433025966" lon="14.003194781588359"><ele>114.66666666666666</ele><time>2026-04-17T14:49:08.001Z</time></trkpt><trkpt lat="42.260062653271966" lon="14.003154745709855"><ele>117.0</ele><time>2026-04-17T14:49:09.001Z</time></trkpt><trkpt lat="42.260220551637836" lon="14.003118617474547"><ele>117.0</ele><time>2026-04-17T14:49:10.001Z</time></trkpt><trkpt lat="42.26037643078265" lon="14.00308358338334"><ele>117.0</ele><time>2026-04-17T14:49:11.001Z</time></trkpt><trkpt lat="42.260531531476715" lon="14.003047563311867"><ele>117.0</ele><time>2026-04-17T14:49:12.001Z</time></trkpt><trkpt lat="42.260684000044634" lon="14.003013751330824"><ele>116.66666666666666</ele><time>2026-04-17T14:49:13.001Z</time></trkpt><trkpt lat="42.2608382930922" lon="14.00297943770355"><ele>116.33333333333333</ele><time>2026-04-17T14:49:14.001Z</time></trkpt><trkpt lat="42.260989116680996" lon="14.002945410820649"><ele>116.0</ele><time>2026-04-17T14:49:15.001Z</time></trkpt><trkpt lat="42.261134548841554" lon="14.002919803290823"><ele>116.0</ele><time>2026-04-17T14:49:16.001Z</time></trkpt><trkpt lat="42.26127374346032" lon="14.002893856331292"><ele>116.0</ele><time>2026-04-17T14:49:17.001Z</time></trkpt><trkpt lat="42.261401631779904" lon="14.002864373667732"><ele>116.0</ele><time>2026-04-17T14:49:18.001Z</time></trkpt><trkpt lat="42.261526864461985" lon="14.002844708267125"><ele>116.0</ele><time>2026-04-17T14:49:19.001Z</time></trkpt><trkpt lat="42.26165038785761" lon="14.002834445187071"><ele>114.4</ele><time>2026-04-17T14:49:20.001Z</time></trkpt><trkpt lat="42.26177072443054" lon="14.002833247774015"><ele>112.8</ele><time>2026-04-17T14:49:21.001Z</time></trkpt><trkpt lat="42.261876503881034" lon="14.002842477601744"><ele>111.20000000000002</ele><time>2026-04-17T14:49:22.001Z</time></trkpt><trkpt lat="42.26196800804537" lon="14.002862753293597"><ele>109.60000000000001</ele><time>2026-04-17T14:49:23.001Z</time></trkpt><trkpt lat="42.26205190978291" lon="14.002898382260517"><ele>108.0</ele><time>2026-04-17T14:49:24.001Z</time></trkpt><trkpt lat="42.26211259422978" lon="14.003000214866766"><ele>108.0</ele><time>2026-04-17T14:49:25.001Z</time></trkpt><trkpt lat="42.26217961812381" lon="14.003099530480245"><ele>108.00000000000001</ele><time>2026-04-17T14:49:26.001Z</time></trkpt><trkpt lat="42.26225853077577" lon="14.00318760394289"><ele>108.00000000000001</ele><time>2026-04-17T14:49:27.001Z</time></trkpt><trkpt lat="42.26235884760955" lon="14.003255718861446"><ele>108.0</ele><time>2026-04-17T14:49:28.001Z</time></trkpt><trkpt lat="42.26246787690699" lon="14.003310637156876"><ele>108.0</ele><time>2026-04-17T14:49:29.001Z</time></trkpt><trkpt lat="42.262579685104406" lon="14.003357368344265"><ele>107.25</ele><time>2026-04-17T14:49:30.001Z</time></trkpt><trkpt lat="42.262686733279615" lon="14.003404642790096"><ele>106.5</ele><time>2026-04-17T14:49:31.001Z</time></trkpt><trkpt lat="42.26279724968143" lon="14.003458232686807"><ele>105.75</ele><time>2026-04-17T14:49:32.001Z</time></trkpt><trkpt lat="42.2629046394445" lon="14.003518055524292"><ele>105.0</ele><time>2026-04-17T14:49:33.001Z</time></trkpt><trkpt lat="42.26300986982815" lon="14.00357629524557"><ele>105.0</ele><time>2026-04-17T14:49:34.001Z</time></trkpt><trkpt lat="42.26311095731311" lon="14.003629972968183"><ele>105.0</ele><time>2026-04-17T14:49:35.001Z</time></trkpt><trkpt lat="42.263214130690315" lon="14.00368418517301"><ele>105.0</ele><time>2026-04-17T14:49:36.001Z</time></trkpt><trkpt lat="42.26331760242004" lon="14.003740976431214"><ele>105.0</ele><time>2026-04-17T14:49:37.001Z</time></trkpt><trkpt lat="42.26340623061395" lon="14.00379501175847"><ele>105.0</ele><time>2026-04-17T14:49:38.001Z</time></trkpt><trkpt lat="42.263495035070505" lon="14.003841397089193"><ele>104.83333333333333</ele><time>2026-04-17T14:49:39.001Z</time></trkpt><trkpt lat="42.26357704649516" lon="14.003883070929527"><ele>104.66666666666666</ele><time>2026-04-17T14:49:40.001Z</time></trkpt><trkpt lat="42.26365758006031" lon="14.003920574470062"><ele>104.5</ele><time>2026-04-17T14:49:41Z</time></trkpt><trkpt lat="42.263743501769504" lon="14.003949325224967"><ele>104.33333333333333</ele><time>2026-04-17T14:49:42Z</time></trkpt><trkpt lat="42.26384133124909" lon="14.003974272284612"><ele>104.16666666666666</ele><time>2026-04-17T14:49:44Z</time></trkpt><trkpt lat="42.26390819216884" lon="14.004012059457649"><ele>104.0</ele><time>2026-04-17T14:49:52Z</time></trkpt><trkpt lat="42.26400933353464" lon="14.004117724249559"><ele>105.0</ele><time>2026-04-17T14:49:54Z</time></trkpt><trkpt lat="42.26410665429343" lon="14.004151613864455"><ele>106.0</ele><time>2026-04-17T14:49:56Z</time></trkpt><trkpt lat="42.264187792510654" lon="14.004208766026872"><ele>107.0</ele><time>2026-04-17T14:49:58Z</time></trkpt><trkpt lat="42.264284476693064" lon="14.004337954597533"><ele>108.0</ele><time>2026-04-17T14:50:00Z</time></trkpt><trkpt lat="42.26432788147343" lon="14.004412122880105"><ele>109.0</ele><time>2026-04-17T14:50:01Z</time></trkpt><trkpt lat="42.26437076555869" lon="14.004488580236648"><ele>109.14285714285714</ele><time>2026-04-17T14:50:02Z</time></trkpt><trkpt lat="42.26441155057617" lon="14.004566731231975"><ele>109.28571428571429</ele><time>2026-04-17T14:50:03Z</time></trkpt><trkpt lat="42.26445044880201" lon="14.004648982762093"><ele>109.42857142857142</ele><time>2026-04-17T14:50:04Z</time></trkpt><trkpt lat="42.26449155467571" lon="14.004734274598603"><ele>109.57142857142857</ele><time>2026-04-17T14:50:05Z</time></trkpt><trkpt lat="42.26452848285768" lon="14.004816043099957"><ele>109.71428571428571</ele><time>2026-04-17T14:50:06Z</time></trkpt><trkpt lat="42.264564632147675" lon="14.004899482181305"><ele>109.85714285714285</ele><time>2026-04-17T14:50:07Z</time></trkpt><trkpt lat="42.26460539474022" lon="14.004989482279681"><ele>110.0</ele><time>2026-04-17T14:50:08Z</time></trkpt><trkpt lat="42.26464347341928" lon="14.005078788393254"><ele>109.28571428571428</ele><time>2026-04-17T14:50:09Z</time></trkpt><trkpt lat="42.26468509040871" lon="14.005168849363416"><ele>108.57142857142857</ele><time>2026-04-17T14:50:10Z</time></trkpt><trkpt lat="42.26472515121305" lon="14.005257651673574"><ele>107.85714285714286</ele><time>2026-04-17T14:50:11Z</time></trkpt><trkpt lat="42.26476499437444" lon="14.005345639685599"><ele>107.14285714285714</ele><time>2026-04-17T14:50:12Z</time></trkpt><trkpt lat="42.264798845818206" lon="14.00542285214094"><ele>106.42857142857143</ele><time>2026-04-17T14:50:13Z</time></trkpt><trkpt lat="42.26483248823725" lon="14.005502951812163"><ele>105.71428571428571</ele><time>2026-04-17T14:50:14Z</time></trkpt><trkpt lat="42.26486313328986" lon="14.005580566205726"><ele>105.0</ele><time>2026-04-17T14:50:15Z</time></trkpt><trkpt lat="42.26489611800528" lon="14.00565373565363"><ele>105.0</ele><time>2026-04-17T14:50:16Z</time></trkpt><trkpt lat="42.26493255120065" lon="14.005734689593483"><ele>105.0</ele><time>2026-04-17T14:50:17Z</time></trkpt><trkpt lat="42.26497246272152" lon="14.00582606821606"><ele>105.0</ele><time>2026-04-17T14:50:18Z</time></trkpt><trkpt lat="42.265013558021884" lon="14.00591118507503"><ele>105.0</ele><time>2026-04-17T14:50:19Z</time></trkpt><trkpt lat="42.26505068967997" lon="14.005995031459952"><ele>105.0</ele><time>2026-04-17T14:50:20Z</time></trkpt><trkpt lat="42.26507687963715" lon="14.006072533970391"><ele>105.0</ele><time>2026-04-17T14:50:21Z</time></trkpt><trkpt lat="42.26507199995497" lon="14.006191254616533"><ele>105.0</ele><time>2026-04-17T14:50:23Z</time></trkpt><trkpt lat="42.265007734323355" lon="14.006100590891363"><ele>104.5</ele><time>2026-04-17T14:52:29.999Z</time></trkpt><trkpt lat="42.26510223107957" lon="14.00606883354885"><ele>104.0</ele><time>2026-04-17T14:52:39.999Z</time></trkpt><trkpt lat="42.26519286411093" lon="14.006065449656877"><ele>103.5</ele><time>2026-04-17T14:52:53.999Z</time></trkpt><trkpt lat="42.26512511909523" lon="14.00607819540298"><ele>103.0</ele><time>2026-04-17T14:52:59.999Z</time></trkpt><trkpt lat="42.2650948168076" lon="14.00618469050965"><ele>102.5</ele><time>2026-04-17T14:53:06.001Z</time></trkpt><trkpt lat="42.265120864507495" lon="14.00631101483762"><ele>102.0</ele><time>2026-04-17T14:53:09.001Z</time></trkpt><trkpt lat="42.26514770624769" lon="14.006388071461444"><ele>102.0</ele><time>2026-04-17T14:53:11.001Z</time></trkpt><trkpt lat="42.26510841018895" lon="14.006305061546456"><ele>102.0</ele><time>2026-04-17T14:53:15.001Z</time></trkpt><trkpt lat="42.26504494102703" lon="14.006270629710508"><ele>102.0</ele><time>2026-04-17T14:53:22Z</time></trkpt><trkpt lat="42.26513306842269" lon="14.00650340538244"><ele>102.0</ele><time>2026-04-17T14:53:24Z</time></trkpt><trkpt lat="42.2649977351082" lon="14.00622555800532"><ele>102.0</ele><time>2026-04-17T14:53:35.047Z</time></trkpt><trkpt lat="42.26492962653132" lon="14.006275125056174"><ele>102.0</ele><time>2026-04-17T14:53:39.035Z</time></trkpt><trkpt lat="42.264985390939124" lon="14.006074703600515"><ele>102.0</ele><time>2026-04-17T14:53:59.029Z</time></trkpt><trkpt lat="42.26516081072867" lon="14.006013057541509"><ele>102.0</ele><time>2026-04-17T14:54:01.031Z</time></trkpt><trkpt lat="42.26505879976657" lon="14.006039476038818"><ele>102.0</ele><time>2026-04-17T14:54:12.031Z</time></trkpt><trkpt lat="42.264986709848685" lon="14.006040544929752"><ele>102.0</ele><time>2026-04-17T14:54:15Z</time></trkpt><trkpt lat="42.26492122966167" lon="14.006018995609525"><ele>102.0</ele><time>2026-04-17T14:54:39.045Z</time></trkpt><trkpt lat="42.26498484860647" lon="14.006019191943924"><ele>102.0</ele><time>2026-04-17T14:55:20.001Z</time></trkpt><trkpt lat="42.26511375650917" lon="14.005910803392092"><ele>102.0</ele><time>2026-04-17T15:02:17Z</time></trkpt><trkpt lat="42.265051811704964" lon="14.005969550768723"><ele>102.0</ele><time>2026-04-17T15:02:20Z</time></trkpt><trkpt lat="42.264981577996316" lon="14.006004876742626"><ele>102.0</ele><time>2026-04-17T15:02:41.999Z</time></trkpt><trkpt lat="42.26491995370856" lon="14.006028626209845"><ele>102.0</ele><time>2026-04-17T15:03:04.999Z</time></trkpt><trkpt lat="42.26497129404905" lon="14.006107516047582"><ele>102.0</ele><time>2026-04-17T15:04:21Z</time></trkpt><trkpt lat="42.2650385957215" lon="14.006183852552578"><ele>102.0</ele><time>2026-04-17T15:04:25Z</time></trkpt><trkpt lat="42.26509021466869" lon="14.006281673269795"><ele>102.0</ele><time>2026-04-17T15:07:54Z</time></trkpt><trkpt lat="42.26516493410329" lon="14.00639219078003"><ele>102.0</ele><time>2026-04-17T15:07:56Z</time></trkpt><trkpt lat="42.26521932865833" lon="14.0064566652538"><ele>102.0</ele><time>2026-04-17T15:07:57Z</time></trkpt><trkpt lat="42.26526369672974" lon="14.006537558994129"><ele>102.0</ele><time>2026-04-17T15:07:58Z</time></trkpt><trkpt lat="42.26530374216827" lon="14.006622277341842"><ele>102.0</ele><time>2026-04-17T15:07:59Z</time></trkpt><trkpt lat="42.26533943686931" lon="14.006712167192465"><ele>102.0</ele><time>2026-04-17T15:08:00Z</time></trkpt><trkpt lat="42.26537368930934" lon="14.006800427702506"><ele>102.0</ele><time>2026-04-17T15:08:01Z</time></trkpt><trkpt lat="42.26540986088555" lon="14.006877228428475"><ele>102.0</ele><time>2026-04-17T15:08:02Z</time></trkpt><trkpt lat="42.26544542218918" lon="14.006959449157515"><ele>102.0</ele><time>2026-04-17T15:08:03Z</time></trkpt><trkpt lat="42.265480960176426" lon="14.007043280193445"><ele>102.0</ele><time>2026-04-17T15:08:04Z</time></trkpt><trkpt lat="42.265520485664965" lon="14.007126715002146"><ele>102.0</ele><time>2026-04-17T15:08:05Z</time></trkpt><trkpt lat="42.265562749761294" lon="14.007207518641719"><ele>102.0</ele><time>2026-04-17T15:08:06Z</time></trkpt><trkpt lat="42.26560192844726" lon="14.00728426396875"><ele>102.0</ele><time>2026-04-17T15:08:07Z</time></trkpt><trkpt lat="42.26564322984236" lon="14.007365456214078"><ele>102.0</ele><time>2026-04-17T15:08:08Z</time></trkpt><trkpt lat="42.265685458125496" lon="14.007443331532448"><ele>102.0</ele><time>2026-04-17T15:08:09Z</time></trkpt><trkpt lat="42.26573574575799" lon="14.007519921352877"><ele>102.0</ele><time>2026-04-17T15:08:10Z</time></trkpt><trkpt lat="42.2657951880245" lon="14.007606895869825"><ele>101.75</ele><time>2026-04-17T15:08:11Z</time></trkpt><trkpt lat="42.265862293098756" lon="14.007702783193624"><ele>101.5</ele><time>2026-04-17T15:08:12Z</time></trkpt><trkpt lat="42.265950319300075" lon="14.00780783497986"><ele>101.25</ele><time>2026-04-17T15:08:13Z</time></trkpt><trkpt lat="42.26604382994286" lon="14.007923497102881"><ele>101.0</ele><time>2026-04-17T15:08:14Z</time></trkpt><trkpt lat="42.266130944364356" lon="14.008029494213824"><ele>101.0</ele><time>2026-04-17T15:08:15Z</time></trkpt><trkpt lat="42.2662274179347" lon="14.008148615640982"><ele>101.0</ele><time>2026-04-17T15:08:16Z</time></trkpt><trkpt lat="42.26633341144381" lon="14.00822525274676"><ele>101.0</ele><time>2026-04-17T15:08:18Z</time></trkpt><trkpt lat="42.266414879341625" lon="14.00832448307192"><ele>101.0</ele><time>2026-04-17T15:08:19Z</time></trkpt><trkpt lat="42.26649138875848" lon="14.008420484697155"><ele>100.6</ele><time>2026-04-17T15:08:20Z</time></trkpt><trkpt lat="42.2665527338063" lon="14.008521362401419"><ele>100.19999999999999</ele><time>2026-04-17T15:08:21Z</time></trkpt><trkpt lat="42.26660661135707" lon="14.008631591702864"><ele>99.80000000000001</ele><time>2026-04-17T15:08:22Z</time></trkpt><trkpt lat="42.266664976407206" lon="14.008748707515268"><ele>99.4</ele><time>2026-04-17T15:08:23Z</time></trkpt><trkpt lat="42.26672155734574" lon="14.008871446077622"><ele>99.0</ele><time>2026-04-17T15:08:24Z</time></trkpt><trkpt lat="42.266772301633715" lon="14.008985069564162"><ele>99.0</ele><time>2026-04-17T15:08:25Z</time></trkpt><trkpt lat="42.26682044766341" lon="14.009089806277219"><ele>99.0</ele><time>2026-04-17T15:08:26Z</time></trkpt><trkpt lat="42.266861430385575" lon="14.009188948949205"><ele>99.0</ele><time>2026-04-17T15:08:27Z</time></trkpt><trkpt lat="42.26690583831487" lon="14.009290116240196"><ele>99.0</ele><time>2026-04-17T15:08:28Z</time></trkpt><trkpt lat="42.2669523071241" lon="14.009393040978296"><ele>99.0</ele><time>2026-04-17T15:08:29Z</time></trkpt><trkpt lat="42.26700154831195" lon="14.009508788181249"><ele>99.2</ele><time>2026-04-17T15:08:30Z</time></trkpt><trkpt lat="42.26705771358907" lon="14.009620753282423"><ele>99.4</ele><time>2026-04-17T15:08:31Z</time></trkpt><trkpt lat="42.267104537605825" lon="14.009737965660696"><ele>99.6</ele><time>2026-04-17T15:08:32Z</time></trkpt><trkpt lat="42.267148714035955" lon="14.009849314450655"><ele>99.8</ele><time>2026-04-17T15:08:33Z</time></trkpt><trkpt lat="42.26719447309466" lon="14.009950013650649"><ele>100.0</ele><time>2026-04-17T15:08:34Z</time></trkpt><trkpt lat="42.267233377576844" lon="14.010044070055878"><ele>100.00000000000001</ele><time>2026-04-17T15:08:35Z</time></trkpt><trkpt lat="42.26725901701455" lon="14.010147240192493"><ele>100.0</ele><time>2026-04-17T15:08:36Z</time></trkpt><trkpt lat="42.267251577200604" lon="14.010254596128876"><ele>100.0</ele><time>2026-04-17T15:08:37Z</time></trkpt><trkpt lat="42.267239726695976" lon="14.01034811560363"><ele>100.0</ele><time>2026-04-17T15:08:38Z</time></trkpt><trkpt lat="42.26729184772777" lon="14.010493343136798"><ele>100.00000000000001</ele><time>2026-04-17T15:08:40Z</time></trkpt><trkpt lat="42.26735127542641" lon="14.010556493273223"><ele>100.0</ele><time>2026-04-17T15:08:41Z</time></trkpt><trkpt lat="42.26742553166138" lon="14.010616560501841"><ele>99.25</ele><time>2026-04-17T15:08:41.999Z</time></trkpt><trkpt lat="42.26750559078582" lon="14.010685703996165"><ele>98.5</ele><time>2026-04-17T15:08:42.999Z</time></trkpt><trkpt lat="42.2675805244899" lon="14.01079332263766"><ele>97.75</ele><time>2026-04-17T15:08:43.999Z</time></trkpt><trkpt lat="42.267639599042504" lon="14.010935145143618"><ele>97.0</ele><time>2026-04-17T15:08:44.999Z</time></trkpt><trkpt lat="42.26770166681901" lon="14.011087887712538"><ele>97.0</ele><time>2026-04-17T15:08:45.999Z</time></trkpt><trkpt lat="42.26777324851537" lon="14.01123929517487"><ele>97.0</ele><time>2026-04-17T15:08:46.999Z</time></trkpt><trkpt lat="42.267845987975285" lon="14.011401377139928"><ele>97.0</ele><time>2026-04-17T15:08:47.999Z</time></trkpt><trkpt lat="42.267912661465544" lon="14.011555894691744"><ele>97.0</ele><time>2026-04-17T15:08:48.999Z</time></trkpt><trkpt lat="42.267988087269664" lon="14.011715804238655"><ele>96.75</ele><time>2026-04-17T15:08:49.999Z</time></trkpt><trkpt lat="42.26806041720398" lon="14.011871369397397"><ele>96.5</ele><time>2026-04-17T15:08:50.999Z</time></trkpt><trkpt lat="42.268133015319" lon="14.012046780583432"><ele>96.25</ele><time>2026-04-17T15:08:51.999Z</time></trkpt><trkpt lat="42.26821000517395" lon="14.012220886943433"><ele>96.0</ele><time>2026-04-17T15:08:52.999Z</time></trkpt><trkpt lat="42.2682915903727" lon="14.012389637036822"><ele>93.66666666666667</ele><time>2026-04-17T15:08:53.999Z</time></trkpt><trkpt lat="42.26837075974436" lon="14.012568300792593"><ele>91.33333333333334</ele><time>2026-04-17T15:08:54.999Z</time></trkpt><trkpt lat="42.268450593371014" lon="14.0127549068955"><ele>89.0</ele><time>2026-04-17T15:08:55.999Z</time></trkpt><trkpt lat="42.26853207641512" lon="14.01294351888385"><ele>89.0</ele><time>2026-04-17T15:08:56.999Z</time></trkpt><trkpt lat="42.2686164065375" lon="14.013133531417282"><ele>89.0</ele><time>2026-04-17T15:08:57.999Z</time></trkpt><trkpt lat="42.268698643303075" lon="14.013320197196954"><ele>89.0</ele><time>2026-04-17T15:08:58.999Z</time></trkpt><trkpt lat="42.268775851284246" lon="14.013502214536878"><ele>88.75</ele><time>2026-04-17T15:08:59.999Z</time></trkpt><trkpt lat="42.26884978142465" lon="14.013675411233766"><ele>88.5</ele><time>2026-04-17T15:09:00.999Z</time></trkpt><trkpt lat="42.268925940198486" lon="14.013841855104324"><ele>88.25</ele><time>2026-04-17T15:09:01.999Z</time></trkpt><trkpt lat="42.269001635534174" lon="14.014005942599212"><ele>88.0</ele><time>2026-04-17T15:09:02.999Z</time></trkpt><trkpt lat="42.269074068953486" lon="14.014155616855955"><ele>87.60000000000001</ele><time>2026-04-17T15:09:03.999Z</time></trkpt><trkpt lat="42.269149754962704" lon="14.014278085955915"><ele>87.2</ele><time>2026-04-17T15:09:04.999Z</time></trkpt><trkpt lat="42.26922700788154" lon="14.014384592286113"><ele>86.8</ele><time>2026-04-17T15:09:05.999Z</time></trkpt><trkpt lat="42.26929179189791" lon="14.014482287310939"><ele>86.4</ele><time>2026-04-17T15:09:06.999Z</time></trkpt><trkpt lat="42.26933872705177" lon="14.014590003084868"><ele>86.0</ele><time>2026-04-17T15:09:07.999Z</time></trkpt><trkpt lat="42.26937209683423" lon="14.014703090198015"><ele>86.0</ele><time>2026-04-17T15:09:08.999Z</time></trkpt><trkpt lat="42.26940417802198" lon="14.014792514189946"><ele>86.0</ele><time>2026-04-17T15:09:09.999Z</time></trkpt><trkpt lat="42.26945832124817" lon="14.014852639214329"><ele>86.0</ele><time>2026-04-17T15:09:10.999Z</time></trkpt><trkpt lat="42.26953089620598" lon="14.014869140139114"><ele>86.0</ele><time>2026-04-17T15:09:11.999Z</time></trkpt><trkpt lat="42.269603576377975" lon="14.014841068491496"><ele>86.0</ele><time>2026-04-17T15:09:12.999Z</time></trkpt><trkpt lat="42.26967323999874" lon="14.014776781520219"><ele>86.0</ele><time>2026-04-17T15:09:13.999Z</time></trkpt><trkpt lat="42.2697262636792" lon="14.014676841385864"><ele>86.0</ele><time>2026-04-17T15:09:14.999Z</time></trkpt><trkpt lat="42.269749916998485" lon="14.01455559499531"><ele>86.0</ele><time>2026-04-17T15:09:15.999Z</time></trkpt><trkpt lat="42.26977324170807" lon="14.014419957311564"><ele>86.0</ele><time>2026-04-17T15:09:16.999Z</time></trkpt><trkpt lat="42.269837587909706" lon="14.014290491160246"><ele>86.0</ele><time>2026-04-17T15:09:17.999Z</time></trkpt><trkpt lat="42.26990956236183" lon="14.01414546321696"><ele>86.0</ele><time>2026-04-17T15:09:18.999Z</time></trkpt><trkpt lat="42.27003368822759" lon="14.014024910171042"><ele>85.75</ele><time>2026-04-17T15:09:19.999Z</time></trkpt><trkpt lat="42.27013805989741" lon="14.013890546007646"><ele>85.5</ele><time>2026-04-17T15:09:20.999Z</time></trkpt><trkpt lat="42.270233614532884" lon="14.013762506838184"><ele>85.25</ele><time>2026-04-17T15:09:21.999Z</time></trkpt><trkpt lat="42.27033854568953" lon="14.013621426499817"><ele>85.0</ele><time>2026-04-17T15:09:22.999Z</time></trkpt><trkpt lat="42.27044578336245" lon="14.01347668128899"><ele>85.0</ele><time>2026-04-17T15:09:23.999Z</time></trkpt><trkpt lat="42.270547403990484" lon="14.013345822085633"><ele>85.0</ele><time>2026-04-17T15:09:24.999Z</time></trkpt><trkpt lat="42.27063892288306" lon="14.013222876611698"><ele>85.0</ele><time>2026-04-17T15:09:25.999Z</time></trkpt><trkpt lat="42.27072552665483" lon="14.013105766695249"><ele>85.0</ele><time>2026-04-17T15:09:26.999Z</time></trkpt><trkpt lat="42.27080997364897" lon="14.012998696603498"><ele>85.75</ele><time>2026-04-17T15:09:27.999Z</time></trkpt><trkpt lat="42.270892299396984" lon="14.012887370284501"><ele>86.5</ele><time>2026-04-17T15:09:28.999Z</time></trkpt><trkpt lat="42.27097570018437" lon="14.012771858138656"><ele>87.25</ele><time>2026-04-17T15:09:29.999Z</time></trkpt><trkpt lat="42.27106327191928" lon="14.012660312217353"><ele>88.0</ele><time>2026-04-17T15:09:30.999Z</time></trkpt><trkpt lat="42.27114963429832" lon="14.012548037898467"><ele>88.0</ele><time>2026-04-17T15:09:31.999Z</time></trkpt><trkpt lat="42.271237907708375" lon="14.012441880739692"><ele>88.0</ele><time>2026-04-17T15:09:32.999Z</time></trkpt><trkpt lat="42.27132117010113" lon="14.012334798077896"><ele>88.0</ele><time>2026-04-17T15:09:33.999Z</time></trkpt><trkpt lat="42.271406244926474" lon="14.012216902064445"><ele>88.0</ele><time>2026-04-17T15:09:34.999Z</time></trkpt><trkpt lat="42.27149740041496" lon="14.012096869472838"><ele>89.75</ele><time>2026-04-17T15:09:35.999Z</time></trkpt><trkpt lat="42.271589464608" lon="14.011972365986676"><ele>91.5</ele><time>2026-04-17T15:09:36.999Z</time></trkpt><trkpt lat="42.271695928741224" lon="14.011855422266153"><ele>93.25</ele><time>2026-04-17T15:09:37.999Z</time></trkpt><trkpt lat="42.27179530006911" lon="14.011723381419518"><ele>95.0</ele><time>2026-04-17T15:09:38.999Z</time></trkpt><trkpt lat="42.27189403800613" lon="14.011592343649728"><ele>95.25</ele><time>2026-04-17T15:09:39.999Z</time></trkpt><trkpt lat="42.27199333326587" lon="14.011460723162084"><ele>95.5</ele><time>2026-04-17T15:09:40.999Z</time></trkpt><trkpt lat="42.2720994316918" lon="14.011320850012524"><ele>95.75</ele><time>2026-04-17T15:09:41.999Z</time></trkpt><trkpt lat="42.272193731528326" lon="14.011170110893437"><ele>96.0</ele><time>2026-04-17T15:09:42.999Z</time></trkpt><trkpt lat="42.27230602836245" lon="14.011029667699088"><ele>96.0</ele><time>2026-04-17T15:09:43.999Z</time></trkpt><trkpt lat="42.272412442901775" lon="14.010886819285675"><ele>96.0</ele><time>2026-04-17T15:09:44.999Z</time></trkpt><trkpt lat="42.27252990298552" lon="14.010770885327707"><ele>96.0</ele><time>2026-04-17T15:09:45.999Z</time></trkpt><trkpt lat="42.27263311786658" lon="14.010643466013436"><ele>96.0</ele><time>2026-04-17T15:09:46.998Z</time></trkpt><trkpt lat="42.27273754049406" lon="14.010522991541222"><ele>96.75</ele><time>2026-04-17T15:09:47.998Z</time></trkpt><trkpt lat="42.27283028842753" lon="14.010401828892157"><ele>97.5</ele><time>2026-04-17T15:09:48.998Z</time></trkpt><trkpt lat="42.27294472599765" lon="14.010321152705263"><ele>98.25</ele><time>2026-04-17T15:09:49.998Z</time></trkpt><trkpt lat="42.27306767462537" lon="14.010255090431443"><ele>99.0</ele><time>2026-04-17T15:09:50.998Z</time></trkpt><trkpt lat="42.27316857910788" lon="14.010234413064099"><ele>99.0</ele><time>2026-04-17T15:09:52Z</time></trkpt><trkpt lat="42.27329120571585" lon="14.01024407930362"><ele>99.0</ele><time>2026-04-17T15:09:53Z</time></trkpt><trkpt lat="42.27342087989037" lon="14.010201577850872"><ele>99.0</ele><time>2026-04-17T15:09:54Z</time></trkpt><trkpt lat="42.2735486226202" lon="14.010241080788468"><ele>99.0</ele><time>2026-04-17T15:09:55Z</time></trkpt><trkpt lat="42.27367631137527" lon="14.010301204767783"><ele>99.0</ele><time>2026-04-17T15:09:56Z</time></trkpt><trkpt lat="42.27379610775798" lon="14.010379093841246"><ele>99.0</ele><time>2026-04-17T15:09:57Z</time></trkpt><trkpt lat="42.27390138660655" lon="14.010464234490286"><ele>99.0</ele><time>2026-04-17T15:09:58Z</time></trkpt><trkpt lat="42.27399127240668" lon="14.01057596017441"><ele>99.0</ele><time>2026-04-17T15:09:59Z</time></trkpt><trkpt lat="42.274064020176404" lon="14.01069701317512"><ele>99.0</ele><time>2026-04-17T15:10:00Z</time></trkpt><trkpt lat="42.27412259421322" lon="14.010816275155719"><ele>99.0</ele><time>2026-04-17T15:10:01Z</time></trkpt><trkpt lat="42.274163375716675" lon="14.010938718546644"><ele>99.0</ele><time>2026-04-17T15:10:02Z</time></trkpt><trkpt lat="42.27417699446028" lon="14.01105868120473"><ele>99.0</ele><time>2026-04-17T15:10:03Z</time></trkpt><trkpt lat="42.27412247266317" lon="14.011184147200526"><ele>99.0</ele><time>2026-04-17T15:10:04Z</time></trkpt><trkpt lat="42.274128781881394" lon="14.011308347382716"><ele>98.6</ele><time>2026-04-17T15:10:05Z</time></trkpt><trkpt lat="42.27413247488815" lon="14.011423999460844"><ele>98.2</ele><time>2026-04-17T15:10:06Z</time></trkpt><trkpt lat="42.274176257801564" lon="14.011527181596984"><ele>97.8</ele><time>2026-04-17T15:10:07Z</time></trkpt><trkpt lat="42.274245001196206" lon="14.011606720174282"><ele>97.39999999999999</ele><time>2026-04-17T15:10:08Z</time></trkpt><trkpt lat="42.27433347122182" lon="14.011673706873745"><ele>97.0</ele><time>2026-04-17T15:10:09Z</time></trkpt><trkpt lat="42.27443796133845" lon="14.011690725938617"><ele>96.75</ele><time>2026-04-17T15:10:10Z</time></trkpt><trkpt lat="42.274508260318825" lon="14.011846833681394"><ele>96.5</ele><time>2026-04-17T15:10:11Z</time></trkpt><trkpt lat="42.274572097505065" lon="14.011982753356168"><ele>96.25</ele><time>2026-04-17T15:10:12Z</time></trkpt><trkpt lat="42.2746295824082" lon="14.012135703969482"><ele>96.0</ele><time>2026-04-17T15:10:13Z</time></trkpt><trkpt lat="42.27470484498195" lon="14.01227420870638"><ele>96.0</ele><time>2026-04-17T15:10:14Z</time></trkpt><trkpt lat="42.274796316237854" lon="14.012406048646971"><ele>96.0</ele><time>2026-04-17T15:10:15Z</time></trkpt><trkpt lat="42.27489692073146" lon="14.012530838398234"><ele>96.0</ele><time>2026-04-17T15:10:16Z</time></trkpt><trkpt lat="42.27501011087257" lon="14.012653516096048"><ele>96.0</ele><time>2026-04-17T15:10:17Z</time></trkpt><trkpt lat="42.2751381608507" lon="14.012756132758067"><ele>96.0</ele><time>2026-04-17T15:10:18Z</time></trkpt><trkpt lat="42.275275289349" lon="14.01284007910584"><ele>96.0</ele><time>2026-04-17T15:10:19Z</time></trkpt><trkpt lat="42.275412872887536" lon="14.012902481687737"><ele>96.0</ele><time>2026-04-17T15:10:20Z</time></trkpt><trkpt lat="42.27555871826204" lon="14.01294725989521"><ele>96.0</ele><time>2026-04-17T15:10:21Z</time></trkpt><trkpt lat="42.275712617840334" lon="14.012971484777689"><ele>95.66666666666667</ele><time>2026-04-17T15:10:22Z</time></trkpt><trkpt lat="42.275867622579604" lon="14.012964041216385"><ele>95.33333333333334</ele><time>2026-04-17T15:10:23Z</time></trkpt><trkpt lat="42.27602545194955" lon="14.01293280048508"><ele>95.0</ele><time>2026-04-17T15:10:24Z</time></trkpt><trkpt lat="42.27617371838733" lon="14.012881796581517"><ele>95.0</ele><time>2026-04-17T15:10:25Z</time></trkpt><trkpt lat="42.27632189062099" lon="14.012823757763954"><ele>95.0</ele><time>2026-04-17T15:10:26Z</time></trkpt><trkpt lat="42.27646189733144" lon="14.012762712638628"><ele>95.0</ele><time>2026-04-17T15:10:27Z</time></trkpt><trkpt lat="42.276595830834026" lon="14.012700083184958"><ele>95.0</ele><time>2026-04-17T15:10:28Z</time></trkpt><trkpt lat="42.27672577871669" lon="14.012635310595938"><ele>95.25</ele><time>2026-04-17T15:10:29Z</time></trkpt><trkpt lat="42.2768566701479" lon="14.012558375874487"><ele>95.5</ele><time>2026-04-17T15:10:30Z</time></trkpt><trkpt lat="42.2769844297824" lon="14.012489199614745"><ele>95.75</ele><time>2026-04-17T15:10:31Z</time></trkpt><trkpt lat="42.2771074391212" lon="14.012428041268464"><ele>96.0</ele><time>2026-04-17T15:10:32Z</time></trkpt><trkpt lat="42.277224347345175" lon="14.01238074285586"><ele>96.0</ele><time>2026-04-17T15:10:33Z</time></trkpt><trkpt lat="42.277337496156676" lon="14.01235987472335"><ele>96.0</ele><time>2026-04-17T15:10:34Z</time></trkpt><trkpt lat="42.27744315909485" lon="14.01236528211595"><ele>96.0</ele><time>2026-04-17T15:10:35Z</time></trkpt><trkpt lat="42.27754789095648" lon="14.012397780586914"><ele>96.0</ele><time>2026-04-17T15:10:36Z</time></trkpt><trkpt lat="42.277644511652085" lon="14.012415872739002"><ele>96.0</ele><time>2026-04-17T15:10:37Z</time></trkpt><trkpt lat="42.2777367325322" lon="14.012534906950561"><ele>96.0</ele><time>2026-04-17T15:10:38Z</time></trkpt><trkpt lat="42.277839524087334" lon="14.012625031239313"><ele>96.0</ele><time>2026-04-17T15:10:39Z</time></trkpt><trkpt lat="42.27795513858377" lon="14.012721567895197"><ele>96.0</ele><time>2026-04-17T15:10:40Z</time></trkpt><trkpt lat="42.278074254465814" lon="14.012827388754074"><ele>96.0</ele><time>2026-04-17T15:10:41Z</time></trkpt><trkpt lat="42.27819385386786" lon="14.012947589264403"><ele>96.5</ele><time>2026-04-17T15:10:42Z</time></trkpt><trkpt lat="42.27831538731808" lon="14.013062511922236"><ele>97.0</ele><time>2026-04-17T15:10:43Z</time></trkpt><trkpt lat="42.27843804114232" lon="14.013177292604535"><ele>97.5</ele><time>2026-04-17T15:10:44Z</time></trkpt><trkpt lat="42.278553429119555" lon="14.013289018356936"><ele>98.0</ele><time>2026-04-17T15:10:45Z</time></trkpt><trkpt lat="42.2786719528953" lon="14.013397565883732"><ele>97.0</ele><time>2026-04-17T15:10:46Z</time></trkpt><trkpt lat="42.278790672336854" lon="14.013507313238161"><ele>96.0</ele><time>2026-04-17T15:10:47Z</time></trkpt><trkpt lat="42.27890663216169" lon="14.01362212786176"><ele>95.0</ele><time>2026-04-17T15:10:48Z</time></trkpt><trkpt lat="42.27902667526986" lon="14.01373575179186"><ele>94.0</ele><time>2026-04-17T15:10:48.999Z</time></trkpt><trkpt lat="42.27914568265418" lon="14.013847624326974"><ele>94.0</ele><time>2026-04-17T15:10:49.999Z</time></trkpt><trkpt lat="42.27926247885445" lon="14.013956959932203"><ele>94.0</ele><time>2026-04-17T15:10:50.999Z</time></trkpt><trkpt lat="42.27938067786319" lon="14.01406385245254"><ele>94.0</ele><time>2026-04-17T15:10:51.999Z</time></trkpt><trkpt lat="42.27950180214035" lon="14.014177926706243"><ele>94.0</ele><time>2026-04-17T15:10:52.999Z</time></trkpt><trkpt lat="42.27962035212369" lon="14.014288209217026"><ele>93.75</ele><time>2026-04-17T15:10:53.999Z</time></trkpt><trkpt lat="42.279743828395844" lon="14.014405012662278"><ele>93.5</ele><time>2026-04-17T15:10:54.999Z</time></trkpt><trkpt lat="42.27986107088287" lon="14.014521155222743"><ele>93.25</ele><time>2026-04-17T15:10:55.999Z</time></trkpt><trkpt lat="42.27998592459944" lon="14.01463884338136"><ele>93.0</ele><time>2026-04-17T15:10:56.999Z</time></trkpt><trkpt lat="42.28010367797827" lon="14.014756068594245"><ele>92.75</ele><time>2026-04-17T15:10:57.999Z</time></trkpt><trkpt lat="42.28022282550153" lon="14.014862261510416"><ele>92.5</ele><time>2026-04-17T15:10:58.999Z</time></trkpt><trkpt lat="42.28033693381997" lon="14.014964053232251"><ele>92.25</ele><time>2026-04-17T15:10:59.999Z</time></trkpt><trkpt lat="42.28044142435505" lon="14.015059171645504"><ele>92.0</ele><time>2026-04-17T15:11:00.999Z</time></trkpt><trkpt lat="42.28053669111205" lon="14.015140345906541"><ele>92.0</ele><time>2026-04-17T15:11:01.999Z</time></trkpt><trkpt lat="42.28063835263906" lon="14.01520190937191"><ele>92.0</ele><time>2026-04-17T15:11:02.999Z</time></trkpt><trkpt lat="42.2807422360572" lon="14.015245084712516"><ele>92.0</ele><time>2026-04-17T15:11:03.999Z</time></trkpt><trkpt lat="42.28086057963018" lon="14.015239682358104"><ele>92.0</ele><time>2026-04-17T15:11:04.999Z</time></trkpt><trkpt lat="42.2809808355206" lon="14.015187037501539"><ele>92.0</ele><time>2026-04-17T15:11:05.999Z</time></trkpt><trkpt lat="42.281102220695054" lon="14.015101232421223"><ele>92.0</ele><time>2026-04-17T15:11:06.999Z</time></trkpt><trkpt lat="42.281228045593345" lon="14.01498859797437"><ele>92.0</ele><time>2026-04-17T15:11:07.999Z</time></trkpt><trkpt lat="42.28136154593335" lon="14.014889209708558"><ele>92.0</ele><time>2026-04-17T15:11:08.999Z</time></trkpt><trkpt lat="42.281512061102035" lon="14.014812238528064"><ele>92.0</ele><time>2026-04-17T15:11:09.999Z</time></trkpt><trkpt lat="42.28165467571672" lon="14.014710983754734"><ele>92.0</ele><time>2026-04-17T15:11:10.999Z</time></trkpt><trkpt lat="42.28179433074227" lon="14.014611830128668"><ele>92.0</ele><time>2026-04-17T15:11:11.999Z</time></trkpt><trkpt lat="42.28192187177662" lon="14.014497493535492"><ele>92.0</ele><time>2026-04-17T15:11:12.999Z</time></trkpt><trkpt lat="42.28206634581819" lon="14.014419453005603"><ele>92.0</ele><time>2026-04-17T15:11:13.999Z</time></trkpt><trkpt lat="42.282202941050805" lon="14.014323276686024"><ele>92.0</ele><time>2026-04-17T15:11:14.999Z</time></trkpt><trkpt lat="42.28234288019136" lon="14.014223445281894"><ele>91.66666666666667</ele><time>2026-04-17T15:11:15.999Z</time></trkpt><trkpt lat="42.28248226431236" lon="14.014122868217534"><ele>91.33333333333333</ele><time>2026-04-17T15:11:16.999Z</time></trkpt><trkpt lat="42.282621465594566" lon="14.014022423087761"><ele>91.0</ele><time>2026-04-17T15:11:17.999Z</time></trkpt><trkpt lat="42.28275618653637" lon="14.013900295113665"><ele>91.0</ele><time>2026-04-17T15:11:18.999Z</time></trkpt><trkpt lat="42.28289036406797" lon="14.013804211090793"><ele>91.0</ele><time>2026-04-17T15:11:19.999Z</time></trkpt><trkpt lat="42.28302748774193" lon="14.01370351881671"><ele>91.0</ele><time>2026-04-17T15:11:20.999Z</time></trkpt><trkpt lat="42.28316857318264" lon="14.013626620419352"><ele>91.25</ele><time>2026-04-17T15:11:21.999Z</time></trkpt><trkpt lat="42.28329885347864" lon="14.013532383454336"><ele>91.5</ele><time>2026-04-17T15:11:22.999Z</time></trkpt><trkpt lat="42.283429116815256" lon="14.01343926983216"><ele>91.75</ele><time>2026-04-17T15:11:23.999Z</time></trkpt><trkpt lat="42.283557239641766" lon="14.013347686213088"><ele>92.0</ele><time>2026-04-17T15:11:24.999Z</time></trkpt><trkpt lat="42.28368262813429" lon="14.013258057152306"><ele>92.0</ele><time>2026-04-17T15:11:25.999Z</time></trkpt><trkpt lat="42.28380149288218" lon="14.013173091333734"><ele>92.0</ele><time>2026-04-17T15:11:26.999Z</time></trkpt><trkpt lat="42.283919656374685" lon="14.01308862680045"><ele>92.0</ele><time>2026-04-17T15:11:27.999Z</time></trkpt><trkpt lat="42.28403143964909" lon="14.013008649727562"><ele>92.0</ele><time>2026-04-17T15:11:28.999Z</time></trkpt><trkpt lat="42.284137367601616" lon="14.012929891750241"><ele>92.0</ele><time>2026-04-17T15:11:29.999Z</time></trkpt><trkpt lat="42.28423872596325" lon="14.012849442096392"><ele>92.0</ele><time>2026-04-17T15:11:30.999Z</time></trkpt><trkpt lat="42.28431554389142" lon="14.012743951370854"><ele>92.0</ele><time>2026-04-17T15:11:31.999Z</time></trkpt><trkpt lat="42.28437954196377" lon="14.01265540075372"><ele>92.0</ele><time>2026-04-17T15:11:32.999Z</time></trkpt><trkpt lat="42.28443240656234" lon="14.01258100898186"><ele>92.0</ele><time>2026-04-17T15:11:33.999Z</time></trkpt><trkpt lat="42.28450485771508" lon="14.012560628070355"><ele>92.0</ele><time>2026-04-17T15:11:34.999Z</time></trkpt><trkpt lat="42.28457224869601" lon="14.012542169491395"><ele>92.0</ele><time>2026-04-17T15:11:35.999Z</time></trkpt><trkpt lat="42.28464979292395" lon="14.01257983967948"><ele>92.0</ele><time>2026-04-17T15:11:36.999Z</time></trkpt><trkpt lat="42.28472173331486" lon="14.012656635039072"><ele>92.0</ele><time>2026-04-17T15:11:37.999Z</time></trkpt><trkpt lat="42.28479166113858" lon="14.012759727058373"><ele>92.0</ele><time>2026-04-17T15:11:38.999Z</time></trkpt><trkpt lat="42.28487872258405" lon="14.012859531218455"><ele>91.25</ele><time>2026-04-17T15:11:39.999Z</time></trkpt><trkpt lat="42.28498252819653" lon="14.01294445483724"><ele>90.5</ele><time>2026-04-17T15:11:40.999Z</time></trkpt><trkpt lat="42.28509299535232" lon="14.013020636224105"><ele>89.75</ele><time>2026-04-17T15:11:41.999Z</time></trkpt><trkpt lat="42.28519244254481" lon="14.013102124669002"><ele>89.0</ele><time>2026-04-17T15:11:42.999Z</time></trkpt><trkpt lat="42.28527719050549" lon="14.013210235375785"><ele>89.0</ele><time>2026-04-17T15:11:43.999Z</time></trkpt><trkpt lat="42.28533308127789" lon="14.013349194061368"><ele>89.0</ele><time>2026-04-17T15:11:44.999Z</time></trkpt><trkpt lat="42.28535937005491" lon="14.013509741170784"><ele>89.0</ele><time>2026-04-17T15:11:45.999Z</time></trkpt><trkpt lat="42.28536072083521" lon="14.013676686736234"><ele>89.0</ele><time>2026-04-17T15:11:46.999Z</time></trkpt><trkpt lat="42.285346771097615" lon="14.013842585076988"><ele>89.0</ele><time>2026-04-17T15:11:47.999Z</time></trkpt><trkpt lat="42.28533449877439" lon="14.014009801232842"><ele>89.0</ele><time>2026-04-17T15:11:48.999Z</time></trkpt><trkpt lat="42.285333329286786" lon="14.014179867635692"><ele>89.0</ele><time>2026-04-17T15:11:49.999Z</time></trkpt><trkpt lat="42.28534602593837" lon="14.01435804819599"><ele>89.0</ele><time>2026-04-17T15:11:50.999Z</time></trkpt><trkpt lat="42.285365787889035" lon="14.01453464885134"><ele>88.5</ele><time>2026-04-17T15:11:51.999Z</time></trkpt><trkpt lat="42.28539869264839" lon="14.014717173731897"><ele>88.0</ele><time>2026-04-17T15:11:52.999Z</time></trkpt><trkpt lat="42.28542679401604" lon="14.014892660131482"><ele>87.5</ele><time>2026-04-17T15:11:53.999Z</time></trkpt><trkpt lat="42.28545111522283" lon="14.015061503393493"><ele>87.0</ele><time>2026-04-17T15:11:54.999Z</time></trkpt><trkpt lat="42.285478073201325" lon="14.01522753700598"><ele>86.5</ele><time>2026-04-17T15:11:55.999Z</time></trkpt><trkpt lat="42.285507149612634" lon="14.0153998506362"><ele>86.0</ele><time>2026-04-17T15:11:57Z</time></trkpt><trkpt lat="42.28553308554222" lon="14.015581031019002"><ele>85.5</ele><time>2026-04-17T15:11:58Z</time></trkpt><trkpt lat="42.28556263015607" lon="14.015763003649031"><ele>85.0</ele><time>2026-04-17T15:11:59Z</time></trkpt><trkpt lat="42.285592044970095" lon="14.015938722947219"><ele>84.25</ele><time>2026-04-17T15:12:00Z</time></trkpt><trkpt lat="42.285620290154775" lon="14.016110797076173"><ele>83.5</ele><time>2026-04-17T15:12:01Z</time></trkpt><trkpt lat="42.285651184477274" lon="14.016284939906933"><ele>82.75</ele><time>2026-04-17T15:12:02Z</time></trkpt><trkpt lat="42.28569194245396" lon="14.016462137148652"><ele>82.0</ele><time>2026-04-17T15:12:03Z</time></trkpt><trkpt lat="42.28574728577956" lon="14.016640591167677"><ele>82.25</ele><time>2026-04-17T15:12:04Z</time></trkpt><trkpt lat="42.28581078654326" lon="14.016815315369245"><ele>82.5</ele><time>2026-04-17T15:12:05Z</time></trkpt><trkpt lat="42.28587358763287" lon="14.016990350649404"><ele>82.75</ele><time>2026-04-17T15:12:06Z</time></trkpt><trkpt lat="42.285935722580604" lon="14.017169064640724"><ele>83.0</ele><time>2026-04-17T15:12:07Z</time></trkpt><trkpt lat="42.28600009087824" lon="14.017342917644593"><ele>82.75</ele><time>2026-04-17T15:12:08Z</time></trkpt><trkpt lat="42.28606093872307" lon="14.017522197336943"><ele>82.5</ele><time>2026-04-17T15:12:09Z</time></trkpt><trkpt lat="42.286124890867335" lon="14.017704281238958"><ele>82.25</ele><time>2026-04-17T15:12:10Z</time></trkpt><trkpt lat="42.2861865474167" lon="14.01786852726425"><ele>82.0</ele><time>2026-04-17T15:12:11Z</time></trkpt><trkpt lat="42.28624760443813" lon="14.018032073253796"><ele>82.0</ele><time>2026-04-17T15:12:12Z</time></trkpt><trkpt lat="42.286303224127465" lon="14.018197430562424"><ele>82.0</ele><time>2026-04-17T15:12:13Z</time></trkpt><trkpt lat="42.28636359826514" lon="14.018362943153093"><ele>82.0</ele><time>2026-04-17T15:12:14Z</time></trkpt><trkpt lat="42.28642033183199" lon="14.0185259845582"><ele>82.0</ele><time>2026-04-17T15:12:15Z</time></trkpt><trkpt lat="42.28647178596538" lon="14.018674447483177"><ele>81.6</ele><time>2026-04-17T15:12:16Z</time></trkpt><trkpt lat="42.28651421027609" lon="14.018805467086631"><ele>81.19999999999999</ele><time>2026-04-17T15:12:17Z</time></trkpt><trkpt lat="42.28655296637568" lon="14.018912015587803"><ele>80.8</ele><time>2026-04-17T15:12:18Z</time></trkpt><trkpt lat="42.286603485021416" lon="14.01899189419549"><ele>80.4</ele><time>2026-04-17T15:12:19Z</time></trkpt><trkpt lat="42.28667916194692" lon="14.019033483591047"><ele>80.0</ele><time>2026-04-17T15:12:20Z</time></trkpt><trkpt lat="42.28677983754236" lon="14.01904656836013"><ele>80.0</ele><time>2026-04-17T15:12:21Z</time></trkpt><trkpt lat="42.286896452485195" lon="14.019057149646748"><ele>80.0</ele><time>2026-04-17T15:12:22Z</time></trkpt><trkpt lat="42.28701955908526" lon="14.019099514035277"><ele>80.0</ele><time>2026-04-17T15:12:23Z</time></trkpt><trkpt lat="42.287144340124584" lon="14.019181929726187"><ele>80.0</ele><time>2026-04-17T15:12:24Z</time></trkpt><trkpt lat="42.28726648031908" lon="14.019285025223764"><ele>80.0</ele><time>2026-04-17T15:12:25Z</time></trkpt><trkpt lat="42.28737855939544" lon="14.01938059669743"><ele>80.0</ele><time>2026-04-17T15:12:26Z</time></trkpt><trkpt lat="42.28748535939295" lon="14.01945138049279"><ele>80.0</ele><time>2026-04-17T15:12:27Z</time></trkpt><trkpt lat="42.28760201308159" lon="14.019509542014871"><ele>80.0</ele><time>2026-04-17T15:12:28Z</time></trkpt><trkpt lat="42.287725027736656" lon="14.019552506848255"><ele>80.0</ele><time>2026-04-17T15:12:29Z</time></trkpt><trkpt lat="42.287850595705144" lon="14.019584601469889"><ele>80.0</ele><time>2026-04-17T15:12:30Z</time></trkpt><trkpt lat="42.2879846598886" lon="14.019614604540529"><ele>80.0</ele><time>2026-04-17T15:12:31Z</time></trkpt><trkpt lat="42.288116851715024" lon="14.019642079520914"><ele>80.0</ele><time>2026-04-17T15:12:32Z</time></trkpt><trkpt lat="42.28825080265169" lon="14.01967931468544"><ele>80.25</ele><time>2026-04-17T15:12:33Z</time></trkpt><trkpt lat="42.2883743691836" lon="14.019769109683306"><ele>80.5</ele><time>2026-04-17T15:12:34Z</time></trkpt><trkpt lat="42.28850722644546" lon="14.019841128342726"><ele>80.75</ele><time>2026-04-17T15:12:35Z</time></trkpt><trkpt lat="42.28862887972025" lon="14.019941493489803"><ele>81.0</ele><time>2026-04-17T15:12:36Z</time></trkpt><trkpt lat="42.28875170237942" lon="14.020039560638107"><ele>80.5</ele><time>2026-04-17T15:12:37Z</time></trkpt><trkpt lat="42.28887476105501" lon="14.020140395174682"><ele>80.0</ele><time>2026-04-17T15:12:38Z</time></trkpt><trkpt lat="42.28899682184469" lon="14.020248521295088"><ele>79.5</ele><time>2026-04-17T15:12:39Z</time></trkpt><trkpt lat="42.28911794433052" lon="14.020362986017552"><ele>79.0</ele><time>2026-04-17T15:12:40Z</time></trkpt><trkpt lat="42.28923012950294" lon="14.020485967746152"><ele>79.0</ele><time>2026-04-17T15:12:41Z</time></trkpt><trkpt lat="42.28934084894516" lon="14.02062124466899"><ele>79.0</ele><time>2026-04-17T15:12:42Z</time></trkpt><trkpt lat="42.28944744102928" lon="14.020754087035224"><ele>79.0</ele><time>2026-04-17T15:12:43Z</time></trkpt><trkpt lat="42.289556435428196" lon="14.020890784062322"><ele>79.0</ele><time>2026-04-17T15:12:44Z</time></trkpt><trkpt lat="42.28966327010471" lon="14.02102126180503"><ele>79.0</ele><time>2026-04-17T15:12:45Z</time></trkpt><trkpt lat="42.28977803011593" lon="14.021151016590641"><ele>79.0</ele><time>2026-04-17T15:12:46Z</time></trkpt><trkpt lat="42.28989503102501" lon="14.02126451909492"><ele>79.0</ele><time>2026-04-17T15:12:47Z</time></trkpt><trkpt lat="42.29001977002586" lon="14.021386311693348"><ele>79.0</ele><time>2026-04-17T15:12:48Z</time></trkpt><trkpt lat="42.2901484157434" lon="14.02149884624937"><ele>79.0</ele><time>2026-04-17T15:12:49Z</time></trkpt><trkpt lat="42.29028758316721" lon="14.021598458842108"><ele>79.0</ele><time>2026-04-17T15:12:50Z</time></trkpt><trkpt lat="42.290431520668214" lon="14.021698240890712"><ele>79.0</ele><time>2026-04-17T15:12:51Z</time></trkpt><trkpt lat="42.29057210273839" lon="14.021800465945706"><ele>78.0</ele><time>2026-04-17T15:12:52Z</time></trkpt><trkpt lat="42.290709860045084" lon="14.021901652939977"><ele>77.0</ele><time>2026-04-17T15:12:53Z</time></trkpt><trkpt lat="42.29084513216905" lon="14.022006124668048"><ele>76.0</ele><time>2026-04-17T15:12:54Z</time></trkpt><trkpt lat="42.290989699983626" lon="14.022109119317452"><ele>76.0</ele><time>2026-04-17T15:12:55Z</time></trkpt><trkpt lat="42.29114050750877" lon="14.022220051246997"><ele>76.0</ele><time>2026-04-17T15:12:56Z</time></trkpt><trkpt lat="42.291290591760664" lon="14.022334106170812"><ele>76.0</ele><time>2026-04-17T15:12:56.999Z</time></trkpt><trkpt lat="42.29142886910677" lon="14.022442994133387"><ele>76.0</ele><time>2026-04-17T15:12:57.999Z</time></trkpt><trkpt lat="42.29156882416783" lon="14.022543470968149"><ele>76.0</ele><time>2026-04-17T15:12:58.999Z</time></trkpt><trkpt lat="42.29170966919026" lon="14.022645178469588"><ele>76.0</ele><time>2026-04-17T15:12:59.999Z</time></trkpt><trkpt lat="42.291846555600245" lon="14.022766655875811"><ele>76.0</ele><time>2026-04-17T15:13:00.999Z</time></trkpt><trkpt lat="42.2919978402274" lon="14.02287364964844"><ele>76.0</ele><time>2026-04-17T15:13:01.999Z</time></trkpt><trkpt lat="42.29215175857657" lon="14.022980182640422"><ele>76.0</ele><time>2026-04-17T15:13:02.999Z</time></trkpt><trkpt lat="42.29230823616826" lon="14.023095011630817"><ele>76.66666666666666</ele><time>2026-04-17T15:13:03.999Z</time></trkpt><trkpt lat="42.29246015267701" lon="14.023214292525942"><ele>77.33333333333333</ele><time>2026-04-17T15:13:04.999Z</time></trkpt><trkpt lat="42.2926129574178" lon="14.023326575498341"><ele>78.0</ele><time>2026-04-17T15:13:05.999Z</time></trkpt><trkpt lat="42.29275697740954" lon="14.023434435273304"><ele>77.0</ele><time>2026-04-17T15:13:06.999Z</time></trkpt><trkpt lat="42.292904981114845" lon="14.023548616678339"><ele>76.0</ele><time>2026-04-17T15:13:07.999Z</time></trkpt><trkpt lat="42.29304993461715" lon="14.023659764609627"><ele>75.0</ele><time>2026-04-17T15:13:08.999Z</time></trkpt><trkpt lat="42.293196941626675" lon="14.023766334666453"><ele>75.0</ele><time>2026-04-17T15:13:09.999Z</time></trkpt><trkpt lat="42.293343278568116" lon="14.023877454814833"><ele>75.0</ele><time>2026-04-17T15:13:10.999Z</time></trkpt><trkpt lat="42.29348290121689" lon="14.023981817991787"><ele>75.0</ele><time>2026-04-17T15:13:11.999Z</time></trkpt><trkpt lat="42.29362924523392" lon="14.024086495756551"><ele>75.0</ele><time>2026-04-17T15:13:12.999Z</time></trkpt><trkpt lat="42.293770816275135" lon="14.024190531294758"><ele>75.0</ele><time>2026-04-17T15:13:13.999Z</time></trkpt><trkpt lat="42.293916171768196" lon="14.024299204836034"><ele>75.0</ele><time>2026-04-17T15:13:14.999Z</time></trkpt><trkpt lat="42.29406143345142" lon="14.024404950877898"><ele>75.0</ele><time>2026-04-17T15:13:15.999Z</time></trkpt><trkpt lat="42.294208689169906" lon="14.024511877827521"><ele>75.0</ele><time>2026-04-17T15:13:16.999Z</time></trkpt><trkpt lat="42.29435240792103" lon="14.024619595300807"><ele>75.0</ele><time>2026-04-17T15:13:17.999Z</time></trkpt><trkpt lat="42.29449361309549" lon="14.024725073994198"><ele>75.0</ele><time>2026-04-17T15:13:18.999Z</time></trkpt><trkpt lat="42.2946452063501" lon="14.024831774908398"><ele>75.0</ele><time>2026-04-17T15:13:19.999Z</time></trkpt><trkpt lat="42.294790740122274" lon="14.024946458466976"><ele>75.0</ele><time>2026-04-17T15:13:20.999Z</time></trkpt><trkpt lat="42.29493553703493" lon="14.025060271145614"><ele>74.33333333333333</ele><time>2026-04-17T15:13:21.999Z</time></trkpt><trkpt lat="42.29507991217739" lon="14.025172382298017"><ele>73.66666666666666</ele><time>2026-04-17T15:13:22.999Z</time></trkpt><trkpt lat="42.29523009148317" lon="14.025282946941415"><ele>73.0</ele><time>2026-04-17T15:13:23.999Z</time></trkpt><trkpt lat="42.29538011784973" lon="14.025393624806815"><ele>73.0</ele><time>2026-04-17T15:13:24.999Z</time></trkpt><trkpt lat="42.29552858822481" lon="14.025503900850762"><ele>73.0</ele><time>2026-04-17T15:13:25.999Z</time></trkpt><trkpt lat="42.29567473721906" lon="14.025616196581637"><ele>73.0</ele><time>2026-04-17T15:13:26.999Z</time></trkpt><trkpt lat="42.29582433762967" lon="14.02572179806081"><ele>73.33333333333333</ele><time>2026-04-17T15:13:27.999Z</time></trkpt><trkpt lat="42.295978229920536" lon="14.025828757486668"><ele>73.66666666666667</ele><time>2026-04-17T15:13:28.999Z</time></trkpt><trkpt lat="42.29612425659736" lon="14.025942534616874"><ele>74.0</ele><time>2026-04-17T15:13:29.999Z</time></trkpt><trkpt lat="42.296275923263956" lon="14.02605128433454"><ele>74.0</ele><time>2026-04-17T15:13:30.999Z</time></trkpt><trkpt lat="42.296424186150674" lon="14.026161822617466"><ele>74.0</ele><time>2026-04-17T15:13:31.999Z</time></trkpt><trkpt lat="42.29657261771935" lon="14.026275647851547"><ele>74.0</ele><time>2026-04-17T15:13:32.999Z</time></trkpt><trkpt lat="42.296720162842576" lon="14.026389266127152"><ele>74.0</ele><time>2026-04-17T15:13:33.999Z</time></trkpt><trkpt lat="42.29687223686313" lon="14.026498857163899"><ele>74.0</ele><time>2026-04-17T15:13:34.999Z</time></trkpt><trkpt lat="42.29702163857213" lon="14.026609085203502"><ele>74.0</ele><time>2026-04-17T15:13:35.999Z</time></trkpt><trkpt lat="42.297174752235165" lon="14.026716107318926"><ele>74.0</ele><time>2026-04-17T15:13:36.999Z</time></trkpt><trkpt lat="42.297326331114384" lon="14.026825015437682"><ele>74.0</ele><time>2026-04-17T15:13:37.999Z</time></trkpt><trkpt lat="42.297478292275336" lon="14.026936851150724"><ele>74.0</ele><time>2026-04-17T15:13:38.999Z</time></trkpt><trkpt lat="42.29762454877937" lon="14.027052882472079"><ele>74.0</ele><time>2026-04-17T15:13:39.998Z</time></trkpt><trkpt lat="42.29777634112277" lon="14.027163115645319"><ele>74.0</ele><time>2026-04-17T15:13:40.998Z</time></trkpt><trkpt lat="42.297919397785144" lon="14.027284507456931"><ele>74.0</ele><time>2026-04-17T15:13:41.998Z</time></trkpt><trkpt lat="42.29806832985873" lon="14.027398455775984"><ele>74.0</ele><time>2026-04-17T15:13:42.998Z</time></trkpt><trkpt lat="42.29822106110296" lon="14.027503975103672"><ele>74.0</ele><time>2026-04-17T15:13:43.998Z</time></trkpt><trkpt lat="42.298374455720776" lon="14.02761005986004"><ele>74.0</ele><time>2026-04-17T15:13:44.998Z</time></trkpt><trkpt lat="42.298524030783476" lon="14.027723187392985"><ele>74.0</ele><time>2026-04-17T15:13:45.998Z</time></trkpt><trkpt lat="42.29867408452786" lon="14.0278306163501"><ele>74.0</ele><time>2026-04-17T15:13:46.998Z</time></trkpt><trkpt lat="42.29882361511541" lon="14.027950393669787"><ele>74.0</ele><time>2026-04-17T15:13:47.998Z</time></trkpt><trkpt lat="42.29897853399899" lon="14.028059992460525"><ele>74.0</ele><time>2026-04-17T15:13:48.998Z</time></trkpt><trkpt lat="42.299130683026256" lon="14.02817306648648"><ele>74.0</ele><time>2026-04-17T15:13:49.998Z</time></trkpt><trkpt lat="42.299282956421656" lon="14.028282509214419"><ele>74.0</ele><time>2026-04-17T15:13:50.998Z</time></trkpt><trkpt lat="42.29942965568717" lon="14.028396926147835"><ele>73.66666666666667</ele><time>2026-04-17T15:13:51.998Z</time></trkpt><trkpt lat="42.29957241878929" lon="14.028503116808322"><ele>73.33333333333333</ele><time>2026-04-17T15:13:52.998Z</time></trkpt><trkpt lat="42.29971993940085" lon="14.028605245872281"><ele>73.0</ele><time>2026-04-17T15:13:53.998Z</time></trkpt><trkpt lat="42.29986629062352" lon="14.028700703980425"><ele>74.0</ele><time>2026-04-17T15:13:54.998Z</time></trkpt><trkpt lat="42.30000968419831" lon="14.02881772424311"><ele>75.0</ele><time>2026-04-17T15:13:55.998Z</time></trkpt><trkpt lat="42.30015009035778" lon="14.02893565345345"><ele>76.0</ele><time>2026-04-17T15:13:56.998Z</time></trkpt><trkpt lat="42.30028911226111" lon="14.029049225401366"><ele>75.0</ele><time>2026-04-17T15:13:57.998Z</time></trkpt><trkpt lat="42.300456203990976" lon="14.029161299210596"><ele>74.0</ele><time>2026-04-17T15:13:58.998Z</time></trkpt><trkpt lat="42.30060929113738" lon="14.02927745779681"><ele>73.0</ele><time>2026-04-17T15:13:59.998Z</time></trkpt><trkpt lat="42.300760887325424" lon="14.029386485187448"><ele>72.33333333333333</ele><time>2026-04-17T15:14:00.998Z</time></trkpt><trkpt lat="42.30091487786135" lon="14.02949717976058"><ele>71.66666666666667</ele><time>2026-04-17T15:14:01.998Z</time></trkpt><trkpt lat="42.30106488090788" lon="14.029612795833195"><ele>71.0</ele><time>2026-04-17T15:14:02.999Z</time></trkpt><trkpt lat="42.30121370218182" lon="14.029724453807347"><ele>71.0</ele><time>2026-04-17T15:14:03.999Z</time></trkpt><trkpt lat="42.30136450711056" lon="14.029835304798361"><ele>71.0</ele><time>2026-04-17T15:14:04.999Z</time></trkpt><trkpt lat="42.30149667028388" lon="14.029934436501597"><ele>71.0</ele><time>2026-04-17T15:14:05.999Z</time></trkpt><trkpt lat="42.301624022269976" lon="14.030019950702345"><ele>72.2</ele><time>2026-04-17T15:14:06.999Z</time></trkpt><trkpt lat="42.30173520346669" lon="14.030103567555056"><ele>73.39999999999999</ele><time>2026-04-17T15:14:07.999Z</time></trkpt><trkpt lat="42.30183138763769" lon="14.030174619217327"><ele>74.6</ele><time>2026-04-17T15:14:08.999Z</time></trkpt><trkpt lat="42.301919345162574" lon="14.030236220829643"><ele>75.8</ele><time>2026-04-17T15:14:09.999Z</time></trkpt><trkpt lat="42.30200515834935" lon="14.03030799696485"><ele>77.0</ele><time>2026-04-17T15:14:10.999Z</time></trkpt><trkpt lat="42.30210030154734" lon="14.030410655621822"><ele>77.0</ele><time>2026-04-17T15:14:11.999Z</time></trkpt><trkpt lat="42.30218928066506" lon="14.030554453849314"><ele>77.0</ele><time>2026-04-17T15:14:12.999Z</time></trkpt><trkpt lat="42.30230266988622" lon="14.030712447432494"><ele>77.0</ele><time>2026-04-17T15:14:13.999Z</time></trkpt><trkpt lat="42.302449127641395" lon="14.03087193929646"><ele>78.0</ele><time>2026-04-17T15:14:14.999Z</time></trkpt><trkpt lat="42.30258799003549" lon="14.031058448417557"><ele>79.0</ele><time>2026-04-17T15:14:15.999Z</time></trkpt><trkpt lat="42.30273653653857" lon="14.031216429761416"><ele>80.0</ele><time>2026-04-17T15:14:16.999Z</time></trkpt><trkpt lat="42.302883136416554" lon="14.03134289169691"><ele>80.0</ele><time>2026-04-17T15:14:17.999Z</time></trkpt><trkpt lat="42.303022166305475" lon="14.031464820932603"><ele>80.0</ele><time>2026-04-17T15:14:18.999Z</time></trkpt><trkpt lat="42.30315695731734" lon="14.031591824337077"><ele>80.0</ele><time>2026-04-17T15:14:19.999Z</time></trkpt><trkpt lat="42.30328828693692" lon="14.031715436610405"><ele>79.66666666666667</ele><time>2026-04-17T15:14:20.999Z</time></trkpt><trkpt lat="42.303424398965824" lon="14.031843927401221"><ele>79.33333333333333</ele><time>2026-04-17T15:14:21.999Z</time></trkpt><trkpt lat="42.30355462963642" lon="14.031966399495538"><ele>79.0</ele><time>2026-04-17T15:14:22.999Z</time></trkpt><trkpt lat="42.3036783252293" lon="14.03208085937377"><ele>79.0</ele><time>2026-04-17T15:14:23.999Z</time></trkpt><trkpt lat="42.303800831743686" lon="14.032196394862744"><ele>79.0</ele><time>2026-04-17T15:14:24.999Z</time></trkpt><trkpt lat="42.30392701449385" lon="14.032317092540568"><ele>79.0</ele><time>2026-04-17T15:14:25.999Z</time></trkpt><trkpt lat="42.30406235301064" lon="14.032445448891158"><ele>78.66666666666666</ele><time>2026-04-17T15:14:26.999Z</time></trkpt><trkpt lat="42.304209121018786" lon="14.032567227915488"><ele>78.33333333333333</ele><time>2026-04-17T15:14:27.999Z</time></trkpt><trkpt lat="42.304369354473764" lon="14.03267491510906"><ele>78.0</ele><time>2026-04-17T15:14:28.999Z</time></trkpt><trkpt lat="42.30454249471316" lon="14.032762070011552"><ele>78.0</ele><time>2026-04-17T15:14:29.999Z</time></trkpt><trkpt lat="42.3047251126315" lon="14.032832103617602"><ele>78.0</ele><time>2026-04-17T15:14:30.999Z</time></trkpt><trkpt lat="42.30489622154121" lon="14.032889762184597"><ele>78.0</ele><time>2026-04-17T15:14:31.999Z</time></trkpt><trkpt lat="42.30505845375211" lon="14.032947342312028"><ele>78.66666666666667</ele><time>2026-04-17T15:14:32.999Z</time></trkpt><trkpt lat="42.30521097861148" lon="14.032986721843159"><ele>79.33333333333334</ele><time>2026-04-17T15:14:33.999Z</time></trkpt><trkpt lat="42.305364378569365" lon="14.033032081849287"><ele>80.0</ele><time>2026-04-17T15:14:34.999Z</time></trkpt><trkpt lat="42.30550900116307" lon="14.033082692862655"><ele>79.66666666666667</ele><time>2026-04-17T15:14:35.999Z</time></trkpt><trkpt lat="42.305645629334215" lon="14.033161673820096"><ele>79.33333333333333</ele><time>2026-04-17T15:14:36.999Z</time></trkpt><trkpt lat="42.305774623842474" lon="14.033283983222304"><ele>79.0</ele><time>2026-04-17T15:14:37.999Z</time></trkpt><trkpt lat="42.30590606636577" lon="14.033417443963605"><ele>79.0</ele><time>2026-04-17T15:14:38.999Z</time></trkpt><trkpt lat="42.30603600484746" lon="14.033572365275118"><ele>79.0</ele><time>2026-04-17T15:14:39.999Z</time></trkpt><trkpt lat="42.30616219875498" lon="14.033728772400504"><ele>79.0</ele><time>2026-04-17T15:14:40.999Z</time></trkpt><trkpt lat="42.30628196631823" lon="14.033876316925486"><ele>79.0</ele><time>2026-04-17T15:14:41.999Z</time></trkpt><trkpt lat="42.306402693422704" lon="14.03402262503576"><ele>79.0</ele><time>2026-04-17T15:14:42.999Z</time></trkpt><trkpt lat="42.30652329565694" lon="14.034172294094159"><ele>79.0</ele><time>2026-04-17T15:14:43.999Z</time></trkpt><trkpt lat="42.30664139621866" lon="14.034324394911293"><ele>79.0</ele><time>2026-04-17T15:14:44.999Z</time></trkpt><trkpt lat="42.30675179406571" lon="14.034472260697878"><ele>79.0</ele><time>2026-04-17T15:14:45.999Z</time></trkpt><trkpt lat="42.306858951584466" lon="14.034614648044093"><ele>79.0</ele><time>2026-04-17T15:14:46.999Z</time></trkpt><trkpt lat="42.3069682138434" lon="14.034752254193835"><ele>79.0</ele><time>2026-04-17T15:14:47.999Z</time></trkpt><trkpt lat="42.30707418797696" lon="14.034890251830472"><ele>79.0</ele><time>2026-04-17T15:14:48.999Z</time></trkpt><trkpt lat="42.307169233882995" lon="14.035034902645787"><ele>79.0</ele><time>2026-04-17T15:14:49.999Z</time></trkpt><trkpt lat="42.307255688213644" lon="14.03519375976239"><ele>79.0</ele><time>2026-04-17T15:14:50.999Z</time></trkpt><trkpt lat="42.307326845819496" lon="14.035362856351862"><ele>80.0</ele><time>2026-04-17T15:14:51.999Z</time></trkpt><trkpt lat="42.3073869528164" lon="14.035544058971428"><ele>81.0</ele><time>2026-04-17T15:14:52.999Z</time></trkpt><trkpt lat="42.30744050397611" lon="14.035731184251906"><ele>82.0</ele><time>2026-04-17T15:14:53.999Z</time></trkpt><trkpt lat="42.3075034488786" lon="14.0359342759122"><ele>82.0</ele><time>2026-04-17T15:14:54.999Z</time></trkpt><trkpt lat="42.307552052989415" lon="14.036127434254452"><ele>82.0</ele><time>2026-04-17T15:14:55.999Z</time></trkpt><trkpt lat="42.30762500707921" lon="14.036356232410954"><ele>82.0</ele><time>2026-04-17T15:14:56.999Z</time></trkpt><trkpt lat="42.30768067896905" lon="14.036577995478138"><ele>79.66666666666666</ele><time>2026-04-17T15:14:57.999Z</time></trkpt><trkpt lat="42.30773545610206" lon="14.036797192078065"><ele>77.33333333333333</ele><time>2026-04-17T15:14:58.999Z</time></trkpt><trkpt lat="42.30778306177699" lon="14.037006196158567"><ele>75.0</ele><time>2026-04-17T15:14:59.999Z</time></trkpt><trkpt lat="42.30783118043503" lon="14.03719602951246"><ele>75.0</ele><time>2026-04-17T15:15:00.999Z</time></trkpt><trkpt lat="42.30788899321887" lon="14.037395319810615"><ele>75.0</ele><time>2026-04-17T15:15:01.999Z</time></trkpt><trkpt lat="42.307990249343554" lon="14.03759839582766"><ele>75.0</ele><time>2026-04-17T15:15:02.999Z</time></trkpt><trkpt lat="42.30811211038822" lon="14.037800432758452"><ele>76.0</ele><time>2026-04-17T15:15:03.999Z</time></trkpt><trkpt lat="42.30823034811408" lon="14.037985605896601"><ele>77.0</ele><time>2026-04-17T15:15:04.999Z</time></trkpt><trkpt lat="42.30835813782794" lon="14.038148631862068"><ele>78.0</ele><time>2026-04-17T15:15:05.999Z</time></trkpt><trkpt lat="42.308485768765046" lon="14.038304599151623"><ele>76.0</ele><time>2026-04-17T15:15:06.999Z</time></trkpt><trkpt lat="42.30859780160266" lon="14.038483353384333"><ele>74.0</ele><time>2026-04-17T15:15:07.999Z</time></trkpt><trkpt lat="42.30869521671958" lon="14.038674146675804"><ele>72.0</ele><time>2026-04-17T15:15:08.999Z</time></trkpt><trkpt lat="42.30877958258454" lon="14.038869490755628"><ele>72.0</ele><time>2026-04-17T15:15:09.999Z</time></trkpt><trkpt lat="42.308870273751225" lon="14.039064875593333"><ele>72.0</ele><time>2026-04-17T15:15:10.999Z</time></trkpt><trkpt lat="42.30896402460207" lon="14.039259101400182"><ele>72.0</ele><time>2026-04-17T15:15:11.999Z</time></trkpt><trkpt lat="42.309060329019246" lon="14.039450638881675"><ele>72.33333333333333</ele><time>2026-04-17T15:15:12.999Z</time></trkpt><trkpt lat="42.30915252159614" lon="14.039643167308036"><ele>72.66666666666666</ele><time>2026-04-17T15:15:13.999Z</time></trkpt><trkpt lat="42.30924574454711" lon="14.039834960877672"><ele>73.0</ele><time>2026-04-17T15:15:14.999Z</time></trkpt><trkpt lat="42.3093337903952" lon="14.040024427992604"><ele>70.66666666666666</ele><time>2026-04-17T15:15:15.999Z</time></trkpt><trkpt lat="42.30942954748992" lon="14.040212775993025"><ele>68.33333333333333</ele><time>2026-04-17T15:15:16.999Z</time></trkpt><trkpt lat="42.309533106454886" lon="14.040386358290116"><ele>66.0</ele><time>2026-04-17T15:15:17.999Z</time></trkpt><trkpt lat="42.30964295962501" lon="14.04054861066284"><ele>65.66666666666667</ele><time>2026-04-17T15:15:18.999Z</time></trkpt><trkpt lat="42.309760629588176" lon="14.040701310346702"><ele>65.33333333333334</ele><time>2026-04-17T15:15:19.999Z</time></trkpt><trkpt lat="42.309890690381174" lon="14.040854669792937"><ele>65.0</ele><time>2026-04-17T15:15:20.999Z</time></trkpt><trkpt lat="42.31002004765372" lon="14.041011352703705"><ele>65.0</ele><time>2026-04-17T15:15:21.998Z</time></trkpt><trkpt lat="42.31014529221219" lon="14.041169690734625"><ele>65.0</ele><time>2026-04-17T15:15:22.998Z</time></trkpt><trkpt lat="42.31027719304288" lon="14.041333405085092"><ele>65.0</ele><time>2026-04-17T15:15:23.998Z</time></trkpt><trkpt lat="42.31040607313252" lon="14.041488701644333"><ele>63.66666666666667</ele><time>2026-04-17T15:15:24.998Z</time></trkpt><trkpt lat="42.31052750324793" lon="14.041636219548447"><ele>62.33333333333333</ele><time>2026-04-17T15:15:25.998Z</time></trkpt><trkpt lat="42.31064010467918" lon="14.041783912074463"><ele>61.0</ele><time>2026-04-17T15:15:26.998Z</time></trkpt><trkpt lat="42.31075882263444" lon="14.041925618511383"><ele>61.75</ele><time>2026-04-17T15:15:27.998Z</time></trkpt><trkpt lat="42.310864495759176" lon="14.042071381892356"><ele>62.5</ele><time>2026-04-17T15:15:28.998Z</time></trkpt><trkpt lat="42.31096474490531" lon="14.042222818092231"><ele>63.25</ele><time>2026-04-17T15:15:29.998Z</time></trkpt><trkpt lat="42.31104348891508" lon="14.042391477168685"><ele>64.0</ele><time>2026-04-17T15:15:30.998Z</time></trkpt><trkpt lat="42.31113684896212" lon="14.042561631636744"><ele>64.0</ele><time>2026-04-17T15:15:31.998Z</time></trkpt><trkpt lat="42.31120412275879" lon="14.042734294028062"><ele>64.0</ele><time>2026-04-17T15:15:32.998Z</time></trkpt><trkpt lat="42.311254053802145" lon="14.042951780762525"><ele>64.0</ele><time>2026-04-17T15:15:33.998Z</time></trkpt><trkpt lat="42.31135855085438" lon="14.043186810250598"><ele>65.66666666666666</ele><time>2026-04-17T15:15:34.998Z</time></trkpt><trkpt lat="42.31146036722583" lon="14.0433421298483"><ele>67.33333333333333</ele><time>2026-04-17T15:15:35.998Z</time></trkpt><trkpt lat="42.31153671073622" lon="14.043520914717144"><ele>69.0</ele><time>2026-04-17T15:15:36.998Z</time></trkpt><trkpt lat="42.31161011577083" lon="14.043705576795416"><ele>69.0</ele><time>2026-04-17T15:15:37.998Z</time></trkpt><trkpt lat="42.31168979160647" lon="14.043891291842145"><ele>69.0</ele><time>2026-04-17T15:15:38.998Z</time></trkpt><trkpt lat="42.311771437242946" lon="14.044071615794442"><ele>69.0</ele><time>2026-04-17T15:15:39.998Z</time></trkpt><trkpt lat="42.31185244959244" lon="14.044250570775915"><ele>67.66666666666667</ele><time>2026-04-17T15:15:40.998Z</time></trkpt><trkpt lat="42.31194362687182" lon="14.044424298189229"><ele>66.33333333333334</ele><time>2026-04-17T15:15:41.998Z</time></trkpt><trkpt lat="42.31203677743445" lon="14.044578904966231"><ele>65.0</ele><time>2026-04-17T15:15:42.998Z</time></trkpt><trkpt lat="42.31212827767646" lon="14.04473326940806"><ele>65.0</ele><time>2026-04-17T15:15:43.998Z</time></trkpt><trkpt lat="42.31221789529907" lon="14.044884005249143"><ele>65.0</ele><time>2026-04-17T15:15:44.998Z</time></trkpt><trkpt lat="42.31230206562929" lon="14.045024971509687"><ele>65.0</ele><time>2026-04-17T15:15:45.998Z</time></trkpt><trkpt lat="42.31238949506566" lon="14.045164486032434"><ele>65.0</ele><time>2026-04-17T15:15:46.998Z</time></trkpt><trkpt lat="42.31246773112367" lon="14.045286883938264"><ele>65.5</ele><time>2026-04-17T15:15:47.998Z</time></trkpt><trkpt lat="42.31255674440089" lon="14.04540651617927"><ele>66.0</ele><time>2026-04-17T15:15:48.998Z</time></trkpt><trkpt lat="42.31266059241306" lon="14.045503625355781"><ele>66.5</ele><time>2026-04-17T15:15:49.998Z</time></trkpt><trkpt lat="42.312777655078484" lon="14.045574422255672"><ele>67.0</ele><time>2026-04-17T15:15:50.998Z</time></trkpt><trkpt lat="42.312906435208255" lon="14.045615548501505"><ele>67.0</ele><time>2026-04-17T15:15:51.998Z</time></trkpt><trkpt lat="42.313033178169725" lon="14.045642358173103"><ele>67.0</ele><time>2026-04-17T15:15:52.998Z</time></trkpt><trkpt lat="42.313152221091585" lon="14.045667264913208"><ele>67.0</ele><time>2026-04-17T15:15:53.998Z</time></trkpt><trkpt lat="42.31326729507531" lon="14.045704304666682"><ele>67.0</ele><time>2026-04-17T15:15:54.998Z</time></trkpt><trkpt lat="42.313379113747246" lon="14.045765729472178"><ele>66.0</ele><time>2026-04-17T15:15:55.998Z</time></trkpt><trkpt lat="42.31348516087817" lon="14.045857743621719"><ele>65.0</ele><time>2026-04-17T15:15:56.998Z</time></trkpt><trkpt lat="42.313579261478125" lon="14.045989866863836"><ele>64.0</ele><time>2026-04-17T15:15:57.998Z</time></trkpt><trkpt lat="42.313658203747266" lon="14.04613725919785"><ele>63.0</ele><time>2026-04-17T15:15:58.998Z</time></trkpt><trkpt lat="42.313721050712246" lon="14.046295145489555"><ele>63.0</ele><time>2026-04-17T15:15:59.998Z</time></trkpt><trkpt lat="42.313783883002166" lon="14.046454011161954"><ele>63.0</ele><time>2026-04-17T15:16:00.998Z</time></trkpt><trkpt lat="42.31385051264869" lon="14.046605514640635"><ele>63.0</ele><time>2026-04-17T15:16:01.998Z</time></trkpt><trkpt lat="42.313920426460214" lon="14.046756183549604"><ele>63.0</ele><time>2026-04-17T15:16:02.998Z</time></trkpt><trkpt lat="42.31399102541962" lon="14.046915255310031"><ele>63.25</ele><time>2026-04-17T15:16:03.998Z</time></trkpt><trkpt lat="42.31406151842759" lon="14.047076850979373"><ele>63.5</ele><time>2026-04-17T15:16:04.998Z</time></trkpt><trkpt lat="42.314126952179286" lon="14.047232541108269"><ele>63.75</ele><time>2026-04-17T15:16:05.998Z</time></trkpt><trkpt lat="42.31419401427665" lon="14.047385130922628"><ele>64.0</ele><time>2026-04-17T15:16:06.998Z</time></trkpt><trkpt lat="42.31426027095928" lon="14.047530101369567"><ele>63.25</ele><time>2026-04-17T15:16:07.999Z</time></trkpt><trkpt lat="42.314326499985626" lon="14.047682983454182"><ele>62.5</ele><time>2026-04-17T15:16:08.999Z</time></trkpt><trkpt lat="42.314396039726695" lon="14.047832927638012"><ele>61.75</ele><time>2026-04-17T15:16:09.999Z</time></trkpt><trkpt lat="42.31446581394538" lon="14.047987382770074"><ele>61.0</ele><time>2026-04-17T15:16:10.999Z</time></trkpt><trkpt lat="42.314537186823586" lon="14.048141615087294"><ele>60.5</ele><time>2026-04-17T15:16:11.999Z</time></trkpt><trkpt lat="42.31460927439337" lon="14.048298756745428"><ele>60.0</ele><time>2026-04-17T15:16:12.999Z</time></trkpt><trkpt lat="42.31468303574078" lon="14.048454451467926"><ele>59.5</ele><time>2026-04-17T15:16:13.999Z</time></trkpt><trkpt lat="42.314757055356736" lon="14.048613315639924"><ele>59.0</ele><time>2026-04-17T15:16:14.999Z</time></trkpt><trkpt lat="42.314824326921915" lon="14.048776403739428"><ele>59.0</ele><time>2026-04-17T15:16:15.999Z</time></trkpt><trkpt lat="42.31488645904992" lon="14.048946611170377"><ele>59.0</ele><time>2026-04-17T15:16:16.999Z</time></trkpt><trkpt lat="42.31495020187333" lon="14.049108762069649"><ele>59.0</ele><time>2026-04-17T15:16:17.999Z</time></trkpt><trkpt lat="42.31501993928567" lon="14.049268919152793"><ele>59.0</ele><time>2026-04-17T15:16:18.999Z</time></trkpt><trkpt lat="42.31509476529632" lon="14.04943227713116"><ele>59.0</ele><time>2026-04-17T15:16:19.999Z</time></trkpt><trkpt lat="42.31516951012088" lon="14.049599782436893"><ele>59.0</ele><time>2026-04-17T15:16:20.999Z</time></trkpt><trkpt lat="42.31524521901408" lon="14.049770075154289"><ele>59.0</ele><time>2026-04-17T15:16:21.999Z</time></trkpt><trkpt lat="42.315318773506185" lon="14.049939217753954"><ele>59.0</ele><time>2026-04-17T15:16:22.999Z</time></trkpt><trkpt lat="42.31539642654034" lon="14.05011442386579"><ele>59.0</ele><time>2026-04-17T15:16:23.999Z</time></trkpt><trkpt lat="42.31547425557937" lon="14.05028968039552"><ele>59.0</ele><time>2026-04-17T15:16:24.999Z</time></trkpt><trkpt lat="42.31555241538248" lon="14.050469520446963"><ele>59.0</ele><time>2026-04-17T15:16:25.999Z</time></trkpt><trkpt lat="42.31563246372285" lon="14.050649470906269"><ele>59.0</ele><time>2026-04-17T15:16:26.999Z</time></trkpt><trkpt lat="42.31571418339394" lon="14.050831591831292"><ele>59.0</ele><time>2026-04-17T15:16:27.999Z</time></trkpt><trkpt lat="42.31579736529648" lon="14.051014413445177"><ele>59.0</ele><time>2026-04-17T15:16:28.999Z</time></trkpt><trkpt lat="42.31587916411844" lon="14.051201159214589"><ele>59.0</ele><time>2026-04-17T15:16:29.999Z</time></trkpt><trkpt lat="42.31596055608707" lon="14.051385962650674"><ele>59.0</ele><time>2026-04-17T15:16:30.999Z</time></trkpt><trkpt lat="42.31604725264226" lon="14.05155630856703"><ele>59.0</ele><time>2026-04-17T15:16:31.999Z</time></trkpt><trkpt lat="42.31614586367795" lon="14.051726251081389"><ele>58.333333333333336</ele><time>2026-04-17T15:16:32.999Z</time></trkpt><trkpt lat="42.316257167078" lon="14.051878957357301"><ele>57.66666666666667</ele><time>2026-04-17T15:16:33.999Z</time></trkpt><trkpt lat="42.31637640074365" lon="14.052023919183643"><ele>57.0</ele><time>2026-04-17T15:16:34.999Z</time></trkpt><trkpt lat="42.316495433091724" lon="14.05216819500523"><ele>57.33333333333333</ele><time>2026-04-17T15:16:35.999Z</time></trkpt><trkpt lat="42.31661397352191" lon="14.052301165790299"><ele>57.666666666666664</ele><time>2026-04-17T15:16:36.999Z</time></trkpt><trkpt lat="42.31673486575426" lon="14.052431487151301"><ele>58.0</ele><time>2026-04-17T15:16:37.999Z</time></trkpt><trkpt lat="42.316849833685225" lon="14.052568973468736"><ele>58.0</ele><time>2026-04-17T15:16:38.999Z</time></trkpt><trkpt lat="42.31697321516216" lon="14.052705981908462"><ele>58.0</ele><time>2026-04-17T15:16:39.999Z</time></trkpt><trkpt lat="42.31708134484876" lon="14.052827506991198"><ele>58.0</ele><time>2026-04-17T15:16:40.999Z</time></trkpt><trkpt lat="42.31719043255879" lon="14.05294895914481"><ele>58.0</ele><time>2026-04-17T15:16:41.999Z</time></trkpt><trkpt lat="42.317309199557165" lon="14.053075676782548"><ele>58.33333333333333</ele><time>2026-04-17T15:16:42.999Z</time></trkpt><trkpt lat="42.31743761018407" lon="14.05320403366689"><ele>58.66666666666667</ele><time>2026-04-17T15:16:43.999Z</time></trkpt><trkpt lat="42.31756818649786" lon="14.053343223986198"><ele>59.0</ele><time>2026-04-17T15:16:44.999Z</time></trkpt><trkpt lat="42.317687818973106" lon="14.053476400941912"><ele>59.0</ele><time>2026-04-17T15:16:45.999Z</time></trkpt><trkpt lat="42.31780738668396" lon="14.053613176707284"><ele>59.0</ele><time>2026-04-17T15:16:46.999Z</time></trkpt><trkpt lat="42.317934251349705" lon="14.05375573470792"><ele>59.0</ele><time>2026-04-17T15:16:47.999Z</time></trkpt><trkpt lat="42.31807289601744" lon="14.053896672569207"><ele>59.0</ele><time>2026-04-17T15:16:48.999Z</time></trkpt><trkpt lat="42.31821858470725" lon="14.05408252664669"><ele>59.0</ele><time>2026-04-17T15:16:49.999Z</time></trkpt><trkpt lat="42.31838480982328" lon="14.054269026549678"><ele>59.0</ele><time>2026-04-17T15:16:50.999Z</time></trkpt><trkpt lat="42.31855466388594" lon="14.054443737049507"><ele>58.333333333333336</ele><time>2026-04-17T15:16:51.999Z</time></trkpt><trkpt lat="42.31871587053776" lon="14.054608897536935"><ele>57.66666666666667</ele><time>2026-04-17T15:16:52.999Z</time></trkpt><trkpt lat="42.3188819190071" lon="14.054787065648156"><ele>57.0</ele><time>2026-04-17T15:16:53.999Z</time></trkpt><trkpt lat="42.319057025705646" lon="14.054993919228574"><ele>57.0</ele><time>2026-04-17T15:16:54.999Z</time></trkpt><trkpt lat="42.319223848009194" lon="14.055202090665151"><ele>57.0</ele><time>2026-04-17T15:16:55.999Z</time></trkpt><trkpt lat="42.31937806622927" lon="14.055392237690725"><ele>57.0</ele><time>2026-04-17T15:16:56.999Z</time></trkpt><trkpt lat="42.319536545596804" lon="14.055552667794865"><ele>57.0</ele><time>2026-04-17T15:16:57.999Z</time></trkpt><trkpt lat="42.31968683380392" lon="14.055727256351206"><ele>57.0</ele><time>2026-04-17T15:16:58.999Z</time></trkpt><trkpt lat="42.319811380045536" lon="14.055930006723063"><ele>57.0</ele><time>2026-04-17T15:16:59.999Z</time></trkpt><trkpt lat="42.319933787595396" lon="14.056134807139422"><ele>57.0</ele><time>2026-04-17T15:17:00.999Z</time></trkpt><trkpt lat="42.32005207911762" lon="14.056356876801653"><ele>57.0</ele><time>2026-04-17T15:17:01.999Z</time></trkpt><trkpt lat="42.32015178801058" lon="14.056607720673531"><ele>57.0</ele><time>2026-04-17T15:17:02.999Z</time></trkpt><trkpt lat="42.32024539972874" lon="14.056869169065182"><ele>57.0</ele><time>2026-04-17T15:17:03.999Z</time></trkpt><trkpt lat="42.32034907290211" lon="14.05713224933665"><ele>57.0</ele><time>2026-04-17T15:17:04.999Z</time></trkpt><trkpt lat="42.32044838115217" lon="14.057374081793345"><ele>57.0</ele><time>2026-04-17T15:17:05.999Z</time></trkpt><trkpt lat="42.32054536799551" lon="14.057613688356335"><ele>57.33333333333333</ele><time>2026-04-17T15:17:06.999Z</time></trkpt><trkpt lat="42.32064467754829" lon="14.057861638898506"><ele>57.666666666666664</ele><time>2026-04-17T15:17:07.999Z</time></trkpt><trkpt lat="42.32074758200466" lon="14.058111599318334"><ele>58.0</ele><time>2026-04-17T15:17:08.999Z</time></trkpt><trkpt lat="42.32083612129226" lon="14.058329592452187"><ele>58.0</ele><time>2026-04-17T15:17:09.999Z</time></trkpt><trkpt lat="42.32091864218145" lon="14.058560826921086"><ele>58.0</ele><time>2026-04-17T15:17:10.999Z</time></trkpt><trkpt lat="42.32101195155916" lon="14.05878439968752"><ele>58.0</ele><time>2026-04-17T15:17:11.999Z</time></trkpt><trkpt lat="42.32110506386284" lon="14.059001392154178"><ele>57.33333333333333</ele><time>2026-04-17T15:17:12.999Z</time></trkpt><trkpt lat="42.32119248517648" lon="14.059212933784679"><ele>56.66666666666667</ele><time>2026-04-17T15:17:13.999Z</time></trkpt><trkpt lat="42.32128448168696" lon="14.059439141016"><ele>56.0</ele><time>2026-04-17T15:17:14.999Z</time></trkpt><trkpt lat="42.32139476040017" lon="14.059648603332459"><ele>57.0</ele><time>2026-04-17T15:17:15.999Z</time></trkpt><trkpt lat="42.32153729889062" lon="14.059836998908406"><ele>58.0</ele><time>2026-04-17T15:17:16.999Z</time></trkpt><trkpt lat="42.321703978355046" lon="14.059996325256199"><ele>59.0</ele><time>2026-04-17T15:17:17.999Z</time></trkpt><trkpt lat="42.32187930327271" lon="14.060139963388302"><ele>59.0</ele><time>2026-04-17T15:17:18.999Z</time></trkpt><trkpt lat="42.32204967131275" lon="14.060268457737862"><ele>59.0</ele><time>2026-04-17T15:17:19.999Z</time></trkpt><trkpt lat="42.32220857944192" lon="14.060398548717114"><ele>59.0</ele><time>2026-04-17T15:17:20.999Z</time></trkpt><trkpt lat="42.322362707680966" lon="14.060524797186423"><ele>58.0</ele><time>2026-04-17T15:17:21.999Z</time></trkpt><trkpt lat="42.322520622127115" lon="14.06065643153649"><ele>57.0</ele><time>2026-04-17T15:17:22.999Z</time></trkpt><trkpt lat="42.32267629507612" lon="14.06078767577607"><ele>56.0</ele><time>2026-04-17T15:17:23.999Z</time></trkpt><trkpt lat="42.322833821276056" lon="14.06091508741457"><ele>56.0</ele><time>2026-04-17T15:17:24.999Z</time></trkpt><trkpt lat="42.32299184540213" lon="14.061042495802608"><ele>56.0</ele><time>2026-04-17T15:17:25.999Z</time></trkpt><trkpt lat="42.323143526570384" lon="14.061170329077616"><ele>56.0</ele><time>2026-04-17T15:17:26.999Z</time></trkpt><trkpt lat="42.323289082637174" lon="14.061295101731197"><ele>55.66666666666667</ele><time>2026-04-17T15:17:27.999Z</time></trkpt><trkpt lat="42.32343188722704" lon="14.061416507952636"><ele>55.33333333333333</ele><time>2026-04-17T15:17:28.999Z</time></trkpt><trkpt lat="42.3235729838416" lon="14.061546080062039"><ele>55.0</ele><time>2026-04-17T15:17:29.999Z</time></trkpt><trkpt lat="42.32369588755633" lon="14.061659715210851"><ele>55.0</ele><time>2026-04-17T15:17:30.999Z</time></trkpt><trkpt lat="42.32381232331428" lon="14.061772865811665"><ele>55.0</ele><time>2026-04-17T15:17:31.999Z</time></trkpt><trkpt lat="42.32392073472292" lon="14.061890557120575"><ele>55.0</ele><time>2026-04-17T15:17:32.999Z</time></trkpt><trkpt lat="42.32402310410119" lon="14.062015634509025"><ele>55.0</ele><time>2026-04-17T15:17:33.999Z</time></trkpt><trkpt lat="42.324119523572925" lon="14.062162245545984"><ele>55.0</ele><time>2026-04-17T15:17:34.999Z</time></trkpt><trkpt lat="42.324205060065765" lon="14.06235610820947"><ele>55.0</ele><time>2026-04-17T15:17:35.999Z</time></trkpt><trkpt lat="42.32429964059331" lon="14.062563559488265"><ele>55.0</ele><time>2026-04-17T15:17:36.999Z</time></trkpt><trkpt lat="42.32440734901518" lon="14.062772835246971"><ele>55.0</ele><time>2026-04-17T15:17:37.999Z</time></trkpt><trkpt lat="42.32451826713196" lon="14.062964589314893"><ele>55.0</ele><time>2026-04-17T15:17:38.999Z</time></trkpt><trkpt lat="42.32461445564997" lon="14.063146060838337"><ele>55.0</ele><time>2026-04-17T15:17:39.999Z</time></trkpt><trkpt lat="42.32472055348443" lon="14.06335290207452"><ele>55.0</ele><time>2026-04-17T15:17:40.999Z</time></trkpt><trkpt lat="42.3248285292476" lon="14.06356108233404"><ele>55.0</ele><time>2026-04-17T15:17:41.999Z</time></trkpt><trkpt lat="42.32494824439249" lon="14.063778278244982"><ele>55.0</ele><time>2026-04-17T15:17:42.999Z</time></trkpt><trkpt lat="42.32506919273596" lon="14.064003561117499"><ele>55.0</ele><time>2026-04-17T15:17:43.999Z</time></trkpt><trkpt lat="42.32518971975028" lon="14.064228739625957"><ele>55.0</ele><time>2026-04-17T15:17:44.999Z</time></trkpt><trkpt lat="42.3253133392054" lon="14.064450249123947"><ele>55.0</ele><time>2026-04-17T15:17:45.998Z</time></trkpt><trkpt lat="42.32544189746792" lon="14.06466534817933"><ele>56.33333333333333</ele><time>2026-04-17T15:17:46.998Z</time></trkpt><trkpt lat="42.32559267162656" lon="14.064901241828535"><ele>57.66666666666667</ele><time>2026-04-17T15:17:47.998Z</time></trkpt><trkpt lat="42.325733545155806" lon="14.06510495970268"><ele>59.0</ele><time>2026-04-17T15:17:48.998Z</time></trkpt><trkpt lat="42.32588660374757" lon="14.065316749392691"><ele>59.0</ele><time>2026-04-17T15:17:49.998Z</time></trkpt><trkpt lat="42.326036349930845" lon="14.065529192861066"><ele>59.0</ele><time>2026-04-17T15:17:50.998Z</time></trkpt><trkpt lat="42.32619045631542" lon="14.065748659269884"><ele>59.0</ele><time>2026-04-17T15:17:51.998Z</time></trkpt><trkpt lat="42.326338293445474" lon="14.065966252058953"><ele>58.0</ele><time>2026-04-17T15:17:52.998Z</time></trkpt><trkpt lat="42.326489914566174" lon="14.066188574487887"><ele>57.0</ele><time>2026-04-17T15:17:53.998Z</time></trkpt><trkpt lat="42.32663589399551" lon="14.066408450768533"><ele>56.0</ele><time>2026-04-17T15:17:54.998Z</time></trkpt><trkpt lat="42.32678505570086" lon="14.066629441465086"><ele>54.66666666666667</ele><time>2026-04-17T15:17:55.998Z</time></trkpt><trkpt lat="42.32693801925802" lon="14.066847798102785"><ele>53.33333333333333</ele><time>2026-04-17T15:17:56.998Z</time></trkpt><trkpt lat="42.32709094551008" lon="14.067064164523803"><ele>52.0</ele><time>2026-04-17T15:17:57.998Z</time></trkpt><trkpt lat="42.32724581813086" lon="14.067279110091814"><ele>51.33333333333333</ele><time>2026-04-17T15:17:58.998Z</time></trkpt><trkpt lat="42.32739720456879" lon="14.06749204425274"><ele>50.66666666666667</ele><time>2026-04-17T15:17:59.998Z</time></trkpt><trkpt lat="42.32754783074271" lon="14.06770545749095"><ele>50.0</ele><time>2026-04-17T15:18:00.998Z</time></trkpt><trkpt lat="42.327697266273255" lon="14.067923114227925"><ele>50.0</ele><time>2026-04-17T15:18:01.998Z</time></trkpt><trkpt lat="42.32783963416857" lon="14.068139971079999"><ele>50.0</ele><time>2026-04-17T15:18:02.998Z</time></trkpt><trkpt lat="42.32798713709208" lon="14.06836042770929"><ele>50.0</ele><time>2026-04-17T15:18:03.998Z</time></trkpt><trkpt lat="42.32813322108586" lon="14.068572983442097"><ele>50.333333333333336</ele><time>2026-04-17T15:18:04.998Z</time></trkpt><trkpt lat="42.32828655063477" lon="14.068783305765313"><ele>50.66666666666667</ele><time>2026-04-17T15:18:05.998Z</time></trkpt><trkpt lat="42.3284447896928" lon="14.06899415975975"><ele>51.0</ele><time>2026-04-17T15:18:06.998Z</time></trkpt><trkpt lat="42.32860297938115" lon="14.06921399319336"><ele>50.5</ele><time>2026-04-17T15:18:07.998Z</time></trkpt><trkpt lat="42.32876310591076" lon="14.069442381494037"><ele>50.0</ele><time>2026-04-17T15:18:08.998Z</time></trkpt><trkpt lat="42.32891701612047" lon="14.069674974302124"><ele>50.0</ele><time>2026-04-17T15:18:09.998Z</time></trkpt><trkpt lat="42.32907987589402" lon="14.069921797211192"><ele>50.0</ele><time>2026-04-17T15:18:10.998Z</time></trkpt><trkpt lat="42.3292492415689" lon="14.070167267891726"><ele>48.5</ele><time>2026-04-17T15:18:11.998Z</time></trkpt><trkpt lat="42.32942167709916" lon="14.07041594278199"><ele>47.0</ele><time>2026-04-17T15:18:12.998Z</time></trkpt><trkpt lat="42.329599986447576" lon="14.0706703074709"><ele>51.0</ele><time>2026-04-17T15:18:14Z</time></trkpt><trkpt lat="42.3297608504793" lon="14.070914881090857"><ele>55.0</ele><time>2026-04-17T15:18:15Z</time></trkpt><trkpt lat="42.32993405463439" lon="14.071153313109846"><ele>55.0</ele><time>2026-04-17T15:18:16Z</time></trkpt><trkpt lat="42.330102969642965" lon="14.071398489358925"><ele>55.0</ele><time>2026-04-17T15:18:17Z</time></trkpt><trkpt lat="42.33026701855395" lon="14.071643793019408"><ele>52.5</ele><time>2026-04-17T15:18:18Z</time></trkpt><trkpt lat="42.33043866629222" lon="14.071894155828232"><ele>50.0</ele><time>2026-04-17T15:18:19Z</time></trkpt><trkpt lat="42.33059914316372" lon="14.072129848906583"><ele>50.333333333333336</ele><time>2026-04-17T15:18:20Z</time></trkpt><trkpt lat="42.33074682558136" lon="14.07234758131433"><ele>50.66666666666667</ele><time>2026-04-17T15:18:21Z</time></trkpt><trkpt lat="42.33089190176228" lon="14.07256742623197"><ele>51.0</ele><time>2026-04-17T15:18:22Z</time></trkpt><trkpt lat="42.33103947090934" lon="14.072778995315264"><ele>51.0</ele><time>2026-04-17T15:18:23Z</time></trkpt><trkpt lat="42.33119331781494" lon="14.07298884874888"><ele>51.0</ele><time>2026-04-17T15:18:24Z</time></trkpt><trkpt lat="42.331348964215486" lon="14.07320533518821"><ele>51.0</ele><time>2026-04-17T15:18:25Z</time></trkpt><trkpt lat="42.331500108620546" lon="14.073430599657362"><ele>50.0</ele><time>2026-04-17T15:18:26Z</time></trkpt><trkpt lat="42.33165403818852" lon="14.073657018617224"><ele>49.0</ele><time>2026-04-17T15:18:27Z</time></trkpt><trkpt lat="42.331812003601" lon="14.073884503627593"><ele>47.5</ele><time>2026-04-17T15:18:28Z</time></trkpt><trkpt lat="42.33197050285378" lon="14.074108405762496"><ele>46.0</ele><time>2026-04-17T15:18:29Z</time></trkpt><trkpt lat="42.332126055289955" lon="14.074329678891365"><ele>45.66666666666667</ele><time>2026-04-17T15:18:30Z</time></trkpt><trkpt lat="42.332259655154054" lon="14.07455211746793"><ele>45.333333333333336</ele><time>2026-04-17T15:18:31Z</time></trkpt><trkpt lat="42.33242321012755" lon="14.074758268161503"><ele>45.0</ele><time>2026-04-17T15:18:32Z</time></trkpt><trkpt lat="42.332562346411926" lon="14.074994733022113"><ele>45.0</ele><time>2026-04-17T15:18:33Z</time></trkpt><trkpt lat="42.332717952312535" lon="14.075222270799937"><ele>45.0</ele><time>2026-04-17T15:18:34Z</time></trkpt><trkpt lat="42.33287225626829" lon="14.075447904489119"><ele>45.0</ele><time>2026-04-17T15:18:35Z</time></trkpt><trkpt lat="42.33303419196038" lon="14.075684697968544"><ele>45.0</ele><time>2026-04-17T15:18:36Z</time></trkpt><trkpt lat="42.33319801653284" lon="14.075924253390617"><ele>46.0</ele><time>2026-04-17T15:18:37Z</time></trkpt><trkpt lat="42.33335045126038" lon="14.076147153672428"><ele>47.0</ele><time>2026-04-17T15:18:38Z</time></trkpt><trkpt lat="42.333494885108095" lon="14.076358354636755"><ele>48.0</ele><time>2026-04-17T15:18:39Z</time></trkpt><trkpt lat="42.33364080459288" lon="14.076544329165188"><ele>48.0</ele><time>2026-04-17T15:18:40Z</time></trkpt><trkpt lat="42.33376941356388" lon="14.07673752566964"><ele>48.0</ele><time>2026-04-17T15:18:41Z</time></trkpt><trkpt lat="42.3338868032434" lon="14.07691336837517"><ele>48.0</ele><time>2026-04-17T15:18:42Z</time></trkpt><trkpt lat="42.333994174337356" lon="14.077086080851378"><ele>48.0</ele><time>2026-04-17T15:18:43Z</time></trkpt><trkpt lat="42.334088583166306" lon="14.07726178599589"><ele>48.0</ele><time>2026-04-17T15:18:44Z</time></trkpt><trkpt lat="42.33416729800978" lon="14.077447066657761"><ele>48.0</ele><time>2026-04-17T15:18:45Z</time></trkpt><trkpt lat="42.33423079532047" lon="14.077671541832878"><ele>48.0</ele><time>2026-04-17T15:18:46Z</time></trkpt><trkpt lat="42.33425261553813" lon="14.077893397046134"><ele>48.0</ele><time>2026-04-17T15:18:47Z</time></trkpt><trkpt lat="42.334281148605896" lon="14.078125490605549"><ele>48.0</ele><time>2026-04-17T15:18:48Z</time></trkpt><trkpt lat="42.33430506812073" lon="14.078367856065404"><ele>47.333333333333336</ele><time>2026-04-17T15:18:49Z</time></trkpt><trkpt lat="42.33432659086708" lon="14.07862281969007"><ele>46.66666666666667</ele><time>2026-04-17T15:18:50Z</time></trkpt><trkpt lat="42.33435864831464" lon="14.078884412271652"><ele>46.0</ele><time>2026-04-17T15:18:51Z</time></trkpt><trkpt lat="42.33436393980161" lon="14.07914921270691"><ele>46.0</ele><time>2026-04-17T15:18:51.999Z</time></trkpt><trkpt lat="42.33438157797176" lon="14.079422251177979"><ele>46.0</ele><time>2026-04-17T15:18:52.999Z</time></trkpt><trkpt lat="42.33440981126884" lon="14.079679749401878"><ele>46.0</ele><time>2026-04-17T15:18:53.999Z</time></trkpt><trkpt lat="42.33443976125362" lon="14.079923564823776"><ele>46.0</ele><time>2026-04-17T15:18:54.999Z</time></trkpt><trkpt lat="42.33446060217195" lon="14.080152618371535"><ele>46.0</ele><time>2026-04-17T15:18:55.999Z</time></trkpt><trkpt lat="42.33445259086893" lon="14.08037534306672"><ele>46.0</ele><time>2026-04-17T15:18:56.999Z</time></trkpt><trkpt lat="42.334447311132685" lon="14.080593551917389"><ele>46.0</ele><time>2026-04-17T15:18:57.999Z</time></trkpt><trkpt lat="42.33442982092759" lon="14.08081782868949"><ele>46.0</ele><time>2026-04-17T15:18:58.999Z</time></trkpt><trkpt lat="42.33442115456011" lon="14.081030332033162"><ele>46.0</ele><time>2026-04-17T15:18:59.999Z</time></trkpt><trkpt lat="42.33439587224825" lon="14.081225487008775"><ele>46.0</ele><time>2026-04-17T15:19:00.999Z</time></trkpt><trkpt lat="42.33438319524514" lon="14.08142004944387"><ele>46.0</ele><time>2026-04-17T15:19:01.999Z</time></trkpt><trkpt lat="42.334374657428846" lon="14.081607683231983"><ele>46.0</ele><time>2026-04-17T15:19:02.999Z</time></trkpt><trkpt lat="42.334356560107416" lon="14.081801517653865"><ele>46.0</ele><time>2026-04-17T15:19:03.999Z</time></trkpt><trkpt lat="42.33434050631397" lon="14.08200444418348"><ele>47.0</ele><time>2026-04-17T15:19:04.999Z</time></trkpt><trkpt lat="42.33434571369676" lon="14.08221364316102"><ele>48.0</ele><time>2026-04-17T15:19:05.999Z</time></trkpt><trkpt lat="42.334372791791225" lon="14.08243424806937"><ele>49.0</ele><time>2026-04-17T15:19:06.999Z</time></trkpt><trkpt lat="42.33442127112645" lon="14.082647312902294"><ele>49.666666666666664</ele><time>2026-04-17T15:19:07.999Z</time></trkpt><trkpt lat="42.33449572117511" lon="14.082855744232061"><ele>50.33333333333333</ele><time>2026-04-17T15:19:08.999Z</time></trkpt><trkpt lat="42.33459152615377" lon="14.08305006376017"><ele>51.0</ele><time>2026-04-17T15:19:09.999Z</time></trkpt><trkpt lat="42.334691023335736" lon="14.0832211235587"><ele>52.0</ele><time>2026-04-17T15:19:10.999Z</time></trkpt><trkpt lat="42.33478368809232" lon="14.083390742903209"><ele>53.0</ele><time>2026-04-17T15:19:11.999Z</time></trkpt><trkpt lat="42.334867736181224" lon="14.08355154031538"><ele>54.0</ele><time>2026-04-17T15:19:12.999Z</time></trkpt><trkpt lat="42.33494613833255" lon="14.083713561159568"><ele>55.0</ele><time>2026-04-17T15:19:13.999Z</time></trkpt><trkpt lat="42.33502825133338" lon="14.083868948936729"><ele>55.0</ele><time>2026-04-17T15:19:14.999Z</time></trkpt><trkpt lat="42.33511394168007" lon="14.084029536389382"><ele>55.0</ele><time>2026-04-17T15:19:15.999Z</time></trkpt><trkpt lat="42.33519682774567" lon="14.084192371013165"><ele>55.0</ele><time>2026-04-17T15:19:16.999Z</time></trkpt><trkpt lat="42.33527454677628" lon="14.084348869508581"><ele>55.0</ele><time>2026-04-17T15:19:17.999Z</time></trkpt><trkpt lat="42.335355209246465" lon="14.084509004367549"><ele>54.75</ele><time>2026-04-17T15:19:18.999Z</time></trkpt><trkpt lat="42.33543581605146" lon="14.084677732688222"><ele>54.5</ele><time>2026-04-17T15:19:19.999Z</time></trkpt><trkpt lat="42.33550881142754" lon="14.084844935630223"><ele>54.25</ele><time>2026-04-17T15:19:20.999Z</time></trkpt><trkpt lat="42.33556803864384" lon="14.085007865403798"><ele>54.0</ele><time>2026-04-17T15:19:21.999Z</time></trkpt><trkpt lat="42.33561354421632" lon="14.085168144428803"><ele>54.0</ele><time>2026-04-17T15:19:22.999Z</time></trkpt><trkpt lat="42.33566064022977" lon="14.085322482590449"><ele>54.0</ele><time>2026-04-17T15:19:23.999Z</time></trkpt><trkpt lat="42.33570859523462" lon="14.0854705321304"><ele>54.0</ele><time>2026-04-17T15:19:24.999Z</time></trkpt><trkpt lat="42.335751617763776" lon="14.08561732519359"><ele>54.0</ele><time>2026-04-17T15:19:25.999Z</time></trkpt><trkpt lat="42.33579231962348" lon="14.085752407521012"><ele>53.800000000000004</ele><time>2026-04-17T15:19:26.999Z</time></trkpt><trkpt lat="42.33583022231233" lon="14.085882407454832"><ele>53.60000000000001</ele><time>2026-04-17T15:19:27.999Z</time></trkpt><trkpt lat="42.33586160151739" lon="14.086008302823613"><ele>53.4</ele><time>2026-04-17T15:19:28.999Z</time></trkpt><trkpt lat="42.335894656120715" lon="14.0861280831127"><ele>53.2</ele><time>2026-04-17T15:19:29.999Z</time></trkpt><trkpt lat="42.33593509260276" lon="14.086239588450308"><ele>53.0</ele><time>2026-04-17T15:19:30.999Z</time></trkpt><trkpt lat="42.33597312789868" lon="14.086349874443862"><ele>53.0</ele><time>2026-04-17T15:19:31.999Z</time></trkpt><trkpt lat="42.33600850363463" lon="14.086461679755983"><ele>53.0</ele><time>2026-04-17T15:19:32.999Z</time></trkpt><trkpt lat="42.336042508400666" lon="14.08658523524117"><ele>53.0</ele><time>2026-04-17T15:19:33.999Z</time></trkpt><trkpt lat="42.336076146627114" lon="14.08670060377384"><ele>53.0</ele><time>2026-04-17T15:19:34.999Z</time></trkpt><trkpt lat="42.33611076121463" lon="14.086821041019258"><ele>53.0</ele><time>2026-04-17T15:19:35.999Z</time></trkpt><trkpt lat="42.336142085287044" lon="14.086926471220115"><ele>52.0</ele><time>2026-04-17T15:19:36.999Z</time></trkpt><trkpt lat="42.33616641237121" lon="14.08701732034863"><ele>51.0</ele><time>2026-04-17T15:19:37.999Z</time></trkpt><trkpt lat="42.3362036775572" lon="14.087137074877113"><ele>50.0</ele><time>2026-04-17T15:19:39.999Z</time></trkpt><trkpt lat="42.336236881528635" lon="14.087241396002046"><ele>49.0</ele><time>2026-04-17T15:19:41.999Z</time></trkpt><trkpt lat="42.33626575678651" lon="14.08737946241619"><ele>48.0</ele><time>2026-04-17T15:19:43.999Z</time></trkpt><trkpt lat="42.336319801212454" lon="14.087514394029984"><ele>47.2</ele><time>2026-04-17T15:19:45.999Z</time></trkpt><trkpt lat="42.33635434639958" lon="14.087648921735488"><ele>46.4</ele><time>2026-04-17T15:19:47.999Z</time></trkpt><trkpt lat="42.33638641476534" lon="14.087761907450426"><ele>45.6</ele><time>2026-04-17T15:19:49.999Z</time></trkpt><trkpt lat="42.33641155418608" lon="14.08785036775505"><ele>44.800000000000004</ele><time>2026-04-17T15:19:53.999Z</time></trkpt><trkpt lat="42.33644422925235" lon="14.087954642846135"><ele>44.0</ele><time>2026-04-17T15:19:58.999Z</time></trkpt><trkpt lat="42.33647033664737" lon="14.088102500921346"><ele>45.2</ele><time>2026-04-17T15:20:00.999Z</time></trkpt><trkpt lat="42.33649132129385" lon="14.08820509784141"><ele>46.400000000000006</ele><time>2026-04-17T15:20:01.999Z</time></trkpt><trkpt lat="42.33652514192058" lon="14.088332661635095"><ele>47.6</ele><time>2026-04-17T15:20:02.999Z</time></trkpt><trkpt lat="42.33656641683848" lon="14.088458907829004"><ele>48.8</ele><time>2026-04-17T15:20:03.999Z</time></trkpt><trkpt lat="42.33660745724423" lon="14.088601229615383"><ele>50.0</ele><time>2026-04-17T15:20:04.999Z</time></trkpt><trkpt lat="42.33664092180316" lon="14.088757718028237"><ele>50.0</ele><time>2026-04-17T15:20:05.999Z</time></trkpt><trkpt lat="42.3366824044782" lon="14.088899848682548"><ele>50.0</ele><time>2026-04-17T15:20:06.999Z</time></trkpt><trkpt lat="42.33673135140432" lon="14.089057784167332"><ele>50.0</ele><time>2026-04-17T15:20:07.999Z</time></trkpt><trkpt lat="42.33678616748775" lon="14.089231423468274"><ele>50.0</ele><time>2026-04-17T15:20:08.999Z</time></trkpt><trkpt lat="42.336845041726725" lon="14.08942298002265"><ele>49.66666666666667</ele><time>2026-04-17T15:20:09.999Z</time></trkpt><trkpt lat="42.336902455082665" lon="14.089626232542365"><ele>49.33333333333333</ele><time>2026-04-17T15:20:10.999Z</time></trkpt><trkpt lat="42.3369632512215" lon="14.089842768601484"><ele>49.0</ele><time>2026-04-17T15:20:11.999Z</time></trkpt><trkpt lat="42.3370239092852" lon="14.090050514688906"><ele>49.666666666666664</ele><time>2026-04-17T15:20:12.999Z</time></trkpt><trkpt lat="42.33708237264147" lon="14.090243965302173"><ele>50.33333333333333</ele><time>2026-04-17T15:20:13.998Z</time></trkpt><trkpt lat="42.33714002961948" lon="14.09042739590582"><ele>51.0</ele><time>2026-04-17T15:20:14.998Z</time></trkpt><trkpt lat="42.337186398132836" lon="14.090621151320033"><ele>50.66666666666667</ele><time>2026-04-17T15:20:15.998Z</time></trkpt><trkpt lat="42.33723235682726" lon="14.09081480095783"><ele>50.333333333333336</ele><time>2026-04-17T15:20:16.998Z</time></trkpt><trkpt lat="42.337275131435035" lon="14.091013993356148"><ele>50.0</ele><time>2026-04-17T15:20:17.998Z</time></trkpt><trkpt lat="42.33732018811122" lon="14.09121753212931"><ele>50.0</ele><time>2026-04-17T15:20:18.998Z</time></trkpt><trkpt lat="42.33736898027545" lon="14.091423488344564"><ele>50.0</ele><time>2026-04-17T15:20:20Z</time></trkpt><trkpt lat="42.3374085093919" lon="14.091620686515972"><ele>50.0</ele><time>2026-04-17T15:20:21Z</time></trkpt><trkpt lat="42.33744919316057" lon="14.091823471076877"><ele>50.333333333333336</ele><time>2026-04-17T15:20:22Z</time></trkpt><trkpt lat="42.337495922977524" lon="14.09202056671103"><ele>50.66666666666667</ele><time>2026-04-17T15:20:23Z</time></trkpt><trkpt lat="42.33754296141996" lon="14.092220521912944"><ele>51.0</ele><time>2026-04-17T15:20:24Z</time></trkpt><trkpt lat="42.33758365575015" lon="14.092421772001533"><ele>52.0</ele><time>2026-04-17T15:20:25Z</time></trkpt><trkpt lat="42.33762614520709" lon="14.092622830493653"><ele>53.0</ele><time>2026-04-17T15:20:26Z</time></trkpt><trkpt lat="42.33766770303776" lon="14.092825406817107"><ele>54.0</ele><time>2026-04-17T15:20:27Z</time></trkpt><trkpt lat="42.33771151641437" lon="14.093021132854878"><ele>54.0</ele><time>2026-04-17T15:20:28Z</time></trkpt><trkpt lat="42.337754491648504" lon="14.093209933887387"><ele>54.0</ele><time>2026-04-17T15:20:29Z</time></trkpt><trkpt lat="42.337795956896265" lon="14.093391027644767"><ele>54.0</ele><time>2026-04-17T15:20:30Z</time></trkpt><trkpt lat="42.33783602635567" lon="14.093583569950356"><ele>54.0</ele><time>2026-04-17T15:20:31Z</time></trkpt><trkpt lat="42.337879418958636" lon="14.09377547244715"><ele>54.33333333333333</ele><time>2026-04-17T15:20:32Z</time></trkpt><trkpt lat="42.33792177868824" lon="14.09397248894138"><ele>54.666666666666664</ele><time>2026-04-17T15:20:33Z</time></trkpt><trkpt lat="42.33796651126068" lon="14.094175256842307"><ele>55.0</ele><time>2026-04-17T15:20:34Z</time></trkpt><trkpt lat="42.33801154134818" lon="14.094380512238509"><ele>54.33333333333333</ele><time>2026-04-17T15:20:35Z</time></trkpt><trkpt lat="42.33805163154995" lon="14.094580197818848"><ele>53.66666666666667</ele><time>2026-04-17T15:20:36Z</time></trkpt><trkpt lat="42.33809772242361" lon="14.094791054455566"><ele>53.0</ele><time>2026-04-17T15:20:37Z</time></trkpt><trkpt lat="42.33814634449046" lon="14.094993214828824"><ele>53.0</ele><time>2026-04-17T15:20:38Z</time></trkpt><trkpt lat="42.33819464330262" lon="14.095199713866013"><ele>53.0</ele><time>2026-04-17T15:20:39Z</time></trkpt><trkpt lat="42.338241230810006" lon="14.095407535132647"><ele>53.0</ele><time>2026-04-17T15:20:40Z</time></trkpt><trkpt lat="42.33828585970858" lon="14.095614171485604"><ele>53.25</ele><time>2026-04-17T15:20:41Z</time></trkpt><trkpt lat="42.3383289033519" lon="14.095802451324959"><ele>53.5</ele><time>2026-04-17T15:20:42Z</time></trkpt><trkpt lat="42.3383628779027" lon="14.095968932208345"><ele>53.75</ele><time>2026-04-17T15:20:43Z</time></trkpt><trkpt lat="42.338396165562045" lon="14.096131018124652"><ele>54.0</ele><time>2026-04-17T15:20:44Z</time></trkpt><trkpt lat="42.33842316844631" lon="14.096300110915148"><ele>54.0</ele><time>2026-04-17T15:20:45Z</time></trkpt><trkpt lat="42.33844890334744" lon="14.096479749678455"><ele>54.0</ele><time>2026-04-17T15:20:46Z</time></trkpt><trkpt lat="42.338471757657665" lon="14.096663970633193"><ele>54.0</ele><time>2026-04-17T15:20:47Z</time></trkpt><trkpt lat="42.33849336598783" lon="14.096837967145285"><ele>54.0</ele><time>2026-04-17T15:20:48Z</time></trkpt><trkpt lat="42.33851786835706" lon="14.096996369342019"><ele>54.0</ele><time>2026-04-17T15:20:49Z</time></trkpt><trkpt lat="42.338536363835885" lon="14.097143878230995"><ele>54.0</ele><time>2026-04-17T15:20:50Z</time></trkpt><trkpt lat="42.33855294574335" lon="14.097305713032755"><ele>54.0</ele><time>2026-04-17T15:20:51Z</time></trkpt><trkpt lat="42.33856897070107" lon="14.097465013606055"><ele>54.0</ele><time>2026-04-17T15:20:52Z</time></trkpt><trkpt lat="42.338582798931135" lon="14.097626452672348"><ele>54.0</ele><time>2026-04-17T15:20:53Z</time></trkpt><trkpt lat="42.3385959072839" lon="14.097791895132321"><ele>54.0</ele><time>2026-04-17T15:20:54Z</time></trkpt><trkpt lat="42.33861958688349" lon="14.097957036165253"><ele>54.0</ele><time>2026-04-17T15:20:55Z</time></trkpt><trkpt lat="42.33864400850278" lon="14.098126306227627"><ele>54.0</ele><time>2026-04-17T15:20:56Z</time></trkpt><trkpt lat="42.3386655115967" lon="14.098299040822038"><ele>53.5</ele><time>2026-04-17T15:20:57Z</time></trkpt><trkpt lat="42.33868886765692" lon="14.098463509079627"><ele>53.0</ele><time>2026-04-17T15:20:58Z</time></trkpt><trkpt lat="42.33870960974257" lon="14.098630190372994"><ele>52.5</ele><time>2026-04-17T15:20:59Z</time></trkpt><trkpt lat="42.33872342270482" lon="14.098795896090884"><ele>52.0</ele><time>2026-04-17T15:21:00Z</time></trkpt><trkpt lat="42.33873986479698" lon="14.098962210835463"><ele>52.25</ele><time>2026-04-17T15:21:01Z</time></trkpt><trkpt lat="42.33876153762011" lon="14.099130071593855"><ele>52.5</ele><time>2026-04-17T15:21:02Z</time></trkpt><trkpt lat="42.338780949677236" lon="14.099296539720422"><ele>52.75</ele><time>2026-04-17T15:21:03Z</time></trkpt><trkpt lat="42.33879818255205" lon="14.099463139839353"><ele>53.0</ele><time>2026-04-17T15:21:04Z</time></trkpt><trkpt lat="42.33881488964417" lon="14.0996270126235"><ele>53.0</ele><time>2026-04-17T15:21:05Z</time></trkpt><trkpt lat="42.338837876991654" lon="14.09979021229348"><ele>53.0</ele><time>2026-04-17T15:21:06Z</time></trkpt><trkpt lat="42.33886454215901" lon="14.09995515183059"><ele>53.0</ele><time>2026-04-17T15:21:07Z</time></trkpt><trkpt lat="42.338893174430574" lon="14.100104961472757"><ele>53.0</ele><time>2026-04-17T15:21:08Z</time></trkpt><trkpt lat="42.3389179075699" lon="14.100255416940366"><ele>53.0</ele><time>2026-04-17T15:21:09Z</time></trkpt><trkpt lat="42.33895201637826" lon="14.100405639782664"><ele>53.0</ele><time>2026-04-17T15:21:10Z</time></trkpt><trkpt lat="42.33899575301885" lon="14.100556136096571"><ele>53.0</ele><time>2026-04-17T15:21:11Z</time></trkpt><trkpt lat="42.33902083793124" lon="14.100699607531345"><ele>53.0</ele><time>2026-04-17T15:21:12Z</time></trkpt><trkpt lat="42.339059744741476" lon="14.100835215366716"><ele>52.5</ele><time>2026-04-17T15:21:13Z</time></trkpt><trkpt lat="42.339101872274576" lon="14.100987971192303"><ele>52.0</ele><time>2026-04-17T15:21:14Z</time></trkpt><trkpt lat="42.339147228043466" lon="14.101145571444992"><ele>51.5</ele><time>2026-04-17T15:21:15Z</time></trkpt><trkpt lat="42.33918726879409" lon="14.101308151277355"><ele>51.0</ele><time>2026-04-17T15:21:16Z</time></trkpt><trkpt lat="42.33922076712305" lon="14.101459921015195"><ele>50.8</ele><time>2026-04-17T15:21:17Z</time></trkpt><trkpt lat="42.33925521534631" lon="14.1016031514529"><ele>50.599999999999994</ele><time>2026-04-17T15:21:18Z</time></trkpt><trkpt lat="42.33929243436263" lon="14.101745038995272"><ele>50.4</ele><time>2026-04-17T15:21:18.999Z</time></trkpt><trkpt lat="42.33933187457171" lon="14.101882982266707"><ele>50.2</ele><time>2026-04-17T15:21:19.999Z</time></trkpt><trkpt lat="42.339370422051886" lon="14.102030352808118"><ele>50.0</ele><time>2026-04-17T15:21:20.999Z</time></trkpt><trkpt lat="42.33940440954146" lon="14.102180025262136"><ele>50.0</ele><time>2026-04-17T15:21:21.999Z</time></trkpt><trkpt lat="42.339444245207794" lon="14.102328618887647"><ele>50.0</ele><time>2026-04-17T15:21:22.999Z</time></trkpt><trkpt lat="42.339489245226275" lon="14.102477089384468"><ele>50.0</ele><time>2026-04-17T15:21:23.999Z</time></trkpt><trkpt lat="42.33953789886808" lon="14.102625014082538"><ele>50.0</ele><time>2026-04-17T15:21:24.999Z</time></trkpt><trkpt lat="42.339604145967606" lon="14.102773358907298"><ele>49.75</ele><time>2026-04-17T15:21:25.999Z</time></trkpt><trkpt lat="42.33965020509036" lon="14.102921419676965"><ele>49.5</ele><time>2026-04-17T15:21:26.999Z</time></trkpt><trkpt lat="42.33969535097325" lon="14.103066882826248"><ele>49.25</ele><time>2026-04-17T15:21:27.999Z</time></trkpt><trkpt lat="42.33974256338393" lon="14.103219075362217"><ele>49.0</ele><time>2026-04-17T15:21:28.999Z</time></trkpt><trkpt lat="42.339793929212554" lon="14.103370084725084"><ele>49.75</ele><time>2026-04-17T15:21:29.999Z</time></trkpt><trkpt lat="42.33984777276166" lon="14.10351846618984"><ele>50.5</ele><time>2026-04-17T15:21:30.999Z</time></trkpt><trkpt lat="42.33989875102692" lon="14.103669058779683"><ele>51.25</ele><time>2026-04-17T15:21:31.999Z</time></trkpt><trkpt lat="42.339946096480936" lon="14.103825255523311"><ele>52.0</ele><time>2026-04-17T15:21:32.999Z</time></trkpt><trkpt lat="42.33999562961501" lon="14.103976204271504"><ele>51.5</ele><time>2026-04-17T15:21:33.999Z</time></trkpt><trkpt lat="42.34004201766736" lon="14.104131361928573"><ele>51.0</ele><time>2026-04-17T15:21:34.999Z</time></trkpt><trkpt lat="42.34009048239692" lon="14.104290148844084"><ele>50.5</ele><time>2026-04-17T15:21:35.999Z</time></trkpt><trkpt lat="42.34014210025146" lon="14.10443705967308"><ele>50.0</ele><time>2026-04-17T15:21:36.999Z</time></trkpt><trkpt lat="42.340191291261036" lon="14.104588620712343"><ele>50.0</ele><time>2026-04-17T15:21:37.999Z</time></trkpt><trkpt lat="42.34023655239584" lon="14.104752152703387"><ele>50.0</ele><time>2026-04-17T15:21:38.999Z</time></trkpt><trkpt lat="42.3402865343363" lon="14.104905698102513"><ele>50.0</ele><time>2026-04-17T15:21:39.999Z</time></trkpt><trkpt lat="42.340346293547846" lon="14.105060755052179"><ele>50.0</ele><time>2026-04-17T15:21:40.999Z</time></trkpt><trkpt lat="42.340400247335744" lon="14.105210392561913"><ele>49.75</ele><time>2026-04-17T15:21:41.999Z</time></trkpt><trkpt lat="42.340447823762716" lon="14.10537010182542"><ele>49.5</ele><time>2026-04-17T15:21:42.999Z</time></trkpt><trkpt lat="42.3404975702739" lon="14.105528317085184"><ele>49.25</ele><time>2026-04-17T15:21:43.999Z</time></trkpt><trkpt lat="42.340554288830745" lon="14.105692646270482"><ele>49.0</ele><time>2026-04-17T15:21:44.999Z</time></trkpt><trkpt lat="42.34060866789854" lon="14.105875753698129"><ele>49.0</ele><time>2026-04-17T15:21:45.999Z</time></trkpt><trkpt lat="42.340666208532056" lon="14.106057778898775"><ele>49.0</ele><time>2026-04-17T15:21:46.999Z</time></trkpt><trkpt lat="42.34072651615096" lon="14.10624296650928"><ele>49.0</ele><time>2026-04-17T15:21:47.999Z</time></trkpt><trkpt lat="42.340789824903155" lon="14.106423962963893"><ele>49.0</ele><time>2026-04-17T15:21:48.999Z</time></trkpt><trkpt lat="42.34085731959139" lon="14.106614768278458"><ele>49.0</ele><time>2026-04-17T15:21:49.999Z</time></trkpt><trkpt lat="42.3409391911555" lon="14.106791756779039"><ele>49.0</ele><time>2026-04-17T15:21:50.999Z</time></trkpt><trkpt lat="42.341031875247005" lon="14.106969540087618"><ele>49.0</ele><time>2026-04-17T15:21:51.999Z</time></trkpt><trkpt lat="42.34112074306288" lon="14.10714404241244"><ele>49.0</ele><time>2026-04-17T15:21:52.999Z</time></trkpt><trkpt lat="42.34121216431805" lon="14.107321992697264"><ele>49.0</ele><time>2026-04-17T15:21:53.999Z</time></trkpt><trkpt lat="42.34130423631481" lon="14.107506677874433"><ele>49.0</ele><time>2026-04-17T15:21:54.999Z</time></trkpt><trkpt lat="42.3413922644331" lon="14.107693158083894"><ele>49.0</ele><time>2026-04-17T15:21:55.999Z</time></trkpt><trkpt lat="42.34148235831597" lon="14.107878772904309"><ele>49.0</ele><time>2026-04-17T15:21:56.999Z</time></trkpt><trkpt lat="42.34157868640237" lon="14.10806856894428"><ele>49.0</ele><time>2026-04-17T15:21:57.999Z</time></trkpt><trkpt lat="42.34167207491085" lon="14.108257892181095"><ele>48.666666666666664</ele><time>2026-04-17T15:21:58.999Z</time></trkpt><trkpt lat="42.34176800554386" lon="14.10845533696393"><ele>48.33333333333333</ele><time>2026-04-17T15:21:59.999Z</time></trkpt><trkpt lat="42.34186595973032" lon="14.10865386205149"><ele>48.0</ele><time>2026-04-17T15:22:00.999Z</time></trkpt><trkpt lat="42.34195835136659" lon="14.108850709832433"><ele>48.0</ele><time>2026-04-17T15:22:01.999Z</time></trkpt><trkpt lat="42.342059918651756" lon="14.109047341208317"><ele>48.0</ele><time>2026-04-17T15:22:02.999Z</time></trkpt><trkpt lat="42.34215581466301" lon="14.109244406464127"><ele>48.0</ele><time>2026-04-17T15:22:03.999Z</time></trkpt><trkpt lat="42.342249295589916" lon="14.109432762697653"><ele>48.33333333333333</ele><time>2026-04-17T15:22:04.999Z</time></trkpt><trkpt lat="42.34234524686415" lon="14.10962141203432"><ele>48.666666666666664</ele><time>2026-04-17T15:22:05.999Z</time></trkpt><trkpt lat="42.3424355579589" lon="14.109800750023897"><ele>49.0</ele><time>2026-04-17T15:22:06.999Z</time></trkpt><trkpt lat="42.34252485584448" lon="14.109981739662581"><ele>49.0</ele><time>2026-04-17T15:22:07.999Z</time></trkpt><trkpt lat="42.342604579024716" lon="14.110154277886284"><ele>49.0</ele><time>2026-04-17T15:22:08.999Z</time></trkpt><trkpt lat="42.34268927828068" lon="14.110324965921981"><ele>49.0</ele><time>2026-04-17T15:22:09.999Z</time></trkpt><trkpt lat="42.34277229242124" lon="14.11048690011218"><ele>49.0</ele><time>2026-04-17T15:22:10.999Z</time></trkpt><trkpt lat="42.34284320199205" lon="14.110636101688351"><ele>49.0</ele><time>2026-04-17T15:22:11.999Z</time></trkpt><trkpt lat="42.34291659730567" lon="14.11078471243222"><ele>49.0</ele><time>2026-04-17T15:22:12.999Z</time></trkpt><trkpt lat="42.34299364792753" lon="14.11091778595556"><ele>49.0</ele><time>2026-04-17T15:22:13.999Z</time></trkpt><trkpt lat="42.34308049805343" lon="14.11102957534276"><ele>49.0</ele><time>2026-04-17T15:22:14.999Z</time></trkpt><trkpt lat="42.34317947056003" lon="14.111114058319973"><ele>49.0</ele><time>2026-04-17T15:22:15.999Z</time></trkpt><trkpt lat="42.343288194404245" lon="14.111172825526802"><ele>49.0</ele><time>2026-04-17T15:22:16.999Z</time></trkpt><trkpt lat="42.34338059301096" lon="14.111213918715292"><ele>49.0</ele><time>2026-04-17T15:22:17.999Z</time></trkpt><trkpt lat="42.343450023914514" lon="14.11125745685612"><ele>49.0</ele><time>2026-04-17T15:22:18.999Z</time></trkpt><trkpt lat="42.34354305900911" lon="14.11134241947385"><ele>49.0</ele><time>2026-04-17T15:22:20.999Z</time></trkpt><trkpt lat="42.34360653786817" lon="14.111395831607645"><ele>49.0</ele><time>2026-04-17T15:22:21.999Z</time></trkpt><trkpt lat="42.34368385468321" lon="14.111447153205187"><ele>49.0</ele><time>2026-04-17T15:22:22.999Z</time></trkpt><trkpt lat="42.34378048570307" lon="14.111500502859272"><ele>49.0</ele><time>2026-04-17T15:22:23.999Z</time></trkpt><trkpt lat="42.343863670165895" lon="14.111542793076492"><ele>49.0</ele><time>2026-04-17T15:22:24.999Z</time></trkpt><trkpt lat="42.343950219193864" lon="14.11159589735735"><ele>49.0</ele><time>2026-04-17T15:22:26Z</time></trkpt><trkpt lat="42.344027091117056" lon="14.111640031882782"><ele>48.83333333333333</ele><time>2026-04-17T15:22:27Z</time></trkpt><trkpt lat="42.34409952272761" lon="14.111684477574789"><ele>48.666666666666664</ele><time>2026-04-17T15:22:28Z</time></trkpt><trkpt lat="42.34417134630815" lon="14.111730665744473"><ele>48.5</ele><time>2026-04-17T15:22:29Z</time></trkpt><trkpt lat="42.34423094950398" lon="14.111770107155273"><ele>48.33333333333333</ele><time>2026-04-17T15:22:30Z</time></trkpt><trkpt lat="42.344300769208644" lon="14.111818709036399"><ele>48.166666666666664</ele><time>2026-04-17T15:22:31Z</time></trkpt><trkpt lat="42.34437354587326" lon="14.111868323224806"><ele>48.0</ele><time>2026-04-17T15:22:32Z</time></trkpt><trkpt lat="42.34444986922487" lon="14.111922599892775"><ele>48.0</ele><time>2026-04-17T15:22:33Z</time></trkpt><trkpt lat="42.344525595146024" lon="14.11197020041585"><ele>48.0</ele><time>2026-04-17T15:22:34Z</time></trkpt><trkpt lat="42.34459760608136" lon="14.112014192818688"><ele>48.0</ele><time>2026-04-17T15:22:35Z</time></trkpt><trkpt lat="42.34467023419773" lon="14.112058264259623"><ele>48.0</ele><time>2026-04-17T15:22:36Z</time></trkpt><trkpt lat="42.344739149480766" lon="14.11210382749015"><ele>48.0</ele><time>2026-04-17T15:22:37Z</time></trkpt><trkpt lat="42.344806123755916" lon="14.112147630066985"><ele>48.0</ele><time>2026-04-17T15:22:38Z</time></trkpt><trkpt lat="42.344881060743006" lon="14.11219584973861"><ele>47.599999999999994</ele><time>2026-04-17T15:22:39Z</time></trkpt><trkpt lat="42.34497213792839" lon="14.112260066309137"><ele>47.199999999999996</ele><time>2026-04-17T15:22:40Z</time></trkpt><trkpt lat="42.34507388964478" lon="14.112318574950635"><ele>46.8</ele><time>2026-04-17T15:22:41Z</time></trkpt><trkpt lat="42.34517131828236" lon="14.112365793306791"><ele>46.4</ele><time>2026-04-17T15:22:42Z</time></trkpt><trkpt lat="42.34526465330388" lon="14.112404412965668"><ele>46.0</ele><time>2026-04-17T15:22:43Z</time></trkpt><trkpt lat="42.34536429291614" lon="14.112437466168203"><ele>46.0</ele><time>2026-04-17T15:22:44Z</time></trkpt><trkpt lat="42.345463856147525" lon="14.112463768667647"><ele>46.0</ele><time>2026-04-17T15:22:45Z</time></trkpt><trkpt lat="42.34556357392831" lon="14.112486972105991"><ele>46.0</ele><time>2026-04-17T15:22:46Z</time></trkpt><trkpt lat="42.345666504137675" lon="14.112513213325808"><ele>46.0</ele><time>2026-04-17T15:22:47Z</time></trkpt><trkpt lat="42.3457671486665" lon="14.112534603834169"><ele>46.0</ele><time>2026-04-17T15:22:48Z</time></trkpt><trkpt lat="42.3458672968536" lon="14.112560876161561"><ele>46.0</ele><time>2026-04-17T15:22:49Z</time></trkpt><trkpt lat="42.345968486910756" lon="14.112595026995638"><ele>46.0</ele><time>2026-04-17T15:22:50Z</time></trkpt><trkpt lat="42.346071783849354" lon="14.112631585275738"><ele>46.0</ele><time>2026-04-17T15:22:51Z</time></trkpt><trkpt lat="42.346175756448716" lon="14.11266826385912"><ele>46.0</ele><time>2026-04-17T15:22:52Z</time></trkpt><trkpt lat="42.346278805911574" lon="14.112706686443708"><ele>46.0</ele><time>2026-04-17T15:22:53Z</time></trkpt><trkpt lat="42.34638606015421" lon="14.112751802385214"><ele>45.5</ele><time>2026-04-17T15:22:54Z</time></trkpt><trkpt lat="42.346500803560964" lon="14.11280611865503"><ele>45.0</ele><time>2026-04-17T15:22:55Z</time></trkpt><trkpt lat="42.34661821214863" lon="14.112888678083198"><ele>44.5</ele><time>2026-04-17T15:22:56Z</time></trkpt><trkpt lat="42.3467664922216" lon="14.11296245611542"><ele>44.0</ele><time>2026-04-17T15:22:57Z</time></trkpt><trkpt lat="42.34692476454513" lon="14.11304047372572"><ele>44.0</ele><time>2026-04-17T15:22:58Z</time></trkpt><trkpt lat="42.34708289578085" lon="14.113118421811139"><ele>44.0</ele><time>2026-04-17T15:22:59Z</time></trkpt><trkpt lat="42.347244967871525" lon="14.11319195647818"><ele>44.0</ele><time>2026-04-17T15:23:00Z</time></trkpt><trkpt lat="42.34739170967003" lon="14.113270429380767"><ele>44.25</ele><time>2026-04-17T15:23:01Z</time></trkpt><trkpt lat="42.347533188562714" lon="14.113343856542635"><ele>44.5</ele><time>2026-04-17T15:23:02Z</time></trkpt><trkpt lat="42.34766900677953" lon="14.113410894198053"><ele>44.75</ele><time>2026-04-17T15:23:03Z</time></trkpt><trkpt lat="42.347797426423554" lon="14.113473518387114"><ele>45.0</ele><time>2026-04-17T15:23:04Z</time></trkpt><trkpt lat="42.34792427070647" lon="14.113536356887387"><ele>45.0</ele><time>2026-04-17T15:23:05Z</time></trkpt><trkpt lat="42.34804495119111" lon="14.113596180951218"><ele>45.0</ele><time>2026-04-17T15:23:06Z</time></trkpt><trkpt lat="42.34816594318095" lon="14.113650983968157"><ele>45.0</ele><time>2026-04-17T15:23:07Z</time></trkpt><trkpt lat="42.3482882164846" lon="14.113679864615106"><ele>45.0</ele><time>2026-04-17T15:23:08Z</time></trkpt><trkpt lat="42.34841469955965" lon="14.113667029764478"><ele>45.0</ele><time>2026-04-17T15:23:09Z</time></trkpt><trkpt lat="42.34854762783118" lon="14.113612096547998"><ele>45.0</ele><time>2026-04-17T15:23:10Z</time></trkpt><trkpt lat="42.34868129904022" lon="14.113531032284545"><ele>45.0</ele><time>2026-04-17T15:23:11Z</time></trkpt><trkpt lat="42.34881583004189" lon="14.113442286062142"><ele>45.0</ele><time>2026-04-17T15:23:12Z</time></trkpt><trkpt lat="42.348948747766414" lon="14.113354386469556"><ele>44.25</ele><time>2026-04-17T15:23:13Z</time></trkpt><trkpt lat="42.34907490139615" lon="14.113274664378938"><ele>43.5</ele><time>2026-04-17T15:23:14Z</time></trkpt><trkpt lat="42.34920244816162" lon="14.113187288067785"><ele>42.75</ele><time>2026-04-17T15:23:15Z</time></trkpt><trkpt lat="42.349338396556995" lon="14.113118544002736"><ele>42.0</ele><time>2026-04-17T15:23:16Z</time></trkpt><trkpt lat="42.34946454056694" lon="14.113030386089083"><ele>41.75</ele><time>2026-04-17T15:23:17Z</time></trkpt><trkpt lat="42.34957709559549" lon="14.112927340371382"><ele>41.5</ele><time>2026-04-17T15:23:18Z</time></trkpt><trkpt lat="42.34969416791375" lon="14.112848813277617"><ele>41.25</ele><time>2026-04-17T15:23:19Z</time></trkpt><trkpt lat="42.34980029272448" lon="14.112771209696238"><ele>41.0</ele><time>2026-04-17T15:23:20Z</time></trkpt><trkpt lat="42.3499058551587" lon="14.112697683848776"><ele>41.75</ele><time>2026-04-17T15:23:21Z</time></trkpt><trkpt lat="42.3500231135957" lon="14.11263131541688"><ele>42.5</ele><time>2026-04-17T15:23:22Z</time></trkpt><trkpt lat="42.350155483546295" lon="14.11257462173462"><ele>43.25</ele><time>2026-04-17T15:23:23Z</time></trkpt><trkpt lat="42.35029590327848" lon="14.112532429543599"><ele>44.0</ele><time>2026-04-17T15:23:24Z</time></trkpt><trkpt lat="42.350428585112965" lon="14.11246707814374"><ele>44.0</ele><time>2026-04-17T15:23:25Z</time></trkpt><trkpt lat="42.350592064310334" lon="14.112486032506942"><ele>44.0</ele><time>2026-04-17T15:23:26Z</time></trkpt><trkpt lat="42.350735489339996" lon="14.112523475264053"><ele>44.0</ele><time>2026-04-17T15:23:27Z</time></trkpt><trkpt lat="42.35088193453995" lon="14.11255033548073"><ele>44.0</ele><time>2026-04-17T15:23:28Z</time></trkpt><trkpt lat="42.35103871327274" lon="14.11257420710573"><ele>44.0</ele><time>2026-04-17T15:23:29Z</time></trkpt><trkpt lat="42.35118533858787" lon="14.112625194303725"><ele>44.0</ele><time>2026-04-17T15:23:30Z</time></trkpt><trkpt lat="42.35132799586392" lon="14.112683052511542"><ele>42.666666666666664</ele><time>2026-04-17T15:23:30.999Z</time></trkpt><trkpt lat="42.35146636544607" lon="14.11274465641553"><ele>41.333333333333336</ele><time>2026-04-17T15:23:31.999Z</time></trkpt><trkpt lat="42.351612569940514" lon="14.112798901367297"><ele>40.0</ele><time>2026-04-17T15:23:32.999Z</time></trkpt><trkpt lat="42.35176166968942" lon="14.112860988478737"><ele>40.0</ele><time>2026-04-17T15:23:33.999Z</time></trkpt><trkpt lat="42.35191559265707" lon="14.112936323754516"><ele>40.0</ele><time>2026-04-17T15:23:34.999Z</time></trkpt><trkpt lat="42.35207468947587" lon="14.113005971270297"><ele>40.0</ele><time>2026-04-17T15:23:35.999Z</time></trkpt><trkpt lat="42.352238586217055" lon="14.11306322988758"><ele>38.66666666666667</ele><time>2026-04-17T15:23:36.999Z</time></trkpt><trkpt lat="42.35239704735044" lon="14.113129298479459"><ele>37.333333333333336</ele><time>2026-04-17T15:23:37.999Z</time></trkpt><trkpt lat="42.35254213948622" lon="14.113187805540099"><ele>36.0</ele><time>2026-04-17T15:23:38.999Z</time></trkpt><trkpt lat="42.3526839758979" lon="14.113243698462519"><ele>36.0</ele><time>2026-04-17T15:23:39.999Z</time></trkpt><trkpt lat="42.352825871821935" lon="14.113299621299486"><ele>36.0</ele><time>2026-04-17T15:23:40.999Z</time></trkpt><trkpt lat="42.35297474031057" lon="14.113361145577233"><ele>36.0</ele><time>2026-04-17T15:23:41.999Z</time></trkpt><trkpt lat="42.35313322167387" lon="14.11342555694516"><ele>35.666666666666664</ele><time>2026-04-17T15:23:42.999Z</time></trkpt><trkpt lat="42.35329973094477" lon="14.113490636439613"><ele>35.33333333333333</ele><time>2026-04-17T15:23:43.999Z</time></trkpt><trkpt lat="42.35346785162086" lon="14.113563617159306"><ele>35.0</ele><time>2026-04-17T15:23:44.999Z</time></trkpt><trkpt lat="42.353637932817186" lon="14.113638553968928"><ele>35.0</ele><time>2026-04-17T15:23:45.999Z</time></trkpt><trkpt lat="42.353807187846755" lon="14.113702936611515"><ele>35.0</ele><time>2026-04-17T15:23:46.999Z</time></trkpt><trkpt lat="42.35398038017289" lon="14.113772504304162"><ele>35.0</ele><time>2026-04-17T15:23:47.999Z</time></trkpt><trkpt lat="42.35415614692428" lon="14.113844918789086"><ele>35.33333333333333</ele><time>2026-04-17T15:23:48.999Z</time></trkpt><trkpt lat="42.354329494648084" lon="14.113912216227904"><ele>35.666666666666664</ele><time>2026-04-17T15:23:49.999Z</time></trkpt><trkpt lat="42.35449565088493" lon="14.113976201540288"><ele>36.0</ele><time>2026-04-17T15:23:50.999Z</time></trkpt><trkpt lat="42.3546559519717" lon="14.114039404571603"><ele>36.333333333333336</ele><time>2026-04-17T15:23:51.999Z</time></trkpt><trkpt lat="42.35481816063517" lon="14.114105434188922"><ele>36.66666666666667</ele><time>2026-04-17T15:23:52.999Z</time></trkpt><trkpt lat="42.35498462343245" lon="14.114176358647875"><ele>37.0</ele><time>2026-04-17T15:23:53.999Z</time></trkpt><trkpt lat="42.355147518885936" lon="14.114243569862294"><ele>37.0</ele><time>2026-04-17T15:23:54.999Z</time></trkpt><trkpt lat="42.35531655344973" lon="14.11430931631597"><ele>37.0</ele><time>2026-04-17T15:23:55.999Z</time></trkpt><trkpt lat="42.355487319889775" lon="14.114376304018407"><ele>37.0</ele><time>2026-04-17T15:23:56.999Z</time></trkpt><trkpt lat="42.35565775728932" lon="14.114445585504326"><ele>40.333333333333336</ele><time>2026-04-17T15:23:57.999Z</time></trkpt><trkpt lat="42.35583182669377" lon="14.114516960323353"><ele>43.666666666666664</ele><time>2026-04-17T15:23:58.999Z</time></trkpt><trkpt lat="42.35600500108243" lon="14.114586622651021"><ele>47.0</ele><time>2026-04-17T15:23:59.999Z</time></trkpt><trkpt lat="42.35617971283642" lon="14.114656731315668"><ele>47.0</ele><time>2026-04-17T15:24:00.999Z</time></trkpt><trkpt lat="42.35636306758682" lon="14.11472344159824"><ele>47.0</ele><time>2026-04-17T15:24:01.999Z</time></trkpt><trkpt lat="42.356539204962885" lon="14.114792083673475"><ele>47.0</ele><time>2026-04-17T15:24:02.999Z</time></trkpt><trkpt lat="42.35670405921216" lon="14.114856266485523"><ele>45.0</ele><time>2026-04-17T15:24:03.999Z</time></trkpt><trkpt lat="42.35686416080594" lon="14.114920303500623"><ele>43.0</ele><time>2026-04-17T15:24:04.999Z</time></trkpt><trkpt lat="42.357033850692254" lon="14.114985107249678"><ele>41.0</ele><time>2026-04-17T15:24:05.999Z</time></trkpt><trkpt lat="42.357205350200196" lon="14.115073183122767"><ele>41.0</ele><time>2026-04-17T15:24:06.999Z</time></trkpt><trkpt lat="42.357383787418634" lon="14.11514433652761"><ele>41.0</ele><time>2026-04-17T15:24:07.999Z</time></trkpt><trkpt lat="42.35756024949039" lon="14.11521470235528"><ele>41.0</ele><time>2026-04-17T15:24:08.999Z</time></trkpt><trkpt lat="42.35774235244819" lon="14.115269684794795"><ele>41.0</ele><time>2026-04-17T15:24:09.999Z</time></trkpt><trkpt lat="42.357930678337794" lon="14.1153401209893"><ele>41.0</ele><time>2026-04-17T15:24:10.999Z</time></trkpt><trkpt lat="42.3581217931486" lon="14.115437861694312"><ele>41.0</ele><time>2026-04-17T15:24:11.999Z</time></trkpt><trkpt lat="42.358325299753524" lon="14.11551867007548"><ele>41.0</ele><time>2026-04-17T15:24:12.999Z</time></trkpt><trkpt lat="42.35853389752544" lon="14.115583587909104"><ele>41.0</ele><time>2026-04-17T15:24:13.999Z</time></trkpt><trkpt lat="42.35872284049403" lon="14.11567694871757"><ele>41.0</ele><time>2026-04-17T15:24:14.999Z</time></trkpt><trkpt lat="42.35890763525083" lon="14.11576033426956"><ele>39.33333333333333</ele><time>2026-04-17T15:24:15.999Z</time></trkpt><trkpt lat="42.35909539573849" lon="14.115837685438525"><ele>37.666666666666664</ele><time>2026-04-17T15:24:16.999Z</time></trkpt><trkpt lat="42.35928686669399" lon="14.115905722771329"><ele>36.0</ele><time>2026-04-17T15:24:17.999Z</time></trkpt><trkpt lat="42.359478208126895" lon="14.115976810755416"><ele>36.0</ele><time>2026-04-17T15:24:18.999Z</time></trkpt><trkpt lat="42.359669378099845" lon="14.116057952977632"><ele>36.0</ele><time>2026-04-17T15:24:19.999Z</time></trkpt><trkpt lat="42.35985557379095" lon="14.116145425479505"><ele>36.0</ele><time>2026-04-17T15:24:20.999Z</time></trkpt><trkpt lat="42.36004272127038" lon="14.116233422109634"><ele>36.333333333333336</ele><time>2026-04-17T15:24:21.999Z</time></trkpt><trkpt lat="42.36022807146867" lon="14.116315252505238"><ele>36.66666666666667</ele><time>2026-04-17T15:24:22.999Z</time></trkpt><trkpt lat="42.36041356728593" lon="14.116397374242661"><ele>37.0</ele><time>2026-04-17T15:24:23.999Z</time></trkpt><trkpt lat="42.36059411150713" lon="14.116481585256375"><ele>38.66666666666667</ele><time>2026-04-17T15:24:24.999Z</time></trkpt><trkpt lat="42.36077813176731" lon="14.11656542278635"><ele>40.333333333333336</ele><time>2026-04-17T15:24:25.999Z</time></trkpt><trkpt lat="42.36095879847868" lon="14.116642857173748"><ele>42.0</ele><time>2026-04-17T15:24:26.999Z</time></trkpt><trkpt lat="42.36113782552708" lon="14.116722785976723"><ele>40.0</ele><time>2026-04-17T15:24:27.999Z</time></trkpt><trkpt lat="42.3613143204789" lon="14.116807340146075"><ele>38.0</ele><time>2026-04-17T15:24:28.999Z</time></trkpt><trkpt lat="42.361492040572934" lon="14.116889082904066"><ele>36.0</ele><time>2026-04-17T15:24:29.999Z</time></trkpt><trkpt lat="42.36166397298577" lon="14.116958404966343"><ele>36.0</ele><time>2026-04-17T15:24:30.999Z</time></trkpt><trkpt lat="42.36183824674136" lon="14.117032884085797"><ele>36.0</ele><time>2026-04-17T15:24:32Z</time></trkpt><trkpt lat="42.3620063828795" lon="14.117107896495098"><ele>36.0</ele><time>2026-04-17T15:24:33Z</time></trkpt><trkpt lat="42.36217419471855" lon="14.117186493401183"><ele>39.0</ele><time>2026-04-17T15:24:34Z</time></trkpt><trkpt lat="42.36233997768401" lon="14.117260260775153"><ele>42.0</ele><time>2026-04-17T15:24:35Z</time></trkpt><trkpt lat="42.36250243676394" lon="14.117328159608501"><ele>45.0</ele><time>2026-04-17T15:24:36Z</time></trkpt><trkpt lat="42.36265862386064" lon="14.117384184169898"><ele>40.333333333333336</ele><time>2026-04-17T15:24:37Z</time></trkpt><trkpt lat="42.36281612691288" lon="14.117431110772946"><ele>35.66666666666667</ele><time>2026-04-17T15:24:38Z</time></trkpt><trkpt lat="42.36298125930152" lon="14.117460485476778"><ele>31.0</ele><time>2026-04-17T15:24:39Z</time></trkpt><trkpt lat="42.363153737755056" lon="14.117463978917133"><ele>31.0</ele><time>2026-04-17T15:24:40Z</time></trkpt><trkpt lat="42.363329258024486" lon="14.117457915667462"><ele>31.0</ele><time>2026-04-17T15:24:41Z</time></trkpt><trkpt lat="42.363507310793764" lon="14.117457453308768"><ele>31.0</ele><time>2026-04-17T15:24:42Z</time></trkpt><trkpt lat="42.363682385575686" lon="14.11745760304678"><ele>31.0</ele><time>2026-04-17T15:24:43Z</time></trkpt><trkpt lat="42.36384542233275" lon="14.117457571830494"><ele>31.0</ele><time>2026-04-17T15:24:44Z</time></trkpt><trkpt lat="42.364005142122124" lon="14.117458690662215"><ele>31.0</ele><time>2026-04-17T15:24:45Z</time></trkpt><trkpt lat="42.36415957733755" lon="14.117474274156544"><ele>31.666666666666668</ele><time>2026-04-17T15:24:46Z</time></trkpt><trkpt lat="42.36431423710125" lon="14.117512601654097"><ele>32.333333333333336</ele><time>2026-04-17T15:24:47Z</time></trkpt><trkpt lat="42.36447584811671" lon="14.117583105384279"><ele>33.0</ele><time>2026-04-17T15:24:48Z</time></trkpt><trkpt lat="42.3646356170627" lon="14.117676092932815"><ele>32.666666666666664</ele><time>2026-04-17T15:24:49Z</time></trkpt><trkpt lat="42.36479029992955" lon="14.1177817777014"><ele>32.33333333333333</ele><time>2026-04-17T15:24:50Z</time></trkpt><trkpt lat="42.36494849330111" lon="14.117884247757482"><ele>32.0</ele><time>2026-04-17T15:24:51Z</time></trkpt><trkpt lat="42.365103454476774" lon="14.118013273336508"><ele>32.0</ele><time>2026-04-17T15:24:52Z</time></trkpt><trkpt lat="42.36527448323917" lon="14.118107133764438"><ele>32.0</ele><time>2026-04-17T15:24:53Z</time></trkpt><trkpt lat="42.36544026739664" lon="14.118219630846708"><ele>32.0</ele><time>2026-04-17T15:24:54Z</time></trkpt><trkpt lat="42.3656006536567" lon="14.118349519869803"><ele>30.666666666666664</ele><time>2026-04-17T15:24:55Z</time></trkpt><trkpt lat="42.36577515465605" lon="14.1184404166657"><ele>29.333333333333336</ele><time>2026-04-17T15:24:56Z</time></trkpt><trkpt lat="42.36594182137316" lon="14.118556762851165"><ele>28.0</ele><time>2026-04-17T15:24:57Z</time></trkpt><trkpt lat="42.36610684729298" lon="14.118673180560943"><ele>28.0</ele><time>2026-04-17T15:24:58Z</time></trkpt><trkpt lat="42.366270248196344" lon="14.11878323617482"><ele>28.0</ele><time>2026-04-17T15:24:59Z</time></trkpt><trkpt lat="42.366421325274615" lon="14.118887895851024"><ele>28.0</ele><time>2026-04-17T15:25:00Z</time></trkpt><trkpt lat="42.366582957500285" lon="14.119001052317294"><ele>27.666666666666668</ele><time>2026-04-17T15:25:01Z</time></trkpt><trkpt lat="42.3667374788065" lon="14.11911235367366"><ele>27.333333333333336</ele><time>2026-04-17T15:25:02Z</time></trkpt><trkpt lat="42.366899939658175" lon="14.119226485720825"><ele>27.0</ele><time>2026-04-17T15:25:03Z</time></trkpt><trkpt lat="42.367062290421" lon="14.119338183724313"><ele>27.333333333333336</ele><time>2026-04-17T15:25:04Z</time></trkpt><trkpt lat="42.36722339461675" lon="14.119450014829686"><ele>27.666666666666668</ele><time>2026-04-17T15:25:05Z</time></trkpt><trkpt lat="42.36738454638645" lon="14.11956562210683"><ele>28.0</ele><time>2026-04-17T15:25:06Z</time></trkpt><trkpt lat="42.36754575111161" lon="14.11967630828769"><ele>28.0</ele><time>2026-04-17T15:25:07Z</time></trkpt><trkpt lat="42.36769905301469" lon="14.11978083566528"><ele>28.0</ele><time>2026-04-17T15:25:08Z</time></trkpt><trkpt lat="42.367844446927066" lon="14.11988160778684"><ele>28.0</ele><time>2026-04-17T15:25:09Z</time></trkpt><trkpt lat="42.36798020638079" lon="14.119977355334827"><ele>28.333333333333336</ele><time>2026-04-17T15:25:10Z</time></trkpt><trkpt lat="42.36811333551937" lon="14.120070421211738"><ele>28.666666666666664</ele><time>2026-04-17T15:25:11Z</time></trkpt><trkpt lat="42.36825235147935" lon="14.12015401352368"><ele>29.0</ele><time>2026-04-17T15:25:12Z</time></trkpt><trkpt lat="42.368403533854924" lon="14.120221120297053"><ele>29.0</ele><time>2026-04-17T15:25:13Z</time></trkpt><trkpt lat="42.36856546337317" lon="14.120264299270834"><ele>29.0</ele><time>2026-04-17T15:25:14Z</time></trkpt><trkpt lat="42.36874093069962" lon="14.120299067576747"><ele>29.0</ele><time>2026-04-17T15:25:15Z</time></trkpt><trkpt lat="42.368920586871965" lon="14.120325945158195"><ele>31.666666666666664</ele><time>2026-04-17T15:25:16Z</time></trkpt><trkpt lat="42.36910604899794" lon="14.120343690766273"><ele>34.333333333333336</ele><time>2026-04-17T15:25:17Z</time></trkpt><trkpt lat="42.369295300740966" lon="14.120359162207365"><ele>37.0</ele><time>2026-04-17T15:25:18Z</time></trkpt><trkpt lat="42.369488448388935" lon="14.120382731825396"><ele>37.0</ele><time>2026-04-17T15:25:19Z</time></trkpt><trkpt lat="42.36967247398131" lon="14.120407934530519"><ele>37.0</ele><time>2026-04-17T15:25:20Z</time></trkpt><trkpt lat="42.36985171330831" lon="14.120427718783024"><ele>37.0</ele><time>2026-04-17T15:25:21Z</time></trkpt><trkpt lat="42.37002859845823" lon="14.120447474816002"><ele>37.0</ele><time>2026-04-17T15:25:22Z</time></trkpt><trkpt lat="42.37020050917297" lon="14.120468925720008"><ele>37.0</ele><time>2026-04-17T15:25:23Z</time></trkpt><trkpt lat="42.37037874654025" lon="14.120491555406206"><ele>37.0</ele><time>2026-04-17T15:25:24Z</time></trkpt><trkpt lat="42.37054828354463" lon="14.120518911950947"><ele>37.333333333333336</ele><time>2026-04-17T15:25:25Z</time></trkpt><trkpt lat="42.370725747087" lon="14.120551716871484"><ele>37.666666666666664</ele><time>2026-04-17T15:25:26Z</time></trkpt><trkpt lat="42.37089295576892" lon="14.120597248165488"><ele>38.0</ele><time>2026-04-17T15:25:27Z</time></trkpt><trkpt lat="42.3710524630276" lon="14.120654330843939"><ele>38.0</ele><time>2026-04-17T15:25:28Z</time></trkpt><trkpt lat="42.371211167137325" lon="14.120722831464608"><ele>38.0</ele><time>2026-04-17T15:25:29Z</time></trkpt><trkpt lat="42.37137207033952" lon="14.120798109341719"><ele>38.0</ele><time>2026-04-17T15:25:30Z</time></trkpt><trkpt lat="42.37153344926348" lon="14.120864326381737"><ele>36.33333333333333</ele><time>2026-04-17T15:25:31Z</time></trkpt><trkpt lat="42.37168616061074" lon="14.120931095520657"><ele>34.666666666666664</ele><time>2026-04-17T15:25:32Z</time></trkpt><trkpt lat="42.3718420330026" lon="14.121001540627056"><ele>33.0</ele><time>2026-04-17T15:25:32.999Z</time></trkpt><trkpt lat="42.37199307743019" lon="14.121080002022358"><ele>33.0</ele><time>2026-04-17T15:25:33.999Z</time></trkpt><trkpt lat="42.37214132126846" lon="14.12116781372756"><ele>33.0</ele><time>2026-04-17T15:25:34.999Z</time></trkpt><trkpt lat="42.3722798795489" lon="14.121271697779418"><ele>33.0</ele><time>2026-04-17T15:25:35.999Z</time></trkpt><trkpt lat="42.372417668426955" lon="14.12137765142837"><ele>33.25</ele><time>2026-04-17T15:25:36.999Z</time></trkpt><trkpt lat="42.372542974556694" lon="14.121477275037515"><ele>33.5</ele><time>2026-04-17T15:25:37.999Z</time></trkpt><trkpt lat="42.37266929449688" lon="14.12158175603814"><ele>33.75</ele><time>2026-04-17T15:25:38.999Z</time></trkpt><trkpt lat="42.372788817370825" lon="14.121675350997187"><ele>34.0</ele><time>2026-04-17T15:25:39.999Z</time></trkpt><trkpt lat="42.372898891971666" lon="14.121758365687795"><ele>34.0</ele><time>2026-04-17T15:25:40.999Z</time></trkpt><trkpt lat="42.373005480230425" lon="14.121841659953853"><ele>34.0</ele><time>2026-04-17T15:25:41.999Z</time></trkpt><trkpt lat="42.37311329903673" lon="14.121926937159637"><ele>34.0</ele><time>2026-04-17T15:25:42.999Z</time></trkpt><trkpt lat="42.37322115986629" lon="14.12200658545081"><ele>34.0</ele><time>2026-04-17T15:25:43.999Z</time></trkpt><trkpt lat="42.37332878562527" lon="14.12208947352488"><ele>34.6</ele><time>2026-04-17T15:25:44.999Z</time></trkpt><trkpt lat="42.373427016060646" lon="14.122168088056004"><ele>35.2</ele><time>2026-04-17T15:25:45.999Z</time></trkpt><trkpt lat="42.373514725439186" lon="14.122260244660566"><ele>35.800000000000004</ele><time>2026-04-17T15:25:46.999Z</time></trkpt><trkpt lat="42.37360773063302" lon="14.12233345692536"><ele>36.4</ele><time>2026-04-17T15:25:47.999Z</time></trkpt><trkpt lat="42.3736971419392" lon="14.122403840127813"><ele>37.0</ele><time>2026-04-17T15:25:48.999Z</time></trkpt><trkpt lat="42.37377281580264" lon="14.122463409429773"><ele>37.0</ele><time>2026-04-17T15:25:49.999Z</time></trkpt><trkpt lat="42.37383251571278" lon="14.12250831221636"><ele>37.0</ele><time>2026-04-17T15:25:50.999Z</time></trkpt><trkpt lat="42.373939974407584" lon="14.122586375486138"><ele>37.0</ele><time>2026-04-17T15:25:52.999Z</time></trkpt><trkpt lat="42.37402849529713" lon="14.122638027683557"><ele>37.0</ele><time>2026-04-17T15:25:54.999Z</time></trkpt><trkpt lat="42.37409213061915" lon="14.12265942974729"><ele>37.0</ele><time>2026-04-17T15:25:57.999Z</time></trkpt><trkpt lat="42.37419311250248" lon="14.122736097535975"><ele>38.0</ele><time>2026-04-17T15:26:17.999Z</time></trkpt><trkpt lat="42.374285611786284" lon="14.122806708741548"><ele>39.0</ele><time>2026-04-17T15:26:18.999Z</time></trkpt><trkpt lat="42.37437473604253" lon="14.122905649145439"><ele>40.0</ele><time>2026-04-17T15:26:19.999Z</time></trkpt><trkpt lat="42.374491300622424" lon="14.123017922153029"><ele>41.0</ele><time>2026-04-17T15:26:20.999Z</time></trkpt><trkpt lat="42.37462045060633" lon="14.12312980148811"><ele>40.33333333333333</ele><time>2026-04-17T15:26:21.999Z</time></trkpt><trkpt lat="42.374760922217476" lon="14.123229540095904"><ele>39.666666666666664</ele><time>2026-04-17T15:26:22.999Z</time></trkpt><trkpt lat="42.374904783473866" lon="14.123335390976457"><ele>39.0</ele><time>2026-04-17T15:26:23.999Z</time></trkpt><trkpt lat="42.3750529015381" lon="14.12345138437652"><ele>39.0</ele><time>2026-04-17T15:26:24.999Z</time></trkpt><trkpt lat="42.37519983774062" lon="14.12356218637331"><ele>39.0</ele><time>2026-04-17T15:26:25.999Z</time></trkpt><trkpt lat="42.375342567831844" lon="14.12367286044161"><ele>39.0</ele><time>2026-04-17T15:26:26.999Z</time></trkpt><trkpt lat="42.37547845112646" lon="14.123776449412883"><ele>40.333333333333336</ele><time>2026-04-17T15:26:27.999Z</time></trkpt><trkpt lat="42.37561038839473" lon="14.123880350686026"><ele>41.66666666666667</ele><time>2026-04-17T15:26:28.999Z</time></trkpt><trkpt lat="42.37574595973218" lon="14.123964835293558"><ele>43.0</ele><time>2026-04-17T15:26:29.999Z</time></trkpt><trkpt lat="42.37589083000802" lon="14.124034580732076"><ele>42.0</ele><time>2026-04-17T15:26:30.999Z</time></trkpt><trkpt lat="42.3760281295281" lon="14.124072029811702"><ele>41.0</ele><time>2026-04-17T15:26:31.999Z</time></trkpt><trkpt lat="42.37614634252972" lon="14.12409097470449"><ele>40.0</ele><time>2026-04-17T15:26:32.999Z</time></trkpt><trkpt lat="42.376237916113986" lon="14.124116250385594"><ele>39.0</ele><time>2026-04-17T15:26:33.999Z</time></trkpt><trkpt lat="42.37631067653006" lon="14.124166540997233"><ele>38.0</ele><time>2026-04-17T15:26:34.999Z</time></trkpt><trkpt lat="42.376359986252645" lon="14.124233200406124"><ele>37.857142857142854</ele><time>2026-04-17T15:26:35.999Z</time></trkpt><trkpt lat="42.37639859725811" lon="14.12430888011831"><ele>37.714285714285715</ele><time>2026-04-17T15:26:36.999Z</time></trkpt><trkpt lat="42.37642102916794" lon="14.124406740984249"><ele>37.57142857142857</ele><time>2026-04-17T15:26:38Z</time></trkpt><trkpt lat="42.376446097726834" lon="14.124494910313285"><ele>37.42857142857143</ele><time>2026-04-17T15:26:39Z</time></trkpt><trkpt lat="42.37650004236762" lon="14.124547748812061"><ele>37.285714285714285</ele><time>2026-04-17T15:26:40Z</time></trkpt><trkpt lat="42.37657047600466" lon="14.12455114304994"><ele>37.142857142857146</ele><time>2026-04-17T15:26:41Z</time></trkpt><trkpt lat="42.3766301166041" lon="14.12450780352965"><ele>37.0</ele><time>2026-04-17T15:26:42Z</time></trkpt><trkpt lat="42.37667865986936" lon="14.12441903430812"><ele>37.0</ele><time>2026-04-17T15:26:43Z</time></trkpt><trkpt lat="42.37670605602266" lon="14.124301454213795"><ele>37.0</ele><time>2026-04-17T15:26:44Z</time></trkpt><trkpt lat="42.37676617284782" lon="14.124191146861788"><ele>37.0</ele><time>2026-04-17T15:26:45Z</time></trkpt><trkpt lat="42.37685656387112" lon="14.124070982102726"><ele>37.0</ele><time>2026-04-17T15:26:46Z</time></trkpt><trkpt lat="42.37694582658495" lon="14.123922307795482"><ele>38.75</ele><time>2026-04-17T15:26:47Z</time></trkpt><trkpt lat="42.37703803702627" lon="14.123763220384399"><ele>40.5</ele><time>2026-04-17T15:26:48Z</time></trkpt><trkpt lat="42.37710784319994" lon="14.123617714272752"><ele>42.25</ele><time>2026-04-17T15:26:49Z</time></trkpt><trkpt lat="42.377179667317094" lon="14.123487346643232"><ele>44.0</ele><time>2026-04-17T15:26:50Z</time></trkpt><trkpt lat="42.37727546578484" lon="14.123401644147682"><ele>44.5</ele><time>2026-04-17T15:26:51Z</time></trkpt><trkpt lat="42.37740129508805" lon="14.1233516385908"><ele>45.0</ele><time>2026-04-17T15:26:52Z</time></trkpt><trkpt lat="42.37754182305654" lon="14.123349113215736"><ele>45.5</ele><time>2026-04-17T15:26:53Z</time></trkpt><trkpt lat="42.377681932704206" lon="14.123426319456998"><ele>46.0</ele><time>2026-04-17T15:26:54Z</time></trkpt><trkpt lat="42.37782981938791" lon="14.123431712019634"><ele>46.0</ele><time>2026-04-17T15:26:55Z</time></trkpt><trkpt lat="42.377981059204814" lon="14.123469045495668"><ele>46.0</ele><time>2026-04-17T15:26:56Z</time></trkpt><trkpt lat="42.37813625142411" lon="14.123495116019765"><ele>46.0</ele><time>2026-04-17T15:26:57Z</time></trkpt><trkpt lat="42.378295332094865" lon="14.123516153267541"><ele>49.0</ele><time>2026-04-17T15:26:58Z</time></trkpt><trkpt lat="42.37845561496156" lon="14.123559088070472"><ele>52.0</ele><time>2026-04-17T15:26:59Z</time></trkpt><trkpt lat="42.37860708067173" lon="14.123583771445686"><ele>55.0</ele><time>2026-04-17T15:27:00Z</time></trkpt><trkpt lat="42.37874296350285" lon="14.123592126885338"><ele>56.0</ele><time>2026-04-17T15:27:01Z</time></trkpt><trkpt lat="42.378880539589915" lon="14.123624390403126"><ele>57.0</ele><time>2026-04-17T15:27:02Z</time></trkpt><trkpt lat="42.37901822120268" lon="14.123644731379617"><ele>58.0</ele><time>2026-04-17T15:27:03Z</time></trkpt><trkpt lat="42.379157182732435" lon="14.123669717374055"><ele>59.0</ele><time>2026-04-17T15:27:04Z</time></trkpt><trkpt lat="42.37928236997853" lon="14.123708469176977"><ele>59.0</ele><time>2026-04-17T15:27:05Z</time></trkpt><trkpt lat="42.379396239022014" lon="14.123767642119379"><ele>59.0</ele><time>2026-04-17T15:27:06Z</time></trkpt><trkpt lat="42.37949857672566" lon="14.123848323203067"><ele>59.0</ele><time>2026-04-17T15:27:07Z</time></trkpt><trkpt lat="42.37958876824142" lon="14.123953122429427"><ele>59.0</ele><time>2026-04-17T15:27:08Z</time></trkpt><trkpt lat="42.3796817253517" lon="14.124075644726307"><ele>56.66666666666667</ele><time>2026-04-17T15:27:09Z</time></trkpt><trkpt lat="42.379801499360944" lon="14.124188903042613"><ele>54.33333333333333</ele><time>2026-04-17T15:27:10Z</time></trkpt><trkpt lat="42.37993402512863" lon="14.124298275289776"><ele>52.0</ele><time>2026-04-17T15:27:11Z</time></trkpt><trkpt lat="42.380071758063416" lon="14.124410348391049"><ele>52.0</ele><time>2026-04-17T15:27:12Z</time></trkpt><trkpt lat="42.38021355560005" lon="14.124510493873034"><ele>52.0</ele><time>2026-04-17T15:27:13Z</time></trkpt><trkpt lat="42.38035291689303" lon="14.124601466455225"><ele>52.0</ele><time>2026-04-17T15:27:14Z</time></trkpt><trkpt lat="42.380485074340164" lon="14.124699554547925"><ele>50.666666666666664</ele><time>2026-04-17T15:27:15Z</time></trkpt><trkpt lat="42.38061724033006" lon="14.124804320957805"><ele>49.33333333333333</ele><time>2026-04-17T15:27:16Z</time></trkpt><trkpt lat="42.380752880993526" lon="14.124906743697132"><ele>48.0</ele><time>2026-04-17T15:27:17Z</time></trkpt><trkpt lat="42.38089464711682" lon="14.125010842903603"><ele>48.0</ele><time>2026-04-17T15:27:18Z</time></trkpt><trkpt lat="42.381032032672564" lon="14.125111231610367"><ele>48.0</ele><time>2026-04-17T15:27:19Z</time></trkpt><trkpt lat="42.3811732728436" lon="14.125210709481749"><ele>48.0</ele><time>2026-04-17T15:27:20Z</time></trkpt><trkpt lat="42.38131842635364" lon="14.12530901381358"><ele>49.66666666666667</ele><time>2026-04-17T15:27:21Z</time></trkpt><trkpt lat="42.38146020598046" lon="14.125405459580522"><ele>51.333333333333336</ele><time>2026-04-17T15:27:22Z</time></trkpt><trkpt lat="42.38159951579999" lon="14.125503005271575"><ele>53.0</ele><time>2026-04-17T15:27:23Z</time></trkpt><trkpt lat="42.3817348568494" lon="14.125607566481042"><ele>53.0</ele><time>2026-04-17T15:27:24Z</time></trkpt><trkpt lat="42.38186859440871" lon="14.125715545534861"><ele>53.0</ele><time>2026-04-17T15:27:25Z</time></trkpt><trkpt lat="42.38200054216769" lon="14.125828491209145"><ele>53.0</ele><time>2026-04-17T15:27:26Z</time></trkpt><trkpt lat="42.38212059666644" lon="14.125939421410921"><ele>53.0</ele><time>2026-04-17T15:27:27Z</time></trkpt><trkpt lat="42.38223531834567" lon="14.126049950446822"><ele>53.0</ele><time>2026-04-17T15:27:28Z</time></trkpt><trkpt lat="42.38235327894581" lon="14.126158531571875"><ele>53.0</ele><time>2026-04-17T15:27:29Z</time></trkpt><trkpt lat="42.38247251500554" lon="14.126251906304363"><ele>53.0</ele><time>2026-04-17T15:27:30Z</time></trkpt><trkpt lat="42.38259602337289" lon="14.126328746921322"><ele>53.0</ele><time>2026-04-17T15:27:31Z</time></trkpt><trkpt lat="42.3827438046276" lon="14.126381897211791"><ele>53.0</ele><time>2026-04-17T15:27:32Z</time></trkpt><trkpt lat="42.38289786151542" lon="14.126403632591026"><ele>53.0</ele><time>2026-04-17T15:27:33Z</time></trkpt><trkpt lat="42.383051497854076" lon="14.126425650618597"><ele>53.0</ele><time>2026-04-17T15:27:34Z</time></trkpt><trkpt lat="42.38320688844114" lon="14.126409263995946"><ele>53.0</ele><time>2026-04-17T15:27:35Z</time></trkpt><trkpt lat="42.38334132459777" lon="14.126416641870565"><ele>53.0</ele><time>2026-04-17T15:27:35.999Z</time></trkpt><trkpt lat="42.38346313147228" lon="14.126454656881458"><ele>53.0</ele><time>2026-04-17T15:27:36.999Z</time></trkpt><trkpt lat="42.38358092861917" lon="14.126528973243571"><ele>50.25</ele><time>2026-04-17T15:27:37.999Z</time></trkpt><trkpt lat="42.383713006489614" lon="14.12659423445709"><ele>47.5</ele><time>2026-04-17T15:27:38.999Z</time></trkpt><trkpt lat="42.38384305989019" lon="14.126694503581408"><ele>44.75</ele><time>2026-04-17T15:27:39.999Z</time></trkpt><trkpt lat="42.38398494221083" lon="14.126773536894046"><ele>42.0</ele><time>2026-04-17T15:27:40.999Z</time></trkpt><trkpt lat="42.384135930991796" lon="14.126846318976728"><ele>42.0</ele><time>2026-04-17T15:27:41.999Z</time></trkpt><trkpt lat="42.384294897955456" lon="14.126912982322002"><ele>42.0</ele><time>2026-04-17T15:27:42.999Z</time></trkpt><trkpt lat="42.38444913065945" lon="14.126976381197407"><ele>42.0</ele><time>2026-04-17T15:27:43.999Z</time></trkpt><trkpt lat="42.38459249398542" lon="14.127024182218058"><ele>42.75</ele><time>2026-04-17T15:27:44.999Z</time></trkpt><trkpt lat="42.38473214540838" lon="14.127070034972622"><ele>43.5</ele><time>2026-04-17T15:27:45.999Z</time></trkpt><trkpt lat="42.38486918971792" lon="14.127124081320979"><ele>44.25</ele><time>2026-04-17T15:27:46.999Z</time></trkpt><trkpt lat="42.38499892203876" lon="14.127190397139591"><ele>45.0</ele><time>2026-04-17T15:27:47.999Z</time></trkpt><trkpt lat="42.385129438027114" lon="14.127291975030353"><ele>42.0</ele><time>2026-04-17T15:27:48.999Z</time></trkpt><trkpt lat="42.38525239853447" lon="14.1274243874415"><ele>39.0</ele><time>2026-04-17T15:27:49.999Z</time></trkpt><trkpt lat="42.38537210584411" lon="14.127563373122854"><ele>36.0</ele><time>2026-04-17T15:27:50.999Z</time></trkpt><trkpt lat="42.38549252441065" lon="14.127705618997437"><ele>36.0</ele><time>2026-04-17T15:27:51.999Z</time></trkpt><trkpt lat="42.38561474469595" lon="14.127836170420192"><ele>36.0</ele><time>2026-04-17T15:27:52.999Z</time></trkpt><trkpt lat="42.38574229478913" lon="14.127962585317869"><ele>36.0</ele><time>2026-04-17T15:27:53.999Z</time></trkpt><trkpt lat="42.38587602337718" lon="14.128083102934939"><ele>36.0</ele><time>2026-04-17T15:27:54.999Z</time></trkpt><trkpt lat="42.38600653265443" lon="14.128195308085136"><ele>36.0</ele><time>2026-04-17T15:27:55.999Z</time></trkpt><trkpt lat="42.386133097688955" lon="14.128310736432022"><ele>36.0</ele><time>2026-04-17T15:27:56.999Z</time></trkpt><trkpt lat="42.38625221884794" lon="14.12844217175106"><ele>36.333333333333336</ele><time>2026-04-17T15:27:57.999Z</time></trkpt><trkpt lat="42.38636186822623" lon="14.128593014233685"><ele>36.66666666666667</ele><time>2026-04-17T15:27:58.999Z</time></trkpt><trkpt lat="42.38646032845802" lon="14.128755800493984"><ele>37.0</ele><time>2026-04-17T15:27:59.999Z</time></trkpt><trkpt lat="42.38654833824751" lon="14.128921549287506"><ele>36.0</ele><time>2026-04-17T15:28:00.999Z</time></trkpt><trkpt lat="42.38663811301414" lon="14.129076338735597"><ele>35.0</ele><time>2026-04-17T15:28:01.999Z</time></trkpt><trkpt lat="42.38672919679786" lon="14.129225034981562"><ele>34.0</ele><time>2026-04-17T15:28:02.999Z</time></trkpt><trkpt lat="42.38682439846305" lon="14.129357473907529"><ele>33.0</ele><time>2026-04-17T15:28:03.999Z</time></trkpt><trkpt lat="42.386926510217904" lon="14.129482398612922"><ele>33.0</ele><time>2026-04-17T15:28:04.999Z</time></trkpt><trkpt lat="42.387030375211694" lon="14.129596140112936"><ele>33.0</ele><time>2026-04-17T15:28:05.999Z</time></trkpt><trkpt lat="42.38714244082212" lon="14.129709454913689"><ele>33.0</ele><time>2026-04-17T15:28:06.999Z</time></trkpt><trkpt lat="42.38725266349481" lon="14.12981907262158"><ele>33.0</ele><time>2026-04-17T15:28:07.999Z</time></trkpt><trkpt lat="42.387364843255405" lon="14.129919551682175"><ele>32.75</ele><time>2026-04-17T15:28:08.999Z</time></trkpt><trkpt lat="42.38747322626417" lon="14.130010826211056"><ele>32.5</ele><time>2026-04-17T15:28:09.999Z</time></trkpt><trkpt lat="42.38757467115702" lon="14.130100695127673"><ele>32.25</ele><time>2026-04-17T15:28:10.999Z</time></trkpt><trkpt lat="42.38766136380265" lon="14.130204013025757"><ele>32.0</ele><time>2026-04-17T15:28:11.999Z</time></trkpt><trkpt lat="42.387760372106555" lon="14.13027944875643"><ele>31.999999999999996</ele><time>2026-04-17T15:28:12.999Z</time></trkpt><trkpt lat="42.38783466522277" lon="14.13035768666158"><ele>32.0</ele><time>2026-04-17T15:28:13.999Z</time></trkpt><trkpt lat="42.387895128701075" lon="14.130418538473808"><ele>32.0</ele><time>2026-04-17T15:28:14.999Z</time></trkpt><trkpt lat="42.38800258991905" lon="14.130488171815616"><ele>32.0</ele><time>2026-04-17T15:28:16.999Z</time></trkpt><trkpt lat="42.38806595918327" lon="14.130514866066965"><ele>31.999999999999996</ele><time>2026-04-17T15:28:17.999Z</time></trkpt><trkpt lat="42.38814188312872" lon="14.130538217467922"><ele>32.0</ele><time>2026-04-17T15:28:18.999Z</time></trkpt><trkpt lat="42.388243434555996" lon="14.130580050006238"><ele>32.0</ele><time>2026-04-17T15:28:19.999Z</time></trkpt><trkpt lat="42.3883560447885" lon="14.13063504945902"><ele>32.0</ele><time>2026-04-17T15:28:20.999Z</time></trkpt><trkpt lat="42.38846867585644" lon="14.130731114347563"><ele>32.0</ele><time>2026-04-17T15:28:21.999Z</time></trkpt><trkpt lat="42.38860208482973" lon="14.13079768362"><ele>32.0</ele><time>2026-04-17T15:28:22.999Z</time></trkpt><trkpt lat="42.38873083577999" lon="14.130889829237242"><ele>32.25</ele><time>2026-04-17T15:28:23.999Z</time></trkpt><trkpt lat="42.38886300688795" lon="14.13097393498651"><ele>32.5</ele><time>2026-04-17T15:28:24.999Z</time></trkpt><trkpt lat="42.38899323930424" lon="14.131055932542115"><ele>32.75</ele><time>2026-04-17T15:28:25.999Z</time></trkpt><trkpt lat="42.38911846944733" lon="14.131140316135888"><ele>33.0</ele><time>2026-04-17T15:28:26.999Z</time></trkpt><trkpt lat="42.38923790129009" lon="14.131222342315128"><ele>33.0</ele><time>2026-04-17T15:28:27.999Z</time></trkpt><trkpt lat="42.389333069066055" lon="14.13131955664491"><ele>33.0</ele><time>2026-04-17T15:28:28.999Z</time></trkpt><trkpt lat="42.389433033869786" lon="14.131401347367591"><ele>33.0</ele><time>2026-04-17T15:28:29.999Z</time></trkpt><trkpt lat="42.38956193496017" lon="14.131512488443823"><ele>33.0</ele><time>2026-04-17T15:28:30.999Z</time></trkpt><trkpt lat="42.38970782998077" lon="14.13163867255419"><ele>32.333333333333336</ele><time>2026-04-17T15:28:31.999Z</time></trkpt><trkpt lat="42.38986337830974" lon="14.131775314862063"><ele>31.666666666666668</ele><time>2026-04-17T15:28:32.999Z</time></trkpt><trkpt lat="42.39001440688364" lon="14.131887750325534"><ele>31.0</ele><time>2026-04-17T15:28:33.999Z</time></trkpt><trkpt lat="42.39015303252514" lon="14.132007496282787"><ele>31.0</ele><time>2026-04-17T15:28:34.999Z</time></trkpt><trkpt lat="42.39028702234117" lon="14.132126271762113"><ele>31.0</ele><time>2026-04-17T15:28:35.999Z</time></trkpt><trkpt lat="42.390419822372046" lon="14.132246507252017"><ele>31.0</ele><time>2026-04-17T15:28:36.999Z</time></trkpt><trkpt lat="42.39054660514481" lon="14.132355167842091"><ele>30.666666666666668</ele><time>2026-04-17T15:28:37.999Z</time></trkpt><trkpt lat="42.390669883019655" lon="14.13246227001578"><ele>30.333333333333336</ele><time>2026-04-17T15:28:38.999Z</time></trkpt><trkpt lat="42.39078597296006" lon="14.132599268146532"><ele>30.0</ele><time>2026-04-17T15:28:39.999Z</time></trkpt><trkpt lat="42.390923739990484" lon="14.132697325707511"><ele>30.0</ele><time>2026-04-17T15:28:40.999Z</time></trkpt><trkpt lat="42.39104559507431" lon="14.13281590598942"><ele>30.0</ele><time>2026-04-17T15:28:41.999Z</time></trkpt><trkpt lat="42.39116980371301" lon="14.132920696227663"><ele>30.0</ele><time>2026-04-17T15:28:42.999Z</time></trkpt><trkpt lat="42.39128628308633" lon="14.13302747436046"><ele>30.0</ele><time>2026-04-17T15:28:44Z</time></trkpt><trkpt lat="42.39140643841145" lon="14.133135278991185"><ele>30.0</ele><time>2026-04-17T15:28:45Z</time></trkpt><trkpt lat="42.39152908592836" lon="14.133243171008445"><ele>30.0</ele><time>2026-04-17T15:28:46Z</time></trkpt><trkpt lat="42.39165729367498" lon="14.133363898749801"><ele>30.0</ele><time>2026-04-17T15:28:47Z</time></trkpt><trkpt lat="42.39178435680519" lon="14.133473184898286"><ele>30.0</ele><time>2026-04-17T15:28:48Z</time></trkpt><trkpt lat="42.39190418612101" lon="14.133586074767425"><ele>30.0</ele><time>2026-04-17T15:28:49Z</time></trkpt><trkpt lat="42.39202229681914" lon="14.133697445274175"><ele>30.0</ele><time>2026-04-17T15:28:50Z</time></trkpt><trkpt lat="42.392122406678865" lon="14.133798585236454"><ele>30.0</ele><time>2026-04-17T15:28:51Z</time></trkpt><trkpt lat="42.392243918468345" lon="14.133913703682847"><ele>29.75</ele><time>2026-04-17T15:28:52Z</time></trkpt><trkpt lat="42.39235722771846" lon="14.134008194089539"><ele>29.5</ele><time>2026-04-17T15:28:53Z</time></trkpt><trkpt lat="42.392468209132524" lon="14.134107817331822"><ele>29.25</ele><time>2026-04-17T15:28:54Z</time></trkpt><trkpt lat="42.392573661649486" lon="14.13420247708479"><ele>29.0</ele><time>2026-04-17T15:28:55Z</time></trkpt><trkpt lat="42.39270088897157" lon="14.134322316649392"><ele>29.0</ele><time>2026-04-17T15:28:56Z</time></trkpt><trkpt lat="42.39278090168986" lon="14.134414257730668"><ele>29.0</ele><time>2026-04-17T15:28:57Z</time></trkpt><trkpt lat="42.392924939804324" lon="14.13451578445065"><ele>29.0</ele><time>2026-04-17T15:28:58Z</time></trkpt><trkpt lat="42.3930538041955" lon="14.134633812430296"><ele>29.0</ele><time>2026-04-17T15:28:59Z</time></trkpt><trkpt lat="42.393157650249485" lon="14.13474207818285"><ele>29.25</ele><time>2026-04-17T15:29:00Z</time></trkpt><trkpt lat="42.3932929898316" lon="14.134825455108984"><ele>29.5</ele><time>2026-04-17T15:29:01Z</time></trkpt><trkpt lat="42.393378299171395" lon="14.134933632310783"><ele>29.75</ele><time>2026-04-17T15:29:02Z</time></trkpt><trkpt lat="42.39345854217711" lon="14.135062727445016"><ele>30.0</ele><time>2026-04-17T15:29:03Z</time></trkpt><trkpt lat="42.393547606009605" lon="14.13517966552478"><ele>30.0</ele><time>2026-04-17T15:29:04Z</time></trkpt><trkpt lat="42.39366421743645" lon="14.135264192009418"><ele>30.0</ele><time>2026-04-17T15:29:05Z</time></trkpt><trkpt lat="42.39383400027268" lon="14.135307741706074"><ele>30.0</ele><time>2026-04-17T15:29:06Z</time></trkpt><trkpt lat="42.39395902697312" lon="14.13541542344006"><ele>30.0</ele><time>2026-04-17T15:29:07Z</time></trkpt><trkpt lat="42.39408000717478" lon="14.1355275353595"><ele>30.0</ele><time>2026-04-17T15:29:08Z</time></trkpt><trkpt lat="42.39419480304217" lon="14.135633961151289"><ele>30.0</ele><time>2026-04-17T15:29:09Z</time></trkpt><trkpt lat="42.39431396086705" lon="14.135735557896858"><ele>30.0</ele><time>2026-04-17T15:29:10Z</time></trkpt><trkpt lat="42.394436422278304" lon="14.135842895354097"><ele>29.75</ele><time>2026-04-17T15:29:11Z</time></trkpt><trkpt lat="42.39455535695637" lon="14.135951760957685"><ele>29.5</ele><time>2026-04-17T15:29:12Z</time></trkpt><trkpt lat="42.39467860337081" lon="14.136064752881227"><ele>29.25</ele><time>2026-04-17T15:29:13Z</time></trkpt><trkpt lat="42.394796439523205" lon="14.136172990113229"><ele>29.0</ele><time>2026-04-17T15:29:14Z</time></trkpt><trkpt lat="42.39491613455441" lon="14.136278246629463"><ele>29.0</ele><time>2026-04-17T15:29:15Z</time></trkpt><trkpt lat="42.395041516935414" lon="14.136385014111266"><ele>29.0</ele><time>2026-04-17T15:29:16Z</time></trkpt><trkpt lat="42.39516533409532" lon="14.136489442245916"><ele>29.0</ele><time>2026-04-17T15:29:17Z</time></trkpt><trkpt lat="42.3952781348336" lon="14.136598963439564"><ele>29.0</ele><time>2026-04-17T15:29:18Z</time></trkpt><trkpt lat="42.395392497029896" lon="14.136705826983642"><ele>28.25</ele><time>2026-04-17T15:29:19Z</time></trkpt><trkpt lat="42.39550180759365" lon="14.13680667544498"><ele>27.5</ele><time>2026-04-17T15:29:20Z</time></trkpt><trkpt lat="42.395613089783446" lon="14.136902269168202"><ele>26.75</ele><time>2026-04-17T15:29:21Z</time></trkpt><trkpt lat="42.39572347213123" lon="14.1370017351917"><ele>26.0</ele><time>2026-04-17T15:29:22Z</time></trkpt><trkpt lat="42.39582867249964" lon="14.137109643559105"><ele>26.0</ele><time>2026-04-17T15:29:23Z</time></trkpt><trkpt lat="42.39593521926705" lon="14.137201667849773"><ele>26.0</ele><time>2026-04-17T15:29:24Z</time></trkpt><trkpt lat="42.396042209150295" lon="14.137289806006546"><ele>26.0</ele><time>2026-04-17T15:29:25Z</time></trkpt><trkpt lat="42.396143721874004" lon="14.137372946192087"><ele>26.0</ele><time>2026-04-17T15:29:26Z</time></trkpt><trkpt lat="42.396243610250224" lon="14.137462004112395"><ele>26.25</ele><time>2026-04-17T15:29:27Z</time></trkpt><trkpt lat="42.396339964598084" lon="14.137549017807105"><ele>26.5</ele><time>2026-04-17T15:29:28Z</time></trkpt><trkpt lat="42.396432961776945" lon="14.137634092972148"><ele>26.75</ele><time>2026-04-17T15:29:29Z</time></trkpt><trkpt lat="42.39652425296488" lon="14.137718225214332"><ele>27.0</ele><time>2026-04-17T15:29:30Z</time></trkpt><trkpt lat="42.39661767215085" lon="14.137805898436397"><ele>27.0</ele><time>2026-04-17T15:29:31Z</time></trkpt><trkpt lat="42.396713668536094" lon="14.137894834531822"><ele>27.0</ele><time>2026-04-17T15:29:32Z</time></trkpt><trkpt lat="42.39681276744076" lon="14.137979837578134"><ele>27.0</ele><time>2026-04-17T15:29:33Z</time></trkpt><trkpt lat="42.39690660262369" lon="14.138063197269815"><ele>27.0</ele><time>2026-04-17T15:29:34Z</time></trkpt><trkpt lat="42.39699562563583" lon="14.13814193083249"><ele>27.0</ele><time>2026-04-17T15:29:35Z</time></trkpt><trkpt lat="42.3970800378573" lon="14.138214633230959"><ele>27.0</ele><time>2026-04-17T15:29:36Z</time></trkpt><trkpt lat="42.39714617524999" lon="14.13826704816492"><ele>27.0</ele><time>2026-04-17T15:29:37Z</time></trkpt><trkpt lat="42.39723615225742" lon="14.138349231509922"><ele>27.0</ele><time>2026-04-17T15:29:39Z</time></trkpt><trkpt lat="42.397290069901686" lon="14.13840498436513"><ele>27.0</ele><time>2026-04-17T15:29:41Z</time></trkpt><trkpt lat="42.39736500466006" lon="14.13845959823643"><ele>27.0</ele><time>2026-04-17T15:30:04.999Z</time></trkpt><trkpt lat="42.39744685346564" lon="14.138553479506374"><ele>26.833333333333332</ele><time>2026-04-17T15:30:07.999Z</time></trkpt><trkpt lat="42.397506959405625" lon="14.138607344443889"><ele>26.666666666666664</ele><time>2026-04-17T15:30:08.999Z</time></trkpt><trkpt lat="42.39757622546045" lon="14.138669341667956"><ele>26.5</ele><time>2026-04-17T15:30:09.999Z</time></trkpt><trkpt lat="42.39763215301592" lon="14.138719419582952"><ele>26.333333333333332</ele><time>2026-04-17T15:30:10.999Z</time></trkpt><trkpt lat="42.39769980715307" lon="14.138757587362383"><ele>26.166666666666664</ele><time>2026-04-17T15:30:11.999Z</time></trkpt><trkpt lat="42.39776413138466" lon="14.138821732324578"><ele>26.0</ele><time>2026-04-17T15:30:12.999Z</time></trkpt><trkpt lat="42.397838046585186" lon="14.138889924411039"><ele>26.0</ele><time>2026-04-17T15:30:13.999Z</time></trkpt><trkpt lat="42.397916506167235" lon="14.138956418515981"><ele>26.0</ele><time>2026-04-17T15:30:14.999Z</time></trkpt><trkpt lat="42.39799332742587" lon="14.139027128345688"><ele>26.0</ele><time>2026-04-17T15:30:15.999Z</time></trkpt><trkpt lat="42.39807185408414" lon="14.139099744461998"><ele>26.0</ele><time>2026-04-17T15:30:16.999Z</time></trkpt><trkpt lat="42.39815248956395" lon="14.139172229417726"><ele>26.0</ele><time>2026-04-17T15:30:17.999Z</time></trkpt><trkpt lat="42.39823299504063" lon="14.139247608454285"><ele>26.0</ele><time>2026-04-17T15:30:18.999Z</time></trkpt><trkpt lat="42.39831438618088" lon="14.139325788374375"><ele>26.0</ele><time>2026-04-17T15:30:19.999Z</time></trkpt><trkpt lat="42.39839753358292" lon="14.13939601233899"><ele>26.0</ele><time>2026-04-17T15:30:20.999Z</time></trkpt><trkpt lat="42.39847675305423" lon="14.13946182268511"><ele>26.0</ele><time>2026-04-17T15:30:21.999Z</time></trkpt><trkpt lat="42.39855325357171" lon="14.139528191247003"><ele>26.0</ele><time>2026-04-17T15:30:22.999Z</time></trkpt><trkpt lat="42.39862555158468" lon="14.139593826584033"><ele>26.0</ele><time>2026-04-17T15:30:23.999Z</time></trkpt><trkpt lat="42.398696223479796" lon="14.139654647531174"><ele>26.0</ele><time>2026-04-17T15:30:24.999Z</time></trkpt><trkpt lat="42.39876728429836" lon="14.139727112082603"><ele>26.0</ele><time>2026-04-17T15:30:25.999Z</time></trkpt><trkpt lat="42.39885093718799" lon="14.139797919984842"><ele>26.0</ele><time>2026-04-17T15:30:26.999Z</time></trkpt><trkpt lat="42.39894118258985" lon="14.13988723484118"><ele>26.0</ele><time>2026-04-17T15:30:27.999Z</time></trkpt><trkpt lat="42.399032826510826" lon="14.139974983693739"><ele>25.8</ele><time>2026-04-17T15:30:28.999Z</time></trkpt><trkpt lat="42.399122323347406" lon="14.140057029280499"><ele>25.6</ele><time>2026-04-17T15:30:29.999Z</time></trkpt><trkpt lat="42.39920840187869" lon="14.140129304600665"><ele>25.4</ele><time>2026-04-17T15:30:30.999Z</time></trkpt><trkpt lat="42.39929284676196" lon="14.140202502330872"><ele>25.2</ele><time>2026-04-17T15:30:31.999Z</time></trkpt><trkpt lat="42.39936891473647" lon="14.140267878145798"><ele>25.0</ele><time>2026-04-17T15:30:32.999Z</time></trkpt><trkpt lat="42.39944011717639" lon="14.140330741569278"><ele>25.0</ele><time>2026-04-17T15:30:33.999Z</time></trkpt><trkpt lat="42.39951035271324" lon="14.140396166480913"><ele>25.0</ele><time>2026-04-17T15:30:34.999Z</time></trkpt><trkpt lat="42.39957800049398" lon="14.140456270130358"><ele>25.0</ele><time>2026-04-17T15:30:35.999Z</time></trkpt><trkpt lat="42.399640902650575" lon="14.14051632167418"><ele>25.0</ele><time>2026-04-17T15:30:36.999Z</time></trkpt><trkpt lat="42.39971630280725" lon="14.140588873029417"><ele>25.0</ele><time>2026-04-17T15:30:37.999Z</time></trkpt><trkpt lat="42.39981291653433" lon="14.140675418792009"><ele>25.25</ele><time>2026-04-17T15:30:38.999Z</time></trkpt><trkpt lat="42.39991434549379" lon="14.140764693357442"><ele>25.5</ele><time>2026-04-17T15:30:39.999Z</time></trkpt><trkpt lat="42.400021370227705" lon="14.140857279144466"><ele>25.75</ele><time>2026-04-17T15:30:40.999Z</time></trkpt><trkpt lat="42.400131623989814" lon="14.140953418157961"><ele>26.0</ele><time>2026-04-17T15:30:41.999Z</time></trkpt><trkpt lat="42.40023453833659" lon="14.141040545457892"><ele>26.0</ele><time>2026-04-17T15:30:42.999Z</time></trkpt><trkpt lat="42.40033576180153" lon="14.141129241790683"><ele>26.0</ele><time>2026-04-17T15:30:43.999Z</time></trkpt><trkpt lat="42.40043484737227" lon="14.141216517244908"><ele>26.0</ele><time>2026-04-17T15:30:44.999Z</time></trkpt><trkpt lat="42.400534216758025" lon="14.141303740869661"><ele>26.0</ele><time>2026-04-17T15:30:45.999Z</time></trkpt><trkpt lat="42.4006296863652" lon="14.14139283310262"><ele>25.75</ele><time>2026-04-17T15:30:46.999Z</time></trkpt><trkpt lat="42.40072378165839" lon="14.141478575750195"><ele>25.5</ele><time>2026-04-17T15:30:47.999Z</time></trkpt><trkpt lat="42.40081826491086" lon="14.14156523095663"><ele>25.25</ele><time>2026-04-17T15:30:48.999Z</time></trkpt><trkpt lat="42.40091823880167" lon="14.141648941092644"><ele>25.0</ele><time>2026-04-17T15:30:50Z</time></trkpt><trkpt lat="42.40101078601127" lon="14.141737814743223"><ele>25.0</ele><time>2026-04-17T15:30:51Z</time></trkpt><trkpt lat="42.40110806488947" lon="14.14182289963554"><ele>25.0</ele><time>2026-04-17T15:30:52Z</time></trkpt><trkpt lat="42.40122820694578" lon="14.141926827918928"><ele>25.0</ele><time>2026-04-17T15:30:53Z</time></trkpt><trkpt lat="42.40137286139751" lon="14.142047226832892"><ele>25.0</ele><time>2026-04-17T15:30:54Z</time></trkpt><trkpt lat="42.40150896686849" lon="14.142168994162093"><ele>25.0</ele><time>2026-04-17T15:30:55Z</time></trkpt><trkpt lat="42.40163233286881" lon="14.142281140480602"><ele>25.0</ele><time>2026-04-17T15:30:56Z</time></trkpt><trkpt lat="42.40176539886551" lon="14.142402985631382"><ele>25.0</ele><time>2026-04-17T15:30:57Z</time></trkpt><trkpt lat="42.401897412266216" lon="14.142524678499004"><ele>24.75</ele><time>2026-04-17T15:30:58Z</time></trkpt><trkpt lat="42.40202236973717" lon="14.142633679897347"><ele>24.5</ele><time>2026-04-17T15:30:59Z</time></trkpt><trkpt lat="42.40213598194456" lon="14.142738067161279"><ele>24.25</ele><time>2026-04-17T15:31:00Z</time></trkpt><trkpt lat="42.40224481362192" lon="14.142833058998875"><ele>24.0</ele><time>2026-04-17T15:31:01Z</time></trkpt><trkpt lat="42.402352362385294" lon="14.142929535656592"><ele>24.0</ele><time>2026-04-17T15:31:02Z</time></trkpt><trkpt lat="42.40245941337881" lon="14.143017913924753"><ele>24.0</ele><time>2026-04-17T15:31:03Z</time></trkpt><trkpt lat="42.40256445306115" lon="14.143101403303294"><ele>24.0</ele><time>2026-04-17T15:31:04Z</time></trkpt><trkpt lat="42.40266820549677" lon="14.143184632262615"><ele>24.0</ele><time>2026-04-17T15:31:05Z</time></trkpt><trkpt lat="42.40277189352865" lon="14.143276009852858"><ele>24.0</ele><time>2026-04-17T15:31:06Z</time></trkpt><trkpt lat="42.4028754933766" lon="14.143369036347966"><ele>24.0</ele><time>2026-04-17T15:31:07Z</time></trkpt><trkpt lat="42.40298260076687" lon="14.143460488577084"><ele>24.0</ele><time>2026-04-17T15:31:08Z</time></trkpt><trkpt lat="42.40308696677715" lon="14.143548965182651"><ele>24.0</ele><time>2026-04-17T15:31:09Z</time></trkpt><trkpt lat="42.403182023370064" lon="14.143635374031952"><ele>24.0</ele><time>2026-04-17T15:31:10Z</time></trkpt><trkpt lat="42.4032728034957" lon="14.143720422893178"><ele>24.0</ele><time>2026-04-17T15:31:11Z</time></trkpt><trkpt lat="42.40336054114362" lon="14.14380043546732"><ele>24.0</ele><time>2026-04-17T15:31:12Z</time></trkpt><trkpt lat="42.403448968400326" lon="14.14387458222831"><ele>24.0</ele><time>2026-04-17T15:31:13Z</time></trkpt><trkpt lat="42.40353294412369" lon="14.143949945450796"><ele>24.0</ele><time>2026-04-17T15:31:14Z</time></trkpt><trkpt lat="42.40361136940538" lon="14.144024174816067"><ele>24.166666666666668</ele><time>2026-04-17T15:31:15Z</time></trkpt><trkpt lat="42.40368907919553" lon="14.144090184231958"><ele>24.333333333333336</ele><time>2026-04-17T15:31:16Z</time></trkpt><trkpt lat="42.40376524797914" lon="14.144157824099228"><ele>24.5</ele><time>2026-04-17T15:31:17Z</time></trkpt><trkpt lat="42.403838557281865" lon="14.144223543050446"><ele>24.666666666666668</ele><time>2026-04-17T15:31:18Z</time></trkpt><trkpt lat="42.403908181793476" lon="14.144289652708775"><ele>24.833333333333336</ele><time>2026-04-17T15:31:19Z</time></trkpt><trkpt lat="42.40397904331" lon="14.14435191576834"><ele>25.0</ele><time>2026-04-17T15:31:20Z</time></trkpt><trkpt lat="42.404046196491045" lon="14.144412887067633"><ele>25.000000000000004</ele><time>2026-04-17T15:31:21Z</time></trkpt><trkpt lat="42.40411379232114" lon="14.144481094027597"><ele>25.0</ele><time>2026-04-17T15:31:22Z</time></trkpt><trkpt lat="42.40418274606182" lon="14.144559471447236"><ele>25.0</ele><time>2026-04-17T15:31:23Z</time></trkpt><trkpt lat="42.40424740368171" lon="14.14462367955533"><ele>25.0</ele><time>2026-04-17T15:31:24Z</time></trkpt><trkpt lat="42.40431239630626" lon="14.144680353497627"><ele>25.000000000000004</ele><time>2026-04-17T15:31:25Z</time></trkpt><trkpt lat="42.404377322240585" lon="14.144735438542508"><ele>25.0</ele><time>2026-04-17T15:31:26Z</time></trkpt><trkpt lat="42.40444037375912" lon="14.14479615805122"><ele>25.000000000000004</ele><time>2026-04-17T15:31:27Z</time></trkpt><trkpt lat="42.40450692362059" lon="14.144859655780092"><ele>25.0</ele><time>2026-04-17T15:31:28Z</time></trkpt><trkpt lat="42.40457673361615" lon="14.144917588630628"><ele>25.0</ele><time>2026-04-17T15:31:29Z</time></trkpt><trkpt lat="42.40464608712323" lon="14.144975806838154"><ele>25.0</ele><time>2026-04-17T15:31:30Z</time></trkpt><trkpt lat="42.404718137906194" lon="14.14503546872668"><ele>25.000000000000004</ele><time>2026-04-17T15:31:31Z</time></trkpt><trkpt lat="42.40478917088843" lon="14.14509497538264"><ele>25.0</ele><time>2026-04-17T15:31:32Z</time></trkpt><trkpt lat="42.404856555469124" lon="14.145152986191732"><ele>24.666666666666668</ele><time>2026-04-17T15:31:33Z</time></trkpt><trkpt lat="42.404918466894046" lon="14.145213277996055"><ele>24.333333333333336</ele><time>2026-04-17T15:31:33.999Z</time></trkpt><trkpt lat="42.40497925965256" lon="14.145272458178955"><ele>24.0</ele><time>2026-04-17T15:31:34.999Z</time></trkpt><trkpt lat="42.405054262836835" lon="14.145339802793643"><ele>23.666666666666668</ele><time>2026-04-17T15:31:35.999Z</time></trkpt><trkpt lat="42.40512367862606" lon="14.145402273344251"><ele>23.333333333333336</ele><time>2026-04-17T15:31:36.999Z</time></trkpt><trkpt lat="42.40519640177973" lon="14.145465727785423"><ele>23.0</ele><time>2026-04-17T15:31:37.999Z</time></trkpt><trkpt lat="42.405269458901095" lon="14.145536305954375"><ele>23.0</ele><time>2026-04-17T15:31:38.999Z</time></trkpt><trkpt lat="42.40533485212227" lon="14.145598263577934"><ele>23.0</ele><time>2026-04-17T15:31:39.999Z</time></trkpt><trkpt lat="42.40539158216064" lon="14.145654529197623"><ele>23.0</ele><time>2026-04-17T15:31:40.999Z</time></trkpt><trkpt lat="42.40543624758113" lon="14.145719790223017"><ele>23.0</ele><time>2026-04-17T15:31:41.999Z</time></trkpt><trkpt lat="42.40546311536857" lon="14.145862320140031"><ele>23.0</ele><time>2026-04-17T15:31:43.999Z</time></trkpt><trkpt lat="42.40545369959907" lon="14.146017526510937"><ele>23.0</ele><time>2026-04-17T15:31:45.999Z</time></trkpt><trkpt lat="42.405546209721955" lon="14.146109209990254"><ele>22.833333333333336</ele><time>2026-04-17T15:31:47.999Z</time></trkpt><trkpt lat="42.40561003871407" lon="14.146096992432016"><ele>22.666666666666668</ele><time>2026-04-17T15:31:48.999Z</time></trkpt><trkpt lat="42.40566975642393" lon="14.146052489280835"><ele>22.5</ele><time>2026-04-17T15:31:49.999Z</time></trkpt><trkpt lat="42.405722244397936" lon="14.145980968670374"><ele>22.333333333333332</ele><time>2026-04-17T15:31:50.999Z</time></trkpt><trkpt lat="42.405833422574716" lon="14.14603234573094"><ele>22.166666666666664</ele><time>2026-04-17T15:31:51.999Z</time></trkpt><trkpt lat="42.40591301354971" lon="14.14608353460525"><ele>22.0</ele><time>2026-04-17T15:31:52.999Z</time></trkpt><trkpt lat="42.4059993248228" lon="14.146207954793736"><ele>22.0</ele><time>2026-04-17T15:31:53.999Z</time></trkpt><trkpt lat="42.406108521180066" lon="14.146307333451317"><ele>22.0</ele><time>2026-04-17T15:31:54.999Z</time></trkpt><trkpt lat="42.40617584853889" lon="14.146368014980863"><ele>22.0</ele><time>2026-04-17T15:31:55.999Z</time></trkpt><trkpt lat="42.40626223058729" lon="14.146445870295212"><ele>22.0</ele><time>2026-04-17T15:31:56.999Z</time></trkpt><trkpt lat="42.40633388333323" lon="14.146510035897698"><ele>22.0</ele><time>2026-04-17T15:31:57.999Z</time></trkpt><trkpt lat="42.40640375901687" lon="14.146572426763962"><ele>22.0</ele><time>2026-04-17T15:31:58.999Z</time></trkpt><trkpt lat="42.406480092650746" lon="14.146636247165974"><ele>22.0</ele><time>2026-04-17T15:31:59.999Z</time></trkpt><trkpt lat="42.40657811493917" lon="14.146688735839595"><ele>22.0</ele><time>2026-04-17T15:32:00.999Z</time></trkpt><trkpt lat="42.40667126316194" lon="14.146764026464608"><ele>22.0</ele><time>2026-04-17T15:32:01.999Z</time></trkpt><trkpt lat="42.40677364999328" lon="14.146831731662788"><ele>22.0</ele><time>2026-04-17T15:32:02.999Z</time></trkpt><trkpt lat="42.40687838010931" lon="14.146888950859312"><ele>22.0</ele><time>2026-04-17T15:32:03.999Z</time></trkpt><trkpt lat="42.40698292359204" lon="14.146936776261452"><ele>22.0</ele><time>2026-04-17T15:32:04.999Z</time></trkpt><trkpt lat="42.407104972190695" lon="14.146981513884532"><ele>22.0</ele><time>2026-04-17T15:32:05.999Z</time></trkpt><trkpt lat="42.40724037422029" lon="14.147027568946594"><ele>22.0</ele><time>2026-04-17T15:32:06.999Z</time></trkpt><trkpt lat="42.40738080822398" lon="14.147062608529602"><ele>21.0</ele><time>2026-04-17T15:32:07.999Z</time></trkpt><trkpt lat="42.407508152999824" lon="14.147086830716258"><ele>20.0</ele><time>2026-04-17T15:32:08.999Z</time></trkpt><trkpt lat="42.40763995071735" lon="14.147104664254167"><ele>19.0</ele><time>2026-04-17T15:32:09.999Z</time></trkpt><trkpt lat="42.40778099785363" lon="14.147131782158931"><ele>18.0</ele><time>2026-04-17T15:32:10.999Z</time></trkpt><trkpt lat="42.407911400356845" lon="14.147174339062603"><ele>17.75</ele><time>2026-04-17T15:32:11.999Z</time></trkpt><trkpt lat="42.40802623756527" lon="14.147181958053162"><ele>17.5</ele><time>2026-04-17T15:32:12.999Z</time></trkpt><trkpt lat="42.40811743451776" lon="14.147200018546462"><ele>17.25</ele><time>2026-04-17T15:32:13.999Z</time></trkpt><trkpt lat="42.40818509832168" lon="14.147234739916001"><ele>17.0</ele><time>2026-04-17T15:32:14.999Z</time></trkpt><trkpt lat="42.40823190452019" lon="14.146896499030362"><ele>17.0</ele><time>2026-04-17T15:32:17.999Z</time></trkpt><trkpt lat="42.40820603814431" lon="14.146737368318108"><ele>17.0</ele><time>2026-04-17T15:32:18.999Z</time></trkpt><trkpt lat="42.408199719657354" lon="14.146557638016438"><ele>17.0</ele><time>2026-04-17T15:32:19.999Z</time></trkpt><trkpt lat="42.408170108681794" lon="14.146414532023538"><ele>17.0</ele><time>2026-04-17T15:32:20.999Z</time></trkpt><trkpt lat="42.40816437596831" lon="14.146304056675406"><ele>17.0</ele><time>2026-04-17T15:32:21.999Z</time></trkpt><trkpt lat="42.408158089647145" lon="14.14620548063801"><ele>17.333333333333336</ele><time>2026-04-17T15:32:22.999Z</time></trkpt><trkpt lat="42.40814567075155" lon="14.146118648533577"><ele>17.666666666666668</ele><time>2026-04-17T15:32:23.999Z</time></trkpt><trkpt lat="42.408142230339486" lon="14.146023475080412"><ele>18.0</ele><time>2026-04-17T15:32:24.999Z</time></trkpt><trkpt lat="42.40813420772972" lon="14.145932823461342"><ele>18.333333333333332</ele><time>2026-04-17T15:32:25.999Z</time></trkpt><trkpt lat="42.40812717960986" lon="14.14583698703869"><ele>18.666666666666664</ele><time>2026-04-17T15:32:26.999Z</time></trkpt><trkpt lat="42.408128505486026" lon="14.14574223017955"><ele>19.0</ele><time>2026-04-17T15:32:27.999Z</time></trkpt><trkpt lat="42.40821917082048" lon="14.145640149408448"><ele>19.0</ele><time>2026-04-17T15:32:29.999Z</time></trkpt><trkpt lat="42.40828551959036" lon="14.145647393696192"><ele>19.0</ele><time>2026-04-17T15:32:30.999Z</time></trkpt><trkpt lat="42.408328056042826" lon="14.145758274248443"><ele>19.0</ele><time>2026-04-17T15:32:31.999Z</time></trkpt><trkpt lat="42.40838854441848" lon="14.145784331491342"><ele>19.0</ele><time>2026-04-17T15:32:32.999Z</time></trkpt><trkpt lat="42.40847259714876" lon="14.14579579005327"><ele>19.0</ele><time>2026-04-17T15:32:33.999Z</time></trkpt><trkpt lat="42.408568241040975" lon="14.145765177137353"><ele>19.0</ele><time>2026-04-17T15:32:34.999Z</time></trkpt><trkpt lat="42.40866450186173" lon="14.145686951346796"><ele>19.0</ele><time>2026-04-17T15:32:35.999Z</time></trkpt><trkpt lat="42.40874825395011" lon="14.145572917246378"><ele>19.0</ele><time>2026-04-17T15:32:36.999Z</time></trkpt><trkpt lat="42.40882413663099" lon="14.145444103258553"><ele>19.0</ele><time>2026-04-17T15:32:37.999Z</time></trkpt><trkpt lat="42.40890258880465" lon="14.145325300725506"><ele>19.0</ele><time>2026-04-17T15:32:38.999Z</time></trkpt><trkpt lat="42.40895733790645" lon="14.145218138078459"><ele>19.5</ele><time>2026-04-17T15:32:39.999Z</time></trkpt><trkpt lat="42.409006556223936" lon="14.145121548891238"><ele>20.0</ele><time>2026-04-17T15:32:40.999Z</time></trkpt><trkpt lat="42.40905090426775" lon="14.145036157355037"><ele>20.5</ele><time>2026-04-17T15:32:41.999Z</time></trkpt><trkpt lat="42.40909095886665" lon="14.144959901950502"><ele>21.0</ele><time>2026-04-17T15:32:42.999Z</time></trkpt><trkpt lat="42.40913538775416" lon="14.144875319029582"><ele>21.5</ele><time>2026-04-17T15:32:43.999Z</time></trkpt><trkpt lat="42.40917899349645" lon="14.1447921036326"><ele>22.0</ele><time>2026-04-17T15:32:44.999Z</time></trkpt><trkpt lat="42.40922778180227" lon="14.144698753227114"><ele>22.166666666666664</ele><time>2026-04-17T15:32:45.999Z</time></trkpt><trkpt lat="42.40927628411875" lon="14.144605713095867"><ele>22.333333333333332</ele><time>2026-04-17T15:32:46.999Z</time></trkpt><trkpt lat="42.409328224189174" lon="14.144503633795196"><ele>22.5</ele><time>2026-04-17T15:32:47.999Z</time></trkpt><trkpt lat="42.4093744109428" lon="14.144412193772283"><ele>22.666666666666668</ele><time>2026-04-17T15:32:48.999Z</time></trkpt><trkpt lat="42.40942040121804" lon="14.144320725201716"><ele>22.833333333333336</ele><time>2026-04-17T15:32:49.999Z</time></trkpt><trkpt lat="42.409469146268115" lon="14.144223090383008"><ele>23.0</ele><time>2026-04-17T15:32:50.999Z</time></trkpt><trkpt lat="42.40952038669917" lon="14.14411948474666"><ele>23.333333333333336</ele><time>2026-04-17T15:32:51.999Z</time></trkpt><trkpt lat="42.40957259069183" lon="14.14401190143177"><ele>23.666666666666668</ele><time>2026-04-17T15:32:52.999Z</time></trkpt><trkpt lat="42.40961984465133" lon="14.143917316716125"><ele>24.0</ele><time>2026-04-17T15:32:53.999Z</time></trkpt><trkpt lat="42.40965928103533" lon="14.143819488571841"><ele>24.333333333333336</ele><time>2026-04-17T15:32:54.999Z</time></trkpt><trkpt lat="42.40972473319052" lon="14.14375187999975"><ele>24.666666666666668</ele><time>2026-04-17T15:32:55.999Z</time></trkpt><trkpt lat="42.40978292486406" lon="14.143691174280775"><ele>25.0</ele><time>2026-04-17T15:32:56.999Z</time></trkpt><trkpt lat="42.40985534552395" lon="14.14363839076411"><ele>25.6</ele><time>2026-04-17T15:32:57.999Z</time></trkpt><trkpt lat="42.40994398330759" lon="14.143634061670879"><ele>26.2</ele><time>2026-04-17T15:32:58.999Z</time></trkpt><trkpt lat="42.41003629629117" lon="14.143656241783463"><ele>26.799999999999997</ele><time>2026-04-17T15:32:59.999Z</time></trkpt><trkpt lat="42.41013903087434" lon="14.143690571425342"><ele>27.4</ele><time>2026-04-17T15:33:00.999Z</time></trkpt><trkpt lat="42.410252928595874" lon="14.1437176079988"><ele>28.0</ele><time>2026-04-17T15:33:01.999Z</time></trkpt><trkpt lat="42.410370073312976" lon="14.143779168145063"><ele>27.75</ele><time>2026-04-17T15:33:02.999Z</time></trkpt><trkpt lat="42.410496478714805" lon="14.143805921232676"><ele>27.5</ele><time>2026-04-17T15:33:03.999Z</time></trkpt><trkpt lat="42.41061832863848" lon="14.143875189904382"><ele>27.25</ele><time>2026-04-17T15:33:04.999Z</time></trkpt><trkpt lat="42.41073557153682" lon="14.143915382611338"><ele>27.0</ele><time>2026-04-17T15:33:05.999Z</time></trkpt><trkpt lat="42.41085013227674" lon="14.143950999442534"><ele>27.0</ele><time>2026-04-17T15:33:06.999Z</time></trkpt><trkpt lat="42.41097069631429" lon="14.14395825194849"><ele>27.0</ele><time>2026-04-17T15:33:07.999Z</time></trkpt><trkpt lat="42.41109415492236" lon="14.14396522488923"><ele>27.0</ele><time>2026-04-17T15:33:08.999Z</time></trkpt><trkpt lat="42.41123030794276" lon="14.143966441864476"><ele>27.0</ele><time>2026-04-17T15:33:09.999Z</time></trkpt><trkpt lat="42.41137802200363" lon="14.14396309126166"><ele>27.666666666666664</ele><time>2026-04-17T15:33:10.999Z</time></trkpt><trkpt lat="42.411549256757105" lon="14.143958728406487"><ele>28.333333333333332</ele><time>2026-04-17T15:33:11.999Z</time></trkpt><trkpt lat="42.41172633917278" lon="14.143979356583689"><ele>29.0</ele><time>2026-04-17T15:33:12.999Z</time></trkpt><trkpt lat="42.41191008579306" lon="14.143993953330112"><ele>29.0</ele><time>2026-04-17T15:33:13.999Z</time></trkpt><trkpt lat="42.41209047232842" lon="14.144025244686963"><ele>29.0</ele><time>2026-04-17T15:33:14.999Z</time></trkpt><trkpt lat="42.412255110856066" lon="14.144055975872053"><ele>29.0</ele><time>2026-04-17T15:33:15.999Z</time></trkpt><trkpt lat="42.41240835571104" lon="14.144096392555188"><ele>29.25</ele><time>2026-04-17T15:33:16.999Z</time></trkpt><trkpt lat="42.41255119766192" lon="14.144152370023951"><ele>29.5</ele><time>2026-04-17T15:33:17.999Z</time></trkpt><trkpt lat="42.412676460030085" lon="14.144231086811583"><ele>29.75</ele><time>2026-04-17T15:33:18.999Z</time></trkpt><trkpt lat="42.41280084227817" lon="14.144308018653796"><ele>30.0</ele><time>2026-04-17T15:33:19.999Z</time></trkpt><trkpt lat="42.41293362144633" lon="14.14437060537472"><ele>32.25</ele><time>2026-04-17T15:33:20.999Z</time></trkpt><trkpt lat="42.41306244115487" lon="14.14444244962934"><ele>34.5</ele><time>2026-04-17T15:33:21.999Z</time></trkpt><trkpt lat="42.41319623599357" lon="14.144508406907965"><ele>36.75</ele><time>2026-04-17T15:33:22.999Z</time></trkpt><trkpt lat="42.41331735828542" lon="14.144558389526589"><ele>39.0</ele><time>2026-04-17T15:33:23.999Z</time></trkpt><trkpt lat="42.41343416332912" lon="14.144598698193537"><ele>39.0</ele><time>2026-04-17T15:33:24.999Z</time></trkpt><trkpt lat="42.41354400286208" lon="14.144707335135957"><ele>39.0</ele><time>2026-04-17T15:33:25.999Z</time></trkpt><trkpt lat="42.413677511958035" lon="14.14479591927529"><ele>39.0</ele><time>2026-04-17T15:33:26.999Z</time></trkpt><trkpt lat="42.413803251187566" lon="14.144870640271435"><ele>39.0</ele><time>2026-04-17T15:33:27.999Z</time></trkpt><trkpt lat="42.41392422550461" lon="14.144934874743209"><ele>38.5</ele><time>2026-04-17T15:33:28.999Z</time></trkpt><trkpt lat="42.4140537100104" lon="14.14500956236359"><ele>38.0</ele><time>2026-04-17T15:33:29.999Z</time></trkpt><trkpt lat="42.41417959220057" lon="14.145117392355193"><ele>37.5</ele><time>2026-04-17T15:33:30.999Z</time></trkpt><trkpt lat="42.41429888328194" lon="14.145231145581402"><ele>37.0</ele><time>2026-04-17T15:33:31.999Z</time></trkpt><trkpt lat="42.414419034868665" lon="14.145332955771984"><ele>37.0</ele><time>2026-04-17T15:33:32.999Z</time></trkpt><trkpt lat="42.41453029410066" lon="14.145416707823662"><ele>37.0</ele><time>2026-04-17T15:33:33.999Z</time></trkpt><trkpt lat="42.414636754836216" lon="14.14545647383195"><ele>37.0</ele><time>2026-04-17T15:33:34.999Z</time></trkpt><trkpt lat="42.41473110996646" lon="14.145497750597295"><ele>37.0</ele><time>2026-04-17T15:33:35.999Z</time></trkpt><trkpt lat="42.414829273484195" lon="14.145515060431515"><ele>37.0</ele><time>2026-04-17T15:33:36.999Z</time></trkpt><trkpt lat="42.4149274150551" lon="14.145495522912421"><ele>37.0</ele><time>2026-04-17T15:33:37.999Z</time></trkpt><trkpt lat="42.415018699093864" lon="14.145441236723975"><ele>37.0</ele><time>2026-04-17T15:33:38.999Z</time></trkpt><trkpt lat="42.415112335686224" lon="14.145371480337946"><ele>37.0</ele><time>2026-04-17T15:33:39.999Z</time></trkpt><trkpt lat="42.41520567200388" lon="14.145272359615348"><ele>37.0</ele><time>2026-04-17T15:33:40.999Z</time></trkpt><trkpt lat="42.415317891041866" lon="14.14520860940477"><ele>37.0</ele><time>2026-04-17T15:33:41.999Z</time></trkpt><trkpt lat="42.41542852266487" lon="14.145131160242318"><ele>37.5</ele><time>2026-04-17T15:33:42.999Z</time></trkpt><trkpt lat="42.415528837749264" lon="14.145063381457701"><ele>38.0</ele><time>2026-04-17T15:33:43.999Z</time></trkpt><trkpt lat="42.4156328405584" lon="14.144993279971104"><ele>38.5</ele><time>2026-04-17T15:33:44.999Z</time></trkpt><trkpt lat="42.415730226111826" lon="14.144901377389807"><ele>39.0</ele><time>2026-04-17T15:33:45.999Z</time></trkpt><trkpt lat="42.415825971504844" lon="14.144838059047554"><ele>39.0</ele><time>2026-04-17T15:33:46.999Z</time></trkpt><trkpt lat="42.41591603390907" lon="14.144797158121776"><ele>39.0</ele><time>2026-04-17T15:33:47.999Z</time></trkpt><trkpt lat="42.41598022504017" lon="14.144731868876415"><ele>39.0</ele><time>2026-04-17T15:33:48.999Z</time></trkpt><trkpt lat="42.41606780957147" lon="14.144683937117861"><ele>39.0</ele><time>2026-04-17T15:33:50.999Z</time></trkpt><trkpt lat="42.416142119547516" lon="14.144949828656562"><ele>39.0</ele><time>2026-04-17T15:34:01.999Z</time></trkpt><trkpt lat="42.41615174548468" lon="14.145116050087266"><ele>39.0</ele><time>2026-04-17T15:34:02.999Z</time></trkpt><trkpt lat="42.41617895063875" lon="14.145291311809542"><ele>39.0</ele><time>2026-04-17T15:34:03.999Z</time></trkpt><trkpt lat="42.41621077899377" lon="14.145450321868276"><ele>39.0</ele><time>2026-04-17T15:34:04.999Z</time></trkpt><trkpt lat="42.41625236467109" lon="14.145614455811005"><ele>38.5</ele><time>2026-04-17T15:34:05.999Z</time></trkpt><trkpt lat="42.41629555349899" lon="14.145792503500202"><ele>38.0</ele><time>2026-04-17T15:34:06.999Z</time></trkpt><trkpt lat="42.41633290461394" lon="14.145989180298022"><ele>37.5</ele><time>2026-04-17T15:34:07.999Z</time></trkpt><trkpt lat="42.41638113700874" lon="14.146195858572419"><ele>37.0</ele><time>2026-04-17T15:34:08.999Z</time></trkpt><trkpt lat="42.416455474190286" lon="14.146380128055654"><ele>37.333333333333336</ele><time>2026-04-17T15:34:09.999Z</time></trkpt><trkpt lat="42.416556484999845" lon="14.146533652425823"><ele>37.666666666666664</ele><time>2026-04-17T15:34:10.999Z</time></trkpt><trkpt lat="42.41669017107746" lon="14.14666957003306"><ele>38.0</ele><time>2026-04-17T15:34:11.999Z</time></trkpt><trkpt lat="42.416812896740716" lon="14.146827428308459"><ele>38.0</ele><time>2026-04-17T15:34:12.999Z</time></trkpt><trkpt lat="42.41691936300089" lon="14.147022945791047"><ele>38.0</ele><time>2026-04-17T15:34:13.999Z</time></trkpt><trkpt lat="42.41700711613184" lon="14.147212684728512"><ele>38.0</ele><time>2026-04-17T15:34:14.999Z</time></trkpt><trkpt lat="42.417088377164" lon="14.147408516924905"><ele>34.0</ele><time>2026-04-17T15:34:15.999Z</time></trkpt><trkpt lat="42.41716034385599" lon="14.147622329290366"><ele>30.0</ele><time>2026-04-17T15:34:16.999Z</time></trkpt><trkpt lat="42.41723228920664" lon="14.147825168104474"><ele>26.0</ele><time>2026-04-17T15:34:17.999Z</time></trkpt><trkpt lat="42.41730772014589" lon="14.14801754118341"><ele>26.333333333333332</ele><time>2026-04-17T15:34:18.999Z</time></trkpt><trkpt lat="42.41736436479885" lon="14.148214214463195"><ele>26.666666666666664</ele><time>2026-04-17T15:34:19.999Z</time></trkpt><trkpt lat="42.41739689838427" lon="14.148446400240337"><ele>27.0</ele><time>2026-04-17T15:34:20.999Z</time></trkpt><trkpt lat="42.41741238926994" lon="14.148682217060951"><ele>27.0</ele><time>2026-04-17T15:34:21.999Z</time></trkpt><trkpt lat="42.41742458340172" lon="14.148890548000804"><ele>27.0</ele><time>2026-04-17T15:34:22.999Z</time></trkpt><trkpt lat="42.41744676807203" lon="14.149073264840519"><ele>27.0</ele><time>2026-04-17T15:34:23.999Z</time></trkpt><trkpt lat="42.41747755196031" lon="14.149244162235421"><ele>27.0</ele><time>2026-04-17T15:34:24.999Z</time></trkpt><trkpt lat="42.41754123493304" lon="14.149422075556823"><ele>25.333333333333332</ele><time>2026-04-17T15:34:25.999Z</time></trkpt><trkpt lat="42.4176471961172" lon="14.149608579017396"><ele>23.666666666666664</ele><time>2026-04-17T15:34:26.999Z</time></trkpt><trkpt lat="42.41777897398961" lon="14.149787744948398"><ele>22.0</ele><time>2026-04-17T15:34:27.999Z</time></trkpt><trkpt lat="42.41792504756987" lon="14.149947039555949"><ele>21.333333333333332</ele><time>2026-04-17T15:34:28.999Z</time></trkpt><trkpt lat="42.41807286967311" lon="14.150107140697797"><ele>20.666666666666668</ele><time>2026-04-17T15:34:29.999Z</time></trkpt><trkpt lat="42.41820612427361" lon="14.150260973909358"><ele>20.0</ele><time>2026-04-17T15:34:30.999Z</time></trkpt><trkpt lat="42.418334764540724" lon="14.150408789581144"><ele>20.0</ele><time>2026-04-17T15:34:31.999Z</time></trkpt><trkpt lat="42.41847625610826" lon="14.150530434886255"><ele>20.0</ele><time>2026-04-17T15:34:32.999Z</time></trkpt><trkpt lat="42.41865247072396" lon="14.150627544468728"><ele>20.0</ele><time>2026-04-17T15:34:33.999Z</time></trkpt><trkpt lat="42.41884627887961" lon="14.150694211382048"><ele>20.666666666666668</ele><time>2026-04-17T15:34:34.999Z</time></trkpt><trkpt lat="42.41903652020292" lon="14.150763282614683"><ele>21.333333333333332</ele><time>2026-04-17T15:34:35.998Z</time></trkpt><trkpt lat="42.41920742922102" lon="14.150831111813782"><ele>22.0</ele><time>2026-04-17T15:34:36.998Z</time></trkpt><trkpt lat="42.419377770246705" lon="14.150900650450922"><ele>22.0</ele><time>2026-04-17T15:34:37.998Z</time></trkpt><trkpt lat="42.419541832216744" lon="14.150961126263674"><ele>22.0</ele><time>2026-04-17T15:34:38.998Z</time></trkpt><trkpt lat="42.4196967508327" lon="14.151020731538045"><ele>22.0</ele><time>2026-04-17T15:34:39.998Z</time></trkpt><trkpt lat="42.419831804031126" lon="14.151104083144688"><ele>22.5</ele><time>2026-04-17T15:34:40.998Z</time></trkpt><trkpt lat="42.41994636765091" lon="14.151207118736355"><ele>23.0</ele><time>2026-04-17T15:34:41.998Z</time></trkpt><trkpt lat="42.42005078165307" lon="14.151309923109086"><ele>23.5</ele><time>2026-04-17T15:34:42.998Z</time></trkpt><trkpt lat="42.42014592974947" lon="14.151353864548284"><ele>24.0</ele><time>2026-04-17T15:34:43.998Z</time></trkpt><trkpt lat="42.42019920917706" lon="14.15145579734776"><ele>24.0</ele><time>2026-04-17T15:34:44.998Z</time></trkpt><trkpt lat="42.420273758726246" lon="14.15145811207082"><ele>24.0</ele><time>2026-04-17T15:34:45.998Z</time></trkpt><trkpt lat="42.420335637451515" lon="14.151420176989163"><ele>24.0</ele><time>2026-04-17T15:34:46.998Z</time></trkpt><trkpt lat="42.420377163346" lon="14.151346862144823"><ele>24.0</ele><time>2026-04-17T15:34:48.998Z</time></trkpt><trkpt lat="42.42042446865942" lon="14.151153965107351"><ele>24.0</ele><time>2026-04-17T15:34:59.998Z</time></trkpt><trkpt lat="42.420419279169664" lon="14.151005861709914"><ele>24.0</ele><time>2026-04-17T15:35:00.999Z</time></trkpt><trkpt lat="42.42040270751269" lon="14.15080989666358"><ele>24.0</ele><time>2026-04-17T15:35:01.999Z</time></trkpt><trkpt lat="42.420392931696334" lon="14.15059743619611"><ele>24.0</ele><time>2026-04-17T15:35:02.999Z</time></trkpt><trkpt lat="42.42041917709863" lon="14.150409076661958"><ele>24.0</ele><time>2026-04-17T15:35:04.999Z</time></trkpt><trkpt lat="42.420440459897144" lon="14.150186925427668"><ele>23.666666666666668</ele><time>2026-04-17T15:35:05.999Z</time></trkpt><trkpt lat="42.420473745563875" lon="14.149973986092146"><ele>23.333333333333336</ele><time>2026-04-17T15:35:06.999Z</time></trkpt><trkpt lat="42.420512313108965" lon="14.149751181724671"><ele>23.0</ele><time>2026-04-17T15:35:07.999Z</time></trkpt><trkpt lat="42.42055419595335" lon="14.149517868458902"><ele>23.0</ele><time>2026-04-17T15:35:08.999Z</time></trkpt><trkpt lat="42.42059016143065" lon="14.149297055649699"><ele>23.0</ele><time>2026-04-17T15:35:09.999Z</time></trkpt><trkpt lat="42.42063321262437" lon="14.14909273492413"><ele>23.0</ele><time>2026-04-17T15:35:10.999Z</time></trkpt><trkpt lat="42.42066329164998" lon="14.148914253933098"><ele>22.5</ele><time>2026-04-17T15:35:11.999Z</time></trkpt><trkpt lat="42.42069647805503" lon="14.14877251237539"><ele>22.0</ele><time>2026-04-17T15:35:12.999Z</time></trkpt><trkpt lat="42.42075635498099" lon="14.148644193286817"><ele>21.5</ele><time>2026-04-17T15:35:13.999Z</time></trkpt><trkpt lat="42.42078564509533" lon="14.148544409416363"><ele>21.0</ele><time>2026-04-17T15:35:14.999Z</time></trkpt><trkpt lat="42.420955824571806" lon="14.1485786812398"><ele>21.0</ele><time>2026-04-17T15:35:15.999Z</time></trkpt><trkpt lat="42.42106249269094" lon="14.148533857667482"><ele>21.0</ele><time>2026-04-17T15:35:16.999Z</time></trkpt><trkpt lat="42.42117217646462" lon="14.148526003675526"><ele>21.0</ele><time>2026-04-17T15:35:17.999Z</time></trkpt><trkpt lat="42.42129108125258" lon="14.1487098636724"><ele>21.0</ele><time>2026-04-17T15:35:18.999Z</time></trkpt><trkpt lat="42.42142887265474" lon="14.148800347140005"><ele>22.0</ele><time>2026-04-17T15:35:19.999Z</time></trkpt><trkpt lat="42.42158128576067" lon="14.148881280982478"><ele>23.0</ele><time>2026-04-17T15:35:20.999Z</time></trkpt><trkpt lat="42.42173905519331" lon="14.14898048825504"><ele>24.0</ele><time>2026-04-17T15:35:21.999Z</time></trkpt><trkpt lat="42.42189763909627" lon="14.149107081240112"><ele>25.333333333333336</ele><time>2026-04-17T15:35:22.999Z</time></trkpt><trkpt lat="42.42207061720003" lon="14.149198164130162"><ele>26.666666666666668</ele><time>2026-04-17T15:35:23.999Z</time></trkpt><trkpt lat="42.422215536908126" lon="14.149303625038284"><ele>28.0</ele><time>2026-04-17T15:35:24.999Z</time></trkpt><trkpt lat="42.4223544214743" lon="14.149386844987436"><ele>29.333333333333336</ele><time>2026-04-17T15:35:25.999Z</time></trkpt><trkpt lat="42.42251627658172" lon="14.149425141166212"><ele>30.666666666666664</ele><time>2026-04-17T15:35:26.999Z</time></trkpt><trkpt lat="42.422689561374426" lon="14.149432479533273"><ele>32.0</ele><time>2026-04-17T15:35:27.999Z</time></trkpt><trkpt lat="42.422864507011454" lon="14.14942614896406"><ele>34.33333333333333</ele><time>2026-04-17T15:35:28.999Z</time></trkpt><trkpt lat="42.42304286792953" lon="14.149416460025396"><ele>36.666666666666664</ele><time>2026-04-17T15:35:29.999Z</time></trkpt><trkpt lat="42.423226251767176" lon="14.149403062194134"><ele>39.0</ele><time>2026-04-17T15:35:30.999Z</time></trkpt><trkpt lat="42.423409906262144" lon="14.149391681441582"><ele>39.0</ele><time>2026-04-17T15:35:31.999Z</time></trkpt><trkpt lat="42.42359103770021" lon="14.149386111873003"><ele>39.0</ele><time>2026-04-17T15:35:32.999Z</time></trkpt><trkpt lat="42.42377318957575" lon="14.149384652778355"><ele>39.0</ele><time>2026-04-17T15:35:33.999Z</time></trkpt><trkpt lat="42.423962142707694" lon="14.149376150807873"><ele>40.333333333333336</ele><time>2026-04-17T15:35:34.999Z</time></trkpt><trkpt lat="42.42414294815138" lon="14.149369630014869"><ele>41.66666666666667</ele><time>2026-04-17T15:35:35.999Z</time></trkpt><trkpt lat="42.42431576129847" lon="14.149367574002175"><ele>43.0</ele><time>2026-04-17T15:35:36.999Z</time></trkpt><trkpt lat="42.424489833053045" lon="14.149355240296353"><ele>45.333333333333336</ele><time>2026-04-17T15:35:37.999Z</time></trkpt><trkpt lat="42.42466441140947" lon="14.14935501365694"><ele>47.66666666666667</ele><time>2026-04-17T15:35:38.999Z</time></trkpt><trkpt lat="42.424839679144675" lon="14.149352373239942"><ele>50.0</ele><time>2026-04-17T15:35:39.999Z</time></trkpt><trkpt lat="42.42501744236442" lon="14.149342960866438"><ele>50.0</ele><time>2026-04-17T15:35:40.999Z</time></trkpt><trkpt lat="42.425195419266785" lon="14.149332382417406"><ele>50.0</ele><time>2026-04-17T15:35:41.999Z</time></trkpt><trkpt lat="42.42537435450345" lon="14.149324235702734"><ele>50.0</ele><time>2026-04-17T15:35:42.999Z</time></trkpt><trkpt lat="42.42555181929433" lon="14.149318301681415"><ele>51.333333333333336</ele><time>2026-04-17T15:35:43.999Z</time></trkpt><trkpt lat="42.42573404055473" lon="14.149315206726442"><ele>52.66666666666667</ele><time>2026-04-17T15:35:44.999Z</time></trkpt><trkpt lat="42.42591155182359" lon="14.149312819064333"><ele>54.0</ele><time>2026-04-17T15:35:45.999Z</time></trkpt><trkpt lat="42.42609034643216" lon="14.149316156533772"><ele>54.0</ele><time>2026-04-17T15:35:46.999Z</time></trkpt><trkpt lat="42.42626955599306" lon="14.149318065013716"><ele>54.0</ele><time>2026-04-17T15:35:47.999Z</time></trkpt><trkpt lat="42.426445933683" lon="14.149324701781142"><ele>54.0</ele><time>2026-04-17T15:35:48.999Z</time></trkpt><trkpt lat="42.42662499384372" lon="14.149326927945244"><ele>54.66666666666667</ele><time>2026-04-17T15:35:49.999Z</time></trkpt><trkpt lat="42.42680462741432" lon="14.149317027633991"><ele>55.333333333333336</ele><time>2026-04-17T15:35:50.999Z</time></trkpt><trkpt lat="42.426981941871894" lon="14.149303394537569"><ele>56.0</ele><time>2026-04-17T15:35:51.999Z</time></trkpt><trkpt lat="42.42715613058266" lon="14.149278504577694"><ele>57.0</ele><time>2026-04-17T15:35:52.999Z</time></trkpt><trkpt lat="42.42732621854139" lon="14.149233504444133"><ele>58.0</ele><time>2026-04-17T15:35:53.999Z</time></trkpt><trkpt lat="42.427491727719065" lon="14.149165285968868"><ele>59.0</ele><time>2026-04-17T15:35:54.999Z</time></trkpt><trkpt lat="42.42765405604751" lon="14.14908048142108"><ele>58.333333333333336</ele><time>2026-04-17T15:35:55.999Z</time></trkpt><trkpt lat="42.42781711224888" lon="14.149003079206802"><ele>57.66666666666667</ele><time>2026-04-17T15:35:56.999Z</time></trkpt><trkpt lat="42.427981206546264" lon="14.14893635898867"><ele>57.0</ele><time>2026-04-17T15:35:57.999Z</time></trkpt><trkpt lat="42.42814507929571" lon="14.148872630972805"><ele>58.66666666666667</ele><time>2026-04-17T15:35:58.999Z</time></trkpt><trkpt lat="42.428307724558984" lon="14.14880577720016"><ele>60.333333333333336</ele><time>2026-04-17T15:35:59.999Z</time></trkpt><trkpt lat="42.42847072695749" lon="14.148740649834254"><ele>62.0</ele><time>2026-04-17T15:36:00.999Z</time></trkpt><trkpt lat="42.428634512587905" lon="14.14868478787017"><ele>62.0</ele><time>2026-04-17T15:36:01.999Z</time></trkpt><trkpt lat="42.428795730638356" lon="14.148634803334398"><ele>62.0</ele><time>2026-04-17T15:36:02.999Z</time></trkpt><trkpt lat="42.428963104608556" lon="14.148581793551683"><ele>62.0</ele><time>2026-04-17T15:36:03.999Z</time></trkpt><trkpt lat="42.42913032948755" lon="14.148530614724137"><ele>63.0</ele><time>2026-04-17T15:36:04.999Z</time></trkpt><trkpt lat="42.42929933793665" lon="14.148483223497193"><ele>64.0</ele><time>2026-04-17T15:36:05.999Z</time></trkpt><trkpt lat="42.42946986449244" lon="14.148432774482467"><ele>65.0</ele><time>2026-04-17T15:36:06.999Z</time></trkpt><trkpt lat="42.42963498075886" lon="14.148383823557285"><ele>67.0</ele><time>2026-04-17T15:36:07.999Z</time></trkpt><trkpt lat="42.429789574239976" lon="14.148337702894977"><ele>69.0</ele><time>2026-04-17T15:36:08.999Z</time></trkpt><trkpt lat="42.42994457705262" lon="14.148278200759066"><ele>71.0</ele><time>2026-04-17T15:36:09.999Z</time></trkpt><trkpt lat="42.43009677409359" lon="14.148193071948887"><ele>71.33333333333334</ele><time>2026-04-17T15:36:10.999Z</time></trkpt><trkpt lat="42.430249838320606" lon="14.148098878678235"><ele>71.66666666666667</ele><time>2026-04-17T15:36:11.999Z</time></trkpt><trkpt lat="42.43040580985938" lon="14.148007622633115"><ele>72.0</ele><time>2026-04-17T15:36:12.999Z</time></trkpt><trkpt lat="42.4305637968242" lon="14.147916993415635"><ele>74.0</ele><time>2026-04-17T15:36:13.999Z</time></trkpt><trkpt lat="42.43071914804083" lon="14.14782367481172"><ele>76.0</ele><time>2026-04-17T15:36:14.999Z</time></trkpt><trkpt lat="42.4308736249647" lon="14.147720778478423"><ele>78.0</ele><time>2026-04-17T15:36:15.999Z</time></trkpt><trkpt lat="42.43102935724541" lon="14.147613075970263"><ele>78.0</ele><time>2026-04-17T15:36:16.999Z</time></trkpt><trkpt lat="42.43118850893579" lon="14.147515919957057"><ele>78.0</ele><time>2026-04-17T15:36:17.998Z</time></trkpt><trkpt lat="42.4313502984501" lon="14.147430750869425"><ele>78.0</ele><time>2026-04-17T15:36:18.998Z</time></trkpt><trkpt lat="42.43150620478021" lon="14.147342540952115"><ele>83.33333333333333</ele><time>2026-04-17T15:36:19.998Z</time></trkpt><trkpt lat="42.431658982605" lon="14.147241611610443"><ele>88.66666666666666</ele><time>2026-04-17T15:36:20.998Z</time></trkpt><trkpt lat="42.4318105388018" lon="14.147135108225715"><ele>94.0</ele><time>2026-04-17T15:36:21.998Z</time></trkpt><trkpt lat="42.43195339948222" lon="14.147033094667844"><ele>94.0</ele><time>2026-04-17T15:36:22.998Z</time></trkpt><trkpt lat="42.43209394920236" lon="14.146927099338365"><ele>94.0</ele><time>2026-04-17T15:36:23.998Z</time></trkpt><trkpt lat="42.432229430284686" lon="14.146818212410636"><ele>94.0</ele><time>2026-04-17T15:36:24.998Z</time></trkpt><trkpt lat="42.43236692265481" lon="14.146706183875581"><ele>94.0</ele><time>2026-04-17T15:36:25.998Z</time></trkpt><trkpt lat="42.43249784208979" lon="14.146593786238148"><ele>94.0</ele><time>2026-04-17T15:36:26.998Z</time></trkpt><trkpt lat="42.432615468225144" lon="14.14649198221121"><ele>94.0</ele><time>2026-04-17T15:36:27.998Z</time></trkpt><trkpt lat="42.43273272283744" lon="14.146393561238245"><ele>94.0</ele><time>2026-04-17T15:36:28.998Z</time></trkpt><trkpt lat="42.43285623807078" lon="14.146286792056015"><ele>97.0</ele><time>2026-04-17T15:36:29.998Z</time></trkpt><trkpt lat="42.43297119226473" lon="14.146159074064949"><ele>100.0</ele><time>2026-04-17T15:36:30.998Z</time></trkpt><trkpt lat="42.43307741701797" lon="14.146007905759655"><ele>103.0</ele><time>2026-04-17T15:36:31.998Z</time></trkpt><trkpt lat="42.43318527665753" lon="14.1458443824757"><ele>107.33333333333334</ele><time>2026-04-17T15:36:32.998Z</time></trkpt><trkpt lat="42.4332911762896" lon="14.145677171247431"><ele>111.66666666666666</ele><time>2026-04-17T15:36:33.998Z</time></trkpt><trkpt lat="42.433383890548264" lon="14.145510395780132"><ele>116.0</ele><time>2026-04-17T15:36:34.998Z</time></trkpt><trkpt lat="42.433481305433226" lon="14.145334210422215"><ele>116.0</ele><time>2026-04-17T15:36:35.998Z</time></trkpt><trkpt lat="42.4335645615515" lon="14.145145678801708"><ele>116.0</ele><time>2026-04-17T15:36:36.998Z</time></trkpt><trkpt lat="42.43363113887796" lon="14.14494215026812"><ele>116.0</ele><time>2026-04-17T15:36:37.998Z</time></trkpt><trkpt lat="42.43368077166871" lon="14.144746324187526"><ele>116.25</ele><time>2026-04-17T15:36:38.998Z</time></trkpt><trkpt lat="42.433728095510055" lon="14.144568752169548"><ele>116.5</ele><time>2026-04-17T15:36:39.998Z</time></trkpt><trkpt lat="42.43379791449204" lon="14.144426497303446"><ele>116.75</ele><time>2026-04-17T15:36:40.998Z</time></trkpt><trkpt lat="42.43387052127053" lon="14.144288619784074"><ele>117.0</ele><time>2026-04-17T15:36:41.998Z</time></trkpt><trkpt lat="42.43395124453879" lon="14.144119799858135"><ele>115.33333333333334</ele><time>2026-04-17T15:36:42.998Z</time></trkpt><trkpt lat="42.434060980646564" lon="14.143962949024234"><ele>113.66666666666667</ele><time>2026-04-17T15:36:43.998Z</time></trkpt><trkpt lat="42.434161927018785" lon="14.143797297894142"><ele>112.0</ele><time>2026-04-17T15:36:44.998Z</time></trkpt><trkpt lat="42.43425709730453" lon="14.143624694016236"><ele>112.0</ele><time>2026-04-17T15:36:45.998Z</time></trkpt><trkpt lat="42.434357540160796" lon="14.14344476938328"><ele>112.0</ele><time>2026-04-17T15:36:46.998Z</time></trkpt><trkpt lat="42.434456910683174" lon="14.143253743461925"><ele>112.0</ele><time>2026-04-17T15:36:47.998Z</time></trkpt><trkpt lat="42.43454837285081" lon="14.143078649635008"><ele>111.33333333333334</ele><time>2026-04-17T15:36:48.998Z</time></trkpt><trkpt lat="42.43463541649122" lon="14.142908708037496"><ele>110.66666666666666</ele><time>2026-04-17T15:36:49.998Z</time></trkpt><trkpt lat="42.434724782916724" lon="14.14273747399876"><ele>110.0</ele><time>2026-04-17T15:36:50.998Z</time></trkpt><trkpt lat="42.43481933269447" lon="14.142564137012858"><ele>110.0</ele><time>2026-04-17T15:36:51.998Z</time></trkpt><trkpt lat="42.43491387800191" lon="14.142398393114718"><ele>110.0</ele><time>2026-04-17T15:36:52.998Z</time></trkpt><trkpt lat="42.43502050536275" lon="14.142256518756213"><ele>110.0</ele><time>2026-04-17T15:36:53.998Z</time></trkpt><trkpt lat="42.435158084838456" lon="14.1421508994063"><ele>111.5</ele><time>2026-04-17T15:36:54.998Z</time></trkpt><trkpt lat="42.43529231532393" lon="14.142025361422894"><ele>113.0</ele><time>2026-04-17T15:36:55.998Z</time></trkpt><trkpt lat="42.43542490579555" lon="14.141935637307215"><ele>114.5</ele><time>2026-04-17T15:36:56.998Z</time></trkpt><trkpt lat="42.43554105474163" lon="14.14186879689378"><ele>116.0</ele><time>2026-04-17T15:36:57.998Z</time></trkpt><trkpt lat="42.435649342779406" lon="14.141839277184083"><ele>116.25</ele><time>2026-04-17T15:36:58.998Z</time></trkpt><trkpt lat="42.435762568293086" lon="14.141848355796887"><ele>116.5</ele><time>2026-04-17T15:36:59.998Z</time></trkpt><trkpt lat="42.435867859308225" lon="14.141937760850583"><ele>116.75</ele><time>2026-04-17T15:37:00.998Z</time></trkpt><trkpt lat="42.435986737337224" lon="14.141979512894238"><ele>117.0</ele><time>2026-04-17T15:37:01.998Z</time></trkpt><trkpt lat="42.43608714492988" lon="14.14204715097574"><ele>117.0</ele><time>2026-04-17T15:37:02.998Z</time></trkpt><trkpt lat="42.436185865311245" lon="14.142074837012235"><ele>117.0</ele><time>2026-04-17T15:37:03.998Z</time></trkpt><trkpt lat="42.43628684540085" lon="14.14208139881073"><ele>117.0</ele><time>2026-04-17T15:37:04.998Z</time></trkpt><trkpt lat="42.43640890207903" lon="14.142058459037997"><ele>117.0</ele><time>2026-04-17T15:37:05.998Z</time></trkpt><trkpt lat="42.436544782032655" lon="14.142004728505317"><ele>117.75</ele><time>2026-04-17T15:37:07Z</time></trkpt><trkpt lat="42.43667567797761" lon="14.141939392631187"><ele>118.5</ele><time>2026-04-17T15:37:08Z</time></trkpt><trkpt lat="42.436800925644626" lon="14.14188482342113"><ele>119.25</ele><time>2026-04-17T15:37:09Z</time></trkpt><trkpt lat="42.43694345024215" lon="14.141826733449113"><ele>120.0</ele><time>2026-04-17T15:37:10Z</time></trkpt><trkpt lat="42.43707861033786" lon="14.141771499203648"><ele>120.5</ele><time>2026-04-17T15:37:11Z</time></trkpt><trkpt lat="42.43721428815012" lon="14.141735713094286"><ele>121.0</ele><time>2026-04-17T15:37:12Z</time></trkpt><trkpt lat="42.43736054019414" lon="14.141713825081146"><ele>121.5</ele><time>2026-04-17T15:37:13Z</time></trkpt><trkpt lat="42.437520509701585" lon="14.141706019946943"><ele>122.0</ele><time>2026-04-17T15:37:14Z</time></trkpt><trkpt lat="42.43767840424789" lon="14.141701265323633"><ele>122.0</ele><time>2026-04-17T15:37:15Z</time></trkpt><trkpt lat="42.437831819123616" lon="14.141684499344668"><ele>122.0</ele><time>2026-04-17T15:37:16Z</time></trkpt><trkpt lat="42.43799651646259" lon="14.141644402665067"><ele>122.0</ele><time>2026-04-17T15:37:17Z</time></trkpt><trkpt lat="42.438148695753306" lon="14.141590844636092"><ele>124.25</ele><time>2026-04-17T15:37:18Z</time></trkpt><trkpt lat="42.43829191888562" lon="14.141535805379108"><ele>126.5</ele><time>2026-04-17T15:37:19Z</time></trkpt><trkpt lat="42.43843134043169" lon="14.141490925284513"><ele>128.75</ele><time>2026-04-17T15:37:20Z</time></trkpt><trkpt lat="42.43858463538182" lon="14.141458763108883"><ele>131.0</ele><time>2026-04-17T15:37:21Z</time></trkpt><trkpt lat="42.43873157239626" lon="14.141444324080554"><ele>130.75</ele><time>2026-04-17T15:37:22Z</time></trkpt><trkpt lat="42.43887146216133" lon="14.141444224120962"><ele>130.5</ele><time>2026-04-17T15:37:23Z</time></trkpt><trkpt lat="42.43900212460229" lon="14.141486948193425"><ele>130.25</ele><time>2026-04-17T15:37:24Z</time></trkpt><trkpt lat="42.43914000959653" lon="14.141524639953518"><ele>130.0</ele><time>2026-04-17T15:37:25Z</time></trkpt><trkpt lat="42.439262689555775" lon="14.141645303418215"><ele>128.66666666666669</ele><time>2026-04-17T15:37:26Z</time></trkpt><trkpt lat="42.439387986078536" lon="14.141752234522684"><ele>127.33333333333334</ele><time>2026-04-17T15:37:27Z</time></trkpt><trkpt lat="42.4395288175642" lon="14.141848067383963"><ele>126.0</ele><time>2026-04-17T15:37:28Z</time></trkpt><trkpt lat="42.439656552302765" lon="14.141966112741462"><ele>126.0</ele><time>2026-04-17T15:37:29Z</time></trkpt><trkpt lat="42.439780806236925" lon="14.142084470593765"><ele>126.0</ele><time>2026-04-17T15:37:30Z</time></trkpt><trkpt lat="42.43990030446877" lon="14.142192890340635"><ele>126.0</ele><time>2026-04-17T15:37:31Z</time></trkpt><trkpt lat="42.44002290404466" lon="14.142296859747102"><ele>126.0</ele><time>2026-04-17T15:37:32Z</time></trkpt><trkpt lat="42.44014428067437" lon="14.142398262134252"><ele>126.0</ele><time>2026-04-17T15:37:33Z</time></trkpt><trkpt lat="42.44025657161633" lon="14.142490599760428"><ele>126.0</ele><time>2026-04-17T15:37:34Z</time></trkpt><trkpt lat="42.44038019443496" lon="14.142575721093532"><ele>126.0</ele><time>2026-04-17T15:37:35Z</time></trkpt><trkpt lat="42.440519773009896" lon="14.14264937674398"><ele>126.0</ele><time>2026-04-17T15:37:36Z</time></trkpt><trkpt lat="42.44067949970722" lon="14.14270917149322"><ele>128.33333333333334</ele><time>2026-04-17T15:37:37Z</time></trkpt><trkpt lat="42.44084861411915" lon="14.142747573253995"><ele>130.66666666666669</ele><time>2026-04-17T15:37:38Z</time></trkpt><trkpt lat="42.441020210453765" lon="14.142767072176825"><ele>133.0</ele><time>2026-04-17T15:37:39Z</time></trkpt><trkpt lat="42.44118184977862" lon="14.142786601186145"><ele>135.0</ele><time>2026-04-17T15:37:40Z</time></trkpt><trkpt lat="42.44132741019982" lon="14.14286082806283"><ele>137.0</ele><time>2026-04-17T15:37:41Z</time></trkpt><trkpt lat="42.44147024541214" lon="14.142949421567737"><ele>139.0</ele><time>2026-04-17T15:37:42Z</time></trkpt><trkpt lat="42.44161352207984" lon="14.143025365414447"><ele>139.0</ele><time>2026-04-17T15:37:43Z</time></trkpt><trkpt lat="42.44175002959251" lon="14.143112985236936"><ele>139.0</ele><time>2026-04-17T15:37:44Z</time></trkpt><trkpt lat="42.44189244409968" lon="14.143187973036632"><ele>139.0</ele><time>2026-04-17T15:37:45Z</time></trkpt><trkpt lat="42.442035011218216" lon="14.143251351249376"><ele>137.25</ele><time>2026-04-17T15:37:45.999Z</time></trkpt><trkpt lat="42.44217626503797" lon="14.1433137308298"><ele>135.5</ele><time>2026-04-17T15:37:46.999Z</time></trkpt><trkpt lat="42.442306923021434" lon="14.143375944789602"><ele>133.75</ele><time>2026-04-17T15:37:47.999Z</time></trkpt><trkpt lat="42.442422057784235" lon="14.143435770721839"><ele>132.0</ele><time>2026-04-17T15:37:48.999Z</time></trkpt><trkpt lat="42.442518341806675" lon="14.143503722757336"><ele>132.0</ele><time>2026-04-17T15:37:49.999Z</time></trkpt><trkpt lat="42.442594537926" lon="14.143607490167096"><ele>132.0</ele><time>2026-04-17T15:37:50.999Z</time></trkpt><trkpt lat="42.44264603441683" lon="14.143745716156673"><ele>132.0</ele><time>2026-04-17T15:37:51.999Z</time></trkpt><trkpt lat="42.44267351478987" lon="14.143916268248018"><ele>132.0</ele><time>2026-04-17T15:37:52.999Z</time></trkpt><trkpt lat="42.442679228493375" lon="14.144113578227817"><ele>128.0</ele><time>2026-04-17T15:37:53.999Z</time></trkpt><trkpt lat="42.44268160539505" lon="14.144326358427154"><ele>124.0</ele><time>2026-04-17T15:37:54.999Z</time></trkpt><trkpt lat="42.442691630068545" lon="14.144542491008218"><ele>120.0</ele><time>2026-04-17T15:37:55.999Z</time></trkpt><trkpt lat="42.442702485951614" lon="14.14476497118918"><ele>118.33333333333334</ele><time>2026-04-17T15:37:56.999Z</time></trkpt><trkpt lat="42.44272059695796" lon="14.144970454607117"><ele>116.66666666666667</ele><time>2026-04-17T15:37:57.999Z</time></trkpt><trkpt lat="42.44275497452259" lon="14.145179439318799"><ele>115.0</ele><time>2026-04-17T15:37:58.999Z</time></trkpt><trkpt lat="42.442812918889985" lon="14.145390306239593"><ele>115.0</ele><time>2026-04-17T15:37:59.999Z</time></trkpt><trkpt lat="42.442894878883166" lon="14.145593510905442"><ele>115.0</ele><time>2026-04-17T15:38:00.999Z</time></trkpt><trkpt lat="42.442993548407124" lon="14.145788749934022"><ele>115.0</ele><time>2026-04-17T15:38:01.999Z</time></trkpt><trkpt lat="42.44308780161298" lon="14.145978317311235"><ele>118.0</ele><time>2026-04-17T15:38:02.999Z</time></trkpt><trkpt lat="42.443164672090916" lon="14.14616439960106"><ele>121.0</ele><time>2026-04-17T15:38:03.999Z</time></trkpt><trkpt lat="42.443243537152746" lon="14.146327885526068"><ele>124.0</ele><time>2026-04-17T15:38:04.999Z</time></trkpt><trkpt lat="42.44333561735386" lon="14.146467418977824"><ele>127.0</ele><time>2026-04-17T15:38:05.999Z</time></trkpt><trkpt lat="42.443445577648056" lon="14.146585814199648"><ele>127.0</ele><time>2026-04-17T15:38:06.999Z</time></trkpt><trkpt lat="42.44357357756763" lon="14.146674579821408"><ele>127.0</ele><time>2026-04-17T15:38:07.999Z</time></trkpt><trkpt lat="42.443718415102275" lon="14.146731804711667"><ele>127.0</ele><time>2026-04-17T15:38:08.999Z</time></trkpt><trkpt lat="42.44387601371249" lon="14.146777821883399"><ele>126.25</ele><time>2026-04-17T15:38:09.999Z</time></trkpt><trkpt lat="42.444023406241065" lon="14.146813347944837"><ele>125.5</ele><time>2026-04-17T15:38:10.999Z</time></trkpt><trkpt lat="42.44416544044891" lon="14.146860005540944"><ele>124.75</ele><time>2026-04-17T15:38:11.999Z</time></trkpt><trkpt lat="42.44430349506992" lon="14.146903021768155"><ele>124.0</ele><time>2026-04-17T15:38:12.999Z</time></trkpt><trkpt lat="42.444427971412125" lon="14.14691897959939"><ele>124.0</ele><time>2026-04-17T15:38:13.999Z</time></trkpt><trkpt lat="42.444543469362635" lon="14.146896816178137"><ele>124.0</ele><time>2026-04-17T15:38:14.999Z</time></trkpt><trkpt lat="42.44465277203938" lon="14.146856199649012"><ele>124.0</ele><time>2026-04-17T15:38:15.999Z</time></trkpt><trkpt lat="42.44474576327027" lon="14.146730575522893"><ele>124.0</ele><time>2026-04-17T15:38:16.999Z</time></trkpt><trkpt lat="42.44482943115457" lon="14.14659256118861"><ele>124.5</ele><time>2026-04-17T15:38:17.999Z</time></trkpt><trkpt lat="42.44490367396508" lon="14.146432855745665"><ele>125.0</ele><time>2026-04-17T15:38:18.999Z</time></trkpt><trkpt lat="42.44498442154651" lon="14.146269883271252"><ele>125.5</ele><time>2026-04-17T15:38:19.999Z</time></trkpt><trkpt lat="42.44508290260511" lon="14.146104497184496"><ele>126.0</ele><time>2026-04-17T15:38:20.999Z</time></trkpt><trkpt lat="42.44518438272106" lon="14.145932960031864"><ele>126.0</ele><time>2026-04-17T15:38:21.999Z</time></trkpt><trkpt lat="42.445284727103356" lon="14.145755225596899"><ele>126.0</ele><time>2026-04-17T15:38:22.999Z</time></trkpt><trkpt lat="42.44537585293839" lon="14.145579400469277"><ele>126.0</ele><time>2026-04-17T15:38:23.999Z</time></trkpt><trkpt lat="42.4454912464097" lon="14.145437673719577"><ele>124.0</ele><time>2026-04-17T15:38:24.999Z</time></trkpt><trkpt lat="42.44560929054419" lon="14.145300733869512"><ele>122.0</ele><time>2026-04-17T15:38:25.999Z</time></trkpt><trkpt lat="42.44573180870509" lon="14.14517543072562"><ele>120.0</ele><time>2026-04-17T15:38:26.999Z</time></trkpt><trkpt lat="42.44586885464438" lon="14.145065255438855"><ele>120.0</ele><time>2026-04-17T15:38:27.999Z</time></trkpt><trkpt lat="42.44600893470747" lon="14.14496059846868"><ele>120.0</ele><time>2026-04-17T15:38:28.999Z</time></trkpt><trkpt lat="42.44614329559436" lon="14.144847301679727"><ele>120.0</ele><time>2026-04-17T15:38:29.999Z</time></trkpt><trkpt lat="42.446284287713254" lon="14.144796169799127"><ele>120.25</ele><time>2026-04-17T15:38:30.999Z</time></trkpt><trkpt lat="42.446418816071876" lon="14.144734503398958"><ele>120.5</ele><time>2026-04-17T15:38:31.999Z</time></trkpt><trkpt lat="42.44655391334341" lon="14.144693148981215"><ele>120.75</ele><time>2026-04-17T15:38:32.999Z</time></trkpt><trkpt lat="42.44669591359196" lon="14.144632637945302"><ele>121.0</ele><time>2026-04-17T15:38:33.999Z</time></trkpt><trkpt lat="42.44684400940334" lon="14.144599211651432"><ele>121.0</ele><time>2026-04-17T15:38:34.999Z</time></trkpt><trkpt lat="42.44698355991017" lon="14.14456071959484"><ele>121.0</ele><time>2026-04-17T15:38:35.999Z</time></trkpt><trkpt lat="42.44711731615793" lon="14.144529276002384"><ele>121.0</ele><time>2026-04-17T15:38:36.999Z</time></trkpt><trkpt lat="42.44723417198789" lon="14.144500482180286"><ele>121.0</ele><time>2026-04-17T15:38:37.999Z</time></trkpt><trkpt lat="42.44733437748316" lon="14.144489925870824"><ele>122.0</ele><time>2026-04-17T15:38:38.999Z</time></trkpt><trkpt lat="42.4474265164985" lon="14.14453615460601"><ele>123.0</ele><time>2026-04-17T15:38:39.999Z</time></trkpt><trkpt lat="42.447503496455376" lon="14.144629403561103"><ele>124.0</ele><time>2026-04-17T15:38:40.999Z</time></trkpt><trkpt lat="42.44755274651041" lon="14.144741438807491"><ele>125.0</ele><time>2026-04-17T15:38:41.999Z</time></trkpt><trkpt lat="42.447579810032096" lon="14.144881354395803"><ele>126.0</ele><time>2026-04-17T15:38:42.999Z</time></trkpt><trkpt lat="42.44758518897275" lon="14.145043509357894"><ele>126.25</ele><time>2026-04-17T15:38:43.999Z</time></trkpt><trkpt lat="42.44757737743411" lon="14.145221799675099"><ele>126.5</ele><time>2026-04-17T15:38:44.999Z</time></trkpt><trkpt lat="42.44757851818852" lon="14.145381927181905"><ele>126.75</ele><time>2026-04-17T15:38:45.999Z</time></trkpt><trkpt lat="42.44758486678015" lon="14.14553824049256"><ele>127.0</ele><time>2026-04-17T15:38:46.999Z</time></trkpt><trkpt lat="42.44760646468749" lon="14.145696355801233"><ele>127.5</ele><time>2026-04-17T15:38:47.999Z</time></trkpt><trkpt lat="42.44765978055066" lon="14.145840569527476"><ele>128.0</ele><time>2026-04-17T15:38:48.999Z</time></trkpt><trkpt lat="42.44773982240739" lon="14.14596595050468"><ele>128.5</ele><time>2026-04-17T15:38:49.999Z</time></trkpt><trkpt lat="42.44783897984375" lon="14.146077382020907"><ele>129.0</ele><time>2026-04-17T15:38:50.999Z</time></trkpt><trkpt lat="42.44793802790287" lon="14.146173336707202"><ele>132.25</ele><time>2026-04-17T15:38:51.999Z</time></trkpt><trkpt lat="42.448050081278" lon="14.146253821369214"><ele>135.5</ele><time>2026-04-17T15:38:52.999Z</time></trkpt><trkpt lat="42.44817246761788" lon="14.14631704064723"><ele>138.75</ele><time>2026-04-17T15:38:53.999Z</time></trkpt><trkpt lat="42.448291613921825" lon="14.146363537281548"><ele>142.0</ele><time>2026-04-17T15:38:54.999Z</time></trkpt><trkpt lat="42.448414358865584" lon="14.146407867072073"><ele>142.0</ele><time>2026-04-17T15:38:55.999Z</time></trkpt><trkpt lat="42.44854500580238" lon="14.14644124385638"><ele>142.0</ele><time>2026-04-17T15:38:56.999Z</time></trkpt><trkpt lat="42.448668932377814" lon="14.146448880147076"><ele>142.0</ele><time>2026-04-17T15:38:57.999Z</time></trkpt><trkpt lat="42.44879349830051" lon="14.146427717113811"><ele>142.0</ele><time>2026-04-17T15:38:58.999Z</time></trkpt><trkpt lat="42.44891416363016" lon="14.14637854734264"><ele>142.5</ele><time>2026-04-17T15:38:59.999Z</time></trkpt><trkpt lat="42.449027802495095" lon="14.146299192836215"><ele>143.0</ele><time>2026-04-17T15:39:00.999Z</time></trkpt><trkpt lat="42.44913289418711" lon="14.146217316899785"><ele>143.5</ele><time>2026-04-17T15:39:01.999Z</time></trkpt><trkpt lat="42.449206762274784" lon="14.146062731340722"><ele>144.0</ele><time>2026-04-17T15:39:02.999Z</time></trkpt><trkpt lat="42.449280981272025" lon="14.145916591836535"><ele>144.0</ele><time>2026-04-17T15:39:03.999Z</time></trkpt><trkpt lat="42.449361349467175" lon="14.145764268663351"><ele>144.0</ele><time>2026-04-17T15:39:04.999Z</time></trkpt><trkpt lat="42.449447853904324" lon="14.14560857137729"><ele>144.0</ele><time>2026-04-17T15:39:05.999Z</time></trkpt><trkpt lat="42.44953557461609" lon="14.145444954292458"><ele>144.0</ele><time>2026-04-17T15:39:06.999Z</time></trkpt><trkpt lat="42.449619286922136" lon="14.145278153723382"><ele>143.5</ele><time>2026-04-17T15:39:07.999Z</time></trkpt><trkpt lat="42.44969275400399" lon="14.14511998627504"><ele>143.0</ele><time>2026-04-17T15:39:08.999Z</time></trkpt><trkpt lat="42.449749766528996" lon="14.144955616953993"><ele>142.5</ele><time>2026-04-17T15:39:09.999Z</time></trkpt><trkpt lat="42.44980584139207" lon="14.14477565972127"><ele>142.0</ele><time>2026-04-17T15:39:10.999Z</time></trkpt><trkpt lat="42.44986210310055" lon="14.144604003321078"><ele>142.0</ele><time>2026-04-17T15:39:11.999Z</time></trkpt><trkpt lat="42.44990797082467" lon="14.144428233461703"><ele>142.0</ele><time>2026-04-17T15:39:13.001Z</time></trkpt><trkpt lat="42.44994052556692" lon="14.144236738973532"><ele>142.0</ele><time>2026-04-17T15:39:14.001Z</time></trkpt><trkpt lat="42.449959831740976" lon="14.144039484687454"><ele>142.0</ele><time>2026-04-17T15:39:15.001Z</time></trkpt><trkpt lat="42.449949245111156" lon="14.143842765520175"><ele>141.0</ele><time>2026-04-17T15:39:16.001Z</time></trkpt><trkpt lat="42.449927417433535" lon="14.143639402119533"><ele>140.0</ele><time>2026-04-17T15:39:17.001Z</time></trkpt><trkpt lat="42.4499051035866" lon="14.143448033240354"><ele>139.0</ele><time>2026-04-17T15:39:18.001Z</time></trkpt><trkpt lat="42.4498902340283" lon="14.143261683164447"><ele>138.0</ele><time>2026-04-17T15:39:19.001Z</time></trkpt><trkpt lat="42.449872234107914" lon="14.143082836826293"><ele>137.75</ele><time>2026-04-17T15:39:20.001Z</time></trkpt><trkpt lat="42.449841681957416" lon="14.14290116971838"><ele>137.5</ele><time>2026-04-17T15:39:21.001Z</time></trkpt><trkpt lat="42.44979129753868" lon="14.142729201606347"><ele>137.25</ele><time>2026-04-17T15:39:22.001Z</time></trkpt><trkpt lat="42.44972468316043" lon="14.142555705177086"><ele>137.0</ele><time>2026-04-17T15:39:23.001Z</time></trkpt><trkpt lat="42.449660771651835" lon="14.142391202803992"><ele>139.2</ele><time>2026-04-17T15:39:24Z</time></trkpt><trkpt lat="42.44960275234173" lon="14.14224854241043"><ele>141.39999999999998</ele><time>2026-04-17T15:39:25Z</time></trkpt><trkpt lat="42.449551114463134" lon="14.142118203743536"><ele>143.60000000000002</ele><time>2026-04-17T15:39:26Z</time></trkpt><trkpt lat="42.44954318907418" lon="14.141992541138316"><ele>145.8</ele><time>2026-04-17T15:39:27Z</time></trkpt><trkpt lat="42.449539666158884" lon="14.141879788053068"><ele>148.0</ele><time>2026-04-17T15:39:28Z</time></trkpt><trkpt lat="42.44959379274993" lon="14.141767324839575"><ele>147.25</ele><time>2026-04-17T15:39:29Z</time></trkpt><trkpt lat="42.449677156564604" lon="14.141667391057252"><ele>146.5</ele><time>2026-04-17T15:39:30Z</time></trkpt><trkpt lat="42.44978335336539" lon="14.141579263656453"><ele>145.75</ele><time>2026-04-17T15:39:31Z</time></trkpt><trkpt lat="42.44989384328755" lon="14.141507529582574"><ele>145.0</ele><time>2026-04-17T15:39:32Z</time></trkpt><trkpt lat="42.45000144097301" lon="14.1414460754982"><ele>145.0</ele><time>2026-04-17T15:39:33Z</time></trkpt><trkpt lat="42.450118693557236" lon="14.141385158869628"><ele>145.0</ele><time>2026-04-17T15:39:34Z</time></trkpt><trkpt lat="42.45023774643776" lon="14.141334757071904"><ele>145.0</ele><time>2026-04-17T15:39:35Z</time></trkpt><trkpt lat="42.45036689274797" lon="14.141306315671493"><ele>145.0</ele><time>2026-04-17T15:39:36Z</time></trkpt><trkpt lat="42.4504912131016" lon="14.141264187435285"><ele>146.25</ele><time>2026-04-17T15:39:37Z</time></trkpt><trkpt lat="42.450607817230946" lon="14.141221631006418"><ele>147.5</ele><time>2026-04-17T15:39:38Z</time></trkpt><trkpt lat="42.45072822511414" lon="14.141182556385862"><ele>148.75</ele><time>2026-04-17T15:39:39Z</time></trkpt><trkpt lat="42.45085716994503" lon="14.141140088580043"><ele>150.0</ele><time>2026-04-17T15:39:40Z</time></trkpt><trkpt lat="42.4509899424057" lon="14.141093314367675"><ele>150.0</ele><time>2026-04-17T15:39:41Z</time></trkpt><trkpt lat="42.45111710546716" lon="14.141027130713086"><ele>150.0</ele><time>2026-04-17T15:39:42Z</time></trkpt><trkpt lat="42.451235013967334" lon="14.140989833992343"><ele>150.0</ele><time>2026-04-17T15:39:43Z</time></trkpt><trkpt lat="42.45134310755437" lon="14.140957950691202"><ele>150.0</ele><time>2026-04-17T15:39:44Z</time></trkpt><trkpt lat="42.451443403038404" lon="14.140929310889366"><ele>150.33333333333334</ele><time>2026-04-17T15:39:45Z</time></trkpt><trkpt lat="42.451545666240044" lon="14.140921580440153"><ele>150.66666666666666</ele><time>2026-04-17T15:39:46Z</time></trkpt><trkpt lat="42.45163804853046" lon="14.14090846492396"><ele>151.0</ele><time>2026-04-17T15:39:47Z</time></trkpt><trkpt lat="42.451718325144434" lon="14.140898343908846"><ele>151.33333333333331</ele><time>2026-04-17T15:39:48Z</time></trkpt><trkpt lat="42.45179380946044" lon="14.140866623504373"><ele>151.66666666666666</ele><time>2026-04-17T15:39:49Z</time></trkpt><trkpt lat="42.451881205894466" lon="14.140871126432831"><ele>152.0</ele><time>2026-04-17T15:39:50Z</time></trkpt><trkpt lat="42.45198282737511" lon="14.140850146823707"><ele>152.0</ele><time>2026-04-17T15:39:51Z</time></trkpt><trkpt lat="42.45209610669968" lon="14.140827093367484"><ele>152.0</ele><time>2026-04-17T15:39:52Z</time></trkpt><trkpt lat="42.45222816795272" lon="14.140801167729192"><ele>152.0</ele><time>2026-04-17T15:39:53Z</time></trkpt><trkpt lat="42.452363865946104" lon="14.140722521389728"><ele>152.0</ele><time>2026-04-17T15:39:54Z</time></trkpt><trkpt lat="42.45249199019586" lon="14.140695827067834"><ele>152.0</ele><time>2026-04-17T15:39:55Z</time></trkpt><trkpt lat="42.452628434786035" lon="14.140670265135627"><ele>152.0</ele><time>2026-04-17T15:39:56Z</time></trkpt><trkpt lat="42.4527494432809" lon="14.140650220412631"><ele>152.0</ele><time>2026-04-17T15:39:57Z</time></trkpt><trkpt lat="42.452839657003814" lon="14.140631340138786"><ele>152.0</ele><time>2026-04-17T15:39:58Z</time></trkpt><trkpt lat="42.452905864799135" lon="14.14061106237704"><ele>152.0</ele><time>2026-04-17T15:39:59Z</time></trkpt><trkpt lat="42.45297848273355" lon="14.140590654914632"><ele>154.42857142857142</ele><time>2026-04-17T15:40:01Z</time></trkpt><trkpt lat="42.45304772987551" lon="14.140577921994565"><ele>156.85714285714286</ele><time>2026-04-17T15:40:03Z</time></trkpt><trkpt lat="42.45311467719361" lon="14.140562374287407"><ele>159.28571428571428</ele><time>2026-04-17T15:40:04Z</time></trkpt><trkpt lat="42.453183695011525" lon="14.140526581484913"><ele>161.71428571428572</ele><time>2026-04-17T15:40:05Z</time></trkpt><trkpt lat="42.45323594771074" lon="14.140478348024299"><ele>164.14285714285714</ele><time>2026-04-17T15:40:06Z</time></trkpt><trkpt lat="42.45329262911867" lon="14.140431164541297"><ele>166.57142857142858</ele><time>2026-04-17T15:40:07Z</time></trkpt><trkpt lat="42.45335899927124" lon="14.140395836642165"><ele>169.0</ele><time>2026-04-17T15:40:08Z</time></trkpt><trkpt lat="42.45342321714636" lon="14.140362160455336"><ele>169.0</ele><time>2026-04-17T15:40:09Z</time></trkpt><trkpt lat="42.453480985699564" lon="14.140324142532137"><ele>169.0</ele><time>2026-04-17T15:40:10Z</time></trkpt><trkpt lat="42.453581751335676" lon="14.140269914905234"><ele>169.0</ele><time>2026-04-17T15:40:12Z</time></trkpt><trkpt lat="42.45369126664243" lon="14.140212564350323"><ele>169.0</ele><time>2026-04-17T15:40:14Z</time></trkpt><trkpt lat="42.45375208097578" lon="14.140175575629385"><ele>169.0</ele><time>2026-04-17T15:40:15Z</time></trkpt><trkpt lat="42.45381571950543" lon="14.140125428018315"><ele>169.0</ele><time>2026-04-17T15:40:16Z</time></trkpt><trkpt lat="42.45387109162381" lon="14.14006538440014"><ele>169.6</ele><time>2026-04-17T15:40:17Z</time></trkpt><trkpt lat="42.453912931328546" lon="14.139996103976914"><ele>170.2</ele><time>2026-04-17T15:40:18Z</time></trkpt><trkpt lat="42.453958669982164" lon="14.1398942259648"><ele>170.79999999999998</ele><time>2026-04-17T15:40:19Z</time></trkpt><trkpt lat="42.45403653783154" lon="14.139770306067678"><ele>171.39999999999998</ele><time>2026-04-17T15:40:20Z</time></trkpt><trkpt lat="42.45411827413966" lon="14.139602029551325"><ele>172.0</ele><time>2026-04-17T15:40:21Z</time></trkpt><trkpt lat="42.45419715836172" lon="14.139439624715411"><ele>172.5</ele><time>2026-04-17T15:40:22Z</time></trkpt><trkpt lat="42.45426009994339" lon="14.139286441501511"><ele>173.0</ele><time>2026-04-17T15:40:23Z</time></trkpt><trkpt lat="42.45433489122975" lon="14.139154365693603"><ele>173.5</ele><time>2026-04-17T15:40:24Z</time></trkpt><trkpt lat="42.454397453372884" lon="14.13903188640596"><ele>174.0</ele><time>2026-04-17T15:40:24.999Z</time></trkpt><trkpt lat="42.45445600724577" lon="14.138919581080991"><ele>173.75</ele><time>2026-04-17T15:40:25.999Z</time></trkpt><trkpt lat="42.45453215154949" lon="14.138814196086415"><ele>173.5</ele><time>2026-04-17T15:40:26.999Z</time></trkpt><trkpt lat="42.45460701998909" lon="14.138689625516282"><ele>173.25</ele><time>2026-04-17T15:40:27.999Z</time></trkpt><trkpt lat="42.45467318113013" lon="14.13855114375978"><ele>173.0</ele><time>2026-04-17T15:40:28.999Z</time></trkpt><trkpt lat="42.454747676576616" lon="14.13844010006229"><ele>173.0</ele><time>2026-04-17T15:40:29.999Z</time></trkpt><trkpt lat="42.45481216086457" lon="14.138320844449442"><ele>173.0</ele><time>2026-04-17T15:40:30.999Z</time></trkpt><trkpt lat="42.454887993588144" lon="14.138200094319949"><ele>173.0</ele><time>2026-04-17T15:40:31.999Z</time></trkpt><trkpt lat="42.454956824315516" lon="14.138081407859831"><ele>173.0</ele><time>2026-04-17T15:40:32.999Z</time></trkpt><trkpt lat="42.45501119358179" lon="14.137960791491025"><ele>173.0</ele><time>2026-04-17T15:40:33.999Z</time></trkpt><trkpt lat="42.455051044083774" lon="14.137812720725949"><ele>173.0</ele><time>2026-04-17T15:40:34.999Z</time></trkpt><trkpt lat="42.455060956209905" lon="14.1376692985303"><ele>173.0</ele><time>2026-04-17T15:40:35.999Z</time></trkpt><trkpt lat="42.455058510963816" lon="14.137540976245209"><ele>173.0</ele><time>2026-04-17T15:40:36.999Z</time></trkpt><trkpt lat="42.45505093431729" lon="14.137421341684336"><ele>173.0</ele><time>2026-04-17T15:40:37.999Z</time></trkpt><trkpt lat="42.45504451489488" lon="14.13731877805577"><ele>173.0</ele><time>2026-04-17T15:40:38.999Z</time></trkpt><trkpt lat="42.45503667557568" lon="14.137168520917374"><ele>173.0</ele><time>2026-04-17T15:40:40.999Z</time></trkpt><trkpt lat="42.45503815772782" lon="14.137023536759175"><ele>173.0</ele><time>2026-04-17T15:40:42.999Z</time></trkpt><trkpt lat="42.45503248822758" lon="14.136874125907335"><ele>173.0</ele><time>2026-04-17T15:40:44.999Z</time></trkpt><trkpt lat="42.45502540895153" lon="14.136753195734038"><ele>173.0</ele><time>2026-04-17T15:40:46.999Z</time></trkpt><trkpt lat="42.455040520847824" lon="14.136617211615771"><ele>173.0</ele><time>2026-04-17T15:40:48.999Z</time></trkpt><trkpt lat="42.455059934716644" lon="14.136463388508172"><ele>174.16666666666666</ele><time>2026-04-17T15:40:50.999Z</time></trkpt><trkpt lat="42.455117429191745" lon="14.13641224380291"><ele>175.33333333333331</ele><time>2026-04-17T15:40:51.999Z</time></trkpt><trkpt lat="42.45518130946352" lon="14.1363961740707"><ele>176.5</ele><time>2026-04-17T15:40:52.999Z</time></trkpt><trkpt lat="42.455277446878945" lon="14.136369283222047"><ele>177.66666666666666</ele><time>2026-04-17T15:40:54.999Z</time></trkpt><trkpt lat="42.455341622487694" lon="14.136333872607274"><ele>178.83333333333334</ele><time>2026-04-17T15:40:56.999Z</time></trkpt><trkpt lat="42.45541179393154" lon="14.13630195762679"><ele>180.0</ele><time>2026-04-17T15:40:58.999Z</time></trkpt><trkpt lat="42.455503191418096" lon="14.136264332396072"><ele>180.0</ele><time>2026-04-17T15:41:01.999Z</time></trkpt><trkpt lat="42.45556904068347" lon="14.136221893102839"><ele>180.0</ele><time>2026-04-17T15:41:02.999Z</time></trkpt><trkpt lat="42.455658194373086" lon="14.136162919585761"><ele>180.0</ele><time>2026-04-17T15:41:03.999Z</time></trkpt><trkpt lat="42.45573667490977" lon="14.13610767474235"><ele>180.0</ele><time>2026-04-17T15:41:04.999Z</time></trkpt><trkpt lat="42.45581042273251" lon="14.136054597298536"><ele>180.0</ele><time>2026-04-17T15:41:05.999Z</time></trkpt><trkpt lat="42.455883721884334" lon="14.13599711937742"><ele>180.0</ele><time>2026-04-17T15:41:06.999Z</time></trkpt><trkpt lat="42.45594460943001" lon="14.135949017160238"><ele>180.0</ele><time>2026-04-17T15:41:07.999Z</time></trkpt><trkpt lat="42.45603649231618" lon="14.13589165187029"><ele>180.0</ele><time>2026-04-17T15:41:09.999Z</time></trkpt><trkpt lat="42.455970159901455" lon="14.135926561346126"><ele>180.0</ele><time>2026-04-17T15:42:30Z</time></trkpt><trkpt lat="42.45590890013926" lon="14.135971238415872"><ele>180.0</ele><time>2026-04-17T15:42:31Z</time></trkpt><trkpt lat="42.45598613061216" lon="14.136096074339052"><ele>180.0</ele><time>2026-04-17T15:42:33Z</time></trkpt><trkpt lat="42.45608247778509" lon="14.136128992300245"><ele>180.0</ele><time>2026-04-17T15:42:34Z</time></trkpt><trkpt lat="42.45619849602024" lon="14.13616670458491"><ele>180.0</ele><time>2026-04-17T15:42:35Z</time></trkpt><trkpt lat="42.45631055943002" lon="14.136220682465359"><ele>180.0</ele><time>2026-04-17T15:42:36Z</time></trkpt><trkpt lat="42.45641244821412" lon="14.1362636508894"><ele>180.0</ele><time>2026-04-17T15:42:37Z</time></trkpt><trkpt lat="42.456506330300755" lon="14.136284243307884"><ele>180.0</ele><time>2026-04-17T15:42:37.999Z</time></trkpt><trkpt lat="42.456583154476" lon="14.136297572244995"><ele>177.4</ele><time>2026-04-17T15:42:38.999Z</time></trkpt><trkpt lat="42.45666073795362" lon="14.136284222668253"><ele>174.8</ele><time>2026-04-17T15:42:39.999Z</time></trkpt><trkpt lat="42.45673834211147" lon="14.136260771404059"><ele>172.2</ele><time>2026-04-17T15:42:40.999Z</time></trkpt><trkpt lat="42.456820577790374" lon="14.13624549129742"><ele>169.6</ele><time>2026-04-17T15:42:43.999Z</time></trkpt><trkpt lat="42.45690580890038" lon="14.136238285025673"><ele>167.0</ele><time>2026-04-17T15:42:45.999Z</time></trkpt><trkpt lat="42.45703313619602" lon="14.13621354123104"><ele>167.0</ele><time>2026-04-17T15:42:47.999Z</time></trkpt><trkpt lat="42.4571001872367" lon="14.136216544943542"><ele>167.0</ele><time>2026-04-17T15:42:48.999Z</time></trkpt><trkpt lat="42.45717040381518" lon="14.136216069538705"><ele>167.0</ele><time>2026-04-17T15:42:49.999Z</time></trkpt><trkpt lat="42.457234381176" lon="14.136215343490417"><ele>167.0</ele><time>2026-04-17T15:42:50.999Z</time></trkpt><trkpt lat="42.45730232778352" lon="14.136214212252009"><ele>167.0</ele><time>2026-04-17T15:42:51.999Z</time></trkpt><trkpt lat="42.4573763248733" lon="14.13620224956936"><ele>167.0</ele><time>2026-04-17T15:42:52.999Z</time></trkpt><trkpt lat="42.45745112085896" lon="14.136205534398544"><ele>167.0</ele><time>2026-04-17T15:42:53.999Z</time></trkpt><trkpt lat="42.45751942824011" lon="14.136186281155299"><ele>165.5</ele><time>2026-04-17T15:42:54.999Z</time></trkpt><trkpt lat="42.457606273810846" lon="14.136172367964926"><ele>164.0</ele><time>2026-04-17T15:42:56.999Z</time></trkpt><trkpt lat="42.45770335173061" lon="14.136136596147754"><ele>162.5</ele><time>2026-04-17T15:42:59.999Z</time></trkpt><trkpt lat="42.45776866190938" lon="14.13614800185248"><ele>161.0</ele><time>2026-04-17T15:43:02.999Z</time></trkpt><trkpt lat="42.4577500038678" lon="14.136243669755586"><ele>159.5</ele><time>2026-04-17T15:44:20Z</time></trkpt><trkpt lat="42.45769315860499" lon="14.13620424181939"><ele>158.0</ele><time>2026-04-17T15:44:24Z</time></trkpt><trkpt lat="42.45766394893107" lon="14.136300223785087"><ele>158.0</ele><time>2026-04-17T15:44:28Z</time></trkpt><trkpt lat="42.457747166261" lon="14.136193912370395"><ele>158.0</ele><time>2026-04-17T15:44:44.999Z</time></trkpt><trkpt lat="42.457757154961996" lon="14.136290401091792"><ele>158.0</ele><time>2026-04-17T15:45:29.001Z</time></trkpt><trkpt lat="42.457760939203936" lon="14.136187177231417"><ele>158.0</ele><time>2026-04-17T15:46:59.223Z</time></trkpt><trkpt lat="42.457824295297186" lon="14.136249087571011"><ele>158.0</ele><time>2026-04-17T15:47:07.021Z</time></trkpt><trkpt lat="42.45776036077419" lon="14.136279752303468"><ele>158.0</ele><time>2026-04-17T15:47:24.999Z</time></trkpt><trkpt lat="42.45780115939605" lon="14.13635051416625"><ele>158.0</ele><time>2026-04-17T15:47:32.999Z</time></trkpt><trkpt lat="42.45780794239025" lon="14.1362076271308"><ele>158.0</ele><time>2026-04-17T15:48:32.024Z</time></trkpt><trkpt lat="42.4577510462476" lon="14.136272558189512"><ele>158.0</ele><time>2026-04-17T15:49:06.43Z</time></trkpt><trkpt lat="42.45778947921186" lon="14.136180358340098"><ele>158.0</ele><time>2026-04-17T15:49:14.017Z</time></trkpt><trkpt lat="42.45783477472476" lon="14.13625943389303"><ele>158.0</ele><time>2026-04-17T15:49:17.016Z</time></trkpt><trkpt lat="42.45787405837219" lon="14.136336603336723"><ele>158.0</ele><time>2026-04-17T15:49:20.016Z</time></trkpt><trkpt lat="42.45780252623611" lon="14.136388096490442"><ele>158.0</ele><time>2026-04-17T15:49:54.202Z</time></trkpt><trkpt lat="42.45776709903542" lon="14.136211430051599"><ele>158.0</ele><time>2026-04-17T15:50:11.42Z</time></trkpt><trkpt lat="42.45769301863468" lon="14.136210411381306"><ele>158.0</ele><time>2026-04-17T15:50:22.013Z</time></trkpt><trkpt lat="42.45770034956555" lon="14.136343528648455"><ele>158.0</ele><time>2026-04-17T15:50:25.014Z</time></trkpt><trkpt lat="42.45775745940481" lon="14.136165447143606"><ele>158.0</ele><time>2026-04-17T15:55:36.049Z</time></trkpt><trkpt lat="42.45781031564341" lon="14.136228216609029"><ele>158.0</ele><time>2026-04-17T15:55:46.001Z</time></trkpt><trkpt lat="42.45779255573214" lon="14.13631410026378"><ele>158.0</ele><time>2026-04-17T15:56:02.001Z</time></trkpt><trkpt lat="42.457716019979664" lon="14.13633341387748"><ele>158.0</ele><time>2026-04-17T16:04:16Z</time></trkpt><trkpt lat="42.457744467225965" lon="14.136246754106809"><ele>158.0</ele><time>2026-04-17T16:24:07.999Z</time></trkpt><trkpt lat="42.45778437794195" lon="14.135772853115435"><ele>158.00000000000003</ele><time>2026-04-17T16:25:58.018Z</time></trkpt><trkpt lat="42.457745250827216" lon="14.135695649419866"><ele>158.0</ele><time>2026-04-17T16:26:01.016Z</time></trkpt><trkpt lat="42.45778306522424" lon="14.135770157230747"><ele>158.0</ele><time>2026-04-17T16:26:05.018Z</time></trkpt><trkpt lat="42.45781166958557" lon="14.135864679144255"><ele>158.0</ele><time>2026-04-17T16:26:05.999Z</time></trkpt><trkpt lat="42.45781565635662" lon="14.135967937464715"><ele>158.0</ele><time>2026-04-17T16:26:07.999Z</time></trkpt><trkpt lat="42.45779818421511" lon="14.136052163403757"><ele>158.00000000000003</ele><time>2026-04-17T16:26:09.999Z</time></trkpt><trkpt lat="42.457779360171465" lon="14.136140231685342"><ele>158.0</ele><time>2026-04-17T16:26:16.999Z</time></trkpt><trkpt lat="42.45778361137954" lon="14.136237630962418"><ele>158.0</ele><time>2026-04-17T16:26:34.998Z</time></trkpt><trkpt lat="42.45775222269375" lon="14.136109115649669"><ele>158.0</ele><time>2026-04-17T16:27:20.998Z</time></trkpt><trkpt lat="42.4577965781314" lon="14.136176221308451"><ele>158.0</ele><time>2026-04-17T16:27:25.998Z</time></trkpt><trkpt lat="42.45778594215391" lon="14.136047806865207"><ele>158.0</ele><time>2026-04-17T16:31:22.998Z</time></trkpt><trkpt lat="42.45772317437245" lon="14.135994801934851"><ele>158.0</ele><time>2026-04-17T16:31:26.998Z</time></trkpt><trkpt lat="42.4575989920905" lon="14.136016293139917"><ele>158.00000000000003</ele><time>2026-04-17T16:31:28.998Z</time></trkpt><trkpt lat="42.45752443883983" lon="14.136050961176982"><ele>158.0</ele><time>2026-04-17T16:31:29.998Z</time></trkpt><trkpt lat="42.45745483046431" lon="14.136072091588076"><ele>158.0</ele><time>2026-04-17T16:31:30.998Z</time></trkpt><trkpt lat="42.45739411829755" lon="14.136146324646718"><ele>158.0</ele><time>2026-04-17T16:31:31.998Z</time></trkpt><trkpt lat="42.457322317244106" lon="14.13615248210703"><ele>158.0</ele><time>2026-04-17T16:31:32.998Z</time></trkpt><trkpt lat="42.45725727005509" lon="14.136154922470661"><ele>158.00000000000003</ele><time>2026-04-17T16:31:33.998Z</time></trkpt><trkpt lat="42.457182388268485" lon="14.136156258572159"><ele>158.0</ele><time>2026-04-17T16:31:34.998Z</time></trkpt><trkpt lat="42.45710087246777" lon="14.136157649035946"><ele>159.8</ele><time>2026-04-17T16:31:35.998Z</time></trkpt><trkpt lat="42.457006406388196" lon="14.136160497998786"><ele>161.60000000000002</ele><time>2026-04-17T16:31:36.998Z</time></trkpt><trkpt lat="42.456911192221014" lon="14.136174541028206"><ele>163.39999999999998</ele><time>2026-04-17T16:31:38Z</time></trkpt><trkpt lat="42.456814165263495" lon="14.136178128259294"><ele>165.2</ele><time>2026-04-17T16:31:39Z</time></trkpt><trkpt lat="42.45673521609191" lon="14.136219868005858"><ele>167.0</ele><time>2026-04-17T16:31:40Z</time></trkpt><trkpt lat="42.45663759654936" lon="14.136239166338699"><ele>167.0</ele><time>2026-04-17T16:31:41Z</time></trkpt><trkpt lat="42.45653235299705" lon="14.136233638231252"><ele>167.0</ele><time>2026-04-17T16:31:42Z</time></trkpt><trkpt lat="42.4564215542115" lon="14.136203681915267"><ele>167.0</ele><time>2026-04-17T16:31:43Z</time></trkpt><trkpt lat="42.456322515309715" lon="14.136174987274392"><ele>167.0</ele><time>2026-04-17T16:31:44Z</time></trkpt><trkpt lat="42.45624428835888" lon="14.13614808280029"><ele>167.0</ele><time>2026-04-17T16:31:45Z</time></trkpt><trkpt lat="42.45617352548431" lon="14.136117614154818"><ele>170.25</ele><time>2026-04-17T16:31:46Z</time></trkpt><trkpt lat="42.456051116724495" lon="14.136063279007988"><ele>173.5</ele><time>2026-04-17T16:31:48Z</time></trkpt><trkpt lat="42.45599585361151" lon="14.136019768697201"><ele>176.75</ele><time>2026-04-17T16:31:49Z</time></trkpt><trkpt lat="42.45605177578606" lon="14.135791371445864"><ele>180.0</ele><time>2026-04-17T16:31:53Z</time></trkpt><trkpt lat="42.45611408708772" lon="14.135676231891273"><ele>183.5</ele><time>2026-04-17T16:31:54Z</time></trkpt><trkpt lat="42.456172112963095" lon="14.135504858890682"><ele>187.0</ele><time>2026-04-17T16:31:55Z</time></trkpt><trkpt lat="42.4562343638158" lon="14.135330582800663"><ele>190.5</ele><time>2026-04-17T16:31:56Z</time></trkpt><trkpt lat="42.45628915012462" lon="14.135155536224874"><ele>194.0</ele><time>2026-04-17T16:31:57Z</time></trkpt><trkpt lat="42.45633744810417" lon="14.1349892979258"><ele>187.5</ele><time>2026-04-17T16:31:58Z</time></trkpt><trkpt lat="42.456388810660705" lon="14.13482356080457"><ele>181.0</ele><time>2026-04-17T16:31:59Z</time></trkpt><trkpt lat="42.456439068314324" lon="14.134643557237865"><ele>174.5</ele><time>2026-04-17T16:32:00Z</time></trkpt><trkpt lat="42.45651419153607" lon="14.134459685283119"><ele>168.0</ele><time>2026-04-17T16:32:01Z</time></trkpt><trkpt lat="42.456568491481605" lon="14.13425630542596"><ele>168.0</ele><time>2026-04-17T16:32:02Z</time></trkpt><trkpt lat="42.45662455924225" lon="14.134067325688934"><ele>168.0</ele><time>2026-04-17T16:32:03Z</time></trkpt><trkpt lat="42.456684220466414" lon="14.133879456405118"><ele>168.0</ele><time>2026-04-17T16:32:04Z</time></trkpt><trkpt lat="42.45672677687418" lon="14.133673367658455"><ele>168.0</ele><time>2026-04-17T16:32:05Z</time></trkpt><trkpt lat="42.4567620527178" lon="14.133457563495249"><ele>168.0</ele><time>2026-04-17T16:32:06Z</time></trkpt><trkpt lat="42.45679112732799" lon="14.133244446668293"><ele>168.0</ele><time>2026-04-17T16:32:07Z</time></trkpt><trkpt lat="42.45681108237846" lon="14.13304753274713"><ele>167.5</ele><time>2026-04-17T16:32:08Z</time></trkpt><trkpt lat="42.456830797405566" lon="14.132859287125681"><ele>167.0</ele><time>2026-04-17T16:32:09Z</time></trkpt><trkpt lat="42.456859517550186" lon="14.132678076881136"><ele>166.5</ele><time>2026-04-17T16:32:10Z</time></trkpt><trkpt lat="42.45690662796213" lon="14.132501676250312"><ele>166.0</ele><time>2026-04-17T16:32:11Z</time></trkpt><trkpt lat="42.456967156482634" lon="14.132319252342839"><ele>166.0</ele><time>2026-04-17T16:32:12Z</time></trkpt><trkpt lat="42.45703516285857" lon="14.132126580397737"><ele>166.0</ele><time>2026-04-17T16:32:13Z</time></trkpt><trkpt lat="42.457110822316125" lon="14.131941531365785"><ele>166.0</ele><time>2026-04-17T16:32:14Z</time></trkpt><trkpt lat="42.457185164567576" lon="14.13178213870161"><ele>164.0</ele><time>2026-04-17T16:32:15Z</time></trkpt><trkpt lat="42.45726201241999" lon="14.13161195151447"><ele>162.0</ele><time>2026-04-17T16:32:16Z</time></trkpt><trkpt lat="42.457331982673864" lon="14.131433202144644"><ele>160.0</ele><time>2026-04-17T16:32:17Z</time></trkpt><trkpt lat="42.457408584911946" lon="14.131251060562969"><ele>160.0</ele><time>2026-04-17T16:32:18Z</time></trkpt><trkpt lat="42.457482554291424" lon="14.131075216312384"><ele>160.0</ele><time>2026-04-17T16:32:19Z</time></trkpt><trkpt lat="42.45755913217124" lon="14.130913135069983"><ele>160.0</ele><time>2026-04-17T16:32:20Z</time></trkpt><trkpt lat="42.457646283564074" lon="14.130750503115278"><ele>160.0</ele><time>2026-04-17T16:32:21Z</time></trkpt><trkpt lat="42.4577388359863" lon="14.130608279508127"><ele>160.25</ele><time>2026-04-17T16:32:22Z</time></trkpt><trkpt lat="42.45785222162971" lon="14.13048244416798"><ele>160.5</ele><time>2026-04-17T16:32:23Z</time></trkpt><trkpt lat="42.45797668096266" lon="14.130364948575439"><ele>160.75</ele><time>2026-04-17T16:32:23.999Z</time></trkpt><trkpt lat="42.45809288617447" lon="14.130252074623499"><ele>161.0</ele><time>2026-04-17T16:32:24.999Z</time></trkpt><trkpt lat="42.45820238780089" lon="14.130135858221134"><ele>160.75</ele><time>2026-04-17T16:32:25.999Z</time></trkpt><trkpt lat="42.458305017232775" lon="14.1300062609826"><ele>160.5</ele><time>2026-04-17T16:32:26.999Z</time></trkpt><trkpt lat="42.45839992333822" lon="14.129862033033353"><ele>160.25</ele><time>2026-04-17T16:32:27.999Z</time></trkpt><trkpt lat="42.45848884470944" lon="14.129706230698533"><ele>160.0</ele><time>2026-04-17T16:32:28.999Z</time></trkpt><trkpt lat="42.45856684207268" lon="14.129539337906317"><ele>160.0</ele><time>2026-04-17T16:32:29.999Z</time></trkpt><trkpt lat="42.45862621044638" lon="14.129373136193896"><ele>160.0</ele><time>2026-04-17T16:32:30.999Z</time></trkpt><trkpt lat="42.45867631789041" lon="14.129195286299973"><ele>160.0</ele><time>2026-04-17T16:32:31.999Z</time></trkpt><trkpt lat="42.45871267273685" lon="14.129009394857984"><ele>160.0</ele><time>2026-04-17T16:32:32.999Z</time></trkpt><trkpt lat="42.45873278201492" lon="14.128819968937929"><ele>160.75</ele><time>2026-04-17T16:32:33.999Z</time></trkpt><trkpt lat="42.458728516294165" lon="14.128627376964804"><ele>161.5</ele><time>2026-04-17T16:32:34.999Z</time></trkpt><trkpt lat="42.45870495000245" lon="14.128433114177751"><ele>162.25</ele><time>2026-04-17T16:32:35.999Z</time></trkpt><trkpt lat="42.45865188662958" lon="14.128249313590043"><ele>163.0</ele><time>2026-04-17T16:32:36.999Z</time></trkpt><trkpt lat="42.45859099124327" lon="14.128071922229461"><ele>163.0</ele><time>2026-04-17T16:32:37.999Z</time></trkpt><trkpt lat="42.45852653610679" lon="14.127913623533422"><ele>163.0</ele><time>2026-04-17T16:32:38.999Z</time></trkpt><trkpt lat="42.45846224489852" lon="14.127765646964658"><ele>163.0</ele><time>2026-04-17T16:32:39.999Z</time></trkpt><trkpt lat="42.45840047724492" lon="14.127612033527093"><ele>163.0</ele><time>2026-04-17T16:32:40.999Z</time></trkpt><trkpt lat="42.45834468974021" lon="14.127462761208015"><ele>165.0</ele><time>2026-04-17T16:32:41.999Z</time></trkpt><trkpt lat="42.458279813941445" lon="14.127313047189253"><ele>167.0</ele><time>2026-04-17T16:32:42.999Z</time></trkpt><trkpt lat="42.458183989761395" lon="14.12718940441437"><ele>169.0</ele><time>2026-04-17T16:32:43.999Z</time></trkpt><trkpt lat="42.45806995898445" lon="14.12708586909519"><ele>171.0</ele><time>2026-04-17T16:32:44.999Z</time></trkpt><trkpt lat="42.457963830220045" lon="14.126996890200564"><ele>170.0</ele><time>2026-04-17T16:32:45.999Z</time></trkpt><trkpt lat="42.457882445848355" lon="14.126861552907688"><ele>169.0</ele><time>2026-04-17T16:32:46.999Z</time></trkpt><trkpt lat="42.45780115371853" lon="14.126709078298886"><ele>168.0</ele><time>2026-04-17T16:32:47.999Z</time></trkpt><trkpt lat="42.4577126705448" lon="14.126565066704218"><ele>167.0</ele><time>2026-04-17T16:32:48.999Z</time></trkpt><trkpt lat="42.45764127464941" lon="14.126418414984089"><ele>167.0</ele><time>2026-04-17T16:32:49.999Z</time></trkpt><trkpt lat="42.45756887110098" lon="14.126266552076705"><ele>167.0</ele><time>2026-04-17T16:32:50.999Z</time></trkpt><trkpt lat="42.45749329364053" lon="14.126114292120558"><ele>167.0</ele><time>2026-04-17T16:32:51.999Z</time></trkpt><trkpt lat="42.45742317352273" lon="14.125957567728117"><ele>167.0</ele><time>2026-04-17T16:32:52.999Z</time></trkpt><trkpt lat="42.45736229765222" lon="14.125796006923368"><ele>168.75</ele><time>2026-04-17T16:32:53.999Z</time></trkpt><trkpt lat="42.457313835569046" lon="14.125641437775164"><ele>170.5</ele><time>2026-04-17T16:32:54.999Z</time></trkpt><trkpt lat="42.45727831710954" lon="14.125488043010007"><ele>172.25</ele><time>2026-04-17T16:32:55.999Z</time></trkpt><trkpt lat="42.45725267023834" lon="14.125336002867725"><ele>174.0</ele><time>2026-04-17T16:32:56.999Z</time></trkpt><trkpt lat="42.45723224107308" lon="14.125174454715657"><ele>174.0</ele><time>2026-04-17T16:32:57.999Z</time></trkpt><trkpt lat="42.45722622021462" lon="14.125006439348638"><ele>174.0</ele><time>2026-04-17T16:32:58.999Z</time></trkpt><trkpt lat="42.45723223304664" lon="14.124829170350296"><ele>174.0</ele><time>2026-04-17T16:32:59.999Z</time></trkpt><trkpt lat="42.457247562360344" lon="14.12464666857809"><ele>174.0</ele><time>2026-04-17T16:33:00.999Z</time></trkpt><trkpt lat="42.45726819427733" lon="14.124460802877817"><ele>173.25</ele><time>2026-04-17T16:33:01.999Z</time></trkpt><trkpt lat="42.45730026071635" lon="14.124276181585756"><ele>172.5</ele><time>2026-04-17T16:33:02.999Z</time></trkpt><trkpt lat="42.457342975913456" lon="14.124104713432866"><ele>171.75</ele><time>2026-04-17T16:33:03.999Z</time></trkpt><trkpt lat="42.457387491448294" lon="14.123941272648727"><ele>171.0</ele><time>2026-04-17T16:33:04.999Z</time></trkpt><trkpt lat="42.45742168845292" lon="14.123783806890053"><ele>169.25</ele><time>2026-04-17T16:33:05.999Z</time></trkpt><trkpt lat="42.45747802440453" lon="14.123607341329032"><ele>167.5</ele><time>2026-04-17T16:33:06.999Z</time></trkpt><trkpt lat="42.457530102367265" lon="14.12343024731957"><ele>165.75</ele><time>2026-04-17T16:33:07.999Z</time></trkpt><trkpt lat="42.45758452453518" lon="14.123243223585783"><ele>164.0</ele><time>2026-04-17T16:33:08.999Z</time></trkpt><trkpt lat="42.45764110044502" lon="14.123056308641596"><ele>163.5</ele><time>2026-04-17T16:33:09.999Z</time></trkpt><trkpt lat="42.45769621415829" lon="14.122878183456278"><ele>163.0</ele><time>2026-04-17T16:33:10.999Z</time></trkpt><trkpt lat="42.45774930016993" lon="14.122705632407246"><ele>162.5</ele><time>2026-04-17T16:33:11.999Z</time></trkpt><trkpt lat="42.457803732251115" lon="14.122533513022976"><ele>162.0</ele><time>2026-04-17T16:33:12.999Z</time></trkpt><trkpt lat="42.45786310726751" lon="14.122363440138107"><ele>161.5</ele><time>2026-04-17T16:33:13.999Z</time></trkpt><trkpt lat="42.45793414541099" lon="14.122196965841434"><ele>161.0</ele><time>2026-04-17T16:33:14.999Z</time></trkpt><trkpt lat="42.45801249786452" lon="14.12203990682964"><ele>160.5</ele><time>2026-04-17T16:33:15.999Z</time></trkpt><trkpt lat="42.458114431750666" lon="14.121925905620122"><ele>160.0</ele><time>2026-04-17T16:33:16.999Z</time></trkpt><trkpt lat="42.458216165486604" lon="14.121803849120232"><ele>160.0</ele><time>2026-04-17T16:33:17.999Z</time></trkpt><trkpt lat="42.45831591705345" lon="14.12166581802921"><ele>160.0</ele><time>2026-04-17T16:33:18.999Z</time></trkpt><trkpt lat="42.45842246665263" lon="14.121557271134886"><ele>160.0</ele><time>2026-04-17T16:33:19.999Z</time></trkpt><trkpt lat="42.4585299923076" lon="14.121448694464757"><ele>160.0</ele><time>2026-04-17T16:33:20.999Z</time></trkpt><trkpt lat="42.45863775993946" lon="14.121332665410536"><ele>160.0</ele><time>2026-04-17T16:33:21.999Z</time></trkpt><trkpt lat="42.45874348999952" lon="14.121215661666927"><ele>160.0</ele><time>2026-04-17T16:33:22.999Z</time></trkpt><trkpt lat="42.45885581856122" lon="14.121098999249618"><ele>160.0</ele><time>2026-04-17T16:33:23.998Z</time></trkpt><trkpt lat="42.458968372925355" lon="14.120982330084965"><ele>160.0</ele><time>2026-04-17T16:33:24.998Z</time></trkpt><trkpt lat="42.45908249633408" lon="14.12086031956924"><ele>160.0</ele><time>2026-04-17T16:33:25.998Z</time></trkpt><trkpt lat="42.4591942986388" lon="14.120741617648516"><ele>160.0</ele><time>2026-04-17T16:33:26.998Z</time></trkpt><trkpt lat="42.45929913757996" lon="14.120628078952976"><ele>160.0</ele><time>2026-04-17T16:33:27.998Z</time></trkpt><trkpt lat="42.45939987622318" lon="14.120523941115954"><ele>160.0</ele><time>2026-04-17T16:33:28.998Z</time></trkpt><trkpt lat="42.45950311091857" lon="14.12042358331767"><ele>160.0</ele><time>2026-04-17T16:33:29.998Z</time></trkpt><trkpt lat="42.45959705230093" lon="14.12033191452566"><ele>160.0</ele><time>2026-04-17T16:33:30.998Z</time></trkpt><trkpt lat="42.45968029193425" lon="14.120250962274058"><ele>160.0</ele><time>2026-04-17T16:33:31.998Z</time></trkpt><trkpt lat="42.45974290770078" lon="14.120188358780748"><ele>160.0</ele><time>2026-04-17T16:33:32.998Z</time></trkpt><trkpt lat="42.459818551688855" lon="14.120123516944265"><ele>160.0</ele><time>2026-04-17T16:33:34.998Z</time></trkpt><trkpt lat="42.45988022103823" lon="14.120087484926652"><ele>160.0</ele><time>2026-04-17T16:33:37.998Z</time></trkpt><trkpt lat="42.45997083914521" lon="14.12005540201127"><ele>160.0</ele><time>2026-04-17T16:33:40.998Z</time></trkpt><trkpt lat="42.460046608874165" lon="14.120058957691976"><ele>160.0</ele><time>2026-04-17T16:33:41.998Z</time></trkpt><trkpt lat="42.46012427329519" lon="14.120035366014143"><ele>160.0</ele><time>2026-04-17T16:33:42.998Z</time></trkpt><trkpt lat="42.46019158072632" lon="14.1200236418402"><ele>160.0</ele><time>2026-04-17T16:33:44Z</time></trkpt><trkpt lat="42.460259971301134" lon="14.119949789463506"><ele>160.0</ele><time>2026-04-17T16:33:45Z</time></trkpt><trkpt lat="42.46038619800774" lon="14.120053311492526"><ele>160.5</ele><time>2026-04-17T16:33:46Z</time></trkpt><trkpt lat="42.460515297121894" lon="14.120096193840727"><ele>161.0</ele><time>2026-04-17T16:33:47Z</time></trkpt><trkpt lat="42.46065857917206" lon="14.120171398058098"><ele>161.5</ele><time>2026-04-17T16:33:48Z</time></trkpt><trkpt lat="42.4608016324507" lon="14.120219479208638"><ele>162.0</ele><time>2026-04-17T16:33:49Z</time></trkpt><trkpt lat="42.46095984929505" lon="14.120268165531527"><ele>162.0</ele><time>2026-04-17T16:33:50Z</time></trkpt><trkpt lat="42.461128035664835" lon="14.120300366090365"><ele>162.0</ele><time>2026-04-17T16:33:51Z</time></trkpt><trkpt lat="42.46127981528055" lon="14.12033249927637"><ele>162.0</ele><time>2026-04-17T16:33:52Z</time></trkpt><trkpt lat="42.46141465678847" lon="14.120421831536047"><ele>164.33333333333334</ele><time>2026-04-17T16:33:53Z</time></trkpt><trkpt lat="42.46154946926554" lon="14.12053492168778"><ele>166.66666666666669</ele><time>2026-04-17T16:33:54Z</time></trkpt><trkpt lat="42.46170015730086" lon="14.12065472095682"><ele>169.0</ele><time>2026-04-17T16:33:55Z</time></trkpt><trkpt lat="42.461858396061665" lon="14.12075411432188"><ele>168.0</ele><time>2026-04-17T16:33:56Z</time></trkpt><trkpt lat="42.46200775805327" lon="14.120864445975476"><ele>167.0</ele><time>2026-04-17T16:33:57Z</time></trkpt><trkpt lat="42.46215231705795" lon="14.12099991148785"><ele>166.0</ele><time>2026-04-17T16:33:58Z</time></trkpt><trkpt lat="42.46231604873903" lon="14.12111739239735"><ele>166.0</ele><time>2026-04-17T16:33:59Z</time></trkpt><trkpt lat="42.46249067220847" lon="14.121222196821158"><ele>166.0</ele><time>2026-04-17T16:34:00Z</time></trkpt><trkpt lat="42.462658396302174" lon="14.12135302675125"><ele>166.0</ele><time>2026-04-17T16:34:01Z</time></trkpt><trkpt lat="42.462831797510226" lon="14.121485762276492"><ele>162.33333333333334</ele><time>2026-04-17T16:34:02Z</time></trkpt><trkpt lat="42.46299630167031" lon="14.121610213388374"><ele>158.66666666666666</ele><time>2026-04-17T16:34:03Z</time></trkpt><trkpt lat="42.4631516445828" lon="14.121730303151233"><ele>155.0</ele><time>2026-04-17T16:34:04Z</time></trkpt><trkpt lat="42.46330604797989" lon="14.121841060801565"><ele>155.0</ele><time>2026-04-17T16:34:05Z</time></trkpt><trkpt lat="42.46346181372421" lon="14.121946205629802"><ele>155.0</ele><time>2026-04-17T16:34:06Z</time></trkpt><trkpt lat="42.46360797913096" lon="14.122049188671769"><ele>155.0</ele><time>2026-04-17T16:34:07Z</time></trkpt><trkpt lat="42.46372793517711" lon="14.122165503613878"><ele>153.66666666666666</ele><time>2026-04-17T16:34:08Z</time></trkpt><trkpt lat="42.463854220255946" lon="14.122291879405163"><ele>152.33333333333334</ele><time>2026-04-17T16:34:09Z</time></trkpt><trkpt lat="42.46395701021288" lon="14.122451458845962"><ele>151.0</ele><time>2026-04-17T16:34:10Z</time></trkpt><trkpt lat="42.464052300508804" lon="14.12264831408872"><ele>150.33333333333334</ele><time>2026-04-17T16:34:11Z</time></trkpt><trkpt lat="42.464142576714835" lon="14.122843409486496"><ele>149.66666666666666</ele><time>2026-04-17T16:34:12Z</time></trkpt><trkpt lat="42.46421775903637" lon="14.123037085409852"><ele>149.0</ele><time>2026-04-17T16:34:13Z</time></trkpt><trkpt lat="42.46428277362537" lon="14.123257924396194"><ele>149.0</ele><time>2026-04-17T16:34:14Z</time></trkpt><trkpt lat="42.4643392165935" lon="14.123490284667216"><ele>149.0</ele><time>2026-04-17T16:34:15Z</time></trkpt><trkpt lat="42.46441191566445" lon="14.123706436274846"><ele>149.0</ele><time>2026-04-17T16:34:16Z</time></trkpt><trkpt lat="42.46447013907174" lon="14.123911268513465"><ele>147.33333333333331</ele><time>2026-04-17T16:34:17Z</time></trkpt><trkpt lat="42.464546915098545" lon="14.12410223588325"><ele>145.66666666666666</ele><time>2026-04-17T16:34:18Z</time></trkpt><trkpt lat="42.46464914361302" lon="14.124273199791775"><ele>144.0</ele><time>2026-04-17T16:34:19Z</time></trkpt><trkpt lat="42.4647762901968" lon="14.124433650994856"><ele>143.0</ele><time>2026-04-17T16:34:20Z</time></trkpt><trkpt lat="42.4649043122166" lon="14.124566022685606"><ele>142.0</ele><time>2026-04-17T16:34:21Z</time></trkpt><trkpt lat="42.46500410349057" lon="14.12472949596393"><ele>141.0</ele><time>2026-04-17T16:34:22Z</time></trkpt><trkpt lat="42.46510036193508" lon="14.124897200220975"><ele>143.33333333333334</ele><time>2026-04-17T16:34:23Z</time></trkpt><trkpt lat="42.46519834900429" lon="14.125084828728928"><ele>145.66666666666669</ele><time>2026-04-17T16:34:24Z</time></trkpt><trkpt lat="42.46531531104602" lon="14.12526254423124"><ele>148.0</ele><time>2026-04-17T16:34:25Z</time></trkpt><trkpt lat="42.4654115144979" lon="14.125443286841207"><ele>146.33333333333334</ele><time>2026-04-17T16:34:26Z</time></trkpt><trkpt lat="42.46552564251607" lon="14.12559338737567"><ele>144.66666666666666</ele><time>2026-04-17T16:34:27Z</time></trkpt><trkpt lat="42.46564754526054" lon="14.125739888595932"><ele>143.0</ele><time>2026-04-17T16:34:28Z</time></trkpt><trkpt lat="42.465771797135595" lon="14.125883328298787"><ele>143.0</ele><time>2026-04-17T16:34:29Z</time></trkpt><trkpt lat="42.46589490925917" lon="14.126004355439592"><ele>143.0</ele><time>2026-04-17T16:34:30Z</time></trkpt><trkpt lat="42.466026478857025" lon="14.126084424448006"><ele>143.0</ele><time>2026-04-17T16:34:31Z</time></trkpt><trkpt lat="42.46617598499295" lon="14.126132801220034"><ele>140.75</ele><time>2026-04-17T16:34:32Z</time></trkpt><trkpt lat="42.466323732767805" lon="14.126148036628724"><ele>138.5</ele><time>2026-04-17T16:34:33Z</time></trkpt><trkpt lat="42.46646308713173" lon="14.126156322510223"><ele>136.25</ele><time>2026-04-17T16:34:34Z</time></trkpt><trkpt lat="42.46657844908833" lon="14.126174821254963"><ele>134.0</ele><time>2026-04-17T16:34:35Z</time></trkpt><trkpt lat="42.46667656335633" lon="14.126239207950505"><ele>134.0</ele><time>2026-04-17T16:34:36Z</time></trkpt><trkpt lat="42.46676389338951" lon="14.126343703451935"><ele>134.0</ele><time>2026-04-17T16:34:36.999Z</time></trkpt><trkpt lat="42.46684586685321" lon="14.126486087450461"><ele>134.0</ele><time>2026-04-17T16:34:37.999Z</time></trkpt><trkpt lat="42.46693859371265" lon="14.126641060940498"><ele>134.0</ele><time>2026-04-17T16:34:38.999Z</time></trkpt><trkpt lat="42.46701916152505" lon="14.126818339497639"><ele>134.33333333333331</ele><time>2026-04-17T16:34:39.999Z</time></trkpt><trkpt lat="42.467107427340125" lon="14.126995704014059"><ele>134.66666666666666</ele><time>2026-04-17T16:34:40.999Z</time></trkpt><trkpt lat="42.467182735412344" lon="14.12719606214578"><ele>135.0</ele><time>2026-04-17T16:34:41.999Z</time></trkpt><trkpt lat="42.46728763986014" lon="14.127378473235565"><ele>138.33333333333334</ele><time>2026-04-17T16:34:42.999Z</time></trkpt><trkpt lat="42.467372146573915" lon="14.127584123266288"><ele>141.66666666666669</ele><time>2026-04-17T16:34:43.999Z</time></trkpt><trkpt lat="42.46744878461453" lon="14.127795655126178"><ele>145.0</ele><time>2026-04-17T16:34:44.999Z</time></trkpt><trkpt lat="42.467520159599296" lon="14.1280033720168"><ele>145.0</ele><time>2026-04-17T16:34:45.999Z</time></trkpt><trkpt lat="42.46759020554466" lon="14.128205838054624"><ele>145.0</ele><time>2026-04-17T16:34:46.999Z</time></trkpt><trkpt lat="42.467654017505616" lon="14.1283833513724"><ele>145.0</ele><time>2026-04-17T16:34:47.999Z</time></trkpt><trkpt lat="42.46771858771" lon="14.128544082954503"><ele>145.0</ele><time>2026-04-17T16:34:48.999Z</time></trkpt><trkpt lat="42.46779612777791" lon="14.128675206210414"><ele>145.5</ele><time>2026-04-17T16:34:49.999Z</time></trkpt><trkpt lat="42.46789378619593" lon="14.128767663813381"><ele>146.0</ele><time>2026-04-17T16:34:50.999Z</time></trkpt><trkpt lat="42.46801610998457" lon="14.128828385593907"><ele>146.5</ele><time>2026-04-17T16:34:51.999Z</time></trkpt><trkpt lat="42.468154317070834" lon="14.128867586664319"><ele>147.0</ele><time>2026-04-17T16:34:52.999Z</time></trkpt><trkpt lat="42.468307408369405" lon="14.128911017019457"><ele>148.0</ele><time>2026-04-17T16:34:53.999Z</time></trkpt><trkpt lat="42.46846502585493" lon="14.128956988835649"><ele>149.0</ele><time>2026-04-17T16:34:54.999Z</time></trkpt><trkpt lat="42.468626064197316" lon="14.129016771314037"><ele>150.0</ele><time>2026-04-17T16:34:55.999Z</time></trkpt><trkpt lat="42.468794572167546" lon="14.129078648852037"><ele>150.0</ele><time>2026-04-17T16:34:56.999Z</time></trkpt><trkpt lat="42.46895176592623" lon="14.12912561511549"><ele>150.0</ele><time>2026-04-17T16:34:57.999Z</time></trkpt><trkpt lat="42.4691002629623" lon="14.129171968839238"><ele>150.0</ele><time>2026-04-17T16:34:58.999Z</time></trkpt><trkpt lat="42.46924190798158" lon="14.129238730211569"><ele>150.0</ele><time>2026-04-17T16:34:59.999Z</time></trkpt><trkpt lat="42.469384478889744" lon="14.129342428321834"><ele>150.0</ele><time>2026-04-17T16:35:00.999Z</time></trkpt><trkpt lat="42.46952152920295" lon="14.12947680177256"><ele>150.0</ele><time>2026-04-17T16:35:01.999Z</time></trkpt><trkpt lat="42.46966579632131" lon="14.129637930067009"><ele>150.0</ele><time>2026-04-17T16:35:02.999Z</time></trkpt><trkpt lat="42.46980544525228" lon="14.129793385220788"><ele>150.0</ele><time>2026-04-17T16:35:03.999Z</time></trkpt><trkpt lat="42.46993863485575" lon="14.129937539048404"><ele>150.0</ele><time>2026-04-17T16:35:04.999Z</time></trkpt><trkpt lat="42.47007487943131" lon="14.130105374268618"><ele>150.0</ele><time>2026-04-17T16:35:05.999Z</time></trkpt><trkpt lat="42.4702170503037" lon="14.130292566488661"><ele>150.0</ele><time>2026-04-17T16:35:06.999Z</time></trkpt><trkpt lat="42.47037434994476" lon="14.130487472460183"><ele>150.0</ele><time>2026-04-17T16:35:07.999Z</time></trkpt><trkpt lat="42.4705276242205" lon="14.130667832355172"><ele>148.0</ele><time>2026-04-17T16:35:08.999Z</time></trkpt><trkpt lat="42.470671987110926" lon="14.130851755084423"><ele>146.0</ele><time>2026-04-17T16:35:09.999Z</time></trkpt><trkpt lat="42.47081212978611" lon="14.131021104856128"><ele>144.0</ele><time>2026-04-17T16:35:10.999Z</time></trkpt><trkpt lat="42.470955780073304" lon="14.131190920333305"><ele>144.0</ele><time>2026-04-17T16:35:11.999Z</time></trkpt><trkpt lat="42.4710966891672" lon="14.131363140143785"><ele>144.0</ele><time>2026-04-17T16:35:12.999Z</time></trkpt><trkpt lat="42.47122345513785" lon="14.131523192986757"><ele>144.0</ele><time>2026-04-17T16:35:13.999Z</time></trkpt><trkpt lat="42.47134076082454" lon="14.131679803859102"><ele>143.5</ele><time>2026-04-17T16:35:14.999Z</time></trkpt><trkpt lat="42.47144001508691" lon="14.131822196628328"><ele>143.0</ele><time>2026-04-17T16:35:15.999Z</time></trkpt><trkpt lat="42.47150917707346" lon="14.131971979975136"><ele>142.5</ele><time>2026-04-17T16:35:16.999Z</time></trkpt><trkpt lat="42.47152585171107" lon="14.132165009786307"><ele>142.0</ele><time>2026-04-17T16:35:17.999Z</time></trkpt><trkpt lat="42.47153587016352" lon="14.1323791109368"><ele>143.5</ele><time>2026-04-17T16:35:18.999Z</time></trkpt><trkpt lat="42.47155620172042" lon="14.13259248020685"><ele>145.0</ele><time>2026-04-17T16:35:19.999Z</time></trkpt><trkpt lat="42.471572033386096" lon="14.132788614973238"><ele>146.5</ele><time>2026-04-17T16:35:20.999Z</time></trkpt><trkpt lat="42.47161269681351" lon="14.132971173279365"><ele>148.0</ele><time>2026-04-17T16:35:21.999Z</time></trkpt><trkpt lat="42.47167631809558" lon="14.13312472084646"><ele>148.0</ele><time>2026-04-17T16:35:22.999Z</time></trkpt><trkpt lat="42.471760357527856" lon="14.133258103476942"><ele>148.0</ele><time>2026-04-17T16:35:23.999Z</time></trkpt><trkpt lat="42.47186332896343" lon="14.133351092193548"><ele>148.0</ele><time>2026-04-17T16:35:24.999Z</time></trkpt><trkpt lat="42.47198600969374" lon="14.133397286297415"><ele>148.0</ele><time>2026-04-17T16:35:25.999Z</time></trkpt><trkpt lat="42.47212595135093" lon="14.133405584628138"><ele>150.5</ele><time>2026-04-17T16:35:26.999Z</time></trkpt><trkpt lat="42.47226704998965" lon="14.133384631801432"><ele>153.0</ele><time>2026-04-17T16:35:27.999Z</time></trkpt><trkpt lat="42.472391613979234" lon="14.133367438775936"><ele>155.5</ele><time>2026-04-17T16:35:28.999Z</time></trkpt><trkpt lat="42.47251661105405" lon="14.133414845521209"><ele>158.0</ele><time>2026-04-17T16:35:29.999Z</time></trkpt><trkpt lat="42.47261916650752" lon="14.133548092574967"><ele>158.0</ele><time>2026-04-17T16:35:30.999Z</time></trkpt><trkpt lat="42.472735002049745" lon="14.133668054621355"><ele>158.0</ele><time>2026-04-17T16:35:31.999Z</time></trkpt><trkpt lat="42.47284362102327" lon="14.133817766628912"><ele>158.0</ele><time>2026-04-17T16:35:32.999Z</time></trkpt><trkpt lat="42.47297968943495" lon="14.133931913700735"><ele>160.66666666666666</ele><time>2026-04-17T16:35:33.999Z</time></trkpt><trkpt lat="42.47312613436728" lon="14.134030038497126"><ele>163.33333333333334</ele><time>2026-04-17T16:35:34.999Z</time></trkpt><trkpt lat="42.47326297347282" lon="14.134115103511736"><ele>166.0</ele><time>2026-04-17T16:35:35.999Z</time></trkpt><trkpt lat="42.47337539932952" lon="14.13425115801333"><ele>166.0</ele><time>2026-04-17T16:35:36.998Z</time></trkpt><trkpt lat="42.473474209816224" lon="14.134407747033263"><ele>166.0</ele><time>2026-04-17T16:35:37.998Z</time></trkpt><trkpt lat="42.47354489887811" lon="14.134578779683139"><ele>166.0</ele><time>2026-04-17T16:35:38.998Z</time></trkpt><trkpt lat="42.47357821774402" lon="14.13476049132609"><ele>166.0</ele><time>2026-04-17T16:35:39.998Z</time></trkpt><trkpt lat="42.473608742762245" lon="14.134959766807036"><ele>164.0</ele><time>2026-04-17T16:35:40.998Z</time></trkpt><trkpt lat="42.47365886746238" lon="14.135153206196483"><ele>162.0</ele><time>2026-04-17T16:35:41.998Z</time></trkpt><trkpt lat="42.47370622152539" lon="14.135319187630458"><ele>160.0</ele><time>2026-04-17T16:35:42.998Z</time></trkpt><trkpt lat="42.473772808271924" lon="14.135453974748643"><ele>158.0</ele><time>2026-04-17T16:35:43.998Z</time></trkpt><trkpt lat="42.47387145594556" lon="14.135549038920043"><ele>160.0</ele><time>2026-04-17T16:35:44.998Z</time></trkpt><trkpt lat="42.47399344513182" lon="14.13559889536033"><ele>162.0</ele><time>2026-04-17T16:35:45.998Z</time></trkpt><trkpt lat="42.4741371667044" lon="14.135638078760959"><ele>164.0</ele><time>2026-04-17T16:35:46.998Z</time></trkpt><trkpt lat="42.47428247517666" lon="14.135698277581302"><ele>166.0</ele><time>2026-04-17T16:35:47.998Z</time></trkpt><trkpt lat="42.47439712362677" lon="14.135801625212832"><ele>166.0</ele><time>2026-04-17T16:35:48.998Z</time></trkpt><trkpt lat="42.47449957981122" lon="14.135916661815184"><ele>166.0</ele><time>2026-04-17T16:35:50Z</time></trkpt><trkpt lat="42.474600893035664" lon="14.13600350868534"><ele>166.0</ele><time>2026-04-17T16:35:51Z</time></trkpt><trkpt lat="42.47468723748399" lon="14.136085617120882"><ele>166.0</ele><time>2026-04-17T16:35:52Z</time></trkpt><trkpt lat="42.47476959948235" lon="14.136127784514693"><ele>166.0</ele><time>2026-04-17T16:35:53Z</time></trkpt><trkpt lat="42.47484938539631" lon="14.136147361035336"><ele>168.83333333333334</ele><time>2026-04-17T16:35:54Z</time></trkpt><trkpt lat="42.47491961401688" lon="14.136160203611254"><ele>171.66666666666669</ele><time>2026-04-17T16:35:55Z</time></trkpt><trkpt lat="42.47498696034814" lon="14.136178347617713"><ele>174.5</ele><time>2026-04-17T16:35:56Z</time></trkpt><trkpt lat="42.4750629949808" lon="14.136204704276405"><ele>177.33333333333334</ele><time>2026-04-17T16:35:57Z</time></trkpt><trkpt lat="42.47513536197029" lon="14.136242645021378"><ele>180.16666666666666</ele><time>2026-04-17T16:35:58Z</time></trkpt><trkpt lat="42.47519973112109" lon="14.136332576826348"><ele>183.0</ele><time>2026-04-17T16:35:59Z</time></trkpt><trkpt lat="42.47526412565779" lon="14.136446006297724"><ele>183.0</ele><time>2026-04-17T16:36:00Z</time></trkpt><trkpt lat="42.47533247667864" lon="14.136542465610727"><ele>183.0</ele><time>2026-04-17T16:36:01Z</time></trkpt><trkpt lat="42.47538437664281" lon="14.136636968294368"><ele>183.0</ele><time>2026-04-17T16:36:02Z</time></trkpt><trkpt lat="42.47545974595903" lon="14.136729540281456"><ele>183.0</ele><time>2026-04-17T16:36:03Z</time></trkpt><trkpt lat="42.47556207456068" lon="14.136804819218556"><ele>183.0</ele><time>2026-04-17T16:36:04Z</time></trkpt><trkpt lat="42.475683579045345" lon="14.13687308398561"><ele>183.0</ele><time>2026-04-17T16:36:05Z</time></trkpt><trkpt lat="42.47579031448132" lon="14.136960318185904"><ele>183.0</ele><time>2026-04-17T16:36:06Z</time></trkpt><trkpt lat="42.475895949487835" lon="14.137003967506988"><ele>183.0</ele><time>2026-04-17T16:36:07Z</time></trkpt><trkpt lat="42.475987965272914" lon="14.137071598317405"><ele>183.0</ele><time>2026-04-17T16:36:08Z</time></trkpt><trkpt lat="42.476089341372955" lon="14.137131134258672"><ele>183.0</ele><time>2026-04-17T16:36:09Z</time></trkpt><trkpt lat="42.47618578162082" lon="14.13719019261964"><ele>183.0</ele><time>2026-04-17T16:36:10Z</time></trkpt><trkpt lat="42.47628480303486" lon="14.13724702919051"><ele>183.0</ele><time>2026-04-17T16:36:11Z</time></trkpt><trkpt lat="42.47638852813342" lon="14.137307106260867"><ele>183.0</ele><time>2026-04-17T16:36:12Z</time></trkpt><trkpt lat="42.476494303331414" lon="14.137365851301054"><ele>183.0</ele><time>2026-04-17T16:36:13Z</time></trkpt><trkpt lat="42.476604779935144" lon="14.13741188670242"><ele>182.8</ele><time>2026-04-17T16:36:14Z</time></trkpt><trkpt lat="42.47671719341588" lon="14.137436659691186"><ele>182.60000000000002</ele><time>2026-04-17T16:36:15Z</time></trkpt><trkpt lat="42.47683410336807" lon="14.137453315421109"><ele>182.39999999999998</ele><time>2026-04-17T16:36:16Z</time></trkpt><trkpt lat="42.47694297318417" lon="14.137461862671287"><ele>182.2</ele><time>2026-04-17T16:36:17Z</time></trkpt><trkpt lat="42.47704994206563" lon="14.137463701260403"><ele>182.0</ele><time>2026-04-17T16:36:18Z</time></trkpt><trkpt lat="42.47715727939789" lon="14.137467610039485"><ele>182.0</ele><time>2026-04-17T16:36:19Z</time></trkpt><trkpt lat="42.477268769913664" lon="14.13746653013152"><ele>182.0</ele><time>2026-04-17T16:36:20Z</time></trkpt><trkpt lat="42.47738450479096" lon="14.13745464857831"><ele>182.0</ele><time>2026-04-17T16:36:21Z</time></trkpt><trkpt lat="42.47750943259908" lon="14.137430302868804"><ele>182.0</ele><time>2026-04-17T16:36:22Z</time></trkpt><trkpt lat="42.477632503607985" lon="14.137379959921981"><ele>180.0</ele><time>2026-04-17T16:36:23Z</time></trkpt><trkpt lat="42.47774951746561" lon="14.137325284841904"><ele>178.0</ele><time>2026-04-17T16:36:24Z</time></trkpt><trkpt lat="42.47786232777711" lon="14.137269813624762"><ele>176.0</ele><time>2026-04-17T16:36:25Z</time></trkpt><trkpt lat="42.477974122303735" lon="14.13722262293213"><ele>174.0</ele><time>2026-04-17T16:36:26Z</time></trkpt><trkpt lat="42.47807974615734" lon="14.137185090498013"><ele>172.79999999999998</ele><time>2026-04-17T16:36:27Z</time></trkpt><trkpt lat="42.47817115216103" lon="14.13717028396557"><ele>171.6</ele><time>2026-04-17T16:36:28Z</time></trkpt><trkpt lat="42.47826162070705" lon="14.137198824252945"><ele>170.4</ele><time>2026-04-17T16:36:29Z</time></trkpt><trkpt lat="42.478352224613516" lon="14.137229918306975"><ele>169.2</ele><time>2026-04-17T16:36:30Z</time></trkpt><trkpt lat="42.47845342108947" lon="14.137248131107976"><ele>168.0</ele><time>2026-04-17T16:36:31Z</time></trkpt><trkpt lat="42.47854927154545" lon="14.137296840666249"><ele>168.0</ele><time>2026-04-17T16:36:32Z</time></trkpt><trkpt lat="42.47864351756993" lon="14.137320841541406"><ele>168.0</ele><time>2026-04-17T16:36:33Z</time></trkpt><trkpt lat="42.478746125271506" lon="14.137319117823077"><ele>168.0</ele><time>2026-04-17T16:36:34Z</time></trkpt><trkpt lat="42.478858891540554" lon="14.13728493826097"><ele>168.0</ele><time>2026-04-17T16:36:35Z</time></trkpt><trkpt lat="42.47896419287159" lon="14.13722652727311"><ele>168.0</ele><time>2026-04-17T16:36:36Z</time></trkpt><trkpt lat="42.479060705763466" lon="14.137157501056747"><ele>167.75</ele><time>2026-04-17T16:36:37Z</time></trkpt><trkpt lat="42.47915770301209" lon="14.137091155282958"><ele>167.5</ele><time>2026-04-17T16:36:38Z</time></trkpt><trkpt lat="42.47925020990435" lon="14.13702024192754"><ele>167.25</ele><time>2026-04-17T16:36:39Z</time></trkpt><trkpt lat="42.47933299702208" lon="14.136912777736063"><ele>167.0</ele><time>2026-04-17T16:36:40Z</time></trkpt><trkpt lat="42.47940075157265" lon="14.136775464206078"><ele>167.0</ele><time>2026-04-17T16:36:41Z</time></trkpt><trkpt lat="42.479464521225054" lon="14.136631369068313"><ele>167.0</ele><time>2026-04-17T16:36:42Z</time></trkpt><trkpt lat="42.47952606654908" lon="14.136499724028257"><ele>167.0</ele><time>2026-04-17T16:36:43Z</time></trkpt><trkpt lat="42.47959609356562" lon="14.136386687570878"><ele>167.0</ele><time>2026-04-17T16:36:44Z</time></trkpt><trkpt lat="42.4796745944899" lon="14.136288181591215"><ele>166.6</ele><time>2026-04-17T16:36:45Z</time></trkpt><trkpt lat="42.4797575568839" lon="14.13619746169369"><ele>166.2</ele><time>2026-04-17T16:36:46Z</time></trkpt><trkpt lat="42.479838695500376" lon="14.136104724434345"><ele>165.8</ele><time>2026-04-17T16:36:47Z</time></trkpt><trkpt lat="42.479900041383004" lon="14.135986835654032"><ele>165.4</ele><time>2026-04-17T16:36:48Z</time></trkpt><trkpt lat="42.479944612549964" lon="14.135853703274526"><ele>165.0</ele><time>2026-04-17T16:36:48.999Z</time></trkpt><trkpt lat="42.47998037861168" lon="14.135708494265584"><ele>163.4</ele><time>2026-04-17T16:36:49.999Z</time></trkpt><trkpt lat="42.48000522447614" lon="14.135562950765252"><ele>161.8</ele><time>2026-04-17T16:36:50.999Z</time></trkpt><trkpt lat="42.480032289877414" lon="14.135425845019574"><ele>160.2</ele><time>2026-04-17T16:36:51.999Z</time></trkpt><trkpt lat="42.480072598022" lon="14.135303478432744"><ele>158.6</ele><time>2026-04-17T16:36:52.999Z</time></trkpt><trkpt lat="42.48013353453252" lon="14.135192889595677"><ele>157.0</ele><time>2026-04-17T16:36:53.999Z</time></trkpt><trkpt lat="42.48020084820661" lon="14.135101004622081"><ele>157.0</ele><time>2026-04-17T16:36:54.999Z</time></trkpt><trkpt lat="42.48027246037134" lon="14.135017367820618"><ele>157.0</ele><time>2026-04-17T16:36:55.999Z</time></trkpt><trkpt lat="42.48036689551657" lon="14.134954196677166"><ele>157.0</ele><time>2026-04-17T16:36:56.999Z</time></trkpt><trkpt lat="42.480452073204034" lon="14.134884852191563"><ele>157.0</ele><time>2026-04-17T16:36:57.999Z</time></trkpt><trkpt lat="42.48054113924875" lon="14.134817882647448"><ele>157.0</ele><time>2026-04-17T16:36:58.999Z</time></trkpt><trkpt lat="42.480625913312565" lon="14.134758604038234"><ele>157.2</ele><time>2026-04-17T16:36:59.999Z</time></trkpt><trkpt lat="42.480721286856344" lon="14.134774398604083"><ele>157.39999999999998</ele><time>2026-04-17T16:37:00.999Z</time></trkpt><trkpt lat="42.48080675667939" lon="14.13480847291194"><ele>157.60000000000002</ele><time>2026-04-17T16:37:01.999Z</time></trkpt><trkpt lat="42.480886344420476" lon="14.13488884348701"><ele>157.8</ele><time>2026-04-17T16:37:02.999Z</time></trkpt><trkpt lat="42.480972910839824" lon="14.134984131297779"><ele>158.0</ele><time>2026-04-17T16:37:03.999Z</time></trkpt><trkpt lat="42.48104793051884" lon="14.135098299860065"><ele>158.0</ele><time>2026-04-17T16:37:04.999Z</time></trkpt><trkpt lat="42.481107093239245" lon="14.13522289807036"><ele>158.0</ele><time>2026-04-17T16:37:05.999Z</time></trkpt><trkpt lat="42.48116582476374" lon="14.13535023686168"><ele>158.0</ele><time>2026-04-17T16:37:06.999Z</time></trkpt><trkpt lat="42.48121219826831" lon="14.135509139600103"><ele>158.0</ele><time>2026-04-17T16:37:07.999Z</time></trkpt><trkpt lat="42.48125864828053" lon="14.135659275052149"><ele>155.25</ele><time>2026-04-17T16:37:08.999Z</time></trkpt><trkpt lat="42.48130927256087" lon="14.135805729046067"><ele>152.5</ele><time>2026-04-17T16:37:09.999Z</time></trkpt><trkpt lat="42.48136115148886" lon="14.135951572455117"><ele>149.75</ele><time>2026-04-17T16:37:10.999Z</time></trkpt><trkpt lat="42.48140264649758" lon="14.136095205762022"><ele>147.0</ele><time>2026-04-17T16:37:11.999Z</time></trkpt><trkpt lat="42.481445362121676" lon="14.13622106278373"><ele>147.0</ele><time>2026-04-17T16:37:12.999Z</time></trkpt><trkpt lat="42.481480664989355" lon="14.136329731850209"><ele>147.0</ele><time>2026-04-17T16:37:13.999Z</time></trkpt><trkpt lat="42.481529560591774" lon="14.136433007795482"><ele>147.0</ele><time>2026-04-17T16:37:14.999Z</time></trkpt><trkpt lat="42.481597705064864" lon="14.136512357298049"><ele>147.0</ele><time>2026-04-17T16:37:15.999Z</time></trkpt><trkpt lat="42.481689865675285" lon="14.136570014249662"><ele>147.0</ele><time>2026-04-17T16:37:16.999Z</time></trkpt><trkpt lat="42.481793951225306" lon="14.136586977982224"><ele>147.0</ele><time>2026-04-17T16:37:17.999Z</time></trkpt><trkpt lat="42.48189919024911" lon="14.136556154586362"><ele>147.0</ele><time>2026-04-17T16:37:18.999Z</time></trkpt><trkpt lat="42.48199323766168" lon="14.136492793812403"><ele>147.0</ele><time>2026-04-17T16:37:19.999Z</time></trkpt><trkpt lat="42.48207725959215" lon="14.13638515740898"><ele>147.0</ele><time>2026-04-17T16:37:20.999Z</time></trkpt><trkpt lat="42.48213655290286" lon="14.136252162289132"><ele>147.0</ele><time>2026-04-17T16:37:21.999Z</time></trkpt><trkpt lat="42.482174854964335" lon="14.136092307119844"><ele>145.75</ele><time>2026-04-17T16:37:22.999Z</time></trkpt><trkpt lat="42.482202148445076" lon="14.135915479582524"><ele>144.5</ele><time>2026-04-17T16:37:23.999Z</time></trkpt><trkpt lat="42.482230646377204" lon="14.135722992677739"><ele>143.25</ele><time>2026-04-17T16:37:24.999Z</time></trkpt><trkpt lat="42.4822708548538" lon="14.135520719472684"><ele>142.0</ele><time>2026-04-17T16:37:25.999Z</time></trkpt><trkpt lat="42.48231372118084" lon="14.135325033597487"><ele>141.25</ele><time>2026-04-17T16:37:26.999Z</time></trkpt><trkpt lat="42.4823521397759" lon="14.135141410734406"><ele>140.5</ele><time>2026-04-17T16:37:27.999Z</time></trkpt><trkpt lat="42.482387301335756" lon="14.134972189299223"><ele>139.75</ele><time>2026-04-17T16:37:28.999Z</time></trkpt><trkpt lat="42.48242293883514" lon="14.134799793178098"><ele>139.0</ele><time>2026-04-17T16:37:29.999Z</time></trkpt><trkpt lat="42.48246275877221" lon="14.13462197298675"><ele>138.33333333333334</ele><time>2026-04-17T16:37:30.999Z</time></trkpt><trkpt lat="42.48251921172426" lon="14.134409102293567"><ele>137.66666666666666</ele><time>2026-04-17T16:37:31.999Z</time></trkpt><trkpt lat="42.482575881846685" lon="14.134144855533288"><ele>137.0</ele><time>2026-04-17T16:37:32.999Z</time></trkpt><trkpt lat="42.48262917793926" lon="14.133887633136819"><ele>136.0</ele><time>2026-04-17T16:37:33.999Z</time></trkpt><trkpt lat="42.48266958253318" lon="14.133676813350576"><ele>135.0</ele><time>2026-04-17T16:37:34.999Z</time></trkpt><trkpt lat="42.482724024752244" lon="14.133503310132996"><ele>134.0</ele><time>2026-04-17T16:37:35.999Z</time></trkpt><trkpt lat="42.48279120757175" lon="14.13336072195101"><ele>133.0</ele><time>2026-04-17T16:37:36.999Z</time></trkpt><trkpt lat="42.48290141685903" lon="14.133274057974079"><ele>131.66666666666669</ele><time>2026-04-17T16:37:37.999Z</time></trkpt><trkpt lat="42.483021267056564" lon="14.133208417543644"><ele>130.33333333333334</ele><time>2026-04-17T16:37:38.999Z</time></trkpt><trkpt lat="42.483167162540525" lon="14.1331385753972"><ele>129.0</ele><time>2026-04-17T16:37:39.999Z</time></trkpt><trkpt lat="42.48333023883694" lon="14.133059419687875"><ele>129.0</ele><time>2026-04-17T16:37:40.999Z</time></trkpt><trkpt lat="42.48350277428772" lon="14.132957283262972"><ele>129.0</ele><time>2026-04-17T16:37:41.999Z</time></trkpt><trkpt lat="42.4836745241926" lon="14.132876296232215"><ele>129.0</ele><time>2026-04-17T16:37:42.999Z</time></trkpt><trkpt lat="42.483861696742025" lon="14.132787941591241"><ele>127.66666666666666</ele><time>2026-04-17T16:37:43.999Z</time></trkpt><trkpt lat="42.48405249903808" lon="14.132691080709966"><ele>126.33333333333333</ele><time>2026-04-17T16:37:44.999Z</time></trkpt><trkpt lat="42.48424913021931" lon="14.132591508357878"><ele>125.0</ele><time>2026-04-17T16:37:45.999Z</time></trkpt><trkpt lat="42.48444944124315" lon="14.132495821923635"><ele>123.33333333333333</ele><time>2026-04-17T16:37:46.999Z</time></trkpt><trkpt lat="42.484619760362385" lon="14.132416352667486"><ele>121.66666666666666</ele><time>2026-04-17T16:37:47.999Z</time></trkpt><trkpt lat="42.48477220738618" lon="14.132348341591626"><ele>120.0</ele><time>2026-04-17T16:37:48.998Z</time></trkpt><trkpt lat="42.48491866912326" lon="14.132290612454355"><ele>120.0</ele><time>2026-04-17T16:37:49.998Z</time></trkpt><trkpt lat="42.48506550141051" lon="14.132299672693494"><ele>120.0</ele><time>2026-04-17T16:37:50.998Z</time></trkpt><trkpt lat="42.48520449410816" lon="14.1323432138063"><ele>120.0</ele><time>2026-04-17T16:37:51.998Z</time></trkpt><trkpt lat="42.485339427787586" lon="14.132435165355092"><ele>120.0</ele><time>2026-04-17T16:37:52.998Z</time></trkpt><trkpt lat="42.48546209839889" lon="14.132570426110169"><ele>119.33333333333334</ele><time>2026-04-17T16:37:53.998Z</time></trkpt><trkpt lat="42.48559415551292" lon="14.132727845009141"><ele>118.66666666666667</ele><time>2026-04-17T16:37:54.998Z</time></trkpt><trkpt lat="42.48574125346903" lon="14.132881471080706"><ele>118.0</ele><time>2026-04-17T16:37:56Z</time></trkpt><trkpt lat="42.485883060911824" lon="14.13305448294759"><ele>118.0</ele><time>2026-04-17T16:37:57Z</time></trkpt><trkpt lat="42.48602210165174" lon="14.133215054053602"><ele>118.0</ele><time>2026-04-17T16:37:58Z</time></trkpt><trkpt lat="42.48614578898053" lon="14.133361698271841"><ele>118.0</ele><time>2026-04-17T16:37:59Z</time></trkpt><trkpt lat="42.486263823946295" lon="14.133507211151537"><ele>118.25</ele><time>2026-04-17T16:38:00Z</time></trkpt><trkpt lat="42.48637812305829" lon="14.133645969423249"><ele>118.5</ele><time>2026-04-17T16:38:01Z</time></trkpt><trkpt lat="42.48648742872794" lon="14.133775017187077"><ele>118.75</ele><time>2026-04-17T16:38:02Z</time></trkpt><trkpt lat="42.486578174896" lon="14.133893066184406"><ele>119.0</ele><time>2026-04-17T16:38:03Z</time></trkpt><trkpt lat="42.48663318438454" lon="14.134055708974147"><ele>118.5</ele><time>2026-04-17T16:38:04Z</time></trkpt><trkpt lat="42.4866668020502" lon="14.134222529180077"><ele>118.0</ele><time>2026-04-17T16:38:05Z</time></trkpt><trkpt lat="42.486700120101055" lon="14.134399318067462"><ele>117.5</ele><time>2026-04-17T16:38:06Z</time></trkpt><trkpt lat="42.48673710723621" lon="14.134606212953042"><ele>117.0</ele><time>2026-04-17T16:38:07Z</time></trkpt><trkpt lat="42.48677543417127" lon="14.13483677655574"><ele>117.0</ele><time>2026-04-17T16:38:08Z</time></trkpt><trkpt lat="42.48681710106867" lon="14.135080917655431"><ele>117.0</ele><time>2026-04-17T16:38:09Z</time></trkpt><trkpt lat="42.48687053545392" lon="14.13533607503632"><ele>117.0</ele><time>2026-04-17T16:38:10Z</time></trkpt><trkpt lat="42.486916416515015" lon="14.135580343795198"><ele>116.66666666666666</ele><time>2026-04-17T16:38:11Z</time></trkpt><trkpt lat="42.48696843735449" lon="14.135798242141384"><ele>116.33333333333333</ele><time>2026-04-17T16:38:12Z</time></trkpt><trkpt lat="42.48703521492389" lon="14.136023839031248"><ele>116.0</ele><time>2026-04-17T16:38:13Z</time></trkpt><trkpt lat="42.487117586950376" lon="14.136246636107051"><ele>117.0</ele><time>2026-04-17T16:38:14Z</time></trkpt><trkpt lat="42.48720301025121" lon="14.136443775155811"><ele>118.0</ele><time>2026-04-17T16:38:15Z</time></trkpt><trkpt lat="42.4872851940616" lon="14.136628195593119"><ele>119.0</ele><time>2026-04-17T16:38:16Z</time></trkpt><trkpt lat="42.48735847939346" lon="14.136802485488712"><ele>120.25</ele><time>2026-04-17T16:38:17Z</time></trkpt><trkpt lat="42.487409593926955" lon="14.136964828655026"><ele>121.5</ele><time>2026-04-17T16:38:18Z</time></trkpt><trkpt lat="42.487459319544065" lon="14.137113772233773"><ele>122.75</ele><time>2026-04-17T16:38:19Z</time></trkpt><trkpt lat="42.48750428940222" lon="14.13725637458782"><ele>124.0</ele><time>2026-04-17T16:38:20Z</time></trkpt><trkpt lat="42.48752770644765" lon="14.13738406465447"><ele>124.0</ele><time>2026-04-17T16:38:21Z</time></trkpt><trkpt lat="42.48757729509555" lon="14.137487974290611"><ele>124.0</ele><time>2026-04-17T16:38:22Z</time></trkpt><trkpt lat="42.487608120103445" lon="14.137622225549444"><ele>124.0</ele><time>2026-04-17T16:38:23Z</time></trkpt><trkpt lat="42.48764791467101" lon="14.137787667414557"><ele>124.0</ele><time>2026-04-17T16:38:24Z</time></trkpt><trkpt lat="42.487659916515845" lon="14.137966855462443"><ele>124.0</ele><time>2026-04-17T16:38:25Z</time></trkpt><trkpt lat="42.487650943053154" lon="14.13813717055397"><ele>124.0</ele><time>2026-04-17T16:38:26Z</time></trkpt><trkpt lat="42.48763831008292" lon="14.138306214252692"><ele>124.0</ele><time>2026-04-17T16:38:27Z</time></trkpt><trkpt lat="42.48763410462606" lon="14.138482968999162"><ele>124.0</ele><time>2026-04-17T16:38:28Z</time></trkpt><trkpt lat="42.487651309461874" lon="14.138641735037247"><ele>124.2</ele><time>2026-04-17T16:38:29Z</time></trkpt><trkpt lat="42.487691638192146" lon="14.138779252913972"><ele>124.4</ele><time>2026-04-17T16:38:30Z</time></trkpt><trkpt lat="42.48773973968114" lon="14.138893564191726"><ele>124.6</ele><time>2026-04-17T16:38:31Z</time></trkpt><trkpt lat="42.48779011085858" lon="14.138996561317215"><ele>124.8</ele><time>2026-04-17T16:38:32Z</time></trkpt><trkpt lat="42.48784199581656" lon="14.139083330250635"><ele>125.0</ele><time>2026-04-17T16:38:33Z</time></trkpt><trkpt lat="42.48790320581505" lon="14.139159063763516"><ele>126.8</ele><time>2026-04-17T16:38:34Z</time></trkpt><trkpt lat="42.48798011070741" lon="14.139232059855857"><ele>128.6</ele><time>2026-04-17T16:38:35Z</time></trkpt><trkpt lat="42.488067990656376" lon="14.139292028458735"><ele>130.4</ele><time>2026-04-17T16:38:36Z</time></trkpt><trkpt lat="42.48816839337304" lon="14.139329572774246"><ele>132.2</ele><time>2026-04-17T16:38:37Z</time></trkpt><trkpt lat="42.488269665671" lon="14.139349639960352"><ele>134.0</ele><time>2026-04-17T16:38:38Z</time></trkpt><trkpt lat="42.48836300577036" lon="14.139358523554677"><ele>134.0</ele><time>2026-04-17T16:38:39Z</time></trkpt><trkpt lat="42.48845608758958" lon="14.139363536283378"><ele>134.0</ele><time>2026-04-17T16:38:40Z</time></trkpt><trkpt lat="42.48854626655925" lon="14.139381682796198"><ele>134.0</ele><time>2026-04-17T16:38:41Z</time></trkpt><trkpt lat="42.48862708038047" lon="14.139384265921063"><ele>134.0</ele><time>2026-04-17T16:38:42Z</time></trkpt><trkpt lat="42.48870622615003" lon="14.139386116199992"><ele>134.0</ele><time>2026-04-17T16:38:43Z</time></trkpt><trkpt lat="42.48878795572347" lon="14.139371099972019"><ele>134.0</ele><time>2026-04-17T16:38:44Z</time></trkpt><trkpt lat="42.488875581645" lon="14.139382740906903"><ele>134.5</ele><time>2026-04-17T16:38:45Z</time></trkpt><trkpt lat="42.48896192640975" lon="14.139405823560834"><ele>135.0</ele><time>2026-04-17T16:38:46Z</time></trkpt><trkpt lat="42.4890306481444" lon="14.1394382697501"><ele>135.5</ele><time>2026-04-17T16:38:47Z</time></trkpt><trkpt lat="42.48909797580383" lon="14.13949256989319"><ele>136.0</ele><time>2026-04-17T16:38:48Z</time></trkpt><trkpt lat="42.489168509135894" lon="14.139548199873373"><ele>136.5</ele><time>2026-04-17T16:38:49Z</time></trkpt><trkpt lat="42.48922439024534" lon="14.1396129596282"><ele>137.0</ele><time>2026-04-17T16:38:50Z</time></trkpt><trkpt lat="42.48934656407265" lon="14.13962710928856"><ele>137.0</ele><time>2026-04-17T16:38:52Z</time></trkpt><trkpt lat="42.489412255779456" lon="14.139576855676607"><ele>137.0</ele><time>2026-04-17T16:38:53Z</time></trkpt><trkpt lat="42.489469722263486" lon="14.139498139312446"><ele>137.0</ele><time>2026-04-17T16:38:54Z</time></trkpt><trkpt lat="42.48951777749745" lon="14.139435448036124"><ele>137.0</ele><time>2026-04-17T16:38:55Z</time></trkpt><trkpt lat="42.4896012933452" lon="14.139441727561117"><ele>137.0</ele><time>2026-04-17T16:38:56Z</time></trkpt><trkpt lat="42.48971149400936" lon="14.139452513315979"><ele>137.0</ele><time>2026-04-17T16:38:57Z</time></trkpt><trkpt lat="42.4898495787684" lon="14.13945855616602"><ele>138.0</ele><time>2026-04-17T16:38:57.999Z</time></trkpt><trkpt lat="42.489995908099665" lon="14.139465167940596"><ele>139.0</ele><time>2026-04-17T16:38:58.999Z</time></trkpt><trkpt lat="42.49013784961255" lon="14.13945691179645"><ele>140.0</ele><time>2026-04-17T16:38:59.999Z</time></trkpt><trkpt lat="42.490292896335376" lon="14.139473455387595"><ele>141.0</ele><time>2026-04-17T16:39:00.999Z</time></trkpt><trkpt lat="42.490442053337226" lon="14.139480702112385"><ele>143.0</ele><time>2026-04-17T16:39:01.999Z</time></trkpt><trkpt lat="42.49057135201405" lon="14.139486857639904"><ele>145.0</ele><time>2026-04-17T16:39:02.999Z</time></trkpt><trkpt lat="42.4906838199589" lon="14.139515696504962"><ele>147.0</ele><time>2026-04-17T16:39:03.999Z</time></trkpt><trkpt lat="42.490778803280435" lon="14.139534764076704"><ele>149.0</ele><time>2026-04-17T16:39:04.999Z</time></trkpt><trkpt lat="42.490855765543664" lon="14.139558975185624"><ele>151.0</ele><time>2026-04-17T16:39:05.999Z</time></trkpt><trkpt lat="42.49090309911983" lon="14.139640344218895"><ele>151.0</ele><time>2026-04-17T16:39:06.999Z</time></trkpt><trkpt lat="42.49089276742192" lon="14.1397671892924"><ele>151.0</ele><time>2026-04-17T16:39:07.999Z</time></trkpt><trkpt lat="42.4908720654378" lon="14.139895418119108"><ele>151.0</ele><time>2026-04-17T16:39:08.999Z</time></trkpt><trkpt lat="42.49087164616142" lon="14.14007164540709"><ele>151.0</ele><time>2026-04-17T16:39:09.999Z</time></trkpt><trkpt lat="42.49087164616445" lon="14.140252747605876"><ele>152.0</ele><time>2026-04-17T16:39:10.999Z</time></trkpt><trkpt lat="42.49087164616721" lon="14.140450357060715"><ele>153.0</ele><time>2026-04-17T16:39:11.999Z</time></trkpt><trkpt lat="42.49087772787359" lon="14.1406498775893"><ele>154.0</ele><time>2026-04-17T16:39:12.999Z</time></trkpt><trkpt lat="42.4908906218129" lon="14.140790679780446"><ele>155.0</ele><time>2026-04-17T16:39:13.999Z</time></trkpt><trkpt lat="42.49093148363605" lon="14.140895431062964"><ele>156.0</ele><time>2026-04-17T16:39:14.999Z</time></trkpt><trkpt lat="42.49098752436346" lon="14.140949624810396"><ele>157.0</ele><time>2026-04-17T16:39:15.999Z</time></trkpt><trkpt lat="42.49113048872843" lon="14.140889038367325"><ele>158.0</ele><time>2026-04-17T16:39:17.999Z</time></trkpt><trkpt lat="42.491195675988415" lon="14.140754250373682"><ele>159.0</ele><time>2026-04-17T16:39:18.999Z</time></trkpt><trkpt lat="42.49126453988546" lon="14.140626618684609"><ele>159.4</ele><time>2026-04-17T16:39:19.999Z</time></trkpt><trkpt lat="42.4913427221068" lon="14.140494278086129"><ele>159.8</ele><time>2026-04-17T16:39:20.999Z</time></trkpt><trkpt lat="42.49139475453365" lon="14.140386056175801"><ele>160.20000000000002</ele><time>2026-04-17T16:39:21.999Z</time></trkpt><trkpt lat="42.491430701540416" lon="14.140311669160562"><ele>160.60000000000002</ele><time>2026-04-17T16:39:22.999Z</time></trkpt><trkpt lat="42.49153057179334" lon="14.140309566273784"><ele>161.0</ele><time>2026-04-17T16:39:24.999Z</time></trkpt><trkpt lat="42.491582103810984" lon="14.140371926524251"><ele>161.0</ele><time>2026-04-17T16:39:25.999Z</time></trkpt><trkpt lat="42.49164034373731" lon="14.140473865126083"><ele>161.0</ele><time>2026-04-17T16:39:27.999Z</time></trkpt><trkpt lat="42.491713323689616" lon="14.14034489119216"><ele>161.0</ele><time>2026-04-17T16:39:29.999Z</time></trkpt><trkpt lat="42.49173037374285" lon="14.14017672450544"><ele>161.0</ele><time>2026-04-17T16:39:31.999Z</time></trkpt><trkpt lat="42.491792050420884" lon="14.140105754605003"><ele>161.0</ele><time>2026-04-17T16:39:32.999Z</time></trkpt><trkpt lat="42.491819867203034" lon="14.140008395996464"><ele>161.16666666666666</ele><time>2026-04-17T16:39:33.999Z</time></trkpt><trkpt lat="42.49178339700511" lon="14.13985440874273"><ele>161.33333333333331</ele><time>2026-04-17T16:39:34.999Z</time></trkpt><trkpt lat="42.49176544847056" lon="14.139754340958332"><ele>161.5</ele><time>2026-04-17T16:39:35.999Z</time></trkpt><trkpt lat="42.491714814011814" lon="14.139698556198136"><ele>161.66666666666666</ele><time>2026-04-17T16:41:43.999Z</time></trkpt><trkpt lat="42.4917801653122" lon="14.139677902561326"><ele>161.83333333333334</ele><time>2026-04-17T16:41:46.999Z</time></trkpt><trkpt lat="42.49172268221371" lon="14.139595676183385"><ele>162.0</ele><time>2026-04-17T16:41:57.999Z</time></trkpt><trkpt lat="42.491803824147205" lon="14.139518529276073"><ele>162.0</ele><time>2026-04-17T16:42:14.001Z</time></trkpt><trkpt lat="42.49173267635064" lon="14.139623029599212"><ele>162.0</ele><time>2026-04-17T16:42:16.001Z</time></trkpt><trkpt lat="42.491808176276486" lon="14.139579127307108"><ele>162.0</ele><time>2026-04-17T16:43:53.048Z</time></trkpt><trkpt lat="42.49166900773588" lon="14.139554891141744"><ele>162.0</ele><time>2026-04-17T16:44:01.047Z</time></trkpt><trkpt lat="42.4915885798948" lon="14.13963939689483"><ele>162.0</ele><time>2026-04-17T16:44:03.046Z</time></trkpt><trkpt lat="42.491775986574176" lon="14.13957199586632"><ele>162.0</ele><time>2026-04-17T16:44:18.045Z</time></trkpt><trkpt lat="42.491797610605886" lon="14.139490918114445"><ele>162.0</ele><time>2026-04-17T16:44:35Z</time></trkpt><trkpt lat="42.491737472550774" lon="14.13952548982355"><ele>162.0</ele><time>2026-04-17T16:44:43Z</time></trkpt><trkpt lat="42.49180217185125" lon="14.1394685979391"><ele>162.0</ele><time>2026-04-17T16:44:44Z</time></trkpt><trkpt lat="42.49178247827051" lon="14.139556716485323"><ele>162.0</ele><time>2026-04-17T16:45:14.049Z</time></trkpt><trkpt lat="42.49185715418681" lon="14.139591977005024"><ele>162.0</ele><time>2026-04-17T16:45:26.051Z</time></trkpt><trkpt lat="42.49171934872781" lon="14.139613840929545"><ele>162.0</ele><time>2026-04-17T16:45:42.999Z</time></trkpt><trkpt lat="42.49181197371611" lon="14.139658061870366"><ele>162.0</ele><time>2026-04-17T16:46:58.05Z</time></trkpt><trkpt lat="42.49182317101501" lon="14.13950194863646"><ele>162.0</ele><time>2026-04-17T16:47:17.041Z</time></trkpt><trkpt lat="42.491888602431054" lon="14.139475978327475"><ele>162.0</ele><time>2026-04-17T16:47:21.999Z</time></trkpt><trkpt lat="42.491953189052225" lon="14.1394502681283"><ele>162.0</ele><time>2026-04-17T16:47:28.025Z</time></trkpt><trkpt lat="42.49175243042298" lon="14.139850375528898"><ele>162.0</ele><time>2026-04-17T16:48:01.81Z</time></trkpt><trkpt lat="42.49159937747532" lon="14.139866908933742"><ele>162.0</ele><time>2026-04-17T16:48:16.011Z</time></trkpt><trkpt lat="42.49160746377275" lon="14.139772407184088"><ele>162.0</ele><time>2026-04-17T16:48:21.013Z</time></trkpt><trkpt lat="42.49167944565742" lon="14.139684337282894"><ele>162.0</ele><time>2026-04-17T16:48:22.014Z</time></trkpt><trkpt lat="42.491730747786576" lon="14.139630040079707"><ele>162.0</ele><time>2026-04-17T16:48:25.013Z</time></trkpt><trkpt lat="42.491750218925546" lon="14.139541358449279"><ele>162.0</ele><time>2026-04-17T16:48:40.014Z</time></trkpt><trkpt lat="42.491813291569265" lon="14.139511089646478"><ele>162.0</ele><time>2026-04-17T16:48:53.016Z</time></trkpt><trkpt lat="42.49178958262319" lon="14.139620802378012"><ele>162.0</ele><time>2026-04-17T16:48:56.997Z</time></trkpt><trkpt lat="42.49172685976228" lon="14.139639430375146"><ele>162.0</ele><time>2026-04-17T16:49:09Z</time></trkpt><trkpt lat="42.49180017488272" lon="14.139588347994318"><ele>162.0</ele><time>2026-04-17T16:49:31Z</time></trkpt><trkpt lat="42.49170018629615" lon="14.139455828048046"><ele>162.0</ele><time>2026-04-17T16:50:25.588Z</time></trkpt><trkpt lat="42.49182783820903" lon="14.139433396509057"><ele>162.0</ele><time>2026-04-17T16:51:09.345Z</time></trkpt><trkpt lat="42.491697990840414" lon="14.139445102984356"><ele>162.0</ele><time>2026-04-17T16:51:46.563Z</time></trkpt><trkpt lat="42.4916231332006" lon="14.139493590595654"><ele>162.0</ele><time>2026-04-17T16:51:53.125Z</time></trkpt><trkpt lat="42.49157330075165" lon="14.139837578439675"><ele>162.0</ele><time>2026-04-17T16:51:54.343Z</time></trkpt><trkpt lat="42.49160860424086" lon="14.139675993328451"><ele>162.0</ele><time>2026-04-17T16:52:00.563Z</time></trkpt><trkpt lat="42.49168988128342" lon="14.139556446601071"><ele>162.0</ele><time>2026-04-17T16:52:06.564Z</time></trkpt><trkpt lat="42.49160027443555" lon="14.139869783323395"><ele>162.0</ele><time>2026-04-17T16:53:31.363Z</time></trkpt><trkpt lat="42.49156710783823" lon="14.140003903033943"><ele>162.0</ele><time>2026-04-17T16:53:50.233Z</time></trkpt><trkpt lat="42.491525654278064" lon="14.140171481027647"><ele>162.0</ele><time>2026-04-17T16:54:03.227Z</time></trkpt><trkpt lat="42.49176286775956" lon="14.13951842242129"><ele>162.0</ele><time>2026-04-17T16:54:29.811Z</time></trkpt><trkpt lat="42.49179977622505" lon="14.139389135622826"><ele>162.0</ele><time>2026-04-17T16:54:32.204Z</time></trkpt><trkpt lat="42.49173533996302" lon="14.139151542066312"><ele>162.0</ele><time>2026-04-17T16:54:50.012Z</time></trkpt><trkpt lat="42.4916940334668" lon="14.139060902452167"><ele>162.0</ele><time>2026-04-17T16:54:54.012Z</time></trkpt><trkpt lat="42.491589174368244" lon="14.139787059493166"><ele>162.0</ele><time>2026-04-17T16:54:55.012Z</time></trkpt><trkpt lat="42.49161267772287" lon="14.139684599058858"><ele>162.0</ele><time>2026-04-17T16:55:33.013Z</time></trkpt><trkpt lat="42.49167150847165" lon="14.13963836413419"><ele>162.0</ele><time>2026-04-17T16:55:36.013Z</time></trkpt><trkpt lat="42.4917275785118" lon="14.139681992307306"><ele>162.0</ele><time>2026-04-17T16:59:57.057Z</time></trkpt><trkpt lat="42.49166761299309" lon="14.139545474294282"><ele>162.0</ele><time>2026-04-17T17:01:00.564Z</time></trkpt><trkpt lat="42.49157714020482" lon="14.139926916264987"><ele>162.0</ele><time>2026-04-17T17:01:13.229Z</time></trkpt><trkpt lat="42.49156080024334" lon="14.140081302527333"><ele>162.0</ele><time>2026-04-17T17:01:26.231Z</time></trkpt><trkpt lat="42.491581101219225" lon="14.139875964380831"><ele>162.0</ele><time>2026-04-17T17:01:32.565Z</time></trkpt><trkpt lat="42.491603846395826" lon="14.139506309471583"><ele>162.0</ele><time>2026-04-17T17:01:43.566Z</time></trkpt><trkpt lat="42.49167026228139" lon="14.139754134532117"><ele>162.0</ele><time>2026-04-17T17:02:04.996Z</time></trkpt><trkpt lat="42.49170877953444" lon="14.139624576542712"><ele>162.0</ele><time>2026-04-17T17:02:12Z</time></trkpt><trkpt lat="42.49174318248736" lon="14.139551774518111"><ele>162.0</ele><time>2026-04-17T17:02:17Z</time></trkpt><trkpt lat="42.49182338742276" lon="14.13944858177254"><ele>162.0</ele><time>2026-04-17T17:02:24Z</time></trkpt><trkpt lat="42.4917311272189" lon="14.139479288114664"><ele>162.0</ele><time>2026-04-17T17:02:45Z</time></trkpt><trkpt lat="42.49178058665077" lon="14.139618617698726"><ele>162.0</ele><time>2026-04-17T17:03:03Z</time></trkpt><trkpt lat="42.49171085199881" lon="14.139575435037335"><ele>162.0</ele><time>2026-04-17T17:03:50.845Z</time></trkpt><trkpt lat="42.491645974202726" lon="14.139795772812187"><ele>162.0</ele><time>2026-04-17T17:04:04.233Z</time></trkpt><trkpt lat="42.49159725126537" lon="14.140026464305729"><ele>162.0</ele><time>2026-04-17T17:04:06.522Z</time></trkpt><trkpt lat="42.491666427636915" lon="14.139807936658794"><ele>162.0</ele><time>2026-04-17T17:04:10.411Z</time></trkpt><trkpt lat="42.49167221005172" lon="14.13959308763948"><ele>162.0</ele><time>2026-04-17T17:04:16.411Z</time></trkpt><trkpt lat="42.49178807953277" lon="14.139408426607117"><ele>162.0</ele><time>2026-04-17T17:04:39.813Z</time></trkpt><trkpt lat="42.49172289937164" lon="14.139551022509124"><ele>162.0</ele><time>2026-04-17T17:04:45.814Z</time></trkpt><trkpt lat="42.491752882498176" lon="14.139640375269538"><ele>162.0</ele><time>2026-04-17T17:05:30.012Z</time></trkpt><trkpt lat="42.49172645215772" lon="14.139745947045736"><ele>162.0</ele><time>2026-04-17T17:05:33.016Z</time></trkpt><trkpt lat="42.49173643847492" lon="14.139656751531142"><ele>162.0</ele><time>2026-04-17T17:05:37.997Z</time></trkpt><trkpt lat="42.49167615306758" lon="14.13963008409992"><ele>162.0</ele><time>2026-04-17T17:05:46Z</time></trkpt><trkpt lat="42.49154802351497" lon="14.139725905494538"><ele>162.0</ele><time>2026-04-17T17:05:51Z</time></trkpt><trkpt lat="42.49146058275287" lon="14.139814019886062"><ele>162.0</ele><time>2026-04-17T17:05:53Z</time></trkpt><trkpt lat="42.49140942966001" lon="14.139880962497001"><ele>159.66666666666666</ele><time>2026-04-17T17:05:54Z</time></trkpt><trkpt lat="42.49118386972642" lon="14.140149797794713"><ele>157.33333333333331</ele><time>2026-04-17T17:05:55Z</time></trkpt><trkpt lat="42.49110761156317" lon="14.140275729168527"><ele>155.0</ele><time>2026-04-17T17:05:57Z</time></trkpt><trkpt lat="42.49106601790137" lon="14.140340627405786"><ele>155.0</ele><time>2026-04-17T17:05:58Z</time></trkpt><trkpt lat="42.490982233337014" lon="14.140468923162471"><ele>155.0</ele><time>2026-04-17T17:06:00Z</time></trkpt><trkpt lat="42.490895781542754" lon="14.14059602089949"><ele>155.0</ele><time>2026-04-17T17:06:02.054Z</time></trkpt><trkpt lat="42.49048143330122" lon="14.141206464742634"><ele>158.0</ele><time>2026-04-17T17:06:14.532Z</time></trkpt><trkpt lat="42.490418376758086" lon="14.141308204798445"><ele>161.0</ele><time>2026-04-17T17:06:17.246Z</time></trkpt><trkpt lat="42.49191115736335" lon="14.13989850496422"><ele>161.0</ele><time>2026-04-17T17:06:23.029Z</time></trkpt><trkpt lat="42.49182903012295" lon="14.139925250192299"><ele>161.0</ele><time>2026-04-17T17:06:24.029Z</time></trkpt><trkpt lat="42.49179165803014" lon="14.139744631733281"><ele>161.0</ele><time>2026-04-17T17:06:25.032Z</time></trkpt><trkpt lat="42.49177715829317" lon="14.139554028171872"><ele>161.0</ele><time>2026-04-17T17:06:33.015Z</time></trkpt><trkpt lat="42.49168877927599" lon="14.139582419867923"><ele>161.0</ele><time>2026-04-17T17:08:23.999Z</time></trkpt><trkpt lat="42.491709672044344" lon="14.139682231364024"><ele>161.0</ele><time>2026-04-17T17:08:31.999Z</time></trkpt><trkpt lat="42.49173403883208" lon="14.1398042175883"><ele>161.0</ele><time>2026-04-17T17:08:33.999Z</time></trkpt><trkpt lat="42.49184747159629" lon="14.139893893661617"><ele>161.0</ele><time>2026-04-17T17:08:43.999Z</time></trkpt><trkpt lat="42.49186498865909" lon="14.13998598543633"><ele>161.0</ele><time>2026-04-17T17:08:52.999Z</time></trkpt><trkpt lat="42.49216515696482" lon="14.14167268347985"><ele>161.0</ele><time>2026-04-17T17:08:53.999Z</time></trkpt><trkpt lat="42.49211004898116" lon="14.141298637923924"><ele>161.0</ele><time>2026-04-17T17:08:54.999Z</time></trkpt><trkpt lat="42.49206341692436" lon="14.141057561313128"><ele>161.0</ele><time>2026-04-17T17:08:55.999Z</time></trkpt><trkpt lat="42.49187906586306" lon="14.140195105286852"><ele>161.0</ele><time>2026-04-17T17:09:07.998Z</time></trkpt><trkpt lat="42.49185819223047" lon="14.14009862537426"><ele>161.0</ele><time>2026-04-17T17:09:12.058Z</time></trkpt><trkpt lat="42.49188883595774" lon="14.140368205836934"><ele>161.0</ele><time>2026-04-17T17:09:21.057Z</time></trkpt><trkpt lat="42.49186825331323" lon="14.140237874020078"><ele>161.0</ele><time>2026-04-17T17:09:22.057Z</time></trkpt><trkpt lat="42.49182620911884" lon="14.139960146769138"><ele>161.25</ele><time>2026-04-17T17:09:24.998Z</time></trkpt><trkpt lat="42.491754915205945" lon="14.139800717443393"><ele>161.5</ele><time>2026-04-17T17:09:27.998Z</time></trkpt><trkpt lat="42.4916845207786" lon="14.139603408405494"><ele>161.75</ele><time>2026-04-17T17:09:29.998Z</time></trkpt><trkpt lat="42.491630023067344" lon="14.139667562152788"><ele>162.0</ele><time>2026-04-17T17:12:14Z</time></trkpt><trkpt lat="42.491550710650586" lon="14.139704610326815"><ele>162.0</ele><time>2026-04-17T17:12:16Z</time></trkpt><trkpt lat="42.49160938298276" lon="14.139661570300976"><ele>162.0</ele><time>2026-04-17T17:12:22Z</time></trkpt><trkpt lat="42.49168971586866" lon="14.13961785229077"><ele>162.0</ele><time>2026-04-17T17:12:24.999Z</time></trkpt><trkpt lat="42.49166529945369" lon="14.139706986963589"><ele>162.0</ele><time>2026-04-17T17:13:12.999Z</time></trkpt><trkpt lat="42.49160131907995" lon="14.13963619847595"><ele>162.0</ele><time>2026-04-17T17:13:23.057Z</time></trkpt><trkpt lat="42.491691948151555" lon="14.139564687877904"><ele>162.0</ele><time>2026-04-17T17:13:26.059Z</time></trkpt><trkpt lat="42.49176999865771" lon="14.139567120616604"><ele>162.0</ele><time>2026-04-17T17:13:32.059Z</time></trkpt><trkpt lat="42.49164069745516" lon="14.139720688412275"><ele>162.0</ele><time>2026-04-17T17:14:25.457Z</time></trkpt><trkpt lat="42.49158687075444" lon="14.139879405208282"><ele>162.0</ele><time>2026-04-17T17:14:32.415Z</time></trkpt><trkpt lat="42.49167572217359" lon="14.139532886939621"><ele>162.0</ele><time>2026-04-17T17:15:05.416Z</time></trkpt><trkpt lat="42.49163804000935" lon="14.139751880499647"><ele>162.0</ele><time>2026-04-17T17:15:09.046Z</time></trkpt><trkpt lat="42.49161708991895" lon="14.139873399826655"><ele>162.0</ele><time>2026-04-17T17:15:21.408Z</time></trkpt><trkpt lat="42.491645233689475" lon="14.13970725400347"><ele>162.0</ele><time>2026-04-17T17:15:27.413Z</time></trkpt><trkpt lat="42.491664024512595" lon="14.139597541485069"><ele>162.0</ele><time>2026-04-17T17:15:28.975Z</time></trkpt><trkpt lat="42.491685381922316" lon="14.139511995432025"><ele>162.0</ele><time>2026-04-17T17:16:22.409Z</time></trkpt><trkpt lat="42.4917184658604" lon="14.139393322453707"><ele>162.0</ele><time>2026-04-17T17:16:28.41Z</time></trkpt><trkpt lat="42.491670052969965" lon="14.13958550038867"><ele>162.0</ele><time>2026-04-17T17:16:48.213Z</time></trkpt><trkpt lat="42.491569048741226" lon="14.139869496185074"><ele>162.0</ele><time>2026-04-17T17:18:04.052Z</time></trkpt><trkpt lat="42.49152142880359" lon="14.140066056514671"><ele>162.0</ele><time>2026-04-17T17:18:10.412Z</time></trkpt><trkpt lat="42.49169886412173" lon="14.139657423481545"><ele>162.0</ele><time>2026-04-17T17:18:18.013Z</time></trkpt><trkpt lat="42.491764976318024" lon="14.139627529244192"><ele>162.0</ele><time>2026-04-17T17:18:19.012Z</time></trkpt><trkpt lat="42.4918311770208" lon="14.139602682076964"><ele>162.0</ele><time>2026-04-17T17:18:21.013Z</time></trkpt><trkpt lat="42.491862314657226" lon="14.139487168017265"><ele>162.0</ele><time>2026-04-17T17:18:35.014Z</time></trkpt><trkpt lat="42.491685980178" lon="14.13945203238472"><ele>162.0</ele><time>2026-04-17T17:19:42.451Z</time></trkpt><trkpt lat="42.49162755391811" lon="14.139821360971013"><ele>162.0</ele><time>2026-04-17T17:19:43.67Z</time></trkpt><trkpt lat="42.49175294051575" lon="14.139704564649534"><ele>162.0</ele><time>2026-04-17T17:20:22.012Z</time></trkpt><trkpt lat="42.49167909697644" lon="14.139742439959994"><ele>162.0</ele><time>2026-04-17T17:20:38.014Z</time></trkpt><trkpt lat="42.49168911433345" lon="14.139611452256034"><ele>162.0</ele><time>2026-04-17T17:20:44.014Z</time></trkpt><trkpt lat="42.49171700143317" lon="14.139526036144701"><ele>162.0</ele><time>2026-04-17T17:20:57.013Z</time></trkpt><trkpt lat="42.491665228200816" lon="14.139600131343473"><ele>162.0</ele><time>2026-04-17T17:22:05.99Z</time></trkpt><trkpt lat="42.49176884313867" lon="14.139544132749872"><ele>162.0</ele><time>2026-04-17T17:22:26.002Z</time></trkpt><trkpt lat="42.4918048001288" lon="14.139467976421694"><ele>162.0</ele><time>2026-04-17T17:22:32.001Z</time></trkpt><trkpt lat="42.49174090164607" lon="14.139477069381773"><ele>162.0</ele><time>2026-04-17T17:22:41Z</time></trkpt><trkpt lat="42.49167687164622" lon="14.139521451152683"><ele>162.0</ele><time>2026-04-17T17:22:47Z</time></trkpt><trkpt lat="42.491713247713434" lon="14.13961336873001"><ele>162.0</ele><time>2026-04-17T17:22:52Z</time></trkpt><trkpt lat="42.49175333514702" lon="14.139538948659148"><ele>162.0</ele><time>2026-04-17T17:23:14.062Z</time></trkpt><trkpt lat="42.49181603097204" lon="14.13952359162458"><ele>162.0</ele><time>2026-04-17T17:23:20.061Z</time></trkpt><trkpt lat="42.49169229573344" lon="14.139584405880157"><ele>162.0</ele><time>2026-04-17T17:23:46.725Z</time></trkpt><trkpt lat="42.49159687298163" lon="14.139999306539494"><ele>162.0</ele><time>2026-04-17T17:24:23.038Z</time></trkpt><trkpt lat="42.49160374665979" lon="14.139766782176698"><ele>162.0</ele><time>2026-04-17T17:25:16.355Z</time></trkpt><trkpt lat="42.49161938539693" lon="14.13968271142656"><ele>162.0</ele><time>2026-04-17T17:25:18.997Z</time></trkpt><trkpt lat="42.4917432307395" lon="14.139662902990093"><ele>162.0</ele><time>2026-04-17T17:29:14.998Z</time></trkpt><trkpt lat="42.49183439817594" lon="14.1397241503382"><ele>162.0</ele><time>2026-04-17T17:29:16.998Z</time></trkpt><trkpt lat="42.49177556128351" lon="14.139660294008976"><ele>162.0</ele><time>2026-04-17T17:29:30.998Z</time></trkpt><trkpt lat="42.491762275141795" lon="14.139575816849801"><ele>162.0</ele><time>2026-04-17T17:39:37.999Z</time></trkpt><trkpt lat="42.491699447386615" lon="14.139520576411073"><ele>162.0</ele><time>2026-04-17T17:46:59Z</time></trkpt><trkpt lat="42.491672731897744" lon="14.139611595284181"><ele>162.0</ele><time>2026-04-17T17:47:36.999Z</time></trkpt><trkpt lat="42.49173740592039" lon="14.139532980694135"><ele>162.0</ele><time>2026-04-17T17:51:39.06Z</time></trkpt><trkpt lat="42.49173515587781" lon="14.139445868664396"><ele>162.0</ele><time>2026-04-17T17:51:42.061Z</time></trkpt><trkpt lat="42.49188070613474" lon="14.13941673560541"><ele>162.0</ele><time>2026-04-17T17:51:56.998Z</time></trkpt><trkpt lat="42.49179106966569" lon="14.13947830082138"><ele>162.0</ele><time>2026-04-17T17:52:12.998Z</time></trkpt><trkpt lat="42.49171462046877" lon="14.139546340130378"><ele>162.0</ele><time>2026-04-17T17:52:16.998Z</time></trkpt><trkpt lat="42.491765872201384" lon="14.139460972300634"><ele>162.0</ele><time>2026-04-17T17:52:22.998Z</time></trkpt><trkpt lat="42.49184455004449" lon="14.139462373310055"><ele>162.0</ele><time>2026-04-17T17:52:44Z</time></trkpt><trkpt lat="42.491779339257235" lon="14.139510629161789"><ele>162.0</ele><time>2026-04-17T17:52:55Z</time></trkpt><trkpt lat="42.49175782427024" lon="14.139608821111672"><ele>162.0</ele><time>2026-04-17T17:53:17.999Z</time></trkpt><trkpt lat="42.4917259536096" lon="14.139727408522656"><ele>162.0</ele><time>2026-04-17T17:53:36.999Z</time></trkpt><trkpt lat="42.491764112225304" lon="14.139819412226611"><ele>162.0</ele><time>2026-04-17T17:58:08.999Z</time></trkpt><trkpt lat="42.49176694042596" lon="14.139936528805443"><ele>162.0</ele><time>2026-04-17T17:58:10.999Z</time></trkpt><trkpt lat="42.491763065386564" lon="14.140041127764288"><ele>162.0</ele><time>2026-04-17T17:58:12.999Z</time></trkpt><trkpt lat="42.49175376739146" lon="14.140139803096105"><ele>162.0</ele><time>2026-04-17T17:58:13.999Z</time></trkpt><trkpt lat="42.49170700036608" lon="14.140222589032323"><ele>161.75</ele><time>2026-04-17T17:58:15.999Z</time></trkpt><trkpt lat="42.49161149542509" lon="14.140214836671733"><ele>161.5</ele><time>2026-04-17T17:58:18.999Z</time></trkpt><trkpt lat="42.49152180675261" lon="14.140178134057505"><ele>161.25</ele><time>2026-04-17T17:58:20.999Z</time></trkpt><trkpt lat="42.4913646801406" lon="14.14029120715655"><ele>161.0</ele><time>2026-04-17T17:59:39.999Z</time></trkpt><trkpt lat="42.49131410599318" lon="14.140423714230048"><ele>160.60000000000002</ele><time>2026-04-17T17:59:41.999Z</time></trkpt><trkpt lat="42.49123048602532" lon="14.140575091894828"><ele>160.20000000000002</ele><time>2026-04-17T17:59:43.999Z</time></trkpt><trkpt lat="42.491175562854266" lon="14.140666501439545"><ele>159.8</ele><time>2026-04-17T17:59:44.999Z</time></trkpt><trkpt lat="42.491133244360995" lon="14.140748863907493"><ele>159.4</ele><time>2026-04-17T17:59:45.999Z</time></trkpt><trkpt lat="42.491049620013456" lon="14.140842848770852"><ele>159.0</ele><time>2026-04-17T17:59:47.999Z</time></trkpt><trkpt lat="42.490949059699176" lon="14.140846651937323"><ele>159.0</ele><time>2026-04-17T17:59:49.999Z</time></trkpt><trkpt lat="42.49090785689097" lon="14.140758996788655"><ele>159.0</ele><time>2026-04-17T17:59:51.999Z</time></trkpt><trkpt lat="42.49090790488942" lon="14.14055897216041"><ele>159.0</ele><time>2026-04-17T17:59:52.999Z</time></trkpt><trkpt lat="42.49089658439195" lon="14.140392699443364"><ele>159.0</ele><time>2026-04-17T17:59:53.999Z</time></trkpt><trkpt lat="42.49089873983654" lon="14.14025232312994"><ele>158.33333333333334</ele><time>2026-04-17T17:59:54.999Z</time></trkpt><trkpt lat="42.49089335678684" lon="14.140126707238464"><ele>157.66666666666666</ele><time>2026-04-17T17:59:55.999Z</time></trkpt><trkpt lat="42.49089320216059" lon="14.140004911670188"><ele>157.0</ele><time>2026-04-17T17:59:56.999Z</time></trkpt><trkpt lat="42.49089784838044" lon="14.13988277701533"><ele>156.33333333333331</ele><time>2026-04-17T17:59:57.999Z</time></trkpt><trkpt lat="42.49090139572678" lon="14.13976061949066"><ele>155.66666666666666</ele><time>2026-04-17T17:59:58.999Z</time></trkpt><trkpt lat="42.490902713544386" lon="14.139671948180439"><ele>155.0</ele><time>2026-04-17T17:59:59.999Z</time></trkpt><trkpt lat="42.49089800799087" lon="14.139567645558447"><ele>154.2</ele><time>2026-04-17T18:00:00.999Z</time></trkpt><trkpt lat="42.49084305293297" lon="14.139494100564098"><ele>153.4</ele><time>2026-04-17T18:00:01.999Z</time></trkpt><trkpt lat="42.490775704619644" lon="14.139443541303303"><ele>152.6</ele><time>2026-04-17T18:00:02.999Z</time></trkpt><trkpt lat="42.490714475484666" lon="14.139384368296934"><ele>151.8</ele><time>2026-04-17T18:00:03.999Z</time></trkpt><trkpt lat="42.49057538564229" lon="14.139393789703421"><ele>151.0</ele><time>2026-04-17T18:00:04.999Z</time></trkpt><trkpt lat="42.49044915335121" lon="14.139392187669367"><ele>149.0</ele><time>2026-04-17T18:00:05.999Z</time></trkpt><trkpt lat="42.49033631594501" lon="14.139400876889956"><ele>147.0</ele><time>2026-04-17T18:00:06.999Z</time></trkpt><trkpt lat="42.49022852149553" lon="14.139405237365692"><ele>145.0</ele><time>2026-04-17T18:00:07.999Z</time></trkpt><trkpt lat="42.49012747165651" lon="14.139414490215678"><ele>143.0</ele><time>2026-04-17T18:00:08.999Z</time></trkpt><trkpt lat="42.49002409107183" lon="14.139414143308374"><ele>141.0</ele><time>2026-04-17T18:00:09.999Z</time></trkpt><trkpt lat="42.48991720312025" lon="14.1394087745494"><ele>141.0</ele><time>2026-04-17T18:00:10.999Z</time></trkpt><trkpt lat="42.489813004093335" lon="14.139402755147001"><ele>141.0</ele><time>2026-04-17T18:00:11.999Z</time></trkpt><trkpt lat="42.48973360995079" lon="14.13940845457113"><ele>141.0</ele><time>2026-04-17T18:00:12.999Z</time></trkpt><trkpt lat="42.48963311438978" lon="14.139404056692126"><ele>141.0</ele><time>2026-04-17T18:00:13.999Z</time></trkpt><trkpt lat="42.489547580605894" lon="14.139406552660846"><ele>141.0</ele><time>2026-04-17T18:00:14.999Z</time></trkpt><trkpt lat="42.48945295005979" lon="14.13941951359367"><ele>140.2</ele><time>2026-04-17T18:00:15.999Z</time></trkpt><trkpt lat="42.489362021206546" lon="14.139482765300905"><ele>139.39999999999998</ele><time>2026-04-17T18:00:16.999Z</time></trkpt><trkpt lat="42.489268712409704" lon="14.1394686767256"><ele>138.6</ele><time>2026-04-17T18:00:17.999Z</time></trkpt><trkpt lat="42.489169525791624" lon="14.13944500469822"><ele>137.79999999999998</ele><time>2026-04-17T18:00:18.999Z</time></trkpt><trkpt lat="42.489065538551586" lon="14.13943909234794"><ele>137.0</ele><time>2026-04-17T18:00:19.999Z</time></trkpt><trkpt lat="42.48895620537786" lon="14.139434053681635"><ele>137.0</ele><time>2026-04-17T18:00:20.999Z</time></trkpt><trkpt lat="42.48883587682717" lon="14.13934729082049"><ele>137.0</ele><time>2026-04-17T18:00:21.999Z</time></trkpt><trkpt lat="42.48871554728521" lon="14.13934132436816"><ele>137.0</ele><time>2026-04-17T18:00:22.999Z</time></trkpt><trkpt lat="42.48861389347019" lon="14.139339029013192"><ele>137.0</ele><time>2026-04-17T18:00:23.999Z</time></trkpt><trkpt lat="42.488512933168664" lon="14.139336075599173"><ele>136.4</ele><time>2026-04-17T18:00:24.998Z</time></trkpt><trkpt lat="42.488412434773984" lon="14.139330067331898"><ele>135.79999999999998</ele><time>2026-04-17T18:00:25.998Z</time></trkpt><trkpt lat="42.48831109771726" lon="14.139316004024613"><ele>135.2</ele><time>2026-04-17T18:00:26.998Z</time></trkpt><trkpt lat="42.48821336681218" lon="14.139295647012627"><ele>134.6</ele><time>2026-04-17T18:00:27.998Z</time></trkpt><trkpt lat="42.48812183666092" lon="14.139265812249619"><ele>134.0</ele><time>2026-04-17T18:00:28.998Z</time></trkpt><trkpt lat="42.488033795438625" lon="14.139218128622678"><ele>134.0</ele><time>2026-04-17T18:00:29.998Z</time></trkpt><trkpt lat="42.4879450512491" lon="14.139149017545545"><ele>134.0</ele><time>2026-04-17T18:00:30.998Z</time></trkpt><trkpt lat="42.48786021403139" lon="14.139058909899768"><ele>134.0</ele><time>2026-04-17T18:00:31.998Z</time></trkpt><trkpt lat="42.487789470960024" lon="14.138970616530205"><ele>134.0</ele><time>2026-04-17T18:00:32.998Z</time></trkpt><trkpt lat="42.48774612673899" lon="14.138865131105362"><ele>134.0</ele><time>2026-04-17T18:00:33.998Z</time></trkpt><trkpt lat="42.487720657095814" lon="14.138773686909111"><ele>132.2</ele><time>2026-04-17T18:00:34.998Z</time></trkpt><trkpt lat="42.487691957536015" lon="14.138631083146901"><ele>130.4</ele><time>2026-04-17T18:00:36.998Z</time></trkpt><trkpt lat="42.48768213467737" lon="14.138526933026885"><ele>128.6</ele><time>2026-04-17T18:00:37.998Z</time></trkpt><trkpt lat="42.4876780909342" lon="14.138392214133324"><ele>126.8</ele><time>2026-04-17T18:00:38.998Z</time></trkpt><trkpt lat="42.48768487036914" lon="14.138224838048162"><ele>125.0</ele><time>2026-04-17T18:00:39.998Z</time></trkpt><trkpt lat="42.48768959392313" lon="14.138032970637802"><ele>124.75</ele><time>2026-04-17T18:00:40.998Z</time></trkpt><trkpt lat="42.487683567553276" lon="14.13786191395366"><ele>124.5</ele><time>2026-04-17T18:00:41.998Z</time></trkpt><trkpt lat="42.48766258735229" lon="14.137704197559867"><ele>124.25</ele><time>2026-04-17T18:00:42.998Z</time></trkpt><trkpt lat="42.487630840276196" lon="14.137543139142286"><ele>124.0</ele><time>2026-04-17T18:00:43.998Z</time></trkpt><trkpt lat="42.48757835996545" lon="14.137383312819956"><ele>124.0</ele><time>2026-04-17T18:00:44.998Z</time></trkpt><trkpt lat="42.487521061132476" lon="14.13723198253458"><ele>124.0</ele><time>2026-04-17T18:00:45.998Z</time></trkpt><trkpt lat="42.4874693647643" lon="14.13707691729464"><ele>124.0</ele><time>2026-04-17T18:00:46.998Z</time></trkpt><trkpt lat="42.48741011098119" lon="14.136885901621659"><ele>124.0</ele><time>2026-04-17T18:00:47.998Z</time></trkpt><trkpt lat="42.487338870579386" lon="14.136684649804723"><ele>122.33333333333334</ele><time>2026-04-17T18:00:48.998Z</time></trkpt><trkpt lat="42.48725223467081" lon="14.136482310138305"><ele>120.66666666666666</ele><time>2026-04-17T18:00:49.998Z</time></trkpt><trkpt lat="42.487165194081776" lon="14.136269491611738"><ele>119.0</ele><time>2026-04-17T18:00:50.998Z</time></trkpt><trkpt lat="42.487076393565005" lon="14.136063170415863"><ele>118.33333333333333</ele><time>2026-04-17T18:00:51.998Z</time></trkpt><trkpt lat="42.486995761371354" lon="14.135847583641688"><ele>117.66666666666666</ele><time>2026-04-17T18:00:52.998Z</time></trkpt><trkpt lat="42.48693750386183" lon="14.135581609438763"><ele>117.0</ele><time>2026-04-17T18:00:53.998Z</time></trkpt><trkpt lat="42.48688886139788" lon="14.135299572525158"><ele>117.0</ele><time>2026-04-17T18:00:54.998Z</time></trkpt><trkpt lat="42.48684288056343" lon="14.135026182308406"><ele>117.0</ele><time>2026-04-17T18:00:55.998Z</time></trkpt><trkpt lat="42.48679778054105" lon="14.134759006917562"><ele>117.0</ele><time>2026-04-17T18:00:56.998Z</time></trkpt><trkpt lat="42.48675903412401" lon="14.134523378383976"><ele>117.0</ele><time>2026-04-17T18:00:57.998Z</time></trkpt><trkpt lat="42.486722340279584" lon="14.134305133218183"><ele>117.0</ele><time>2026-04-17T18:00:58.998Z</time></trkpt><trkpt lat="42.48668681290442" lon="14.134128001987277"><ele>117.0</ele><time>2026-04-17T18:00:59.998Z</time></trkpt><trkpt lat="42.48664484351478" lon="14.13397949253581"><ele>117.0</ele><time>2026-04-17T18:01:00.998Z</time></trkpt><trkpt lat="42.48658202932653" lon="14.133849147886984"><ele>117.0</ele><time>2026-04-17T18:01:01.998Z</time></trkpt><trkpt lat="42.48648430027301" lon="14.133723594263937"><ele>117.0</ele><time>2026-04-17T18:01:03Z</time></trkpt><trkpt lat="42.486364247446495" lon="14.133596435418983"><ele>117.0</ele><time>2026-04-17T18:01:04Z</time></trkpt><trkpt lat="42.48623555375151" lon="14.133457396951528"><ele>117.0</ele><time>2026-04-17T18:01:05Z</time></trkpt><trkpt lat="42.486106059049774" lon="14.133305166320703"><ele>117.0</ele><time>2026-04-17T18:01:06Z</time></trkpt><trkpt lat="42.4859712869364" lon="14.133139986071587"><ele>117.0</ele><time>2026-04-17T18:01:07Z</time></trkpt><trkpt lat="42.4858350095126" lon="14.13297826875554"><ele>117.33333333333334</ele><time>2026-04-17T18:01:08Z</time></trkpt><trkpt lat="42.48570514741797" lon="14.13282259939181"><ele>117.66666666666667</ele><time>2026-04-17T18:01:09Z</time></trkpt><trkpt lat="42.485586819875934" lon="14.132671941206327"><ele>118.0</ele><time>2026-04-17T18:01:10Z</time></trkpt><trkpt lat="42.48547452856179" lon="14.132529939860747"><ele>118.25</ele><time>2026-04-17T18:01:11Z</time></trkpt><trkpt lat="42.48536204630743" lon="14.132407330641195"><ele>118.5</ele><time>2026-04-17T18:01:12Z</time></trkpt><trkpt lat="42.485237725035745" lon="14.13231173337599"><ele>118.75</ele><time>2026-04-17T18:01:13Z</time></trkpt><trkpt lat="42.48509731327752" lon="14.132259331513218"><ele>119.0</ele><time>2026-04-17T18:01:14Z</time></trkpt><trkpt lat="42.48494054166937" lon="14.13225506881975"><ele>119.0</ele><time>2026-04-17T18:01:15Z</time></trkpt><trkpt lat="42.48478077807343" lon="14.132296649775107"><ele>119.0</ele><time>2026-04-17T18:01:16Z</time></trkpt><trkpt lat="42.48461843523452" lon="14.13238382842724"><ele>119.0</ele><time>2026-04-17T18:01:17Z</time></trkpt><trkpt lat="42.48445674208066" lon="14.13247953332921"><ele>121.0</ele><time>2026-04-17T18:01:18Z</time></trkpt><trkpt lat="42.48428076066659" lon="14.132547823638504"><ele>123.0</ele><time>2026-04-17T18:01:19Z</time></trkpt><trkpt lat="42.484102837345525" lon="14.13263183245842"><ele>125.0</ele><time>2026-04-17T18:01:20Z</time></trkpt><trkpt lat="42.48391977929299" lon="14.132743062472326"><ele>126.33333333333333</ele><time>2026-04-17T18:01:21Z</time></trkpt><trkpt lat="42.48372382763772" lon="14.132833279780199"><ele>127.66666666666666</ele><time>2026-04-17T18:01:22Z</time></trkpt><trkpt lat="42.483526214680445" lon="14.132928371591204"><ele>129.0</ele><time>2026-04-17T18:01:23Z</time></trkpt><trkpt lat="42.48332475175892" lon="14.133020514724114"><ele>129.0</ele><time>2026-04-17T18:01:24Z</time></trkpt><trkpt lat="42.483138858562434" lon="14.133114021203808"><ele>129.0</ele><time>2026-04-17T18:01:25Z</time></trkpt><trkpt lat="42.48297985384417" lon="14.133183806878781"><ele>129.0</ele><time>2026-04-17T18:01:26Z</time></trkpt><trkpt lat="42.48284772813961" lon="14.133257707680883"><ele>130.0</ele><time>2026-04-17T18:01:27Z</time></trkpt><trkpt lat="42.48274490510572" lon="14.13336854836659"><ele>131.0</ele><time>2026-04-17T18:01:28Z</time></trkpt><trkpt lat="42.48266719048268" lon="14.133522519687226"><ele>132.0</ele><time>2026-04-17T18:01:29Z</time></trkpt><trkpt lat="42.48261497263074" lon="14.133710789442798"><ele>133.0</ele><time>2026-04-17T18:01:30Z</time></trkpt><trkpt lat="42.48257802066912" lon="14.133918399289806"><ele>134.33333333333334</ele><time>2026-04-17T18:01:31Z</time></trkpt><trkpt lat="42.482539547306715" lon="14.134137272849241"><ele>135.66666666666666</ele><time>2026-04-17T18:01:32Z</time></trkpt><trkpt lat="42.48249864825483" lon="14.134358572552365"><ele>137.0</ele><time>2026-04-17T18:01:33Z</time></trkpt><trkpt lat="42.48245021102831" lon="14.134585003045638"><ele>137.0</ele><time>2026-04-17T18:01:34Z</time></trkpt><trkpt lat="42.48239601828584" lon="14.134813841234221"><ele>137.0</ele><time>2026-04-17T18:01:35Z</time></trkpt><trkpt lat="42.4823429149083" lon="14.135049454047733"><ele>137.0</ele><time>2026-04-17T18:01:36Z</time></trkpt><trkpt lat="42.482293099327904" lon="14.135294665397456"><ele>137.66666666666666</ele><time>2026-04-17T18:01:37Z</time></trkpt><trkpt lat="42.48224190581108" lon="14.135547594901537"><ele>138.33333333333334</ele><time>2026-04-17T18:01:38Z</time></trkpt><trkpt lat="42.482189460589325" lon="14.135792369713698"><ele>139.0</ele><time>2026-04-17T18:01:39Z</time></trkpt><trkpt lat="42.48214258095934" lon="14.13601702229752"><ele>139.75</ele><time>2026-04-17T18:01:40Z</time></trkpt><trkpt lat="42.48209913072831" lon="14.13621034681741"><ele>140.5</ele><time>2026-04-17T18:01:41Z</time></trkpt><trkpt lat="42.482045953991985" lon="14.13636415403817"><ele>141.25</ele><time>2026-04-17T18:01:42Z</time></trkpt><trkpt lat="42.48196512983069" lon="14.136475324358864"><ele>142.0</ele><time>2026-04-17T18:01:43Z</time></trkpt><trkpt lat="42.481860674218765" lon="14.136544185396883"><ele>143.25</ele><time>2026-04-17T18:01:44Z</time></trkpt><trkpt lat="42.481752086993666" lon="14.136567299541712"><ele>144.5</ele><time>2026-04-17T18:01:45Z</time></trkpt><trkpt lat="42.481648080022616" lon="14.136520092813551"><ele>145.75</ele><time>2026-04-17T18:01:45.999Z</time></trkpt><trkpt lat="42.48155361933879" lon="14.136438220034552"><ele>147.0</ele><time>2026-04-17T18:01:46.999Z</time></trkpt><trkpt lat="42.48148471507286" lon="14.136304478839198"><ele>147.0</ele><time>2026-04-17T18:01:47.999Z</time></trkpt><trkpt lat="42.48143059956907" lon="14.136136330226446"><ele>147.0</ele><time>2026-04-17T18:01:48.999Z</time></trkpt><trkpt lat="42.48136937025247" lon="14.135954801368039"><ele>147.0</ele><time>2026-04-17T18:01:49.999Z</time></trkpt><trkpt lat="42.48130383449638" lon="14.135755572417697"><ele>147.0</ele><time>2026-04-17T18:01:50.999Z</time></trkpt><trkpt lat="42.481235278578794" lon="14.135548355434791"><ele>149.75</ele><time>2026-04-17T18:01:51.999Z</time></trkpt><trkpt lat="42.481178712328784" lon="14.135363184341877"><ele>152.5</ele><time>2026-04-17T18:01:52.999Z</time></trkpt><trkpt lat="42.4811334469969" lon="14.135204110880574"><ele>155.25</ele><time>2026-04-17T18:01:53.999Z</time></trkpt><trkpt lat="42.481072268996726" lon="14.13506780661794"><ele>158.0</ele><time>2026-04-17T18:01:54.999Z</time></trkpt><trkpt lat="42.480990017948436" lon="14.134940307630327"><ele>155.75</ele><time>2026-04-17T18:01:55.999Z</time></trkpt><trkpt lat="42.48088968485254" lon="14.134825835859557"><ele>153.5</ele><time>2026-04-17T18:01:56.999Z</time></trkpt><trkpt lat="42.48077503071866" lon="14.134747568493324"><ele>151.25</ele><time>2026-04-17T18:01:57.999Z</time></trkpt><trkpt lat="42.48065851643027" lon="14.134714387149735"><ele>149.0</ele><time>2026-04-17T18:01:58.999Z</time></trkpt><trkpt lat="42.48054815382751" lon="14.134740972546947"><ele>149.0</ele><time>2026-04-17T18:01:59.999Z</time></trkpt><trkpt lat="42.48043710117238" lon="14.134815381867599"><ele>149.0</ele><time>2026-04-17T18:02:00.999Z</time></trkpt><trkpt lat="42.480318454366" lon="14.134926203992006"><ele>149.0</ele><time>2026-04-17T18:02:01.999Z</time></trkpt><trkpt lat="42.480202157443514" lon="14.13504852947593"><ele>149.0</ele><time>2026-04-17T18:02:02.999Z</time></trkpt><trkpt lat="42.480099864182456" lon="14.135170445821814"><ele>151.0</ele><time>2026-04-17T18:02:03.999Z</time></trkpt><trkpt lat="42.480020503728085" lon="14.135302178316048"><ele>153.0</ele><time>2026-04-17T18:02:04.999Z</time></trkpt><trkpt lat="42.47997011950996" lon="14.135465763644438"><ele>155.0</ele><time>2026-04-17T18:02:05.999Z</time></trkpt><trkpt lat="42.479935897460656" lon="14.135665076199183"><ele>157.0</ele><time>2026-04-17T18:02:06.999Z</time></trkpt><trkpt lat="42.479896292046554" lon="14.135867982936544"><ele>157.33333333333334</ele><time>2026-04-17T18:02:07.999Z</time></trkpt><trkpt lat="42.479825805103836" lon="14.136051974843127"><ele>157.66666666666666</ele><time>2026-04-17T18:02:08.999Z</time></trkpt><trkpt lat="42.47971286504122" lon="14.136217311311565"><ele>158.0</ele><time>2026-04-17T18:02:09.999Z</time></trkpt><trkpt lat="42.47958275203765" lon="14.136363085381657"><ele>158.0</ele><time>2026-04-17T18:02:10.999Z</time></trkpt><trkpt lat="42.4794756518437" lon="14.136493439610586"><ele>158.0</ele><time>2026-04-17T18:02:11.999Z</time></trkpt><trkpt lat="42.479393851396566" lon="14.136647232453711"><ele>158.0</ele><time>2026-04-17T18:02:12.999Z</time></trkpt><trkpt lat="42.47932771282452" lon="14.136812854233739"><ele>158.0</ele><time>2026-04-17T18:02:13.999Z</time></trkpt><trkpt lat="42.47925061709289" lon="14.136955031074681"><ele>160.25</ele><time>2026-04-17T18:02:14.999Z</time></trkpt><trkpt lat="42.47914115803793" lon="14.137071501712846"><ele>162.5</ele><time>2026-04-17T18:02:15.999Z</time></trkpt><trkpt lat="42.479004354490186" lon="14.137154933876701"><ele>164.75</ele><time>2026-04-17T18:02:16.999Z</time></trkpt><trkpt lat="42.47887046197767" lon="14.137230593199465"><ele>167.0</ele><time>2026-04-17T18:02:17.999Z</time></trkpt><trkpt lat="42.47874835668792" lon="14.137290538276766"><ele>167.25</ele><time>2026-04-17T18:02:18.999Z</time></trkpt><trkpt lat="42.47862764551043" lon="14.137278701210443"><ele>167.5</ele><time>2026-04-17T18:02:19.999Z</time></trkpt><trkpt lat="42.4784973625493" lon="14.137244194066831"><ele>167.75</ele><time>2026-04-17T18:02:20.999Z</time></trkpt><trkpt lat="42.47835967756099" lon="14.137194029218033"><ele>168.0</ele><time>2026-04-17T18:02:21.999Z</time></trkpt><trkpt lat="42.478237127281396" lon="14.137140427406488"><ele>168.0</ele><time>2026-04-17T18:02:22.999Z</time></trkpt><trkpt lat="42.478092833595454" lon="14.137138275231319"><ele>168.0</ele><time>2026-04-17T18:02:23.999Z</time></trkpt><trkpt lat="42.477927251112106" lon="14.137179128465855"><ele>168.0</ele><time>2026-04-17T18:02:24.999Z</time></trkpt><trkpt lat="42.477763894983504" lon="14.137260289268072"><ele>170.0</ele><time>2026-04-17T18:02:25.999Z</time></trkpt><trkpt lat="42.477595361377865" lon="14.137351343963367"><ele>172.0</ele><time>2026-04-17T18:02:26.999Z</time></trkpt><trkpt lat="42.477441467062135" lon="14.137397207001989"><ele>174.0</ele><time>2026-04-17T18:02:27.999Z</time></trkpt><trkpt lat="42.4772832129982" lon="14.137447906270737"><ele>175.25</ele><time>2026-04-17T18:02:28.999Z</time></trkpt><trkpt lat="42.47712935326979" lon="14.137448373808727"><ele>176.5</ele><time>2026-04-17T18:02:29.999Z</time></trkpt><trkpt lat="42.47698455850839" lon="14.137425938741725"><ele>177.75</ele><time>2026-04-17T18:02:30.999Z</time></trkpt><trkpt lat="42.47685213262173" lon="14.137408492326555"><ele>179.0</ele><time>2026-04-17T18:02:31.999Z</time></trkpt><trkpt lat="42.47670821749923" lon="14.137394464384998"><ele>180.33333333333331</ele><time>2026-04-17T18:02:32.999Z</time></trkpt><trkpt lat="42.4765508541508" lon="14.137353239754129"><ele>181.66666666666666</ele><time>2026-04-17T18:02:33.999Z</time></trkpt><trkpt lat="42.476395518323486" lon="14.13727649221068"><ele>183.0</ele><time>2026-04-17T18:02:34.999Z</time></trkpt><trkpt lat="42.4762359675029" lon="14.137191948568736"><ele>183.0</ele><time>2026-04-17T18:02:35.999Z</time></trkpt><trkpt lat="42.47607455683773" lon="14.137096324632202"><ele>183.0</ele><time>2026-04-17T18:02:36.999Z</time></trkpt><trkpt lat="42.4759158003235" lon="14.136999534094915"><ele>183.0</ele><time>2026-04-17T18:02:37.999Z</time></trkpt><trkpt lat="42.475773697483795" lon="14.136915659388842"><ele>183.0</ele><time>2026-04-17T18:02:38.999Z</time></trkpt><trkpt lat="42.47564599230493" lon="14.136835168437823"><ele>183.0</ele><time>2026-04-17T18:02:39.999Z</time></trkpt><trkpt lat="42.475530938215776" lon="14.13675667004886"><ele>183.0</ele><time>2026-04-17T18:02:40.999Z</time></trkpt><trkpt lat="42.47542988758924" lon="14.136668885869735"><ele>183.0</ele><time>2026-04-17T18:02:41.999Z</time></trkpt><trkpt lat="42.475347890273135" lon="14.136548530005745"><ele>183.0</ele><time>2026-04-17T18:02:42.999Z</time></trkpt><trkpt lat="42.475283842598174" lon="14.136411701801622"><ele>183.0</ele><time>2026-04-17T18:02:43.999Z</time></trkpt><trkpt lat="42.47522305118086" lon="14.136288616703862"><ele>183.0</ele><time>2026-04-17T18:02:44.998Z</time></trkpt><trkpt lat="42.47514305277623" lon="14.13619808423966"><ele>183.0</ele><time>2026-04-17T18:02:45.998Z</time></trkpt><trkpt lat="42.47502803373927" lon="14.136140237883545"><ele>183.0</ele><time>2026-04-17T18:02:46.998Z</time></trkpt><trkpt lat="42.47488307765895" lon="14.13610635629293"><ele>183.0</ele><time>2026-04-17T18:02:47.998Z</time></trkpt><trkpt lat="42.47474858485881" lon="14.136073001397971"><ele>183.0</ele><time>2026-04-17T18:02:48.998Z</time></trkpt><trkpt lat="42.474624605026555" lon="14.136008428210445"><ele>183.0</ele><time>2026-04-17T18:02:49.998Z</time></trkpt><trkpt lat="42.47450292688321" lon="14.135883422821658"><ele>182.5</ele><time>2026-04-17T18:02:50.998Z</time></trkpt><trkpt lat="42.474388905938014" lon="14.135758773390664"><ele>182.0</ele><time>2026-04-17T18:02:51.998Z</time></trkpt><trkpt lat="42.474262211295944" lon="14.1356541626258"><ele>181.5</ele><time>2026-04-17T18:02:52.998Z</time></trkpt><trkpt lat="42.4741193706983" lon="14.135574113269191"><ele>181.0</ele><time>2026-04-17T18:02:53.998Z</time></trkpt><trkpt lat="42.47398153552323" lon="14.135519075795541"><ele>181.0</ele><time>2026-04-17T18:02:54.998Z</time></trkpt><trkpt lat="42.47386339008608" lon="14.13546796194594"><ele>181.0</ele><time>2026-04-17T18:02:55.998Z</time></trkpt><trkpt lat="42.473775722008845" lon="14.135397673925501"><ele>181.0</ele><time>2026-04-17T18:02:56.998Z</time></trkpt><trkpt lat="42.47371108692832" lon="14.135292072538629"><ele>181.0</ele><time>2026-04-17T18:02:57.998Z</time></trkpt><trkpt lat="42.47366798728687" lon="14.135135605718972"><ele>177.25</ele><time>2026-04-17T18:02:58.998Z</time></trkpt><trkpt lat="42.47363410441643" lon="14.134931208772356"><ele>173.5</ele><time>2026-04-17T18:02:59.998Z</time></trkpt><trkpt lat="42.47360611334654" lon="14.134740443708093"><ele>169.75</ele><time>2026-04-17T18:03:00.998Z</time></trkpt><trkpt lat="42.47357577633803" lon="14.13456846080525"><ele>166.0</ele><time>2026-04-17T18:03:01.998Z</time></trkpt><trkpt lat="42.47351738301113" lon="14.134386615221002"><ele>166.0</ele><time>2026-04-17T18:03:02.998Z</time></trkpt><trkpt lat="42.47341245353079" lon="14.134212318978534"><ele>166.0</ele><time>2026-04-17T18:03:03.998Z</time></trkpt><trkpt lat="42.473298563376396" lon="14.134074648641223"><ele>166.0</ele><time>2026-04-17T18:03:04.998Z</time></trkpt><trkpt lat="42.47317499773299" lon="14.133971219282028"><ele>168.33333333333334</ele><time>2026-04-17T18:03:05.998Z</time></trkpt><trkpt lat="42.473048420632274" lon="14.133886463755372"><ele>170.66666666666666</ele><time>2026-04-17T18:03:06.998Z</time></trkpt><trkpt lat="42.472902265522556" lon="14.133811956177675"><ele>173.0</ele><time>2026-04-17T18:03:07.998Z</time></trkpt><trkpt lat="42.472755339395654" lon="14.133694777612645"><ele>169.25</ele><time>2026-04-17T18:03:09Z</time></trkpt><trkpt lat="42.472645456901" lon="14.133551184215623"><ele>165.5</ele><time>2026-04-17T18:03:10Z</time></trkpt><trkpt lat="42.472552302621416" lon="14.133430080225814"><ele>161.75</ele><time>2026-04-17T18:03:11Z</time></trkpt><trkpt lat="42.47245977764717" lon="14.133343082939252"><ele>158.0</ele><time>2026-04-17T18:03:12Z</time></trkpt><trkpt lat="42.47235608037663" lon="14.13331130445499"><ele>158.0</ele><time>2026-04-17T18:03:13Z</time></trkpt><trkpt lat="42.472224192731034" lon="14.133311655929209"><ele>158.0</ele><time>2026-04-17T18:03:14Z</time></trkpt><trkpt lat="42.47207985807943" lon="14.133331380764542"><ele>158.0</ele><time>2026-04-17T18:03:15Z</time></trkpt><trkpt lat="42.471951846467185" lon="14.13332455353549"><ele>158.0</ele><time>2026-04-17T18:03:16Z</time></trkpt><trkpt lat="42.47184860244111" lon="14.133285027490208"><ele>156.0</ele><time>2026-04-17T18:03:17Z</time></trkpt><trkpt lat="42.47175862538947" lon="14.133209080420379"><ele>154.0</ele><time>2026-04-17T18:03:18Z</time></trkpt><trkpt lat="42.47170398684223" lon="14.133092895991613"><ele>152.0</ele><time>2026-04-17T18:03:19Z</time></trkpt><trkpt lat="42.47164446369706" lon="14.13296212022508"><ele>150.0</ele><time>2026-04-17T18:03:20Z</time></trkpt><trkpt lat="42.47160405064442" lon="14.132810726931568"><ele>148.0</ele><time>2026-04-17T18:03:21Z</time></trkpt><trkpt lat="42.471577627795355" lon="14.132629596459003"><ele>148.0</ele><time>2026-04-17T18:03:22Z</time></trkpt><trkpt lat="42.47156886465659" lon="14.132433760056433"><ele>148.0</ele><time>2026-04-17T18:03:23Z</time></trkpt><trkpt lat="42.471546973800926" lon="14.132246594799621"><ele>148.0</ele><time>2026-04-17T18:03:24Z</time></trkpt><trkpt lat="42.47153831754908" lon="14.132076259650521"><ele>148.0</ele><time>2026-04-17T18:03:25Z</time></trkpt><trkpt lat="42.47152006410245" lon="14.131909572080176"><ele>146.66666666666669</ele><time>2026-04-17T18:03:26Z</time></trkpt><trkpt lat="42.47143517678288" lon="14.131759100490516"><ele>145.33333333333334</ele><time>2026-04-17T18:03:27Z</time></trkpt><trkpt lat="42.47132777396415" lon="14.131601353999873"><ele>144.0</ele><time>2026-04-17T18:03:28Z</time></trkpt><trkpt lat="42.471190024433874" lon="14.131444499820189"><ele>144.0</ele><time>2026-04-17T18:03:29Z</time></trkpt><trkpt lat="42.47104483737383" lon="14.131287585245069"><ele>144.0</ele><time>2026-04-17T18:03:30Z</time></trkpt><trkpt lat="42.47091073998825" lon="14.131122243234715"><ele>144.0</ele><time>2026-04-17T18:03:31Z</time></trkpt><trkpt lat="42.47078129705449" lon="14.130935210042859"><ele>144.0</ele><time>2026-04-17T18:03:32Z</time></trkpt><trkpt lat="42.47063706366254" lon="14.130757458082538"><ele>144.0</ele><time>2026-04-17T18:03:33Z</time></trkpt><trkpt lat="42.47048344171273" lon="14.130587304083077"><ele>144.0</ele><time>2026-04-17T18:03:34Z</time></trkpt><trkpt lat="42.470329310038885" lon="14.130408033340982"><ele>146.0</ele><time>2026-04-17T18:03:35Z</time></trkpt><trkpt lat="42.470179924535024" lon="14.13022802811277"><ele>148.0</ele><time>2026-04-17T18:03:36Z</time></trkpt><trkpt lat="42.47003292720868" lon="14.13004162489377"><ele>150.0</ele><time>2026-04-17T18:03:37Z</time></trkpt><trkpt lat="42.469895810446246" lon="14.129876607474577"><ele>150.0</ele><time>2026-04-17T18:03:38Z</time></trkpt><trkpt lat="42.46976936161617" lon="14.129725571944121"><ele>150.0</ele><time>2026-04-17T18:03:39Z</time></trkpt><trkpt lat="42.469645915168236" lon="14.129583595534974"><ele>150.0</ele><time>2026-04-17T18:03:40Z</time></trkpt><trkpt lat="42.46951215542851" lon="14.129433345741237"><ele>150.0</ele><time>2026-04-17T18:03:41Z</time></trkpt><trkpt lat="42.46938619963737" lon="14.129310185791963"><ele>150.0</ele><time>2026-04-17T18:03:42Z</time></trkpt><trkpt lat="42.4692538717037" lon="14.129206642095866"><ele>150.0</ele><time>2026-04-17T18:03:43Z</time></trkpt><trkpt lat="42.46909633294022" lon="14.129118264847706"><ele>150.0</ele><time>2026-04-17T18:03:44Z</time></trkpt><trkpt lat="42.46892643857408" lon="14.129061456307019"><ele>150.0</ele><time>2026-04-17T18:03:45Z</time></trkpt><trkpt lat="42.46873993484633" lon="14.129008143200107"><ele>150.0</ele><time>2026-04-17T18:03:46Z</time></trkpt><trkpt lat="42.468551959698466" lon="14.12895768912758"><ele>152.33333333333334</ele><time>2026-04-17T18:03:47Z</time></trkpt><trkpt lat="42.46837364299335" lon="14.12889280214883"><ele>154.66666666666669</ele><time>2026-04-17T18:03:48Z</time></trkpt><trkpt lat="42.468213445830955" lon="14.128829833155532"><ele>157.0</ele><time>2026-04-17T18:03:49Z</time></trkpt><trkpt lat="42.46808405705642" lon="14.128782917330899"><ele>157.0</ele><time>2026-04-17T18:03:50Z</time></trkpt><trkpt lat="42.467976288997754" lon="14.128748883940883"><ele>157.0</ele><time>2026-04-17T18:03:51Z</time></trkpt><trkpt lat="42.46788668225622" lon="14.128704718487167"><ele>157.0</ele><time>2026-04-17T18:03:52Z</time></trkpt><trkpt lat="42.46780204979614" lon="14.128632618905566"><ele>157.0</ele><time>2026-04-17T18:03:53Z</time></trkpt><trkpt lat="42.467715827055976" lon="14.128496750799961"><ele>157.0</ele><time>2026-04-17T18:03:54Z</time></trkpt><trkpt lat="42.467656587476846" lon="14.128311287286596"><ele>153.0</ele><time>2026-04-17T18:03:54.999Z</time></trkpt><trkpt lat="42.467570053590194" lon="14.128114702411743"><ele>149.0</ele><time>2026-04-17T18:03:55.999Z</time></trkpt><trkpt lat="42.46749601892458" lon="14.12788609453747"><ele>145.0</ele><time>2026-04-17T18:03:56.999Z</time></trkpt><trkpt lat="42.46741029761296" lon="14.127663742053317"><ele>145.0</ele><time>2026-04-17T18:03:57.999Z</time></trkpt><trkpt lat="42.467316775111456" lon="14.127431451662966"><ele>145.0</ele><time>2026-04-17T18:03:58.999Z</time></trkpt><trkpt lat="42.46721368215592" lon="14.127187050671324"><ele>145.0</ele><time>2026-04-17T18:03:59.999Z</time></trkpt><trkpt lat="42.46710580878726" lon="14.12696426910058"><ele>143.0</ele><time>2026-04-17T18:04:00.999Z</time></trkpt><trkpt lat="42.46701599610278" lon="14.126759659220788"><ele>141.0</ele><time>2026-04-17T18:04:01.999Z</time></trkpt><trkpt lat="42.46693560302674" lon="14.126589400843674"><ele>139.0</ele><time>2026-04-17T18:04:02.999Z</time></trkpt><trkpt lat="42.4668477924729" lon="14.126449495418184"><ele>137.75</ele><time>2026-04-17T18:04:03.999Z</time></trkpt><trkpt lat="42.466787109523764" lon="14.126317952118503"><ele>136.5</ele><time>2026-04-17T18:04:04.999Z</time></trkpt><trkpt lat="42.46672533750726" lon="14.126215532617843"><ele>135.25</ele><time>2026-04-17T18:04:05.999Z</time></trkpt><trkpt lat="42.466631824355126" lon="14.126144423399321"><ele>134.0</ele><time>2026-04-17T18:04:06.999Z</time></trkpt><trkpt lat="42.466506147875485" lon="14.126089490412257"><ele>134.0</ele><time>2026-04-17T18:04:07.999Z</time></trkpt><trkpt lat="42.4663529792416" lon="14.126068528425563"><ele>134.0</ele><time>2026-04-17T18:04:08.999Z</time></trkpt><trkpt lat="42.466198034807626" lon="14.126056726487775"><ele>134.0</ele><time>2026-04-17T18:04:09.999Z</time></trkpt><trkpt lat="42.466054301654296" lon="14.126038994869777"><ele>134.66666666666666</ele><time>2026-04-17T18:04:10.999Z</time></trkpt><trkpt lat="42.465919521208484" lon="14.125980548863252"><ele>135.33333333333334</ele><time>2026-04-17T18:04:11.999Z</time></trkpt><trkpt lat="42.4657839844675" lon="14.125864238034367"><ele>136.0</ele><time>2026-04-17T18:04:12.999Z</time></trkpt><trkpt lat="42.4656538907495" lon="14.125721151535979"><ele>136.0</ele><time>2026-04-17T18:04:13.999Z</time></trkpt><trkpt lat="42.465533880153245" lon="14.125572501329442"><ele>136.0</ele><time>2026-04-17T18:04:14.999Z</time></trkpt><trkpt lat="42.4654309675619" lon="14.125415785874093"><ele>136.0</ele><time>2026-04-17T18:04:15.999Z</time></trkpt><trkpt lat="42.46532841885919" lon="14.125251829988468"><ele>137.66666666666669</ele><time>2026-04-17T18:04:16.999Z</time></trkpt><trkpt lat="42.46522437965939" lon="14.125079751876532"><ele>139.33333333333334</ele><time>2026-04-17T18:04:17.999Z</time></trkpt><trkpt lat="42.465120840832576" lon="14.124893155648657"><ele>141.0</ele><time>2026-04-17T18:04:18.999Z</time></trkpt><trkpt lat="42.4650149270902" lon="14.124698275822094"><ele>141.0</ele><time>2026-04-17T18:04:19.999Z</time></trkpt><trkpt lat="42.46489123460157" lon="14.124512986559454"><ele>141.0</ele><time>2026-04-17T18:04:20.999Z</time></trkpt><trkpt lat="42.46475633490614" lon="14.12434760926798"><ele>141.0</ele><time>2026-04-17T18:04:21.999Z</time></trkpt><trkpt lat="42.46462991872005" lon="14.124200556255609"><ele>143.66666666666666</ele><time>2026-04-17T18:04:22.999Z</time></trkpt><trkpt lat="42.46454301172576" lon="14.12401569916649"><ele>146.33333333333331</ele><time>2026-04-17T18:04:23.999Z</time></trkpt><trkpt lat="42.4644656452005" lon="14.12382006380457"><ele>149.0</ele><time>2026-04-17T18:04:24.999Z</time></trkpt><trkpt lat="42.46440172769301" lon="14.123599967828248"><ele>149.0</ele><time>2026-04-17T18:04:25.999Z</time></trkpt><trkpt lat="42.464351022958375" lon="14.12339457820916"><ele>149.0</ele><time>2026-04-17T18:04:26.999Z</time></trkpt><trkpt lat="42.464304453768634" lon="14.123202865579023"><ele>149.0</ele><time>2026-04-17T18:04:27.999Z</time></trkpt><trkpt lat="42.464241698349106" lon="14.12299941165511"><ele>149.0</ele><time>2026-04-17T18:04:28.999Z</time></trkpt><trkpt lat="42.46413746071771" lon="14.12278931366253"><ele>149.0</ele><time>2026-04-17T18:04:29.999Z</time></trkpt><trkpt lat="42.464052462924684" lon="14.122594056775318"><ele>149.0</ele><time>2026-04-17T18:04:30.999Z</time></trkpt><trkpt lat="42.46396856560754" lon="14.122415649569321"><ele>149.66666666666666</ele><time>2026-04-17T18:04:31.999Z</time></trkpt><trkpt lat="42.46385364647175" lon="14.122244474426697"><ele>150.33333333333334</ele><time>2026-04-17T18:04:32.999Z</time></trkpt><trkpt lat="42.46371963956822" lon="14.122082278900244"><ele>151.0</ele><time>2026-04-17T18:04:33.999Z</time></trkpt><trkpt lat="42.463571620009695" lon="14.121969161647828"><ele>152.33333333333334</ele><time>2026-04-17T18:04:34.999Z</time></trkpt><trkpt lat="42.463407405695165" lon="14.121861537640983"><ele>153.66666666666666</ele><time>2026-04-17T18:04:35.999Z</time></trkpt><trkpt lat="42.463242585277854" lon="14.121767994687046"><ele>155.0</ele><time>2026-04-17T18:04:36.999Z</time></trkpt><trkpt lat="42.463074810569275" lon="14.121649843714646"><ele>158.66666666666666</ele><time>2026-04-17T18:04:37.999Z</time></trkpt><trkpt lat="42.462905986803634" lon="14.121519097361704"><ele>162.33333333333334</ele><time>2026-04-17T18:04:38.999Z</time></trkpt><trkpt lat="42.46273757990848" lon="14.121401388331114"><ele>166.0</ele><time>2026-04-17T18:04:39.999Z</time></trkpt><trkpt lat="42.46258218866209" lon="14.12128483307433"><ele>166.0</ele><time>2026-04-17T18:04:40.999Z</time></trkpt><trkpt lat="42.46242300751102" lon="14.121152880567474"><ele>166.0</ele><time>2026-04-17T18:04:41.999Z</time></trkpt><trkpt lat="42.46224813509196" lon="14.121026950254565"><ele>166.0</ele><time>2026-04-17T18:04:42.999Z</time></trkpt><trkpt lat="42.46208982125959" lon="14.120912848623972"><ele>167.0</ele><time>2026-04-17T18:04:43.999Z</time></trkpt><trkpt lat="42.461940474906264" lon="14.120796234014275"><ele>168.0</ele><time>2026-04-17T18:04:44.999Z</time></trkpt><trkpt lat="42.461801519335374" lon="14.120694221260601"><ele>169.0</ele><time>2026-04-17T18:04:45.999Z</time></trkpt><trkpt lat="42.461669587795356" lon="14.12058426245961"><ele>169.0</ele><time>2026-04-17T18:04:46.999Z</time></trkpt><trkpt lat="42.46153829565542" lon="14.12048209783972"><ele>169.0</ele><time>2026-04-17T18:04:47.999Z</time></trkpt><trkpt lat="42.4614164033989" lon="14.120385731201775"><ele>169.0</ele><time>2026-04-17T18:04:48.999Z</time></trkpt><trkpt lat="42.461280874578996" lon="14.12030238032112"><ele>169.0</ele><time>2026-04-17T18:04:49.999Z</time></trkpt><trkpt lat="42.461123390294084" lon="14.120238616082277"><ele>166.66666666666669</ele><time>2026-04-17T18:04:50.999Z</time></trkpt><trkpt lat="42.460953801097034" lon="14.120200499102204"><ele>164.33333333333334</ele><time>2026-04-17T18:04:51.999Z</time></trkpt><trkpt lat="42.46080206791867" lon="14.12016597586298"><ele>162.0</ele><time>2026-04-17T18:04:52.998Z</time></trkpt><trkpt lat="42.460662310582414" lon="14.120135619555716"><ele>162.0</ele><time>2026-04-17T18:04:53.998Z</time></trkpt><trkpt lat="42.46053698931791" lon="14.12008086009929"><ele>162.0</ele><time>2026-04-17T18:04:54.998Z</time></trkpt><trkpt lat="42.46041800115878" lon="14.120023447854143"><ele>162.0</ele><time>2026-04-17T18:04:55.998Z</time></trkpt><trkpt lat="42.46031491654643" lon="14.119970529881101"><ele>162.0</ele><time>2026-04-17T18:04:56.998Z</time></trkpt><trkpt lat="42.46024017861448" lon="14.119925125123968"><ele>161.6</ele><time>2026-04-17T18:04:57.998Z</time></trkpt><trkpt lat="42.460167551723664" lon="14.119893391705132"><ele>161.2</ele><time>2026-04-17T18:04:59.998Z</time></trkpt><trkpt lat="42.46011122153353" lon="14.119765026823208"><ele>160.8</ele><time>2026-04-17T18:05:01.998Z</time></trkpt><trkpt lat="42.46000383899195" lon="14.119702753141224"><ele>160.4</ele><time>2026-04-17T18:05:03.998Z</time></trkpt><trkpt lat="42.459934299178634" lon="14.119719719232567"><ele>160.0</ele><time>2026-04-17T18:05:04.998Z</time></trkpt><trkpt lat="42.459871648133536" lon="14.119780845382968"><ele>160.0</ele><time>2026-04-17T18:05:05.998Z</time></trkpt><trkpt lat="42.45983322308338" lon="14.119876711200584"><ele>160.0</ele><time>2026-04-17T18:05:06.998Z</time></trkpt><trkpt lat="42.45980616439315" lon="14.119997381815097"><ele>160.0</ele><time>2026-04-17T18:05:07.998Z</time></trkpt><trkpt lat="42.45982664743114" lon="14.120142847953499"><ele>160.0</ele><time>2026-04-17T18:05:08.998Z</time></trkpt><trkpt lat="42.45964742050769" lon="14.12025531451886"><ele>159.75</ele><time>2026-04-17T18:05:09.998Z</time></trkpt><trkpt lat="42.45952227940885" lon="14.120374177519937"><ele>159.5</ele><time>2026-04-17T18:05:10.998Z</time></trkpt><trkpt lat="42.45940621459296" lon="14.120493395520512"><ele>159.25</ele><time>2026-04-17T18:05:11.998Z</time></trkpt><trkpt lat="42.459287045486164" lon="14.120616229301246"><ele>159.0</ele><time>2026-04-17T18:05:12.998Z</time></trkpt><trkpt lat="42.45917398979944" lon="14.12073050417661"><ele>159.25</ele><time>2026-04-17T18:05:13.998Z</time></trkpt><trkpt lat="42.459067968968576" lon="14.120839770206059"><ele>159.5</ele><time>2026-04-17T18:05:15Z</time></trkpt><trkpt lat="42.45896963994694" lon="14.120946831798555"><ele>159.75</ele><time>2026-04-17T18:05:16Z</time></trkpt><trkpt lat="42.458863260498596" lon="14.121059944311707"><ele>160.0</ele><time>2026-04-17T18:05:17Z</time></trkpt><trkpt lat="42.45875381692589" lon="14.121174699964737"><ele>160.0</ele><time>2026-04-17T18:05:18Z</time></trkpt><trkpt lat="42.458650526460545" lon="14.12128147030025"><ele>160.0</ele><time>2026-04-17T18:05:19Z</time></trkpt><trkpt lat="42.4585516322915" lon="14.121382505103067"><ele>160.0</ele><time>2026-04-17T18:05:20Z</time></trkpt><trkpt lat="42.45844898431897" lon="14.121492231095644"><ele>160.0</ele><time>2026-04-17T18:05:21Z</time></trkpt><trkpt lat="42.45834236318946" lon="14.121602642500811"><ele>160.0</ele><time>2026-04-17T18:05:22Z</time></trkpt><trkpt lat="42.45823413584033" lon="14.121718606532559"><ele>160.0</ele><time>2026-04-17T18:05:23Z</time></trkpt><trkpt lat="42.45813607871728" lon="14.121827674581597"><ele>160.0</ele><time>2026-04-17T18:05:24Z</time></trkpt><trkpt lat="42.458049635023166" lon="14.121940523561376"><ele>160.0</ele><time>2026-04-17T18:05:25Z</time></trkpt><trkpt lat="42.457967912057946" lon="14.12205940011041"><ele>159.5</ele><time>2026-04-17T18:05:26Z</time></trkpt><trkpt lat="42.457894266251785" lon="14.12219266047478"><ele>159.0</ele><time>2026-04-17T18:05:27Z</time></trkpt><trkpt lat="42.45783070704713" lon="14.122351791749757"><ele>158.5</ele><time>2026-04-17T18:05:28Z</time></trkpt><trkpt lat="42.45777473191179" lon="14.122525037937729"><ele>158.0</ele><time>2026-04-17T18:05:29Z</time></trkpt><trkpt lat="42.45771620219421" lon="14.12273946675506"><ele>159.33333333333331</ele><time>2026-04-17T18:05:30Z</time></trkpt><trkpt lat="42.4576551547828" lon="14.122986386942406"><ele>160.66666666666666</ele><time>2026-04-17T18:05:31Z</time></trkpt><trkpt lat="42.45757644491416" lon="14.12323455164335"><ele>162.0</ele><time>2026-04-17T18:05:32Z</time></trkpt><trkpt lat="42.45748904812485" lon="14.123476689142073"><ele>162.66666666666666</ele><time>2026-04-17T18:05:33Z</time></trkpt><trkpt lat="42.457410860633715" lon="14.123707821568265"><ele>163.33333333333331</ele><time>2026-04-17T18:05:34Z</time></trkpt><trkpt lat="42.457351221231384" lon="14.123923468228053"><ele>164.0</ele><time>2026-04-17T18:05:35Z</time></trkpt><trkpt lat="42.45728593261121" lon="14.124129273752308"><ele>163.0</ele><time>2026-04-17T18:05:36Z</time></trkpt><trkpt lat="42.45722306366729" lon="14.12432181194529"><ele>162.0</ele><time>2026-04-17T18:05:37Z</time></trkpt><trkpt lat="42.457167717510934" lon="14.124507098582725"><ele>161.0</ele><time>2026-04-17T18:05:38Z</time></trkpt><trkpt lat="42.45713033176758" lon="14.124688643251337"><ele>160.0</ele><time>2026-04-17T18:05:39Z</time></trkpt><trkpt lat="42.457118086428274" lon="14.124872213632965"><ele>164.66666666666669</ele><time>2026-04-17T18:05:40Z</time></trkpt><trkpt lat="42.457131924450344" lon="14.12507161609502"><ele>169.33333333333334</ele><time>2026-04-17T18:05:41Z</time></trkpt><trkpt lat="42.457163128272164" lon="14.12528286399697"><ele>174.0</ele><time>2026-04-17T18:05:42Z</time></trkpt><trkpt lat="42.45721410521281" lon="14.125501628676773"><ele>174.0</ele><time>2026-04-17T18:05:43Z</time></trkpt><trkpt lat="42.45728655506259" lon="14.125723938554462"><ele>174.0</ele><time>2026-04-17T18:05:44Z</time></trkpt><trkpt lat="42.45736741180243" lon="14.125940426409302"><ele>174.0</ele><time>2026-04-17T18:05:45Z</time></trkpt><trkpt lat="42.457458759015985" lon="14.126156017583687"><ele>171.66666666666666</ele><time>2026-04-17T18:05:46Z</time></trkpt><trkpt lat="42.45756505759744" lon="14.126368167017677"><ele>169.33333333333331</ele><time>2026-04-17T18:05:47Z</time></trkpt><trkpt lat="42.45767722406832" lon="14.126568489204981"><ele>167.0</ele><time>2026-04-17T18:05:48Z</time></trkpt><trkpt lat="42.45777490133107" lon="14.12674925008092"><ele>168.33333333333331</ele><time>2026-04-17T18:05:49Z</time></trkpt><trkpt lat="42.45785794545975" lon="14.126911931330731"><ele>169.66666666666666</ele><time>2026-04-17T18:05:50Z</time></trkpt><trkpt lat="42.45795275305902" lon="14.127058571294441"><ele>171.0</ele><time>2026-04-17T18:05:51Z</time></trkpt><trkpt lat="42.458079407943174" lon="14.127190868983961"><ele>171.0</ele><time>2026-04-17T18:05:52Z</time></trkpt><trkpt lat="42.458208587718346" lon="14.127302936085444"><ele>171.0</ele><time>2026-04-17T18:05:53Z</time></trkpt><trkpt lat="42.45831443718424" lon="14.127436949461444"><ele>171.0</ele><time>2026-04-17T18:05:54Z</time></trkpt><trkpt lat="42.458387856432054" lon="14.127635170796689"><ele>168.33333333333334</ele><time>2026-04-17T18:05:55Z</time></trkpt><trkpt lat="42.45845913272355" lon="14.12784485345139"><ele>165.66666666666669</ele><time>2026-04-17T18:05:56Z</time></trkpt><trkpt lat="42.45852326139945" lon="14.128032060836833"><ele>163.0</ele><time>2026-04-17T18:05:57Z</time></trkpt><trkpt lat="42.458592531841695" lon="14.128211946155096"><ele>160.33333333333334</ele><time>2026-04-17T18:05:58Z</time></trkpt><trkpt lat="42.45865406411795" lon="14.128401955894693"><ele>157.66666666666666</ele><time>2026-04-17T18:05:59Z</time></trkpt><trkpt lat="42.45869177870656" lon="14.12860615121638"><ele>155.0</ele><time>2026-04-17T18:06:00Z</time></trkpt><trkpt lat="42.45869451049801" lon="14.128823860218468"><ele>155.0</ele><time>2026-04-17T18:06:01Z</time></trkpt><trkpt lat="42.45866992252895" lon="14.129052252292222"><ele>155.0</ele><time>2026-04-17T18:06:01.999Z</time></trkpt><trkpt lat="42.45861875868265" lon="14.129268195840053"><ele>155.0</ele><time>2026-04-17T18:06:02.999Z</time></trkpt><trkpt lat="42.45854134935441" lon="14.129482432049315"><ele>156.0</ele><time>2026-04-17T18:06:03.999Z</time></trkpt><trkpt lat="42.4584485834075" lon="14.129695348784146"><ele>157.0</ele><time>2026-04-17T18:06:04.999Z</time></trkpt><trkpt lat="42.4583454571958" lon="14.129886087651483"><ele>158.0</ele><time>2026-04-17T18:06:05.999Z</time></trkpt><trkpt lat="42.458213805242984" lon="14.130061299327506"><ele>158.0</ele><time>2026-04-17T18:06:06.999Z</time></trkpt><trkpt lat="42.458058954629934" lon="14.130230900243442"><ele>158.0</ele><time>2026-04-17T18:06:07.999Z</time></trkpt><trkpt lat="42.45790019911517" lon="14.130388353618764"><ele>158.0</ele><time>2026-04-17T18:06:08.999Z</time></trkpt><trkpt lat="42.457746419280305" lon="14.130543740539078"><ele>158.66666666666666</ele><time>2026-04-17T18:06:09.999Z</time></trkpt><trkpt lat="42.45760798105843" lon="14.130732651173144"><ele>159.33333333333334</ele><time>2026-04-17T18:06:10.999Z</time></trkpt><trkpt lat="42.457478959436" lon="14.13096881289798"><ele>160.0</ele><time>2026-04-17T18:06:11.999Z</time></trkpt><trkpt lat="42.457371372713034" lon="14.131224483165896"><ele>160.0</ele><time>2026-04-17T18:06:12.999Z</time></trkpt><trkpt lat="42.457268660151094" lon="14.131499513456983"><ele>160.0</ele><time>2026-04-17T18:06:13.999Z</time></trkpt><trkpt lat="42.457170638045774" lon="14.131755387326313"><ele>160.0</ele><time>2026-04-17T18:06:14.999Z</time></trkpt><trkpt lat="42.45706910360539" lon="14.131983552999298"><ele>162.0</ele><time>2026-04-17T18:06:15.999Z</time></trkpt><trkpt lat="42.456979801150304" lon="14.132195391697472"><ele>164.0</ele><time>2026-04-17T18:06:16.999Z</time></trkpt><trkpt lat="42.456899672065404" lon="14.132400757176681"><ele>166.0</ele><time>2026-04-17T18:06:17.999Z</time></trkpt><trkpt lat="42.45683611635706" lon="14.132606440604455"><ele>166.0</ele><time>2026-04-17T18:06:18.999Z</time></trkpt><trkpt lat="42.45679949177717" lon="14.1328292660552"><ele>166.0</ele><time>2026-04-17T18:06:19.999Z</time></trkpt><trkpt lat="42.45677102914483" lon="14.133052685035201"><ele>166.0</ele><time>2026-04-17T18:06:20.999Z</time></trkpt><trkpt lat="42.45675104935552" lon="14.133257187569212"><ele>166.66666666666669</ele><time>2026-04-17T18:06:21.999Z</time></trkpt><trkpt lat="42.45672916934949" lon="14.133443966208787"><ele>167.33333333333334</ele><time>2026-04-17T18:06:22.999Z</time></trkpt><trkpt lat="42.456702621569896" lon="14.133648465174893"><ele>168.0</ele><time>2026-04-17T18:06:23.999Z</time></trkpt><trkpt lat="42.45666019659169" lon="14.133893420505716"><ele>168.0</ele><time>2026-04-17T18:06:24.999Z</time></trkpt><trkpt lat="42.45657611948136" lon="14.134142117953898"><ele>168.0</ele><time>2026-04-17T18:06:25.999Z</time></trkpt><trkpt lat="42.45649190446378" lon="14.134415456627229"><ele>168.0</ele><time>2026-04-17T18:06:26.999Z</time></trkpt><trkpt lat="42.45641034503994" lon="14.13467700518236"><ele>167.33333333333334</ele><time>2026-04-17T18:06:27.999Z</time></trkpt><trkpt lat="42.456310534202196" lon="14.13494515304512"><ele>166.66666666666669</ele><time>2026-04-17T18:06:28.999Z</time></trkpt><trkpt lat="42.456233120729905" lon="14.13522041603912"><ele>166.0</ele><time>2026-04-17T18:06:29.999Z</time></trkpt><trkpt lat="42.45616694801334" lon="14.135453293351382"><ele>168.8</ele><time>2026-04-17T18:06:30.999Z</time></trkpt><trkpt lat="42.45610694713433" lon="14.135628549291491"><ele>171.60000000000002</ele><time>2026-04-17T18:06:31.999Z</time></trkpt><trkpt lat="42.456047564296135" lon="14.135754636992617"><ele>174.4</ele><time>2026-04-17T18:06:32.999Z</time></trkpt><trkpt lat="42.45599076258635" lon="14.135843021487206"><ele>177.2</ele><time>2026-04-17T18:06:33.999Z</time></trkpt><trkpt lat="42.45593649797752" lon="14.135916276691027"><ele>180.0</ele><time>2026-04-17T18:06:34.999Z</time></trkpt><trkpt lat="42.45586882168909" lon="14.135972268973887"><ele>180.0</ele><time>2026-04-17T18:06:36.999Z</time></trkpt><trkpt lat="42.456031298957654" lon="14.13612372509316"><ele>180.0</ele><time>2026-04-17T18:06:38.999Z</time></trkpt><trkpt lat="42.456147219189035" lon="14.136161664148604"><ele>180.0</ele><time>2026-04-17T18:06:39.999Z</time></trkpt><trkpt lat="42.4562940039256" lon="14.13621678287265"><ele>176.75</ele><time>2026-04-17T18:06:40.999Z</time></trkpt><trkpt lat="42.4564184293633" lon="14.13627660057043"><ele>173.5</ele><time>2026-04-17T18:06:41.999Z</time></trkpt><trkpt lat="42.4565330989147" lon="14.136310913120248"><ele>170.25</ele><time>2026-04-17T18:06:42.999Z</time></trkpt><trkpt lat="42.45664812770829" lon="14.13631883395297"><ele>167.0</ele><time>2026-04-17T18:06:43.999Z</time></trkpt><trkpt lat="42.456755168869975" lon="14.136301412156818"><ele>167.0</ele><time>2026-04-17T18:06:44.999Z</time></trkpt><trkpt lat="42.45686428951356" lon="14.136259205161073"><ele>167.0</ele><time>2026-04-17T18:06:45.999Z</time></trkpt><trkpt lat="42.456988424469515" lon="14.136218515209697"><ele>167.0</ele><time>2026-04-17T18:06:46.999Z</time></trkpt><trkpt lat="42.45713762806203" lon="14.136204788201647"><ele>167.0</ele><time>2026-04-17T18:06:47.999Z</time></trkpt><trkpt lat="42.45726596870016" lon="14.136210350156508"><ele>165.5</ele><time>2026-04-17T18:06:48.999Z</time></trkpt><trkpt lat="42.45736583682171" lon="14.136216049972086"><ele>164.0</ele><time>2026-04-17T18:06:49.999Z</time></trkpt><trkpt lat="42.457459151488656" lon="14.136200837294716"><ele>162.5</ele><time>2026-04-17T18:06:50.999Z</time></trkpt><trkpt lat="42.457541400638696" lon="14.136186405124247"><ele>161.0</ele><time>2026-04-17T18:06:51.999Z</time></trkpt><trkpt lat="42.45761146093854" lon="14.136168662260866"><ele>159.5</ele><time>2026-04-17T18:06:52.999Z</time></trkpt><trkpt lat="42.4577063084812" lon="14.136144956691348"><ele>158.0</ele><time>2026-04-17T18:06:54.999Z</time></trkpt><trkpt lat="42.45776932128785" lon="14.136151664070516"><ele>158.0</ele><time>2026-04-17T18:06:57.999Z</time></trkpt><trkpt lat="42.45770378191483" lon="14.136169479439367"><ele>158.0</ele><time>2026-04-17T18:09:26Z</time></trkpt><trkpt lat="42.45782594214525" lon="14.136315379824929"><ele>158.0</ele><time>2026-04-17T18:09:43Z</time></trkpt><trkpt lat="42.45773692415617" lon="14.136353726698845"><ele>158.0</ele><time>2026-04-17T18:09:49Z</time></trkpt><trkpt lat="42.45763593931206" lon="14.136489413774369"><ele>158.0</ele><time>2026-04-17T18:09:50Z</time></trkpt><trkpt lat="42.457552995798" lon="14.136534390547828"><ele>158.0</ele><time>2026-04-17T18:09:51Z</time></trkpt><trkpt lat="42.45767521281305" lon="14.136476107391005"><ele>158.0</ele><time>2026-04-17T18:09:53Z</time></trkpt><trkpt lat="42.45768964148989" lon="14.136370962690116"><ele>158.0</ele><time>2026-04-17T18:10:02Z</time></trkpt><trkpt lat="42.45774354667517" lon="14.136308423987384"><ele>158.0</ele><time>2026-04-17T18:10:35.999Z</time></trkpt><trkpt lat="42.457762824776026" lon="14.136396846470046"><ele>158.0</ele><time>2026-04-17T18:12:15Z</time></trkpt><trkpt lat="42.45773061408777" lon="14.136473796663536"><ele>158.0</ele><time>2026-04-17T18:12:20Z</time></trkpt><trkpt lat="42.45773408192812" lon="14.136566074761546"><ele>158.0</ele><time>2026-04-17T18:12:25Z</time></trkpt><trkpt lat="42.45779450806675" lon="14.136616583356451"><ele>158.0</ele><time>2026-04-17T18:12:28Z</time></trkpt><trkpt lat="42.4577226737052" lon="14.136271312017021"><ele>158.0</ele><time>2026-04-17T18:12:37.999Z</time></trkpt><trkpt lat="42.45739735825486" lon="14.135452612482519"><ele>158.0</ele><time>2026-04-17T18:12:40.032Z</time></trkpt><trkpt lat="42.45770225127646" lon="14.136176140415158"><ele>158.00000000000003</ele><time>2026-04-17T18:12:40.999Z</time></trkpt><trkpt lat="42.457774161873374" lon="14.13618571055427"><ele>158.0</ele><time>2026-04-17T18:12:42.999Z</time></trkpt><trkpt lat="42.45770705794377" lon="14.136151620264584"><ele>158.0</ele><time>2026-04-17T18:12:56.999Z</time></trkpt><trkpt lat="42.45764392505165" lon="14.136176147497922"><ele>158.0</ele><time>2026-04-17T18:13:07.999Z</time></trkpt><trkpt lat="42.457575059798494" lon="14.136204867200489"><ele>158.0</ele><time>2026-04-17T18:13:14.999Z</time></trkpt><trkpt lat="42.45750615293541" lon="14.136213168728407"><ele>158.00000000000003</ele><time>2026-04-17T18:13:22.999Z</time></trkpt><trkpt lat="42.457440310017745" lon="14.136236421325682"><ele>158.0</ele><time>2026-04-17T18:13:28.999Z</time></trkpt><trkpt lat="42.45736697761068" lon="14.136235014250172"><ele>158.00000000000003</ele><time>2026-04-17T18:13:36.999Z</time></trkpt><trkpt lat="42.457303780629914" lon="14.136198953510183"><ele>158.0</ele><time>2026-04-17T18:13:42.001Z</time></trkpt><trkpt lat="42.45723686156074" lon="14.136196783348815"><ele>158.0</ele><time>2026-04-17T18:13:48.001Z</time></trkpt><trkpt lat="42.457171815206486" lon="14.13621460937958"><ele>158.0</ele><time>2026-04-17T18:14:00Z</time></trkpt><trkpt lat="42.45710995991817" lon="14.13618946906636"><ele>158.0</ele><time>2026-04-17T18:14:18Z</time></trkpt><trkpt lat="42.45704183471597" lon="14.136204987347968"><ele>158.00000000000003</ele><time>2026-04-17T18:14:42.999Z</time></trkpt><trkpt lat="42.45697706813558" lon="14.136198778970831"><ele>158.0</ele><time>2026-04-17T18:14:48.999Z</time></trkpt><trkpt lat="42.456911819848834" lon="14.136187101826359"><ele>159.2857142857143</ele><time>2026-04-17T18:15:00.998Z</time></trkpt><trkpt lat="42.45684482420506" lon="14.136174219939624"><ele>160.57142857142858</ele><time>2026-04-17T18:15:24.998Z</time></trkpt><trkpt lat="42.456790294682634" lon="14.13621719751454"><ele>161.85714285714286</ele><time>2026-04-17T18:15:30.998Z</time></trkpt><trkpt lat="42.45671862055944" lon="14.13623894397083"><ele>163.14285714285717</ele><time>2026-04-17T18:16:10.999Z</time></trkpt><trkpt lat="42.45665794617728" lon="14.136262739614777"><ele>164.42857142857144</ele><time>2026-04-17T18:16:27.999Z</time></trkpt><trkpt lat="42.45659261352317" lon="14.136279951775322"><ele>165.71428571428572</ele><time>2026-04-17T18:16:39.999Z</time></trkpt><trkpt lat="42.45652585763457" lon="14.13631526507436"><ele>167.0</ele><time>2026-04-17T18:16:52.999Z</time></trkpt><trkpt lat="42.45646513444459" lon="14.136290902846945"><ele>167.0</ele><time>2026-04-17T18:17:04.998Z</time></trkpt><trkpt lat="42.45639725338888" lon="14.1362751995909"><ele>167.0</ele><time>2026-04-17T18:17:11.998Z</time></trkpt><trkpt lat="42.45632961407294" lon="14.136248188698433"><ele>167.0</ele><time>2026-04-17T18:17:44.998Z</time></trkpt><trkpt lat="42.456268030653106" lon="14.13622020551973"><ele>167.0</ele><time>2026-04-17T18:17:51Z</time></trkpt><trkpt lat="42.45621031536589" lon="14.136178553511856"><ele>167.0</ele><time>2026-04-17T18:17:59Z</time></trkpt><trkpt lat="42.45614673458828" lon="14.136184554249665"><ele>167.0</ele><time>2026-04-17T18:18:05Z</time></trkpt><trkpt lat="42.45608607860124" lon="14.13614639743139"><ele>167.0</ele><time>2026-04-17T18:18:11.999Z</time></trkpt><trkpt lat="42.45603054514566" lon="14.136095964156409"><ele>168.85714285714286</ele><time>2026-04-17T18:18:18.999Z</time></trkpt><trkpt lat="42.45598748430513" lon="14.136032893909718"><ele>170.71428571428572</ele><time>2026-04-17T18:18:25.999Z</time></trkpt><trkpt lat="42.45600993631915" lon="14.135936752521564"><ele>172.57142857142856</ele><time>2026-04-17T18:18:30.999Z</time></trkpt><trkpt lat="42.456035150750616" lon="14.135841143483027"><ele>174.42857142857144</ele><time>2026-04-17T18:18:35.999Z</time></trkpt><trkpt lat="42.456071985034406" lon="14.135764029261614"><ele>176.2857142857143</ele><time>2026-04-17T18:18:40.999Z</time></trkpt><trkpt lat="42.45610483019367" lon="14.13568813601246"><ele>178.14285714285714</ele><time>2026-04-17T18:18:45.999Z</time></trkpt><trkpt lat="42.45613108094103" lon="14.13560836659008"><ele>180.0</ele><time>2026-04-17T18:19:06.999Z</time></trkpt><trkpt lat="42.45615929686771" lon="14.135521815188763"><ele>182.0</ele><time>2026-04-17T18:19:12.999Z</time></trkpt><trkpt lat="42.456187947312564" lon="14.13543250610054"><ele>184.0</ele><time>2026-04-17T18:19:18.998Z</time></trkpt><trkpt lat="42.456214175900634" lon="14.135344801536602"><ele>186.0</ele><time>2026-04-17T18:19:25.998Z</time></trkpt><trkpt lat="42.45624874498916" lon="14.13526868907277"><ele>188.0</ele><time>2026-04-17T18:19:42.998Z</time></trkpt><trkpt lat="42.45627190503452" lon="14.135189346525575"><ele>190.0</ele><time>2026-04-17T18:19:48.998Z</time></trkpt><trkpt lat="42.456300067450805" lon="14.135110205664398"><ele>192.0</ele><time>2026-04-17T18:19:54.998Z</time></trkpt><trkpt lat="42.45633518027351" lon="14.135036782414439"><ele>194.0</ele><time>2026-04-17T18:20:01Z</time></trkpt><trkpt lat="42.456362823149036" lon="14.134947785933926"><ele>190.28571428571428</ele><time>2026-04-17T18:20:07Z</time></trkpt><trkpt lat="42.456391264735245" lon="14.134861424901485"><ele>186.57142857142858</ele><time>2026-04-17T18:20:16Z</time></trkpt><trkpt lat="42.456413972810225" lon="14.13477884002543"><ele>182.85714285714286</ele><time>2026-04-17T18:20:22Z</time></trkpt><trkpt lat="42.45644251901141" lon="14.134699651370266"><ele>179.14285714285714</ele><time>2026-04-17T18:21:00.999Z</time></trkpt><trkpt lat="42.45647148940021" lon="14.134620916332818"><ele>175.42857142857144</ele><time>2026-04-17T18:21:12.999Z</time></trkpt><trkpt lat="42.45649529546866" lon="14.134536023166014"><ele>171.71428571428572</ele><time>2026-04-17T18:21:18.999Z</time></trkpt><trkpt lat="42.4565213040434" lon="14.134450907553575"><ele>168.0</ele><time>2026-04-17T18:21:24.999Z</time></trkpt><trkpt lat="42.45654554171562" lon="14.13437034344969"><ele>168.0</ele><time>2026-04-17T18:21:30.998Z</time></trkpt><trkpt lat="42.45657432926073" lon="14.134287655201025"><ele>168.0</ele><time>2026-04-17T18:21:37.998Z</time></trkpt><trkpt lat="42.45660490364492" lon="14.134198677785069"><ele>168.0</ele><time>2026-04-17T18:21:44.998Z</time></trkpt><trkpt lat="42.456625283596416" lon="14.13411019918945"><ele>168.0</ele><time>2026-04-17T18:21:51.998Z</time></trkpt><trkpt lat="42.45656547635278" lon="14.13406424567615"><ele>168.0</ele><time>2026-04-17T18:21:56.998Z</time></trkpt><trkpt lat="42.45654537036604" lon="14.134147647128493"><ele>168.0</ele><time>2026-04-17T18:22:19Z</time></trkpt><trkpt lat="42.4565296465735" lon="14.134240569038338"><ele>168.0</ele><time>2026-04-17T18:22:46.999Z</time></trkpt><trkpt lat="42.456507534197684" lon="14.134323757115746"><ele>168.0</ele><time>2026-04-17T18:22:53.999Z</time></trkpt><trkpt lat="42.45647438205847" lon="14.134409957573016"><ele>168.0</ele><time>2026-04-17T18:23:06.999Z</time></trkpt><trkpt lat="42.45645190890844" lon="14.134493094862597"><ele>168.0</ele><time>2026-04-17T18:23:13.999Z</time></trkpt><trkpt lat="42.45642060466034" lon="14.134581801745279"><ele>168.0</ele><time>2026-04-17T18:23:19.999Z</time></trkpt><trkpt lat="42.4563917619009" lon="14.134662533602487"><ele>168.0</ele><time>2026-04-17T18:23:25.999Z</time></trkpt><trkpt lat="42.456375393977055" lon="14.134746608068737"><ele>168.0</ele><time>2026-04-17T18:23:31.999Z</time></trkpt><trkpt lat="42.45635618691542" lon="14.134827976278938"><ele>168.0</ele><time>2026-04-17T18:23:37.998Z</time></trkpt><trkpt lat="42.45633542683576" lon="14.13490890663257"><ele>167.71428571428572</ele><time>2026-04-17T18:23:44.998Z</time></trkpt><trkpt lat="42.45632007543641" lon="14.134993564451658"><ele>167.42857142857144</ele><time>2026-04-17T18:23:56.998Z</time></trkpt><trkpt lat="42.456313786336466" lon="14.13508358125873"><ele>167.14285714285714</ele><time>2026-04-17T18:24:10Z</time></trkpt><trkpt lat="42.456275433696504" lon="14.135157867089218"><ele>166.85714285714286</ele><time>2026-04-17T18:24:17Z</time></trkpt><trkpt lat="42.4562401383808" lon="14.13523642743904"><ele>166.57142857142858</ele><time>2026-04-17T18:24:29Z</time></trkpt><trkpt lat="42.45620889740915" lon="14.135314458763224"><ele>166.28571428571428</ele><time>2026-04-17T18:24:58.999Z</time></trkpt><trkpt lat="42.45619002816636" lon="14.135402178227954"><ele>166.0</ele><time>2026-04-17T18:25:12.999Z</time></trkpt><trkpt lat="42.456165241252634" lon="14.135489529573965"><ele>168.0</ele><time>2026-04-17T18:25:19.999Z</time></trkpt><trkpt lat="42.456130155754764" lon="14.135564151565902"><ele>170.0</ele><time>2026-04-17T18:25:57.998Z</time></trkpt><trkpt lat="42.45610291253915" lon="14.13564511626653"><ele>172.0</ele><time>2026-04-17T18:26:04.998Z</time></trkpt><trkpt lat="42.456094583504274" lon="14.135731544806836"><ele>174.0</ele><time>2026-04-17T18:26:27Z</time></trkpt><trkpt lat="42.45610115205823" lon="14.135825041413865"><ele>176.0</ele><time>2026-04-17T18:26:34Z</time></trkpt><trkpt lat="42.456053865231866" lon="14.13589722776742"><ele>178.0</ele><time>2026-04-17T18:26:41Z</time></trkpt><trkpt lat="42.45602604112216" lon="14.135978394145003"><ele>180.0</ele><time>2026-04-17T18:26:48Z</time></trkpt><trkpt lat="42.456061970493636" lon="14.136058740213958"><ele>180.0</ele><time>2026-04-17T18:26:56.999Z</time></trkpt><trkpt lat="42.4561156503473" lon="14.13611797337761"><ele>180.0</ele><time>2026-04-17T18:27:03.999Z</time></trkpt><trkpt lat="42.45618142908745" lon="14.136129242718308"><ele>180.0</ele><time>2026-04-17T18:27:09.999Z</time></trkpt><trkpt lat="42.45624691826686" lon="14.136152395948338"><ele>180.0</ele><time>2026-04-17T18:27:15.999Z</time></trkpt><trkpt lat="42.4563143984892" lon="14.136166902605504"><ele>180.0</ele><time>2026-04-17T18:27:20.999Z</time></trkpt><trkpt lat="42.456383215861926" lon="14.136180961144625"><ele>180.0</ele><time>2026-04-17T18:27:27.999Z</time></trkpt><trkpt lat="42.456447265200374" lon="14.136237551718843"><ele>180.0</ele><time>2026-04-17T18:27:34.999Z</time></trkpt><trkpt lat="42.45651354439538" lon="14.136266802146105"><ele>178.14285714285714</ele><time>2026-04-17T18:27:48.999Z</time></trkpt><trkpt lat="42.456584862764444" lon="14.136275749028659"><ele>176.2857142857143</ele><time>2026-04-17T18:27:54.999Z</time></trkpt><trkpt lat="42.45665584989488" lon="14.13627000566496"><ele>174.42857142857144</ele><time>2026-04-17T18:28:00.998Z</time></trkpt><trkpt lat="42.45672032952182" lon="14.13626653653766"><ele>172.57142857142856</ele><time>2026-04-17T18:28:07.998Z</time></trkpt><trkpt lat="42.45678452454133" lon="14.136258613309337"><ele>170.71428571428572</ele><time>2026-04-17T18:28:13.998Z</time></trkpt><trkpt lat="42.45685434912007" lon="14.136232664097692"><ele>168.85714285714286</ele><time>2026-04-17T18:28:21Z</time></trkpt><trkpt lat="42.456919387133915" lon="14.13621763573921"><ele>167.0</ele><time>2026-04-17T18:28:27Z</time></trkpt><trkpt lat="42.45698319578203" lon="14.136208020362272"><ele>167.0</ele><time>2026-04-17T18:28:38Z</time></trkpt><trkpt lat="42.45704673813841" lon="14.13619854631814"><ele>167.0</ele><time>2026-04-17T18:28:54Z</time></trkpt><trkpt lat="42.45711485548919" lon="14.136174951917358"><ele>167.0</ele><time>2026-04-17T18:29:09.999Z</time></trkpt><trkpt lat="42.45717853582725" lon="14.136175083146595"><ele>167.0</ele><time>2026-04-17T18:29:17.999Z</time></trkpt><trkpt lat="42.457250195125695" lon="14.136190449991789"><ele>167.0</ele><time>2026-04-17T18:29:26.999Z</time></trkpt><trkpt lat="42.457314001536204" lon="14.136210923789914"><ele>167.0</ele><time>2026-04-17T18:29:36.999Z</time></trkpt><trkpt lat="42.45738401479583" lon="14.136212116194526"><ele>167.0</ele><time>2026-04-17T18:29:42.999Z</time></trkpt><trkpt lat="42.45744941123599" lon="14.13619404263432"><ele>165.71428571428572</ele><time>2026-04-17T18:29:48.999Z</time></trkpt><trkpt lat="42.457514248456356" lon="14.136189636520726"><ele>164.42857142857144</ele><time>2026-04-17T18:29:56.999Z</time></trkpt><trkpt lat="42.457575818156556" lon="14.136161314714409"><ele>163.14285714285717</ele><time>2026-04-17T18:30:03.999Z</time></trkpt><trkpt lat="42.45764523421404" lon="14.136138483972521"><ele>161.85714285714286</ele><time>2026-04-17T18:30:10.998Z</time></trkpt><trkpt lat="42.45771212274032" lon="14.136125720930629"><ele>160.57142857142858</ele><time>2026-04-17T18:30:18.998Z</time></trkpt><trkpt lat="42.45776640090881" lon="14.136229030547488"><ele>159.2857142857143</ele><time>2026-04-17T18:30:43Z</time></trkpt><trkpt lat="42.45782630504997" lon="14.13627578923186"><ele>158.0</ele><time>2026-04-17T18:30:50Z</time></trkpt><trkpt lat="42.457750126628945" lon="14.13635945552459"><ele>158.00000000000003</ele><time>2026-04-17T18:30:52Z</time></trkpt><trkpt lat="42.457754534642945" lon="14.136447784918248"><ele>158.0</ele><time>2026-04-17T18:31:00Z</time></trkpt><trkpt lat="42.457705640992316" lon="14.136360401503008"><ele>158.0</ele><time>2026-04-17T18:31:26.999Z</time></trkpt><trkpt lat="42.45775512213498" lon="14.136297692435628"><ele>158.0</ele><time>2026-04-17T18:31:37.999Z</time></trkpt><trkpt lat="42.45770130831247" lon="14.136360449694678"><ele>158.0</ele><time>2026-04-17T23:06:44Z</time></trkpt><trkpt lat="42.45772220024957" lon="14.136266228511982"><ele>158.00000000000003</ele><time>2026-04-17T23:21:05.998Z</time></trkpt><trkpt lat="42.457725448203" lon="14.136358185780818"><ele>158.0</ele><time>2026-04-18T05:48:49.999Z</time></trkpt><trkpt lat="42.457766072640986" lon="14.13628678407123"><ele>158.00000000000003</ele><time>2026-04-18T05:58:48.999Z</time></trkpt><trkpt lat="42.45771933725298" lon="14.136219143351774"><ele>158.0</ele><time>2026-04-18T05:59:09.999Z</time></trkpt><trkpt lat="42.457719903609004" lon="14.136131136159552"><ele>158.0</ele><time>2026-04-18T05:59:11.999Z</time></trkpt><trkpt lat="42.457792663689155" lon="14.136144605645292"><ele>158.0</ele><time>2026-04-18T05:59:16.999Z</time></trkpt><trkpt lat="42.45784100349404" lon="14.136201481535503"><ele>158.0</ele><time>2026-04-18T05:59:30.998Z</time></trkpt><trkpt lat="42.457809865815655" lon="14.136119662773341"><ele>158.00000000000003</ele><time>2026-04-18T05:59:49.998Z</time></trkpt><trkpt lat="42.45780922915518" lon="14.136220096996357"><ele>158.0</ele><time>2026-04-18T06:00:14Z</time></trkpt><trkpt lat="42.457786297060686" lon="14.136315247817821"><ele>158.0</ele><time>2026-04-18T06:01:45.998Z</time></trkpt><trkpt lat="42.45781825631821" lon="14.136415575256468"><ele>158.0</ele><time>2026-04-18T06:01:49.998Z</time></trkpt><trkpt lat="42.45779422466244" lon="14.136524050739293"><ele>158.0</ele><time>2026-04-18T06:01:52.998Z</time></trkpt><trkpt lat="42.45774552289479" lon="14.136600982721426"><ele>158.0</ele><time>2026-04-18T06:01:56.998Z</time></trkpt><trkpt lat="42.45769111303775" lon="14.136705552668744"><ele>158.0</ele><time>2026-04-18T06:01:59.998Z</time></trkpt><trkpt lat="42.45770030401783" lon="14.136809284875635"><ele>158.0</ele><time>2026-04-18T06:02:02.998Z</time></trkpt><trkpt lat="42.45771047483944" lon="14.13694097761536"><ele>158.0</ele><time>2026-04-18T06:02:05.998Z</time></trkpt><trkpt lat="42.45775433019517" lon="14.13678860142927"><ele>158.0</ele><time>2026-04-18T06:02:14.054Z</time></trkpt><trkpt lat="42.457751389672026" lon="14.136531369247324"><ele>158.0</ele><time>2026-04-18T06:02:20.998Z</time></trkpt><trkpt lat="42.45782748078132" lon="14.136260901036026"><ele>158.0</ele><time>2026-04-18T06:03:28.043Z</time></trkpt><trkpt lat="42.45777501533007" lon="14.136133080296903"><ele>158.0</ele><time>2026-04-18T06:06:57Z</time></trkpt><trkpt lat="42.457842834156004" lon="14.136088154273088"><ele>158.0</ele><time>2026-04-18T06:07:02Z</time></trkpt><trkpt lat="42.457912270460916" lon="14.136082733163095"><ele>158.0</ele><time>2026-04-18T06:07:04Z</time></trkpt><trkpt lat="42.45800951646264" lon="14.136075956635972"><ele>158.0</ele><time>2026-04-18T06:07:06Z</time></trkpt><trkpt lat="42.45811835142795" lon="14.136086168093593"><ele>155.8</ele><time>2026-04-18T06:07:08Z</time></trkpt><trkpt lat="42.458226699869066" lon="14.136130795210534"><ele>153.60000000000002</ele><time>2026-04-18T06:07:10Z</time></trkpt><trkpt lat="42.45833626333532" lon="14.136143099762785"><ele>151.39999999999998</ele><time>2026-04-18T06:07:12Z</time></trkpt><trkpt lat="42.4584593661039" lon="14.136160294931784"><ele>149.2</ele><time>2026-04-18T06:07:14Z</time></trkpt><trkpt lat="42.45853220574358" lon="14.136173486045472"><ele>147.0</ele><time>2026-04-18T06:07:15Z</time></trkpt><trkpt lat="42.45860135639842" lon="14.136187863648718"><ele>147.0</ele><time>2026-04-18T06:07:16Z</time></trkpt><trkpt lat="42.45867110397997" lon="14.136203328407897"><ele>147.0</ele><time>2026-04-18T06:07:17Z</time></trkpt><trkpt lat="42.45873794598163" lon="14.13622403373395"><ele>147.0</ele><time>2026-04-18T06:07:18Z</time></trkpt><trkpt lat="42.4588091748875" lon="14.136243663358895"><ele>147.0</ele><time>2026-04-18T06:07:19Z</time></trkpt><trkpt lat="42.458876711499826" lon="14.136244430999119"><ele>147.0</ele><time>2026-04-18T06:07:20Z</time></trkpt><trkpt lat="42.45894942633001" lon="14.136259796033702"><ele>147.0</ele><time>2026-04-18T06:07:21Z</time></trkpt><trkpt lat="42.459012302906075" lon="14.136280208390804"><ele>147.0</ele><time>2026-04-18T06:07:22Z</time></trkpt><trkpt lat="42.459077279111426" lon="14.136292696503965"><ele>145.79999999999998</ele><time>2026-04-18T06:07:23Z</time></trkpt><trkpt lat="42.459200340460406" lon="14.136298081997298"><ele>144.6</ele><time>2026-04-18T06:07:25Z</time></trkpt><trkpt lat="42.45931255015804" lon="14.136313520745578"><ele>143.39999999999998</ele><time>2026-04-18T06:07:27Z</time></trkpt><trkpt lat="42.45941649781449" lon="14.136296829803062"><ele>142.2</ele><time>2026-04-18T06:07:29Z</time></trkpt><trkpt lat="42.45947984215815" lon="14.136302310988604"><ele>141.0</ele><time>2026-04-18T06:07:31Z</time></trkpt><trkpt lat="42.45947053888967" lon="14.13650815326146"><ele>141.33333333333334</ele><time>2026-04-18T06:07:33Z</time></trkpt><trkpt lat="42.459501542103354" lon="14.136675752591385"><ele>141.66666666666666</ele><time>2026-04-18T06:07:35Z</time></trkpt><trkpt lat="42.459520139770746" lon="14.136759619766352"><ele>142.0</ele><time>2026-04-18T06:07:36Z</time></trkpt><trkpt lat="42.459564744212294" lon="14.136837704599442"><ele>142.33333333333331</ele><time>2026-04-18T06:07:37Z</time></trkpt><trkpt lat="42.45959693927004" lon="14.136915728571399"><ele>142.66666666666666</ele><time>2026-04-18T06:07:38Z</time></trkpt><trkpt lat="42.45964548223083" lon="14.13698521132814"><ele>143.0</ele><time>2026-04-18T06:07:39Z</time></trkpt><trkpt lat="42.45969546396374" lon="14.137042060002479"><ele>141.85714285714283</ele><time>2026-04-18T06:07:40Z</time></trkpt><trkpt lat="42.459755381665786" lon="14.137082744294363"><ele>140.71428571428572</ele><time>2026-04-18T06:07:40.999Z</time></trkpt><trkpt lat="42.45982273619449" lon="14.137120602514551"><ele>139.57142857142856</ele><time>2026-04-18T06:07:41.999Z</time></trkpt><trkpt lat="42.459879836760365" lon="14.137162418749396"><ele>138.42857142857142</ele><time>2026-04-18T06:07:42.999Z</time></trkpt><trkpt lat="42.45994096683334" lon="14.137231865574623"><ele>137.28571428571428</ele><time>2026-04-18T06:07:43.999Z</time></trkpt><trkpt lat="42.460007450497294" lon="14.137294726682953"><ele>136.14285714285714</ele><time>2026-04-18T06:07:44.999Z</time></trkpt><trkpt lat="42.460069765115975" lon="14.137357871880006"><ele>135.0</ele><time>2026-04-18T06:07:45.999Z</time></trkpt><trkpt lat="42.46013849927395" lon="14.13743077270734"><ele>133.4</ele><time>2026-04-18T06:07:46.999Z</time></trkpt><trkpt lat="42.46020850379444" lon="14.137507795024684"><ele>131.8</ele><time>2026-04-18T06:07:47.999Z</time></trkpt><trkpt lat="42.4602829258673" lon="14.137588319388735"><ele>130.2</ele><time>2026-04-18T06:07:48.999Z</time></trkpt><trkpt lat="42.460366649098056" lon="14.137651142199578"><ele>128.6</ele><time>2026-04-18T06:07:49.999Z</time></trkpt><trkpt lat="42.46044486937941" lon="14.137734631003019"><ele>127.0</ele><time>2026-04-18T06:07:50.999Z</time></trkpt><trkpt lat="42.46052903901274" lon="14.137807168589182"><ele>125.0</ele><time>2026-04-18T06:07:51.999Z</time></trkpt><trkpt lat="42.46063078967261" lon="14.137844689710533"><ele>122.99999999999999</ele><time>2026-04-18T06:07:52.999Z</time></trkpt><trkpt lat="42.46073287928222" lon="14.137883866225488"><ele>120.99999999999999</ele><time>2026-04-18T06:07:53.999Z</time></trkpt><trkpt lat="42.460832802688245" lon="14.137920925689464"><ele>119.0</ele><time>2026-04-18T06:07:54.999Z</time></trkpt><trkpt lat="42.460931595913785" lon="14.137966197392949"><ele>117.0</ele><time>2026-04-18T06:07:55.999Z</time></trkpt><trkpt lat="42.461032498766464" lon="14.138010047421549"><ele>117.0</ele><time>2026-04-18T06:07:56.999Z</time></trkpt><trkpt lat="42.46113342194806" lon="14.138045529860214"><ele>116.99999999999999</ele><time>2026-04-18T06:07:57.999Z</time></trkpt><trkpt lat="42.461238835474106" lon="14.138073567734471"><ele>116.99999999999999</ele><time>2026-04-18T06:07:58.999Z</time></trkpt><trkpt lat="42.46133917916239" lon="14.138096275011"><ele>117.0</ele><time>2026-04-18T06:07:59.999Z</time></trkpt><trkpt lat="42.461445245702826" lon="14.13811797109314"><ele>117.0</ele><time>2026-04-18T06:08:00.999Z</time></trkpt><trkpt lat="42.46154497548297" lon="14.138170768749124"><ele>115.8</ele><time>2026-04-18T06:08:01.999Z</time></trkpt><trkpt lat="42.46165323214741" lon="14.138185505099553"><ele>114.6</ele><time>2026-04-18T06:08:02.999Z</time></trkpt><trkpt lat="42.461751375452884" lon="14.138231436187409"><ele>113.39999999999999</ele><time>2026-04-18T06:08:03.999Z</time></trkpt><trkpt lat="42.461849612755685" lon="14.138272880454519"><ele>112.19999999999999</ele><time>2026-04-18T06:08:04.999Z</time></trkpt><trkpt lat="42.46194924834265" lon="14.138313711262635"><ele>111.0</ele><time>2026-04-18T06:08:05.999Z</time></trkpt><trkpt lat="42.462045835991134" lon="14.13835280693773"><ele>108.6</ele><time>2026-04-18T06:08:06.999Z</time></trkpt><trkpt lat="42.46214324735046" lon="14.138391838605754"><ele>106.19999999999999</ele><time>2026-04-18T06:08:07.999Z</time></trkpt><trkpt lat="42.46222753735811" lon="14.138440069442737"><ele>103.80000000000001</ele><time>2026-04-18T06:08:08.999Z</time></trkpt><trkpt lat="42.46231091529606" lon="14.138505629152682"><ele>101.4</ele><time>2026-04-18T06:08:09.999Z</time></trkpt><trkpt lat="42.4624032179674" lon="14.138561387804433"><ele>99.0</ele><time>2026-04-18T06:08:10.999Z</time></trkpt><trkpt lat="42.46250641686131" lon="14.13860020349063"><ele>99.0</ele><time>2026-04-18T06:08:11.999Z</time></trkpt><trkpt lat="42.46261662881815" lon="14.138626786019852"><ele>99.0</ele><time>2026-04-18T06:08:12.999Z</time></trkpt><trkpt lat="42.462721709136616" lon="14.138650160972016"><ele>99.0</ele><time>2026-04-18T06:08:13.999Z</time></trkpt><trkpt lat="42.46282030916922" lon="14.138678757667721"><ele>99.0</ele><time>2026-04-18T06:08:14.999Z</time></trkpt><trkpt lat="42.46291600617376" lon="14.138705548589725"><ele>99.0</ele><time>2026-04-18T06:08:15.999Z</time></trkpt><trkpt lat="42.46300624639041" lon="14.138726384099058"><ele>98.6</ele><time>2026-04-18T06:08:16.999Z</time></trkpt><trkpt lat="42.4630980107249" lon="14.138750773959103"><ele>98.2</ele><time>2026-04-18T06:08:17.999Z</time></trkpt><trkpt lat="42.46319791032144" lon="14.138766772135138"><ele>97.8</ele><time>2026-04-18T06:08:18.999Z</time></trkpt><trkpt lat="42.46330115341196" lon="14.138773640818082"><ele>97.39999999999999</ele><time>2026-04-18T06:08:19.999Z</time></trkpt><trkpt lat="42.46340203621798" lon="14.138768516077295"><ele>97.0</ele><time>2026-04-18T06:08:20.999Z</time></trkpt><trkpt lat="42.46350425779398" lon="14.138764287520631"><ele>97.0</ele><time>2026-04-18T06:08:21.999Z</time></trkpt><trkpt lat="42.46360488304386" lon="14.13875553722855"><ele>97.0</ele><time>2026-04-18T06:08:22.999Z</time></trkpt><trkpt lat="42.46370704000692" lon="14.138745629710154"><ele>97.0</ele><time>2026-04-18T06:08:23.999Z</time></trkpt><trkpt lat="42.46381139946631" lon="14.138738098738477"><ele>97.0</ele><time>2026-04-18T06:08:24.999Z</time></trkpt><trkpt lat="42.463917229710844" lon="14.138732349633875"><ele>97.0</ele><time>2026-04-18T06:08:25.999Z</time></trkpt><trkpt lat="42.464021390681545" lon="14.138728766092981"><ele>95.0</ele><time>2026-04-18T06:08:26.999Z</time></trkpt><trkpt lat="42.464125016542916" lon="14.13872524193212"><ele>93.0</ele><time>2026-04-18T06:08:27.999Z</time></trkpt><trkpt lat="42.46423001055234" lon="14.138710092311948"><ele>91.0</ele><time>2026-04-18T06:08:28.999Z</time></trkpt><trkpt lat="42.46433667496031" lon="14.138690235250953"><ele>89.0</ele><time>2026-04-18T06:08:29.999Z</time></trkpt><trkpt lat="42.464435799721265" lon="14.138652318155204"><ele>87.0</ele><time>2026-04-18T06:08:30.999Z</time></trkpt><trkpt lat="42.46453485642493" lon="14.138611293117753"><ele>84.5</ele><time>2026-04-18T06:08:31.999Z</time></trkpt><trkpt lat="42.46464317404182" lon="14.138583685607653"><ele>82.0</ele><time>2026-04-18T06:08:32.999Z</time></trkpt><trkpt lat="42.46474983776791" lon="14.138526860648154"><ele>79.5</ele><time>2026-04-18T06:08:33.999Z</time></trkpt><trkpt lat="42.46485685598806" lon="14.138519977000879"><ele>77.0</ele><time>2026-04-18T06:08:34.999Z</time></trkpt><trkpt lat="42.464975864602856" lon="14.138501328969994"><ele>77.0</ele><time>2026-04-18T06:08:35.999Z</time></trkpt><trkpt lat="42.46509263521362" lon="14.138471948436472"><ele>77.0</ele><time>2026-04-18T06:08:36.999Z</time></trkpt><trkpt lat="42.46521004429424" lon="14.138476778311206"><ele>77.0</ele><time>2026-04-18T06:08:37.999Z</time></trkpt><trkpt lat="42.46532600359144" lon="14.138485764904477"><ele>77.0</ele><time>2026-04-18T06:08:39.001Z</time></trkpt><trkpt lat="42.46543828810242" lon="14.138534768358609"><ele>75.0</ele><time>2026-04-18T06:08:40.001Z</time></trkpt><trkpt lat="42.46554893644683" lon="14.13857455448986"><ele>73.0</ele><time>2026-04-18T06:08:41.001Z</time></trkpt><trkpt lat="42.465659447904386" lon="14.138598755196687"><ele>71.0</ele><time>2026-04-18T06:08:42.001Z</time></trkpt><trkpt lat="42.465755812767995" lon="14.138639261137936"><ele>69.0</ele><time>2026-04-18T06:08:43.001Z</time></trkpt><trkpt lat="42.46585319445303" lon="14.13867830174384"><ele>67.0</ele><time>2026-04-18T06:08:44.001Z</time></trkpt><trkpt lat="42.46594594676376" lon="14.138713138200075"><ele>67.0</ele><time>2026-04-18T06:08:45.001Z</time></trkpt><trkpt lat="42.46603515489338" lon="14.138752970953389"><ele>67.0</ele><time>2026-04-18T06:08:46.001Z</time></trkpt><trkpt lat="42.4661281804219" lon="14.13877924834438"><ele>67.0</ele><time>2026-04-18T06:08:47.001Z</time></trkpt><trkpt lat="42.46622234669933" lon="14.138829442914517"><ele>67.0</ele><time>2026-04-18T06:08:48.001Z</time></trkpt><trkpt lat="42.46632256621285" lon="14.138857917723087"><ele>67.0</ele><time>2026-04-18T06:08:49.001Z</time></trkpt><trkpt lat="42.46641823119465" lon="14.13888134298865"><ele>66.33333333333333</ele><time>2026-04-18T06:08:50.001Z</time></trkpt><trkpt lat="42.46650206280367" lon="14.138901013484473"><ele>65.66666666666666</ele><time>2026-04-18T06:08:51.001Z</time></trkpt><trkpt lat="42.46658849910367" lon="14.138921295136068"><ele>65.0</ele><time>2026-04-18T06:08:52.001Z</time></trkpt><trkpt lat="42.46666959021084" lon="14.13892006536667"><ele>64.33333333333333</ele><time>2026-04-18T06:08:53.001Z</time></trkpt><trkpt lat="42.46676511396228" lon="14.138948708356976"><ele>63.666666666666664</ele><time>2026-04-18T06:08:54.001Z</time></trkpt><trkpt lat="42.46684637515829" lon="14.138980604770705"><ele>63.0</ele><time>2026-04-18T06:08:55Z</time></trkpt><trkpt lat="42.46692164311259" lon="14.139013672147454"><ele>62.8</ele><time>2026-04-18T06:08:56Z</time></trkpt><trkpt lat="42.46701429385506" lon="14.139068516578417"><ele>62.599999999999994</ele><time>2026-04-18T06:08:58Z</time></trkpt><trkpt lat="42.46709648499952" lon="14.139152832454"><ele>62.400000000000006</ele><time>2026-04-18T06:09:00Z</time></trkpt><trkpt lat="42.46716973274578" lon="14.139271357042292"><ele>62.2</ele><time>2026-04-18T06:09:02Z</time></trkpt><trkpt lat="42.467257121357754" lon="14.139358939055167"><ele>62.0</ele><time>2026-04-18T06:09:04Z</time></trkpt><trkpt lat="42.46732695462313" lon="14.13945025663024"><ele>62.00000000000001</ele><time>2026-04-18T06:09:06Z</time></trkpt><trkpt lat="42.46737509460603" lon="14.139505389311836"><ele>62.0</ele><time>2026-04-18T06:09:08Z</time></trkpt><trkpt lat="42.46743647196044" lon="14.139604182017667"><ele>62.0</ele><time>2026-04-18T06:09:21Z</time></trkpt><trkpt lat="42.46745379618335" lon="14.139706152773005"><ele>62.0</ele><time>2026-04-18T06:09:22Z</time></trkpt><trkpt lat="42.467492202363935" lon="14.139811339948103"><ele>62.00000000000001</ele><time>2026-04-18T06:09:23Z</time></trkpt><trkpt lat="42.467523308734705" lon="14.139935049149914"><ele>62.0</ele><time>2026-04-18T06:09:24Z</time></trkpt><trkpt lat="42.46755076084496" lon="14.140061819524739"><ele>61.25</ele><time>2026-04-18T06:09:25Z</time></trkpt><trkpt lat="42.46757655001148" lon="14.140204794111547"><ele>60.5</ele><time>2026-04-18T06:09:26Z</time></trkpt><trkpt lat="42.46760808678574" lon="14.140349044991677"><ele>59.75</ele><time>2026-04-18T06:09:27Z</time></trkpt><trkpt lat="42.46764013975117" lon="14.14050678704529"><ele>59.0</ele><time>2026-04-18T06:09:28Z</time></trkpt><trkpt lat="42.46766181776292" lon="14.140658823073588"><ele>59.0</ele><time>2026-04-18T06:09:29Z</time></trkpt><trkpt lat="42.46768324565235" lon="14.140802887620932"><ele>59.0</ele><time>2026-04-18T06:09:30Z</time></trkpt><trkpt lat="42.46770832274554" lon="14.140956161934515"><ele>59.0</ele><time>2026-04-18T06:09:31Z</time></trkpt><trkpt lat="42.467729183123915" lon="14.141119006185413"><ele>59.0</ele><time>2026-04-18T06:09:32Z</time></trkpt><trkpt lat="42.46775404473782" lon="14.141286117697316"><ele>59.0</ele><time>2026-04-18T06:09:33Z</time></trkpt><trkpt lat="42.46778273975768" lon="14.14145913524048"><ele>59.0</ele><time>2026-04-18T06:09:34Z</time></trkpt><trkpt lat="42.46780744117117" lon="14.141638102423778"><ele>59.0</ele><time>2026-04-18T06:09:35Z</time></trkpt><trkpt lat="42.467828252001766" lon="14.141825357107047"><ele>59.0</ele><time>2026-04-18T06:09:36Z</time></trkpt><trkpt lat="42.46785056318529" lon="14.142012001470754"><ele>58.75</ele><time>2026-04-18T06:09:37Z</time></trkpt><trkpt lat="42.46787490817181" lon="14.142206800939752"><ele>58.5</ele><time>2026-04-18T06:09:38Z</time></trkpt><trkpt lat="42.46790040671063" lon="14.142408256479234"><ele>58.25</ele><time>2026-04-18T06:09:39Z</time></trkpt><trkpt lat="42.46792852747692" lon="14.14260295891184"><ele>58.0</ele><time>2026-04-18T06:09:40Z</time></trkpt><trkpt lat="42.467956470171885" lon="14.14279960501032"><ele>57.75</ele><time>2026-04-18T06:09:41Z</time></trkpt><trkpt lat="42.46797915817674" lon="14.142988018433103"><ele>57.5</ele><time>2026-04-18T06:09:42Z</time></trkpt><trkpt lat="42.4679953924173" lon="14.143193332146799"><ele>57.25</ele><time>2026-04-18T06:09:43Z</time></trkpt><trkpt lat="42.468011715299326" lon="14.143388025523288"><ele>57.0</ele><time>2026-04-18T06:09:44Z</time></trkpt><trkpt lat="42.468023357823135" lon="14.143593463266862"><ele>59.0</ele><time>2026-04-18T06:09:45Z</time></trkpt><trkpt lat="42.46803897109828" lon="14.143802309824707"><ele>61.0</ele><time>2026-04-18T06:09:46Z</time></trkpt><trkpt lat="42.46805350841175" lon="14.144000205418953"><ele>63.0</ele><time>2026-04-18T06:09:47Z</time></trkpt><trkpt lat="42.4680610761974" lon="14.144207538581997"><ele>63.25</ele><time>2026-04-18T06:09:48Z</time></trkpt><trkpt lat="42.46806901154965" lon="14.144404850324065"><ele>63.5</ele><time>2026-04-18T06:09:49Z</time></trkpt><trkpt lat="42.4680777077922" lon="14.144598998679713"><ele>63.75</ele><time>2026-04-18T06:09:50Z</time></trkpt><trkpt lat="42.468086569417856" lon="14.144789927986828"><ele>64.0</ele><time>2026-04-18T06:09:50.999Z</time></trkpt><trkpt lat="42.46809690186918" lon="14.144985529901742"><ele>63.25</ele><time>2026-04-18T06:09:51.999Z</time></trkpt><trkpt lat="42.46810079367155" lon="14.145168123403815"><ele>62.5</ele><time>2026-04-18T06:09:52.999Z</time></trkpt><trkpt lat="42.46810434349723" lon="14.14536037807158"><ele>61.75</ele><time>2026-04-18T06:09:53.999Z</time></trkpt><trkpt lat="42.468110815035274" lon="14.145552072609517"><ele>61.0</ele><time>2026-04-18T06:09:54.999Z</time></trkpt><trkpt lat="42.46811960785137" lon="14.145743861854523"><ele>60.5</ele><time>2026-04-18T06:09:55.999Z</time></trkpt><trkpt lat="42.46812947148483" lon="14.145929293073177"><ele>60.0</ele><time>2026-04-18T06:09:56.999Z</time></trkpt><trkpt lat="42.4681413023095" lon="14.146121694527077"><ele>59.5</ele><time>2026-04-18T06:09:57.999Z</time></trkpt><trkpt lat="42.46816252980658" lon="14.146292537029469"><ele>59.0</ele><time>2026-04-18T06:09:58.999Z</time></trkpt><trkpt lat="42.4681952360557" lon="14.146470136432518"><ele>59.0</ele><time>2026-04-18T06:09:59.999Z</time></trkpt><trkpt lat="42.46823973139797" lon="14.146646004888034"><ele>59.0</ele><time>2026-04-18T06:10:00.999Z</time></trkpt><trkpt lat="42.46829006421328" lon="14.146822833255944"><ele>59.0</ele><time>2026-04-18T06:10:01.999Z</time></trkpt><trkpt lat="42.46834941208981" lon="14.14699352553681"><ele>59.0</ele><time>2026-04-18T06:10:02.999Z</time></trkpt><trkpt lat="42.468410737460005" lon="14.147171174440114"><ele>59.0</ele><time>2026-04-18T06:10:03.999Z</time></trkpt><trkpt lat="42.46846028890097" lon="14.147355977767381"><ele>59.0</ele><time>2026-04-18T06:10:04.999Z</time></trkpt><trkpt lat="42.468511216609706" lon="14.147536182841586"><ele>59.0</ele><time>2026-04-18T06:10:05.999Z</time></trkpt><trkpt lat="42.468563138458606" lon="14.147721909675223"><ele>59.0</ele><time>2026-04-18T06:10:06.999Z</time></trkpt><trkpt lat="42.4686101288796" lon="14.147908725304717"><ele>58.5</ele><time>2026-04-18T06:10:07.999Z</time></trkpt><trkpt lat="42.468653147331345" lon="14.14809218740444"><ele>58.0</ele><time>2026-04-18T06:10:08.999Z</time></trkpt><trkpt lat="42.46869568695444" lon="14.1482844813942"><ele>57.5</ele><time>2026-04-18T06:10:09.999Z</time></trkpt><trkpt lat="42.46873558861229" lon="14.148473676117275"><ele>57.0</ele><time>2026-04-18T06:10:10.999Z</time></trkpt><trkpt lat="42.46876978148317" lon="14.148671571444007"><ele>58.33333333333333</ele><time>2026-04-18T06:10:11.999Z</time></trkpt><trkpt lat="42.468798781944606" lon="14.148872868576893"><ele>59.666666666666664</ele><time>2026-04-18T06:10:12.999Z</time></trkpt><trkpt lat="42.468807641237994" lon="14.149081922338448"><ele>61.0</ele><time>2026-04-18T06:10:13.999Z</time></trkpt><trkpt lat="42.468805716459464" lon="14.149296715810541"><ele>61.0</ele><time>2026-04-18T06:10:14.999Z</time></trkpt><trkpt lat="42.46880290911412" lon="14.149499323587477"><ele>61.0</ele><time>2026-04-18T06:10:15.999Z</time></trkpt><trkpt lat="42.46879653192913" lon="14.149684827348553"><ele>61.0</ele><time>2026-04-18T06:10:16.999Z</time></trkpt><trkpt lat="42.46878330336821" lon="14.1498761770072"><ele>61.0</ele><time>2026-04-18T06:10:17.999Z</time></trkpt><trkpt lat="42.46877350565439" lon="14.15007382956435"><ele>58.0</ele><time>2026-04-18T06:10:18.999Z</time></trkpt><trkpt lat="42.4687713187311" lon="14.15028218455729"><ele>55.0</ele><time>2026-04-18T06:10:19.999Z</time></trkpt><trkpt lat="42.46876982130959" lon="14.15049409836783"><ele>52.0</ele><time>2026-04-18T06:10:20.999Z</time></trkpt><trkpt lat="42.46876672775097" lon="14.150713018089247"><ele>51.33333333333333</ele><time>2026-04-18T06:10:21.999Z</time></trkpt><trkpt lat="42.46876989658332" lon="14.15091653724108"><ele>50.66666666666667</ele><time>2026-04-18T06:10:22.999Z</time></trkpt><trkpt lat="42.46877500899217" lon="14.151119818143378"><ele>50.0</ele><time>2026-04-18T06:10:23.999Z</time></trkpt><trkpt lat="42.46878289692621" lon="14.151326430820145"><ele>53.66666666666667</ele><time>2026-04-18T06:10:24.999Z</time></trkpt><trkpt lat="42.468794329252006" lon="14.151535354862617"><ele>57.33333333333333</ele><time>2026-04-18T06:10:25.999Z</time></trkpt><trkpt lat="42.468807745246416" lon="14.151744582859568"><ele>61.0</ele><time>2026-04-18T06:10:26.999Z</time></trkpt><trkpt lat="42.46882562069649" lon="14.151946827227636"><ele>61.0</ele><time>2026-04-18T06:10:27.999Z</time></trkpt><trkpt lat="42.46884326102014" lon="14.152143046632435"><ele>61.0</ele><time>2026-04-18T06:10:28.999Z</time></trkpt><trkpt lat="42.46886304552588" lon="14.152345926054425"><ele>61.0</ele><time>2026-04-18T06:10:29.999Z</time></trkpt><trkpt lat="42.46885878582303" lon="14.152543604991443"><ele>61.0</ele><time>2026-04-18T06:10:30.999Z</time></trkpt><trkpt lat="42.46887690545942" lon="14.152735732387201"><ele>58.75</ele><time>2026-04-18T06:10:31.999Z</time></trkpt><trkpt lat="42.46885577210298" lon="14.15293485299148"><ele>56.5</ele><time>2026-04-18T06:10:32.999Z</time></trkpt><trkpt lat="42.468816725277954" lon="14.153130480045665"><ele>54.25</ele><time>2026-04-18T06:10:33.999Z</time></trkpt><trkpt lat="42.468765955604795" lon="14.153321275375557"><ele>52.0</ele><time>2026-04-18T06:10:34.999Z</time></trkpt><trkpt lat="42.468719544234865" lon="14.153502031534417"><ele>51.25</ele><time>2026-04-18T06:10:35.999Z</time></trkpt><trkpt lat="42.468669065492584" lon="14.153688886500507"><ele>50.5</ele><time>2026-04-18T06:10:36.999Z</time></trkpt><trkpt lat="42.468631624397055" lon="14.153876639080908"><ele>49.75</ele><time>2026-04-18T06:10:37.999Z</time></trkpt><trkpt lat="42.468603014498335" lon="14.154065679559318"><ele>49.0</ele><time>2026-04-18T06:10:38.999Z</time></trkpt><trkpt lat="42.468585228561096" lon="14.154253507662922"><ele>49.0</ele><time>2026-04-18T06:10:39.999Z</time></trkpt><trkpt lat="42.468570722830535" lon="14.154445223549677"><ele>49.0</ele><time>2026-04-18T06:10:40.999Z</time></trkpt><trkpt lat="42.46855828454734" lon="14.154638198527733"><ele>49.0</ele><time>2026-04-18T06:10:41.999Z</time></trkpt><trkpt lat="42.46854858933536" lon="14.1548330363296"><ele>49.0</ele><time>2026-04-18T06:10:42.999Z</time></trkpt><trkpt lat="42.468539177976915" lon="14.155026810885449"><ele>48.5</ele><time>2026-04-18T06:10:44.001Z</time></trkpt><trkpt lat="42.46852291742099" lon="14.15522614672762"><ele>48.0</ele><time>2026-04-18T06:10:45.001Z</time></trkpt><trkpt lat="42.46850835730521" lon="14.155416441218359"><ele>47.5</ele><time>2026-04-18T06:10:46.001Z</time></trkpt><trkpt lat="42.468498228743606" lon="14.155610645533896"><ele>47.0</ele><time>2026-04-18T06:10:47.001Z</time></trkpt><trkpt lat="42.46848709968596" lon="14.155820397694985"><ele>47.0</ele><time>2026-04-18T06:10:48.001Z</time></trkpt><trkpt lat="42.46847125480868" lon="14.15599705679123"><ele>47.0</ele><time>2026-04-18T06:10:49.001Z</time></trkpt><trkpt lat="42.46845632902874" lon="14.156180646898058"><ele>47.0</ele><time>2026-04-18T06:10:50.001Z</time></trkpt><trkpt lat="42.468444728594584" lon="14.156349184276833"><ele>47.0</ele><time>2026-04-18T06:10:51.001Z</time></trkpt><trkpt lat="42.46844970354414" lon="14.156512605390681"><ele>47.0</ele><time>2026-04-18T06:10:52.001Z</time></trkpt><trkpt lat="42.46847769892433" lon="14.156673982512839"><ele>47.0</ele><time>2026-04-18T06:10:53.001Z</time></trkpt><trkpt lat="42.46853469108362" lon="14.15682994600945"><ele>47.0</ele><time>2026-04-18T06:10:54.001Z</time></trkpt><trkpt lat="42.46859925224331" lon="14.156982354533692"><ele>47.0</ele><time>2026-04-18T06:10:55Z</time></trkpt><trkpt lat="42.46863218900784" lon="14.157150142514135"><ele>47.0</ele><time>2026-04-18T06:10:56.001Z</time></trkpt><trkpt lat="42.468659528984794" lon="14.157327240297407"><ele>47.0</ele><time>2026-04-18T06:10:57.001Z</time></trkpt><trkpt lat="42.46868251376908" lon="14.157509786545116"><ele>47.0</ele><time>2026-04-18T06:10:58Z</time></trkpt><trkpt lat="42.468660910394874" lon="14.15769467963097"><ele>47.0</ele><time>2026-04-18T06:10:59Z</time></trkpt><trkpt lat="42.46862325197422" lon="14.157871452614094"><ele>47.25</ele><time>2026-04-18T06:11:00Z</time></trkpt><trkpt lat="42.46857765703788" lon="14.158045867127148"><ele>47.5</ele><time>2026-04-18T06:11:01Z</time></trkpt><trkpt lat="42.468529473075414" lon="14.158220794469367"><ele>47.75</ele><time>2026-04-18T06:11:02Z</time></trkpt><trkpt lat="42.468457106746925" lon="14.158387649723155"><ele>48.0</ele><time>2026-04-18T06:11:03Z</time></trkpt><trkpt lat="42.468406569891776" lon="14.158575512218093"><ele>48.25</ele><time>2026-04-18T06:11:04Z</time></trkpt><trkpt lat="42.46834114530317" lon="14.15873825586818"><ele>48.5</ele><time>2026-04-18T06:11:05Z</time></trkpt><trkpt lat="42.46828729591152" lon="14.158895314839226"><ele>48.75</ele><time>2026-04-18T06:11:06Z</time></trkpt><trkpt lat="42.46825110259106" lon="14.15905114631338"><ele>49.0</ele><time>2026-04-18T06:11:07Z</time></trkpt><trkpt lat="42.46823161362636" lon="14.159208333641248"><ele>49.75</ele><time>2026-04-18T06:11:08Z</time></trkpt><trkpt lat="42.46823273281543" lon="14.159369861636154"><ele>50.5</ele><time>2026-04-18T06:11:09Z</time></trkpt><trkpt lat="42.46826763072505" lon="14.159529881213393"><ele>51.25</ele><time>2026-04-18T06:11:10Z</time></trkpt><trkpt lat="42.46832481737254" lon="14.159676042531293"><ele>52.0</ele><time>2026-04-18T06:11:11Z</time></trkpt><trkpt lat="42.468413195560146" lon="14.15980664229146"><ele>51.400000000000006</ele><time>2026-04-18T06:11:12Z</time></trkpt><trkpt lat="42.46846625393338" lon="14.159944026693084"><ele>50.800000000000004</ele><time>2026-04-18T06:11:13Z</time></trkpt><trkpt lat="42.46852476430911" lon="14.160058004535193"><ele>50.2</ele><time>2026-04-18T06:11:14Z</time></trkpt><trkpt lat="42.46857278654728" lon="14.160154513061098"><ele>49.6</ele><time>2026-04-18T06:11:15Z</time></trkpt><trkpt lat="42.468614397496864" lon="14.160245305459625"><ele>49.0</ele><time>2026-04-18T06:11:16Z</time></trkpt><trkpt lat="42.468617756153435" lon="14.160339600088014"><ele>48.99999999999999</ele><time>2026-04-18T06:11:17Z</time></trkpt><trkpt lat="42.46862029705789" lon="14.16044052463331"><ele>49.0</ele><time>2026-04-18T06:11:18Z</time></trkpt><trkpt lat="42.46857395853258" lon="14.160510310495322"><ele>49.0</ele><time>2026-04-18T06:11:19Z</time></trkpt><trkpt lat="42.4685035825938" lon="14.16054106910273"><ele>49.0</ele><time>2026-04-18T06:11:20Z</time></trkpt><trkpt lat="42.46840083219244" lon="14.160520056781664"><ele>48.99999999999999</ele><time>2026-04-18T06:11:21Z</time></trkpt><trkpt lat="42.46829524681406" lon="14.16050424454494"><ele>49.0</ele><time>2026-04-18T06:11:22Z</time></trkpt><trkpt lat="42.46816492312627" lon="14.160509952980727"><ele>49.0</ele><time>2026-04-18T06:11:23Z</time></trkpt><trkpt lat="42.468032842706116" lon="14.160490603839074"><ele>49.0</ele><time>2026-04-18T06:11:24Z</time></trkpt><trkpt lat="42.46790826082218" lon="14.160486131347463"><ele>49.0</ele><time>2026-04-18T06:11:25Z</time></trkpt><trkpt lat="42.467773313276005" lon="14.160478001071994"><ele>49.0</ele><time>2026-04-18T06:11:26Z</time></trkpt><trkpt lat="42.467635233283175" lon="14.160487446223089"><ele>47.75</ele><time>2026-04-18T06:11:27Z</time></trkpt><trkpt lat="42.467493445800955" lon="14.160523418254801"><ele>46.5</ele><time>2026-04-18T06:11:28Z</time></trkpt><trkpt lat="42.467347475296" lon="14.160583362698343"><ele>45.25</ele><time>2026-04-18T06:11:29Z</time></trkpt><trkpt lat="42.467218398575014" lon="14.16067327886707"><ele>44.0</ele><time>2026-04-18T06:11:30Z</time></trkpt><trkpt lat="42.46709496517267" lon="14.160791448093402"><ele>44.0</ele><time>2026-04-18T06:11:31Z</time></trkpt><trkpt lat="42.46698323218376" lon="14.160933479204836"><ele>44.0</ele><time>2026-04-18T06:11:32Z</time></trkpt><trkpt lat="42.46688543804158" lon="14.16110020317669"><ele>44.0</ele><time>2026-04-18T06:11:33Z</time></trkpt><trkpt lat="42.46680014691604" lon="14.161285760787308"><ele>44.0</ele><time>2026-04-18T06:11:34Z</time></trkpt><trkpt lat="42.466725321982814" lon="14.161476927093037"><ele>44.0</ele><time>2026-04-18T06:11:35Z</time></trkpt><trkpt lat="42.46667222712769" lon="14.161659751980356"><ele>44.0</ele><time>2026-04-18T06:11:36Z</time></trkpt><trkpt lat="42.466628072596386" lon="14.161839291760403"><ele>44.0</ele><time>2026-04-18T06:11:37Z</time></trkpt><trkpt lat="42.46660086617837" lon="14.162029192534492"><ele>45.25</ele><time>2026-04-18T06:11:38Z</time></trkpt><trkpt lat="42.46659158604586" lon="14.162219025572023"><ele>46.5</ele><time>2026-04-18T06:11:39Z</time></trkpt><trkpt lat="42.46659876683114" lon="14.162410409413994"><ele>47.75</ele><time>2026-04-18T06:11:40Z</time></trkpt><trkpt lat="42.46662222897467" lon="14.162609259731893"><ele>49.0</ele><time>2026-04-18T06:11:41Z</time></trkpt><trkpt lat="42.46664163895243" lon="14.162801149412998"><ele>49.0</ele><time>2026-04-18T06:11:42Z</time></trkpt><trkpt lat="42.466654976598335" lon="14.162995049450345"><ele>49.0</ele><time>2026-04-18T06:11:43Z</time></trkpt><trkpt lat="42.466657407420925" lon="14.163195282115078"><ele>49.0</ele><time>2026-04-18T06:11:44Z</time></trkpt><trkpt lat="42.46664587085381" lon="14.163389002191051"><ele>49.0</ele><time>2026-04-18T06:11:45Z</time></trkpt><trkpt lat="42.466624089801705" lon="14.16358428094152"><ele>49.0</ele><time>2026-04-18T06:11:46Z</time></trkpt><trkpt lat="42.46658507214057" lon="14.163777601005082"><ele>49.0</ele><time>2026-04-18T06:11:47Z</time></trkpt><trkpt lat="42.46653601461185" lon="14.163960786788909"><ele>49.0</ele><time>2026-04-18T06:11:48Z</time></trkpt><trkpt lat="42.4664697095191" lon="14.164142830172105"><ele>49.0</ele><time>2026-04-18T06:11:49Z</time></trkpt><trkpt lat="42.466402687303464" lon="14.164317827358808"><ele>49.0</ele><time>2026-04-18T06:11:50Z</time></trkpt><trkpt lat="42.466322369592675" lon="14.16449525847336"><ele>49.0</ele><time>2026-04-18T06:11:51Z</time></trkpt><trkpt lat="42.4662522361078" lon="14.164667391904509"><ele>49.0</ele><time>2026-04-18T06:11:52Z</time></trkpt><trkpt lat="42.466178120033106" lon="14.164849620990932"><ele>44.666666666666664</ele><time>2026-04-18T06:11:53Z</time></trkpt><trkpt lat="42.466103029167364" lon="14.165028778717986"><ele>40.33333333333333</ele><time>2026-04-18T06:11:54Z</time></trkpt><trkpt lat="42.46602668307906" lon="14.165206472719186"><ele>36.0</ele><time>2026-04-18T06:11:55Z</time></trkpt><trkpt lat="42.46596281233772" lon="14.165394431941886"><ele>36.0</ele><time>2026-04-18T06:11:55.999Z</time></trkpt><trkpt lat="42.46590247297211" lon="14.165586283396628"><ele>36.0</ele><time>2026-04-18T06:11:56.999Z</time></trkpt><trkpt lat="42.46584749163324" lon="14.165787839530198"><ele>36.0</ele><time>2026-04-18T06:11:57.999Z</time></trkpt><trkpt lat="42.46579220443329" lon="14.165986562762727"><ele>36.0</ele><time>2026-04-18T06:11:58.999Z</time></trkpt><trkpt lat="42.46573585390179" lon="14.16618352050722"><ele>36.0</ele><time>2026-04-18T06:11:59.999Z</time></trkpt><trkpt lat="42.465682566324574" lon="14.166383344269779"><ele>36.0</ele><time>2026-04-18T06:12:00.999Z</time></trkpt><trkpt lat="42.46563357082849" lon="14.166588825067302"><ele>36.333333333333336</ele><time>2026-04-18T06:12:01.999Z</time></trkpt><trkpt lat="42.46558687985714" lon="14.166794364108554"><ele>36.66666666666667</ele><time>2026-04-18T06:12:02.999Z</time></trkpt><trkpt lat="42.46554236988704" lon="14.166989402350088"><ele>37.0</ele><time>2026-04-18T06:12:03.999Z</time></trkpt><trkpt lat="42.46549604497697" lon="14.167175069713005"><ele>36.0</ele><time>2026-04-18T06:12:04.999Z</time></trkpt><trkpt lat="42.46543822191983" lon="14.167362510273003"><ele>35.0</ele><time>2026-04-18T06:12:05.999Z</time></trkpt><trkpt lat="42.46536219581831" lon="14.167536919846976"><ele>34.0</ele><time>2026-04-18T06:12:06.999Z</time></trkpt><trkpt lat="42.46526385440301" lon="14.167689860113224"><ele>33.0</ele><time>2026-04-18T06:12:07.999Z</time></trkpt><trkpt lat="42.46516245242845" lon="14.167824638791965"><ele>33.0</ele><time>2026-04-18T06:12:08.999Z</time></trkpt><trkpt lat="42.465048380613894" lon="14.167955177664515"><ele>33.0</ele><time>2026-04-18T06:12:09.999Z</time></trkpt><trkpt lat="42.46493868559454" lon="14.168079957765666"><ele>33.0</ele><time>2026-04-18T06:12:10.999Z</time></trkpt><trkpt lat="42.46483299351915" lon="14.168211600018811"><ele>33.0</ele><time>2026-04-18T06:12:11.999Z</time></trkpt><trkpt lat="42.46473671050619" lon="14.168348436010328"><ele>33.75</ele><time>2026-04-18T06:12:12.999Z</time></trkpt><trkpt lat="42.46465096611203" lon="14.16849519448119"><ele>34.5</ele><time>2026-04-18T06:12:13.999Z</time></trkpt><trkpt lat="42.46458366538443" lon="14.168646334928239"><ele>35.25</ele><time>2026-04-18T06:12:14.999Z</time></trkpt><trkpt lat="42.46454038169146" lon="14.168814372814547"><ele>36.0</ele><time>2026-04-18T06:12:15.999Z</time></trkpt><trkpt lat="42.46452025152026" lon="14.16899123695051"><ele>34.25</ele><time>2026-04-18T06:12:16.999Z</time></trkpt><trkpt lat="42.46451238022419" lon="14.169175919854736"><ele>32.5</ele><time>2026-04-18T06:12:17.999Z</time></trkpt><trkpt lat="42.464522540902486" lon="14.169351956005505"><ele>30.75</ele><time>2026-04-18T06:12:18.999Z</time></trkpt><trkpt lat="42.46455725643676" lon="14.169516724236813"><ele>29.0</ele><time>2026-04-18T06:12:19.999Z</time></trkpt><trkpt lat="42.464611013794396" lon="14.169688721328487"><ele>30.25</ele><time>2026-04-18T06:12:20.999Z</time></trkpt><trkpt lat="42.464681505522655" lon="14.169857565212677"><ele>31.5</ele><time>2026-04-18T06:12:21.999Z</time></trkpt><trkpt lat="42.46476216460089" lon="14.170028899128186"><ele>32.75</ele><time>2026-04-18T06:12:22.999Z</time></trkpt><trkpt lat="42.46485011647684" lon="14.170196986584386"><ele>34.0</ele><time>2026-04-18T06:12:23.999Z</time></trkpt><trkpt lat="42.46494746872003" lon="14.170372952977344"><ele>34.0</ele><time>2026-04-18T06:12:24.999Z</time></trkpt><trkpt lat="42.46503703718397" lon="14.170543250370619"><ele>34.0</ele><time>2026-04-18T06:12:25.999Z</time></trkpt><trkpt lat="42.465116099901" lon="14.170704659150877"><ele>34.0</ele><time>2026-04-18T06:12:26.999Z</time></trkpt><trkpt lat="42.46519456565503" lon="14.170853145329971"><ele>34.0</ele><time>2026-04-18T06:12:27.999Z</time></trkpt><trkpt lat="42.46526907093758" lon="14.170990158183146"><ele>34.0</ele><time>2026-04-18T06:12:28.999Z</time></trkpt><trkpt lat="42.465332522241155" lon="14.171121407778262"><ele>34.0</ele><time>2026-04-18T06:12:29.999Z</time></trkpt><trkpt lat="42.46537958749187" lon="14.171253467696953"><ele>34.0</ele><time>2026-04-18T06:12:30.999Z</time></trkpt><trkpt lat="42.46540527958074" lon="14.171402416723478"><ele>34.0</ele><time>2026-04-18T06:12:31.999Z</time></trkpt><trkpt lat="42.465411681254416" lon="14.171568951999385"><ele>34.0</ele><time>2026-04-18T06:12:32.999Z</time></trkpt><trkpt lat="42.46539071915884" lon="14.171732589285888"><ele>34.0</ele><time>2026-04-18T06:12:33.999Z</time></trkpt><trkpt lat="42.46534426746517" lon="14.171884182184787"><ele>34.0</ele><time>2026-04-18T06:12:34.999Z</time></trkpt><trkpt lat="42.46526502676581" lon="14.172023786877709"><ele>34.0</ele><time>2026-04-18T06:12:35.999Z</time></trkpt><trkpt lat="42.46516462180647" lon="14.172156329377968"><ele>34.0</ele><time>2026-04-18T06:12:36.999Z</time></trkpt><trkpt lat="42.46505565463178" lon="14.17228292949564"><ele>34.0</ele><time>2026-04-18T06:12:37.999Z</time></trkpt><trkpt lat="42.464938524466135" lon="14.172412224299348"><ele>34.0</ele><time>2026-04-18T06:12:38.999Z</time></trkpt><trkpt lat="42.4648210942353" lon="14.172547820217098"><ele>34.0</ele><time>2026-04-18T06:12:39.999Z</time></trkpt><trkpt lat="42.46471001906375" lon="14.172676668314217"><ele>33.5</ele><time>2026-04-18T06:12:40.999Z</time></trkpt><trkpt lat="42.4646045160494" lon="14.172805111356855"><ele>33.0</ele><time>2026-04-18T06:12:41.999Z</time></trkpt><trkpt lat="42.4645070853474" lon="14.172941588727426"><ele>32.5</ele><time>2026-04-18T06:12:42.999Z</time></trkpt><trkpt lat="42.46441404417075" lon="14.17309281089449"><ele>32.0</ele><time>2026-04-18T06:12:43.999Z</time></trkpt><trkpt lat="42.464333592062616" lon="14.173271956378743"><ele>32.0</ele><time>2026-04-18T06:12:44.999Z</time></trkpt><trkpt lat="42.464270901572384" lon="14.17346406724577"><ele>32.0</ele><time>2026-04-18T06:12:45.999Z</time></trkpt><trkpt lat="42.464226104803096" lon="14.173664382517694"><ele>32.0</ele><time>2026-04-18T06:12:46.999Z</time></trkpt><trkpt lat="42.46419392886342" lon="14.173872950818348"><ele>31.666666666666664</ele><time>2026-04-18T06:12:47.999Z</time></trkpt><trkpt lat="42.46416732329106" lon="14.174079895983681"><ele>31.333333333333336</ele><time>2026-04-18T06:12:48.999Z</time></trkpt><trkpt lat="42.464140303288424" lon="14.174284915399811"><ele>31.0</ele><time>2026-04-18T06:12:50.001Z</time></trkpt><trkpt lat="42.46410721056647" lon="14.174485054551896"><ele>31.0</ele><time>2026-04-18T06:12:51.001Z</time></trkpt><trkpt lat="42.46407579393754" lon="14.17468284901439"><ele>31.0</ele><time>2026-04-18T06:12:52.001Z</time></trkpt><trkpt lat="42.46404674451143" lon="14.174876384869528"><ele>31.0</ele><time>2026-04-18T06:12:53.001Z</time></trkpt><trkpt lat="42.4640173531683" lon="14.175070137153945"><ele>31.0</ele><time>2026-04-18T06:12:54.001Z</time></trkpt><trkpt lat="42.46398975813039" lon="14.175266863931723"><ele>31.25</ele><time>2026-04-18T06:12:55.001Z</time></trkpt><trkpt lat="42.46396520435202" lon="14.175461026694634"><ele>31.5</ele><time>2026-04-18T06:12:56.001Z</time></trkpt><trkpt lat="42.46394608316037" lon="14.175653207648221"><ele>31.75</ele><time>2026-04-18T06:12:57.001Z</time></trkpt><trkpt lat="42.46393595971752" lon="14.175852009040701"><ele>32.0</ele><time>2026-04-18T06:12:58.001Z</time></trkpt><trkpt lat="42.463934917871384" lon="14.176050556863553"><ele>32.33333333333333</ele><time>2026-04-18T06:12:59.001Z</time></trkpt><trkpt lat="42.46394179101939" lon="14.17625159845464"><ele>32.666666666666664</ele><time>2026-04-18T06:13:00.001Z</time></trkpt><trkpt lat="42.4639567957928" lon="14.176453149904724"><ele>33.0</ele><time>2026-04-18T06:13:01.001Z</time></trkpt><trkpt lat="42.463974493363416" lon="14.17666057992012"><ele>32.25</ele><time>2026-04-18T06:13:02.001Z</time></trkpt><trkpt lat="42.463994913900564" lon="14.17687115776313"><ele>31.5</ele><time>2026-04-18T06:13:03.001Z</time></trkpt><trkpt lat="42.46401667097737" lon="14.177062278355383"><ele>30.75</ele><time>2026-04-18T06:13:04.001Z</time></trkpt><trkpt lat="42.46403904025622" lon="14.177247275600065"><ele>30.0</ele><time>2026-04-18T06:13:05.001Z</time></trkpt><trkpt lat="42.46406373004365" lon="14.177434759982308"><ele>29.5</ele><time>2026-04-18T06:13:06.001Z</time></trkpt><trkpt lat="42.464081425052434" lon="14.17762439346152"><ele>29.0</ele><time>2026-04-18T06:13:07.001Z</time></trkpt><trkpt lat="42.46408931567957" lon="14.17781828811774"><ele>28.5</ele><time>2026-04-18T06:13:08.001Z</time></trkpt><trkpt lat="42.46409186452461" lon="14.178013808719985"><ele>28.0</ele><time>2026-04-18T06:13:09.001Z</time></trkpt><trkpt lat="42.46409170168405" lon="14.178201153474431"><ele>28.0</ele><time>2026-04-18T06:13:10.001Z</time></trkpt><trkpt lat="42.464100379832615" lon="14.178375488243008"><ele>28.0</ele><time>2026-04-18T06:13:11.001Z</time></trkpt><trkpt lat="42.46410204987732" lon="14.178545136428495"><ele>28.0</ele><time>2026-04-18T06:13:12.001Z</time></trkpt><trkpt lat="42.46410439799709" lon="14.178707862253315"><ele>28.0</ele><time>2026-04-18T06:13:13.001Z</time></trkpt><trkpt lat="42.464107314166135" lon="14.178862440747684"><ele>28.000000000000004</ele><time>2026-04-18T06:13:14.001Z</time></trkpt><trkpt lat="42.464105101321884" lon="14.178988961394793"><ele>28.0</ele><time>2026-04-18T06:13:15.001Z</time></trkpt><trkpt lat="42.464090619709204" lon="14.179089488322736"><ele>28.0</ele><time>2026-04-18T06:13:16.001Z</time></trkpt><trkpt lat="42.46406593741215" lon="14.179174123864689"><ele>28.0</ele><time>2026-04-18T06:13:17.001Z</time></trkpt><trkpt lat="42.464017331268764" lon="14.179249531819226"><ele>28.000000000000004</ele><time>2026-04-18T06:13:18.001Z</time></trkpt><trkpt lat="42.46396387260348" lon="14.179391227749194"><ele>28.0</ele><time>2026-04-18T06:13:20.001Z</time></trkpt><trkpt lat="42.463992334669065" lon="14.179531872588166"><ele>28.2</ele><time>2026-04-18T06:13:22Z</time></trkpt><trkpt lat="42.464096505338155" lon="14.179673335099842"><ele>28.4</ele><time>2026-04-18T06:13:23.999Z</time></trkpt><trkpt lat="42.46413133711586" lon="14.17978770064161"><ele>28.599999999999998</ele><time>2026-04-18T06:13:24.999Z</time></trkpt><trkpt lat="42.464145722942945" lon="14.179895826926414"><ele>28.799999999999997</ele><time>2026-04-18T06:13:25.999Z</time></trkpt><trkpt lat="42.46416157022571" lon="14.180023851788487"><ele>29.0</ele><time>2026-04-18T06:13:26.999Z</time></trkpt><trkpt lat="42.464188102092606" lon="14.180162022411183"><ele>29.25</ele><time>2026-04-18T06:13:27.999Z</time></trkpt><trkpt lat="42.46421348869398" lon="14.180314385953055"><ele>29.5</ele><time>2026-04-18T06:13:28.999Z</time></trkpt><trkpt lat="42.46424055585546" lon="14.180470733717026"><ele>29.75</ele><time>2026-04-18T06:13:29.999Z</time></trkpt><trkpt lat="42.464275516025964" lon="14.180628082512921"><ele>30.0</ele><time>2026-04-18T06:13:30.999Z</time></trkpt><trkpt lat="42.46432283202238" lon="14.180782449824507"><ele>30.0</ele><time>2026-04-18T06:13:31.999Z</time></trkpt><trkpt lat="42.464378602888175" lon="14.180926215062723"><ele>30.0</ele><time>2026-04-18T06:13:32.999Z</time></trkpt><trkpt lat="42.46443829458317" lon="14.18107417414273"><ele>30.0</ele><time>2026-04-18T06:13:33.999Z</time></trkpt><trkpt lat="42.464501660387484" lon="14.181224948208138"><ele>30.0</ele><time>2026-04-18T06:13:34.999Z</time></trkpt><trkpt lat="42.46457221945276" lon="14.181379763500136"><ele>32.75</ele><time>2026-04-18T06:13:35.999Z</time></trkpt><trkpt lat="42.46463894713994" lon="14.181532546365384"><ele>35.5</ele><time>2026-04-18T06:13:36.999Z</time></trkpt><trkpt lat="42.46471083802388" lon="14.181690144703868"><ele>38.25</ele><time>2026-04-18T06:13:37.999Z</time></trkpt><trkpt lat="42.46478185632678" lon="14.181856277251141"><ele>41.0</ele><time>2026-04-18T06:13:38.999Z</time></trkpt><trkpt lat="42.464854837083706" lon="14.182011978669733"><ele>41.0</ele><time>2026-04-18T06:13:39.999Z</time></trkpt><trkpt lat="42.46492383249369" lon="14.182166347258006"><ele>41.0</ele><time>2026-04-18T06:13:40.999Z</time></trkpt><trkpt lat="42.464990291987576" lon="14.182310518051057"><ele>41.0</ele><time>2026-04-18T06:13:41.999Z</time></trkpt><trkpt lat="42.46504968430058" lon="14.182450356465404"><ele>41.0</ele><time>2026-04-18T06:13:42.999Z</time></trkpt><trkpt lat="42.46510378932191" lon="14.18257288234311"><ele>41.0</ele><time>2026-04-18T06:13:43.999Z</time></trkpt><trkpt lat="42.465151600345884" lon="14.18268466123119"><ele>41.0</ele><time>2026-04-18T06:13:44.999Z</time></trkpt><trkpt lat="42.46519006486394" lon="14.182783352657276"><ele>41.0</ele><time>2026-04-18T06:13:45.999Z</time></trkpt><trkpt lat="42.46523401857835" lon="14.182894867811193"><ele>41.0</ele><time>2026-04-18T06:13:46.999Z</time></trkpt><trkpt lat="42.465271235854026" lon="14.18301187156575"><ele>41.0</ele><time>2026-04-18T06:13:47.999Z</time></trkpt><trkpt lat="42.465285707012995" lon="14.18314119328696"><ele>41.0</ele><time>2026-04-18T06:13:48.999Z</time></trkpt><trkpt lat="42.465322658164375" lon="14.183270439209462"><ele>41.0</ele><time>2026-04-18T06:13:49.999Z</time></trkpt><trkpt lat="42.465347664639424" lon="14.183398335249034"><ele>41.0</ele><time>2026-04-18T06:13:50.999Z</time></trkpt><trkpt lat="42.46538555019275" lon="14.183524165423615"><ele>41.0</ele><time>2026-04-18T06:13:51.999Z</time></trkpt><trkpt lat="42.46545124201199" lon="14.1836534924577"><ele>41.0</ele><time>2026-04-18T06:13:52.999Z</time></trkpt><trkpt lat="42.4655293446774" lon="14.18378954568016"><ele>41.0</ele><time>2026-04-18T06:13:53.999Z</time></trkpt><trkpt lat="42.46560518056132" lon="14.183929946241985"><ele>41.0</ele><time>2026-04-18T06:13:54.999Z</time></trkpt><trkpt lat="42.46567612878629" lon="14.18407132238598"><ele>41.0</ele><time>2026-04-18T06:13:55.999Z</time></trkpt><trkpt lat="42.465754232089516" lon="14.18421678783855"><ele>41.0</ele><time>2026-04-18T06:13:56.999Z</time></trkpt><trkpt lat="42.465822259019305" lon="14.184365332080946"><ele>40.5</ele><time>2026-04-18T06:13:57.999Z</time></trkpt><trkpt lat="42.46588216424271" lon="14.184511823237635"><ele>40.0</ele><time>2026-04-18T06:13:58.999Z</time></trkpt><trkpt lat="42.46593664331518" lon="14.184676877490478"><ele>39.5</ele><time>2026-04-18T06:13:59.999Z</time></trkpt><trkpt lat="42.46598153117364" lon="14.184845700923093"><ele>39.0</ele><time>2026-04-18T06:14:00.999Z</time></trkpt><trkpt lat="42.46601409552383" lon="14.185023492654379"><ele>37.6</ele><time>2026-04-18T06:14:01.999Z</time></trkpt><trkpt lat="42.46604680243267" lon="14.185198146610412"><ele>36.2</ele><time>2026-04-18T06:14:02.999Z</time></trkpt><trkpt lat="42.466080814099115" lon="14.185356898823088"><ele>34.800000000000004</ele><time>2026-04-18T06:14:03.999Z</time></trkpt><trkpt lat="42.466111405687876" lon="14.185492806022435"><ele>33.4</ele><time>2026-04-18T06:14:04.999Z</time></trkpt><trkpt lat="42.46614089718386" lon="14.185588235503937"><ele>32.0</ele><time>2026-04-18T06:14:05.999Z</time></trkpt><trkpt lat="42.46618253771616" lon="14.185710319389386"><ele>31.499999999999996</ele><time>2026-04-18T06:14:07.999Z</time></trkpt><trkpt lat="42.46622490090636" lon="14.185817691322177"><ele>31.0</ele><time>2026-04-18T06:14:11.999Z</time></trkpt><trkpt lat="42.46625299550695" lon="14.185911845799101"><ele>30.5</ele><time>2026-04-18T06:14:14.999Z</time></trkpt><trkpt lat="42.46629086173759" lon="14.186036879285115"><ele>30.0</ele><time>2026-04-18T06:14:16.999Z</time></trkpt><trkpt lat="42.46633916946931" lon="14.186169396513886"><ele>29.499999999999996</ele><time>2026-04-18T06:14:18.999Z</time></trkpt><trkpt lat="42.46635472102694" lon="14.186254780455542"><ele>29.0</ele><time>2026-04-18T06:14:19.999Z</time></trkpt><trkpt lat="42.46637041683341" lon="14.186347948805363"><ele>29.999999999999996</ele><time>2026-04-18T06:14:20.999Z</time></trkpt><trkpt lat="42.46639596401997" lon="14.186461551728222"><ele>31.0</ele><time>2026-04-18T06:14:21.999Z</time></trkpt><trkpt lat="42.466434863735124" lon="14.186577431860696"><ele>32.0</ele><time>2026-04-18T06:14:22.999Z</time></trkpt><trkpt lat="42.46647458400487" lon="14.186679448725473"><ele>33.0</ele><time>2026-04-18T06:14:23.999Z</time></trkpt><trkpt lat="42.466516264731055" lon="14.186787030898415"><ele>34.0</ele><time>2026-04-18T06:14:24.999Z</time></trkpt><trkpt lat="42.46656249134297" lon="14.18688695801595"><ele>35.0</ele><time>2026-04-18T06:14:25.999Z</time></trkpt><trkpt lat="42.46661046522742" lon="14.187004953858667"><ele>35.0</ele><time>2026-04-18T06:14:26.999Z</time></trkpt><trkpt lat="42.46665400787419" lon="14.187129709352037"><ele>35.0</ele><time>2026-04-18T06:14:27.999Z</time></trkpt><trkpt lat="42.46669475137617" lon="14.187231447797638"><ele>35.0</ele><time>2026-04-18T06:14:28.999Z</time></trkpt><trkpt lat="42.46673918405054" lon="14.187321593790063"><ele>35.0</ele><time>2026-04-18T06:14:29.998Z</time></trkpt><trkpt lat="42.46677276717804" lon="14.187418244947535"><ele>35.0</ele><time>2026-04-18T06:14:30.998Z</time></trkpt><trkpt lat="42.46679963376733" lon="14.18752224250027"><ele>35.0</ele><time>2026-04-18T06:14:31.998Z</time></trkpt><trkpt lat="42.46683629427858" lon="14.187624520394513"><ele>35.0</ele><time>2026-04-18T06:14:32.998Z</time></trkpt><trkpt lat="42.46686733178714" lon="14.187718634530475"><ele>35.0</ele><time>2026-04-18T06:14:33.998Z</time></trkpt><trkpt lat="42.46688959083379" lon="14.187817083928449"><ele>35.0</ele><time>2026-04-18T06:14:34.998Z</time></trkpt><trkpt lat="42.466905524861446" lon="14.187915414603589"><ele>35.0</ele><time>2026-04-18T06:14:35.998Z</time></trkpt><trkpt lat="42.46691558866825" lon="14.188017739320529"><ele>35.0</ele><time>2026-04-18T06:14:36.998Z</time></trkpt><trkpt lat="42.466925650571255" lon="14.1881089572704"><ele>35.0</ele><time>2026-04-18T06:14:37.998Z</time></trkpt><trkpt lat="42.46692006643133" lon="14.18826155462079"><ele>34.83333333333333</ele><time>2026-04-18T06:14:39.998Z</time></trkpt><trkpt lat="42.466928715618344" lon="14.188351605077145"><ele>34.666666666666664</ele><time>2026-04-18T06:14:42.998Z</time></trkpt><trkpt lat="42.46704838339028" lon="14.18829819983959"><ele>34.5</ele><time>2026-04-18T06:15:27Z</time></trkpt><trkpt lat="42.4669864331179" lon="14.188249277971757"><ele>34.333333333333336</ele><time>2026-04-18T06:15:31.999Z</time></trkpt><trkpt lat="42.46689888374156" lon="14.18826806170474"><ele>34.16666666666667</ele><time>2026-04-18T06:15:33.999Z</time></trkpt><trkpt lat="42.466831662311925" lon="14.188269450827724"><ele>34.0</ele><time>2026-04-18T06:15:35.999Z</time></trkpt><trkpt lat="42.46675674174956" lon="14.188313978492921"><ele>34.0</ele><time>2026-04-18T06:15:36.999Z</time></trkpt><trkpt lat="42.46670297331406" lon="14.188390352237278"><ele>34.0</ele><time>2026-04-18T06:15:37.999Z</time></trkpt><trkpt lat="42.46659768143203" lon="14.188513553496193"><ele>34.0</ele><time>2026-04-18T06:15:39.999Z</time></trkpt><trkpt lat="42.466539218403994" lon="14.18860770538818"><ele>34.0</ele><time>2026-04-18T06:15:41.999Z</time></trkpt><trkpt lat="42.46648913240123" lon="14.188671230498732"><ele>34.0</ele><time>2026-04-18T06:15:43.999Z</time></trkpt><trkpt lat="42.46640239085088" lon="14.188776434695109"><ele>34.0</ele><time>2026-04-18T06:15:44.999Z</time></trkpt><trkpt lat="42.46633413786975" lon="14.188814551846397"><ele>34.0</ele><time>2026-04-18T06:15:48.055Z</time></trkpt><trkpt lat="42.466298761610865" lon="14.188648317807933"><ele>34.0</ele><time>2026-04-18T06:15:49.027Z</time></trkpt><trkpt lat="42.46695818096123" lon="14.188479528566075"><ele>34.0</ele><time>2026-04-18T06:16:00.662Z</time></trkpt><trkpt lat="42.46634791991911" lon="14.188761342546565"><ele>32.333333333333336</ele><time>2026-04-18T06:16:01.999Z</time></trkpt><trkpt lat="42.466071481163375" lon="14.188995924885537"><ele>30.666666666666664</ele><time>2026-04-18T06:16:11.999Z</time></trkpt><trkpt lat="42.46602707308999" lon="14.189067213269325"><ele>29.0</ele><time>2026-04-18T06:16:13.999Z</time></trkpt><trkpt lat="42.46596945294888" lon="14.189145883325718"><ele>29.0</ele><time>2026-04-18T06:16:16.999Z</time></trkpt><trkpt lat="42.46599644673196" lon="14.188999839471895"><ele>29.0</ele><time>2026-04-18T06:16:19.999Z</time></trkpt><trkpt lat="42.466041306041696" lon="14.188896800766996"><ele>29.0</ele><time>2026-04-18T06:16:20.999Z</time></trkpt><trkpt lat="42.465895957619836" lon="14.188526452949946"><ele>29.0</ele><time>2026-04-18T06:16:21.999Z</time></trkpt><trkpt lat="42.46618437732241" lon="14.188310154034555"><ele>29.0</ele><time>2026-04-18T06:16:23.999Z</time></trkpt><trkpt lat="42.466320939921594" lon="14.18838629449264"><ele>29.0</ele><time>2026-04-18T06:16:28.033Z</time></trkpt><trkpt lat="42.46625419845802" lon="14.188465782769244"><ele>29.0</ele><time>2026-04-18T06:16:32.03Z</time></trkpt><trkpt lat="42.466090635974766" lon="14.188687111823077"><ele>29.0</ele><time>2026-04-18T06:16:33.03Z</time></trkpt><trkpt lat="42.466160842594604" lon="14.188536582177075"><ele>34.0</ele><time>2026-04-18T06:16:34.029Z</time></trkpt><trkpt lat="42.46691610638495" lon="14.188549893639307"><ele>34.0</ele><time>2026-04-18T06:16:53.459Z</time></trkpt><trkpt lat="42.46686381643127" lon="14.188485155493368"><ele>34.0</ele><time>2026-04-18T06:17:01.025Z</time></trkpt><trkpt lat="42.466917092241445" lon="14.188380880256949"><ele>34.0</ele><time>2026-04-18T06:17:11Z</time></trkpt></trkseg></trk></gpx>